<?xml version='1.0' encoding='UTF-8' standalone='yes' ?>
<gpx version="1.1" creator="OsmAnd+" xmlns="http://www.topografix.com/GPX/1/1" xmlns:xsi="http://www.w3.org/2001/XMLSchema-instance" xsi:schemaLocation="http://www.topografix.com/GPX/1/1 http://www.topografix.com/GPX/1/1/gpx.xsd">
  <trk>
    <trkseg>
      <trkpt lat="51.5108203" lon="9.0874977">
        <ele>190.2400016784668</ele>
        <hdop>10.0</hdop>
        <time>2013-07-09T16:05:58Z</time>
        <extensions>
          <speed>3.566342830657959</speed>
        </extensions>
      </trkpt>
      <trkpt lat="51.5105302" lon="9.0875975">
        <ele>192.2400016784668</ele>
        <hdop>5.0</hdop>
        <time>2013-07-09T16:06:04Z</time>
        <extensions>
          <speed>4.383674144744873</speed>
        </extensions>
      </trkpt>
      <trkpt lat="51.5102869" lon="9.0875634">
        <ele>193.2400016784668</ele>
        <hdop>10.0</hdop>
        <time>2013-07-09T16:06:09Z</time>
        <extensions>
          <speed>4.494645595550537</speed>
        </extensions>
      </trkpt>
      <trkpt lat="51.5099833" lon="9.0875889">
        <ele>192.2400016784668</ele>
        <hdop>5.0</hdop>
        <time>2013-07-09T16:06:15Z</time>
        <extensions>
          <speed>4.627920150756836</speed>
        </extensions>
      </trkpt>
      <trkpt lat="51.5097663" lon="9.0876073">
        <ele>191.2400016784668</ele>
        <hdop>5.0</hdop>
        <time>2013-07-09T16:06:20Z</time>
        <extensions>
          <speed>4.7304534912109375</speed>
        </extensions>
      </trkpt>
      <trkpt lat="51.5094512" lon="9.0876392">
        <ele>192.2400016784668</ele>
        <hdop>5.0</hdop>
        <time>2013-07-09T16:06:26Z</time>
        <extensions>
          <speed>5.204511642456055</speed>
        </extensions>
      </trkpt>
      <trkpt lat="51.5091415" lon="9.0876562">
        <ele>190.2400016784668</ele>
        <hdop>5.0</hdop>
        <time>2013-07-09T16:06:31Z</time>
        <extensions>
          <speed>5.794276714324951</speed>
        </extensions>
      </trkpt>
      <trkpt lat="51.5087194" lon="9.0876803">
        <ele>194.2400016784668</ele>
        <hdop>5.0</hdop>
        <time>2013-07-09T16:06:37Z</time>
        <extensions>
          <speed>7.818779468536377</speed>
        </extensions>
      </trkpt>
      <trkpt lat="51.5082396" lon="9.0876709">
        <ele>188.2400016784668</ele>
        <hdop>5.0</hdop>
        <time>2013-07-09T16:06:43Z</time>
        <extensions>
          <speed>8.984743118286133</speed>
        </extensions>
      </trkpt>
      <trkpt lat="51.5077397" lon="9.0874363">
        <ele>190.2400016784668</ele>
        <hdop>5.0</hdop>
        <time>2013-07-09T16:06:49Z</time>
        <extensions>
          <speed>9.071722030639648</speed>
        </extensions>
      </trkpt>
      <trkpt lat="51.5073702" lon="9.0871356">
        <ele>187.2400016784668</ele>
        <hdop>5.0</hdop>
        <time>2013-07-09T16:06:54Z</time>
        <extensions>
          <speed>9.339181900024414</speed>
        </extensions>
      </trkpt>
      <trkpt lat="51.5069691" lon="9.0866169">
        <ele>181.2400016784668</ele>
        <hdop>5.0</hdop>
        <time>2013-07-09T16:07:00Z</time>
        <extensions>
          <speed>9.869244575500488</speed>
        </extensions>
      </trkpt>
      <trkpt lat="51.5066938" lon="9.0860719">
        <ele>179.2400016784668</ele>
        <hdop>5.0</hdop>
        <time>2013-07-09T16:07:05Z</time>
        <extensions>
          <speed>9.48370361328125</speed>
        </extensions>
      </trkpt>
      <trkpt lat="51.5064028" lon="9.0853965">
        <ele>177.2400016784668</ele>
        <hdop>5.0</hdop>
        <time>2013-07-09T16:07:11Z</time>
        <extensions>
          <speed>9.234220504760742</speed>
        </extensions>
      </trkpt>
      <trkpt lat="51.5061695" lon="9.0848246">
        <ele>179.2400016784668</ele>
        <hdop>5.0</hdop>
        <time>2013-07-09T16:07:16Z</time>
        <extensions>
          <speed>9.30893325805664</speed>
        </extensions>
      </trkpt>
      <trkpt lat="51.5059378" lon="9.0842801">
        <ele>176.2400016784668</ele>
        <hdop>5.0</hdop>
        <time>2013-07-09T16:07:21Z</time>
        <extensions>
          <speed>9.040011405944824</speed>
        </extensions>
      </trkpt>
      <trkpt lat="51.5056593" lon="9.0836419">
        <ele>175.2400016784668</ele>
        <hdop>5.0</hdop>
        <time>2013-07-09T16:07:27Z</time>
        <extensions>
          <speed>8.937919616699219</speed>
        </extensions>
      </trkpt>
      <trkpt lat="51.5054162" lon="9.0831098">
        <ele>172.2400016784668</ele>
        <hdop>5.0</hdop>
        <time>2013-07-09T16:07:32Z</time>
        <extensions>
          <speed>9.137123107910156</speed>
        </extensions>
      </trkpt>
      <trkpt lat="51.5050687" lon="9.0824497">
        <ele>172.2400016784668</ele>
        <hdop>5.0</hdop>
        <time>2013-07-09T16:07:38Z</time>
        <extensions>
          <speed>9.715448379516602</speed>
        </extensions>
      </trkpt>
      <trkpt lat="51.5047386" lon="9.0819574">
        <ele>167.2400016784668</ele>
        <hdop>5.0</hdop>
        <time>2013-07-09T16:07:43Z</time>
        <extensions>
          <speed>9.93746566772461</speed>
        </extensions>
      </trkpt>
      <trkpt lat="51.5043105" lon="9.0813844">
        <ele>176.2400016784668</ele>
        <hdop>5.0</hdop>
        <time>2013-07-09T16:07:49Z</time>
        <extensions>
          <speed>9.746451377868652</speed>
        </extensions>
      </trkpt>
      <trkpt lat="51.5038708" lon="9.0809242">
        <ele>178.2400016784668</ele>
        <hdop>5.0</hdop>
        <time>2013-07-09T16:07:55Z</time>
        <extensions>
          <speed>9.243829727172852</speed>
        </extensions>
      </trkpt>
      <trkpt lat="51.5034121" lon="9.0805358">
        <ele>176.2400016784668</ele>
        <hdop>5.0</hdop>
        <time>2013-07-09T16:08:01Z</time>
        <extensions>
          <speed>9.104155540466309</speed>
        </extensions>
      </trkpt>
      <trkpt lat="51.503077" lon="9.080319">
        <ele>170.2400016784668</ele>
        <hdop>10.0</hdop>
        <time>2013-07-09T16:08:06Z</time>
        <extensions>
          <speed>6.061356544494629</speed>
        </extensions>
      </trkpt>
      <trkpt lat="51.5026682" lon="9.0801392">
        <ele>173.2400016784668</ele>
        <hdop>10.0</hdop>
        <time>2013-07-09T16:08:12Z</time>
        <extensions>
          <speed>6.131044387817383</speed>
        </extensions>
      </trkpt>
      <trkpt lat="51.5022272" lon="9.079893">
        <ele>176.2400016784668</ele>
        <hdop>5.0</hdop>
        <time>2013-07-09T16:08:18Z</time>
        <extensions>
          <speed>7.657677173614502</speed>
        </extensions>
      </trkpt>
      <trkpt lat="51.501725" lon="9.0796436">
        <ele>177.2400016784668</ele>
        <hdop>5.0</hdop>
        <time>2013-07-09T16:08:24Z</time>
        <extensions>
          <speed>9.287553787231445</speed>
        </extensions>
      </trkpt>
      <trkpt lat="51.5013264" lon="9.0794186">
        <ele>173.2400016784668</ele>
        <hdop>5.0</hdop>
        <time>2013-07-09T16:08:29Z</time>
        <extensions>
          <speed>9.372063636779785</speed>
        </extensions>
      </trkpt>
      <trkpt lat="51.5008628" lon="9.0791748">
        <ele>173.2400016784668</ele>
        <hdop>5.0</hdop>
        <time>2013-07-09T16:08:35Z</time>
        <extensions>
          <speed>9.000046730041504</speed>
        </extensions>
      </trkpt>
      <trkpt lat="51.5004728" lon="9.0789808">
        <ele>173.2400016784668</ele>
        <hdop>5.0</hdop>
        <time>2013-07-09T16:08:40Z</time>
        <extensions>
          <speed>9.057690620422363</speed>
        </extensions>
      </trkpt>
      <trkpt lat="51.5000056" lon="9.0787372">
        <ele>175.2400016784668</ele>
        <hdop>5.0</hdop>
        <time>2013-07-09T16:08:46Z</time>
        <extensions>
          <speed>8.850971221923828</speed>
        </extensions>
      </trkpt>
      <trkpt lat="51.4996467" lon="9.0785618">
        <ele>173.3400001525879</ele>
        <hdop>5.0</hdop>
        <time>2013-07-09T16:08:51Z</time>
        <extensions>
          <speed>8.453329086303711</speed>
        </extensions>
      </trkpt>
      <trkpt lat="51.4992041" lon="9.0783303">
        <ele>174.3400001525879</ele>
        <hdop>5.0</hdop>
        <time>2013-07-09T16:08:57Z</time>
        <extensions>
          <speed>8.66396427154541</speed>
        </extensions>
      </trkpt>
      <trkpt lat="51.4988291" lon="9.0781426">
        <ele>174.3400001525879</ele>
        <hdop>5.0</hdop>
        <time>2013-07-09T16:09:02Z</time>
        <extensions>
          <speed>8.634873390197754</speed>
        </extensions>
      </trkpt>
      <trkpt lat="51.4983795" lon="9.0779202">
        <ele>177.3400001525879</ele>
        <hdop>5.0</hdop>
        <time>2013-07-09T16:09:08Z</time>
        <extensions>
          <speed>8.582198143005371</speed>
        </extensions>
      </trkpt>
      <trkpt lat="51.4979569" lon="9.0777042">
        <ele>177.3400001525879</ele>
        <hdop>5.0</hdop>
        <time>2013-07-09T16:09:14Z</time>
        <extensions>
          <speed>7.4479522705078125</speed>
        </extensions>
      </trkpt>
      <trkpt lat="51.4975959" lon="9.077528">
        <ele>179.3400001525879</ele>
        <hdop>5.0</hdop>
        <time>2013-07-09T16:09:20Z</time>
        <extensions>
          <speed>6.560810565948486</speed>
        </extensions>
      </trkpt>
      <trkpt lat="51.4972797" lon="9.0773883">
        <ele>181.3400001525879</ele>
        <hdop>5.0</hdop>
        <time>2013-07-09T16:09:26Z</time>
        <extensions>
          <speed>6.073177337646484</speed>
        </extensions>
      </trkpt>
      <trkpt lat="51.4970062" lon="9.0772603">
        <ele>182.3400001525879</ele>
        <hdop>5.0</hdop>
        <time>2013-07-09T16:09:31Z</time>
        <extensions>
          <speed>6.0883259773254395</speed>
        </extensions>
      </trkpt>
      <trkpt lat="51.4966911" lon="9.0771077">
        <ele>183.3400001525879</ele>
        <hdop>5.0</hdop>
        <time>2013-07-09T16:09:37Z</time>
        <extensions>
          <speed>6.360584259033203</speed>
        </extensions>
      </trkpt>
      <trkpt lat="51.4963618" lon="9.0769466">
        <ele>182.3400001525879</ele>
        <hdop>5.0</hdop>
        <time>2013-07-09T16:09:43Z</time>
        <extensions>
          <speed>6.1043901443481445</speed>
        </extensions>
      </trkpt>
      <trkpt lat="51.4960169" lon="9.0767736">
        <ele>190.3400001525879</ele>
        <hdop>5.0</hdop>
        <time>2013-07-09T16:09:49Z</time>
        <extensions>
          <speed>6.59736442565918</speed>
        </extensions>
      </trkpt>
      <trkpt lat="51.4956506" lon="9.0766029">
        <ele>182.3400001525879</ele>
        <hdop>5.0</hdop>
        <time>2013-07-09T16:09:55Z</time>
        <extensions>
          <speed>6.733578681945801</speed>
        </extensions>
      </trkpt>
      <trkpt lat="51.4953153" lon="9.0764183">
        <ele>187.3400001525879</ele>
        <hdop>5.0</hdop>
        <time>2013-07-09T16:10:01Z</time>
        <extensions>
          <speed>6.464974403381348</speed>
        </extensions>
      </trkpt>
      <trkpt lat="51.495012" lon="9.0762681">
        <ele>193.3400001525879</ele>
        <hdop>5.0</hdop>
        <time>2013-07-09T16:10:06Z</time>
        <extensions>
          <speed>6.482057571411133</speed>
        </extensions>
      </trkpt>
      <trkpt lat="51.4946505" lon="9.0761046">
        <ele>186.3400001525879</ele>
        <hdop>5.0</hdop>
        <time>2013-07-09T16:10:12Z</time>
        <extensions>
          <speed>6.954449653625488</speed>
        </extensions>
      </trkpt>
      <trkpt lat="51.4942711" lon="9.075925">
        <ele>184.3400001525879</ele>
        <hdop>5.0</hdop>
        <time>2013-07-09T16:10:18Z</time>
        <extensions>
          <speed>7.240531921386719</speed>
        </extensions>
      </trkpt>
      <trkpt lat="51.4939364" lon="9.0758634">
        <ele>189.3400001525879</ele>
        <hdop>5.0</hdop>
        <time>2013-07-09T16:10:23Z</time>
        <extensions>
          <speed>7.319368362426758</speed>
        </extensions>
      </trkpt>
      <trkpt lat="51.4936295" lon="9.0759723">
        <ele>191.3400001525879</ele>
        <hdop>5.0</hdop>
        <time>2013-07-09T16:10:28Z</time>
        <extensions>
          <speed>6.204031944274902</speed>
        </extensions>
      </trkpt>
      <trkpt lat="51.4932853" lon="9.0760807">
        <ele>191.3400001525879</ele>
        <hdop>5.0</hdop>
        <time>2013-07-09T16:10:34Z</time>
        <extensions>
          <speed>7.666637897491455</speed>
        </extensions>
      </trkpt>
      <trkpt lat="51.4929187" lon="9.0761801">
        <ele>195.3400001525879</ele>
        <hdop>5.0</hdop>
        <time>2013-07-09T16:10:40Z</time>
        <extensions>
          <speed>6.15053129196167</speed>
        </extensions>
      </trkpt>
      <trkpt lat="51.4926056" lon="9.0762709">
        <ele>195.3400001525879</ele>
        <hdop>5.0</hdop>
        <time>2013-07-09T16:10:46Z</time>
        <extensions>
          <speed>5.116057872772217</speed>
        </extensions>
      </trkpt>
      <trkpt lat="51.4922883" lon="9.0763721">
        <ele>201.3400001525879</ele>
        <hdop>5.0</hdop>
        <time>2013-07-09T16:10:52Z</time>
        <extensions>
          <speed>5.82687520980835</speed>
        </extensions>
      </trkpt>
      <trkpt lat="51.4920236" lon="9.0764781">
        <ele>204.3400001525879</ele>
        <hdop>5.0</hdop>
        <time>2013-07-09T16:10:57Z</time>
        <extensions>
          <speed>5.274219036102295</speed>
        </extensions>
      </trkpt>
      <trkpt lat="51.4917055" lon="9.0765683">
        <ele>201.3400001525879</ele>
        <hdop>5.0</hdop>
        <time>2013-07-09T16:11:03Z</time>
        <extensions>
          <speed>3.669768810272217</speed>
        </extensions>
      </trkpt>
      <trkpt lat="51.4913449" lon="9.0766248">
        <ele>204.3400001525879</ele>
        <hdop>10.0</hdop>
        <time>2013-07-09T16:11:09Z</time>
        <extensions>
          <speed>5.903897285461426</speed>
        </extensions>
      </trkpt>
      <trkpt lat="51.491072" lon="9.0765521">
        <ele>201.3400001525879</ele>
        <hdop>5.0</hdop>
        <time>2013-07-09T16:11:14Z</time>
        <extensions>
          <speed>4.875593662261963</speed>
        </extensions>
      </trkpt>
      <trkpt lat="51.4909804" lon="9.0763176">
        <ele>205.3400001525879</ele>
        <hdop>5.0</hdop>
        <time>2013-07-09T16:11:19Z</time>
        <extensions>
          <speed>5.20338249206543</speed>
        </extensions>
      </trkpt>
      <trkpt lat="51.491055" lon="9.075797">
        <ele>202.3400001525879</ele>
        <hdop>5.0</hdop>
        <time>2013-07-09T16:11:25Z</time>
        <extensions>
          <speed>5.4527130126953125</speed>
        </extensions>
      </trkpt>
      <trkpt lat="51.4910295" lon="9.0753834">
        <ele>207.3400001525879</ele>
        <hdop>5.0</hdop>
        <time>2013-07-09T16:11:30Z</time>
        <extensions>
          <speed>5.408045291900635</speed>
        </extensions>
      </trkpt>
      <trkpt lat="51.4908922" lon="9.0750478">
        <ele>205.3400001525879</ele>
        <hdop>5.0</hdop>
        <time>2013-07-09T16:11:35Z</time>
        <extensions>
          <speed>5.507635116577148</speed>
        </extensions>
      </trkpt>
      <trkpt lat="51.4906333" lon="9.0749225">
        <ele>202.3400001525879</ele>
        <hdop>10.0</hdop>
        <time>2013-07-09T16:11:40Z</time>
        <extensions>
          <speed>5.590437889099121</speed>
        </extensions>
      </trkpt>
      <trkpt lat="51.4902713" lon="9.0749813">
        <ele>204.3400001525879</ele>
        <hdop>10.0</hdop>
        <time>2013-07-09T16:11:46Z</time>
        <extensions>
          <speed>6.101990222930908</speed>
        </extensions>
      </trkpt>
      <trkpt lat="51.4899977" lon="9.0746777">
        <ele>206.3400001525879</ele>
        <hdop>5.0</hdop>
        <time>2013-07-09T16:11:51Z</time>
        <extensions>
          <speed>7.048461437225342</speed>
        </extensions>
      </trkpt>
      <trkpt lat="51.4898947" lon="9.0740764">
        <ele>207.3400001525879</ele>
        <hdop>5.0</hdop>
        <time>2013-07-09T16:11:57Z</time>
        <extensions>
          <speed>6.8381733894348145</speed>
        </extensions>
      </trkpt>
      <trkpt lat="51.4898982" lon="9.0734831">
        <ele>205.3400001525879</ele>
        <hdop>5.0</hdop>
        <time>2013-07-09T16:12:03Z</time>
        <extensions>
          <speed>7.032369136810303</speed>
        </extensions>
      </trkpt>
      <trkpt lat="51.4898976" lon="9.0729538">
        <ele>204.3400001525879</ele>
        <hdop>5.0</hdop>
        <time>2013-07-09T16:12:08Z</time>
        <extensions>
          <speed>6.8807501792907715</speed>
        </extensions>
      </trkpt>
      <trkpt lat="51.4898774" lon="9.0723057">
        <ele>205.3400001525879</ele>
        <hdop>5.0</hdop>
        <time>2013-07-09T16:12:14Z</time>
        <extensions>
          <speed>7.462893486022949</speed>
        </extensions>
      </trkpt>
      <trkpt lat="51.4898385" lon="9.0716771">
        <ele>207.3400001525879</ele>
        <hdop>5.0</hdop>
        <time>2013-07-09T16:12:20Z</time>
        <extensions>
          <speed>7.666507720947266</speed>
        </extensions>
      </trkpt>
      <trkpt lat="51.4897869" lon="9.0710224">
        <ele>207.3400001525879</ele>
        <hdop>5.0</hdop>
        <time>2013-07-09T16:12:26Z</time>
        <extensions>
          <speed>7.44494104385376</speed>
        </extensions>
      </trkpt>
      <trkpt lat="51.4897254" lon="9.0703971">
        <ele>207.3400001525879</ele>
        <hdop>5.0</hdop>
        <time>2013-07-09T16:12:32Z</time>
        <extensions>
          <speed>7.290024280548096</speed>
        </extensions>
      </trkpt>
      <trkpt lat="51.4896721" lon="9.0698579">
        <ele>208.3400001525879</ele>
        <hdop>5.0</hdop>
        <time>2013-07-09T16:12:37Z</time>
        <extensions>
          <speed>7.293029308319092</speed>
        </extensions>
      </trkpt>
      <trkpt lat="51.4896015" lon="9.0692574">
        <ele>211.3400001525879</ele>
        <hdop>5.0</hdop>
        <time>2013-07-09T16:12:43Z</time>
        <extensions>
          <speed>7.22135066986084</speed>
        </extensions>
      </trkpt>
      <trkpt lat="51.4895095" lon="9.0686487">
        <ele>210.3400001525879</ele>
        <hdop>5.0</hdop>
        <time>2013-07-09T16:12:49Z</time>
        <extensions>
          <speed>7.035188674926758</speed>
        </extensions>
      </trkpt>
      <trkpt lat="51.4894093" lon="9.0680366">
        <ele>212.3400001525879</ele>
        <hdop>5.0</hdop>
        <time>2013-07-09T16:12:55Z</time>
        <extensions>
          <speed>7.116971492767334</speed>
        </extensions>
      </trkpt>
      <trkpt lat="51.4893074" lon="9.0674488">
        <ele>215.3400001525879</ele>
        <hdop>5.0</hdop>
        <time>2013-07-09T16:13:01Z</time>
        <extensions>
          <speed>7.188436508178711</speed>
        </extensions>
      </trkpt>
      <trkpt lat="51.4892121" lon="9.0669783">
        <ele>213.3400001525879</ele>
        <hdop>5.0</hdop>
        <time>2013-07-09T16:13:06Z</time>
        <extensions>
          <speed>6.753481388092041</speed>
        </extensions>
      </trkpt>
      <trkpt lat="51.4890896" lon="9.0664014">
        <ele>213.3400001525879</ele>
        <hdop>5.0</hdop>
        <time>2013-07-09T16:13:12Z</time>
        <extensions>
          <speed>6.905768394470215</speed>
        </extensions>
      </trkpt>
      <trkpt lat="51.4889688" lon="9.0658269">
        <ele>215.3400001525879</ele>
        <hdop>5.0</hdop>
        <time>2013-07-09T16:13:18Z</time>
        <extensions>
          <speed>7.012362957000732</speed>
        </extensions>
      </trkpt>
      <trkpt lat="51.4888648" lon="9.0653389">
        <ele>216.3400001525879</ele>
        <hdop>5.0</hdop>
        <time>2013-07-09T16:13:23Z</time>
        <extensions>
          <speed>7.026634693145752</speed>
        </extensions>
      </trkpt>
      <trkpt lat="51.4887436" lon="9.0647554">
        <ele>218.3400001525879</ele>
        <hdop>5.0</hdop>
        <time>2013-07-09T16:13:29Z</time>
        <extensions>
          <speed>7.013676643371582</speed>
        </extensions>
      </trkpt>
      <trkpt lat="51.4886506" lon="9.0642812">
        <ele>216.3400001525879</ele>
        <hdop>5.0</hdop>
        <time>2013-07-09T16:13:34Z</time>
        <extensions>
          <speed>7.05466365814209</speed>
        </extensions>
      </trkpt>
      <trkpt lat="51.4885513" lon="9.0638035">
        <ele>217.3400001525879</ele>
        <hdop>5.0</hdop>
        <time>2013-07-09T16:13:39Z</time>
        <extensions>
          <speed>7.075204372406006</speed>
        </extensions>
      </trkpt>
      <trkpt lat="51.488452" lon="9.0632114">
        <ele>219.3400001525879</ele>
        <hdop>5.0</hdop>
        <time>2013-07-09T16:13:45Z</time>
        <extensions>
          <speed>7.002588748931885</speed>
        </extensions>
      </trkpt>
      <trkpt lat="51.4883652" lon="9.0627202">
        <ele>220.3400001525879</ele>
        <hdop>5.0</hdop>
        <time>2013-07-09T16:13:50Z</time>
        <extensions>
          <speed>7.10035514831543</speed>
        </extensions>
      </trkpt>
      <trkpt lat="51.4882624" lon="9.0621371">
        <ele>221.3400001525879</ele>
        <hdop>5.0</hdop>
        <time>2013-07-09T16:13:56Z</time>
        <extensions>
          <speed>6.762460231781006</speed>
        </extensions>
      </trkpt>
      <trkpt lat="51.4881925" lon="9.0616593">
        <ele>223.3400001525879</ele>
        <hdop>5.0</hdop>
        <time>2013-07-09T16:14:01Z</time>
        <extensions>
          <speed>6.861077785491943</speed>
        </extensions>
      </trkpt>
      <trkpt lat="51.4881178" lon="9.0611753">
        <ele>224.3400001525879</ele>
        <hdop>5.0</hdop>
        <time>2013-07-09T16:14:06Z</time>
        <extensions>
          <speed>6.797438144683838</speed>
        </extensions>
      </trkpt>
      <trkpt lat="51.488044" lon="9.060614">
        <ele>224.3400001525879</ele>
        <hdop>5.0</hdop>
        <time>2013-07-09T16:14:12Z</time>
        <extensions>
          <speed>6.623385906219482</speed>
        </extensions>
      </trkpt>
      <trkpt lat="51.487983" lon="9.060127">
        <ele>226.3400001525879</ele>
        <hdop>5.0</hdop>
        <time>2013-07-09T16:14:17Z</time>
        <extensions>
          <speed>6.586521625518799</speed>
        </extensions>
      </trkpt>
      <trkpt lat="51.4879119" lon="9.0595648">
        <ele>228.3400001525879</ele>
        <hdop>5.0</hdop>
        <time>2013-07-09T16:14:23Z</time>
        <extensions>
          <speed>6.578234672546387</speed>
        </extensions>
      </trkpt>
      <trkpt lat="51.4878466" lon="9.0589825">
        <ele>229.3400001525879</ele>
        <hdop>5.0</hdop>
        <time>2013-07-09T16:14:29Z</time>
        <extensions>
          <speed>6.525118827819824</speed>
        </extensions>
      </trkpt>
      <trkpt lat="51.4877797" lon="9.0584342">
        <ele>230.3400001525879</ele>
        <hdop>5.0</hdop>
        <time>2013-07-09T16:14:35Z</time>
        <extensions>
          <speed>6.387751579284668</speed>
        </extensions>
      </trkpt>
      <trkpt lat="51.4877215" lon="9.0578663">
        <ele>231.3400001525879</ele>
        <hdop>5.0</hdop>
        <time>2013-07-09T16:14:41Z</time>
        <extensions>
          <speed>6.5679030418396</speed>
        </extensions>
      </trkpt>
      <trkpt lat="51.4876668" lon="9.0572839">
        <ele>234.3400001525879</ele>
        <hdop>5.0</hdop>
        <time>2013-07-09T16:14:47Z</time>
        <extensions>
          <speed>6.526618957519531</speed>
        </extensions>
      </trkpt>
      <trkpt lat="51.4876197" lon="9.0567255">
        <ele>232.3400001525879</ele>
        <hdop>5.0</hdop>
        <time>2013-07-09T16:14:53Z</time>
        <extensions>
          <speed>6.648586750030518</speed>
        </extensions>
      </trkpt>
      <trkpt lat="51.4875698" lon="9.0561664">
        <ele>231.3400001525879</ele>
        <hdop>5.0</hdop>
        <time>2013-07-09T16:14:59Z</time>
        <extensions>
          <speed>6.53779411315918</speed>
        </extensions>
      </trkpt>
      <trkpt lat="51.4875259" lon="9.0557002">
        <ele>235.3400001525879</ele>
        <hdop>5.0</hdop>
        <time>2013-07-09T16:15:04Z</time>
        <extensions>
          <speed>6.8237152099609375</speed>
        </extensions>
      </trkpt>
      <trkpt lat="51.4874649" lon="9.055216">
        <ele>236.3400001525879</ele>
        <hdop>5.0</hdop>
        <time>2013-07-09T16:15:09Z</time>
        <extensions>
          <speed>6.912353515625</speed>
        </extensions>
      </trkpt>
      <trkpt lat="51.4873786" lon="9.0547406">
        <ele>238.3400001525879</ele>
        <hdop>5.0</hdop>
        <time>2013-07-09T16:15:14Z</time>
        <extensions>
          <speed>6.906582832336426</speed>
        </extensions>
      </trkpt>
      <trkpt lat="51.4872475" lon="9.0541862">
        <ele>237.3400001525879</ele>
        <hdop>5.0</hdop>
        <time>2013-07-09T16:15:20Z</time>
        <extensions>
          <speed>6.873086452484131</speed>
        </extensions>
      </trkpt>
      <trkpt lat="51.4871076" lon="9.0537366">
        <ele>234.3400001525879</ele>
        <hdop>5.0</hdop>
        <time>2013-07-09T16:15:25Z</time>
        <extensions>
          <speed>7.053290843963623</speed>
        </extensions>
      </trkpt>
      <trkpt lat="51.4869545" lon="9.0532936">
        <ele>234.3400001525879</ele>
        <hdop>5.0</hdop>
        <time>2013-07-09T16:15:30Z</time>
        <extensions>
          <speed>7.164787769317627</speed>
        </extensions>
      </trkpt>
      <trkpt lat="51.4867247" lon="9.052795">
        <ele>235.3400001525879</ele>
        <hdop>5.0</hdop>
        <time>2013-07-09T16:15:36Z</time>
        <extensions>
          <speed>7.18475866317749</speed>
        </extensions>
      </trkpt>
      <trkpt lat="51.486474" lon="9.0523029">
        <ele>238.3400001525879</ele>
        <hdop>5.0</hdop>
        <time>2013-07-09T16:15:42Z</time>
        <extensions>
          <speed>6.974687576293945</speed>
        </extensions>
      </trkpt>
      <trkpt lat="51.4862595" lon="9.0519583">
        <ele>241.3400001525879</ele>
        <hdop>5.0</hdop>
        <time>2013-07-09T16:15:47Z</time>
        <extensions>
          <speed>6.508727073669434</speed>
        </extensions>
      </trkpt>
      <trkpt lat="51.4859958" lon="9.0515507">
        <ele>243.3400001525879</ele>
        <hdop>5.0</hdop>
        <time>2013-07-09T16:15:53Z</time>
        <extensions>
          <speed>6.632925510406494</speed>
        </extensions>
      </trkpt>
      <trkpt lat="51.4857448" lon="9.0511668">
        <ele>243.3400001525879</ele>
        <hdop>5.0</hdop>
        <time>2013-07-09T16:15:59Z</time>
        <extensions>
          <speed>6.315162658691406</speed>
        </extensions>
      </trkpt>
      <trkpt lat="51.4855108" lon="9.0507931">
        <ele>243.3400001525879</ele>
        <hdop>5.0</hdop>
        <time>2013-07-09T16:16:05Z</time>
        <extensions>
          <speed>6.189894676208496</speed>
        </extensions>
      </trkpt>
      <trkpt lat="51.4853296" lon="9.0504817">
        <ele>246.3400001525879</ele>
        <hdop>5.0</hdop>
        <time>2013-07-09T16:16:10Z</time>
        <extensions>
          <speed>5.829534530639648</speed>
        </extensions>
      </trkpt>
      <trkpt lat="51.4851382" lon="9.0500866">
        <ele>246.3400001525879</ele>
        <hdop>5.0</hdop>
        <time>2013-07-09T16:16:16Z</time>
        <extensions>
          <speed>5.712780952453613</speed>
        </extensions>
      </trkpt>
      <trkpt lat="51.4849542" lon="9.0496596">
        <ele>250.3400001525879</ele>
        <hdop>5.0</hdop>
        <time>2013-07-09T16:16:22Z</time>
        <extensions>
          <speed>5.914968490600586</speed>
        </extensions>
      </trkpt>
      <trkpt lat="51.484814" lon="9.0492943">
        <ele>249.3400001525879</ele>
        <hdop>5.0</hdop>
        <time>2013-07-09T16:16:27Z</time>
        <extensions>
          <speed>5.645339488983154</speed>
        </extensions>
      </trkpt>
      <trkpt lat="51.4847049" lon="9.0489352">
        <ele>251.3400001525879</ele>
        <hdop>5.0</hdop>
        <time>2013-07-09T16:16:32Z</time>
        <extensions>
          <speed>5.484412670135498</speed>
        </extensions>
      </trkpt>
      <trkpt lat="51.4846081" lon="9.0485843">
        <ele>252.3400001525879</ele>
        <hdop>5.0</hdop>
        <time>2013-07-09T16:16:37Z</time>
        <extensions>
          <speed>5.136873722076416</speed>
        </extensions>
      </trkpt>
      <trkpt lat="51.4845293" lon="9.0482316">
        <ele>255.3400001525879</ele>
        <hdop>5.0</hdop>
        <time>2013-07-09T16:16:42Z</time>
        <extensions>
          <speed>5.042470455169678</speed>
        </extensions>
      </trkpt>
      <trkpt lat="51.484441" lon="9.0478184">
        <ele>255.3400001525879</ele>
        <hdop>5.0</hdop>
        <time>2013-07-09T16:16:48Z</time>
        <extensions>
          <speed>4.879691123962402</speed>
        </extensions>
      </trkpt>
      <trkpt lat="51.4843677" lon="9.047403">
        <ele>257.3400001525879</ele>
        <hdop>5.0</hdop>
        <time>2013-07-09T16:16:54Z</time>
        <extensions>
          <speed>4.929893493652344</speed>
        </extensions>
      </trkpt>
      <trkpt lat="51.4842882" lon="9.0469988">
        <ele>259.3400001525879</ele>
        <hdop>5.0</hdop>
        <time>2013-07-09T16:17:00Z</time>
        <extensions>
          <speed>4.9758710861206055</speed>
        </extensions>
      </trkpt>
      <trkpt lat="51.4842151" lon="9.0465779">
        <ele>260.3400001525879</ele>
        <hdop>5.0</hdop>
        <time>2013-07-09T16:17:06Z</time>
        <extensions>
          <speed>5.026623249053955</speed>
        </extensions>
      </trkpt>
      <trkpt lat="51.4841519" lon="9.0462277">
        <ele>261.3400001525879</ele>
        <hdop>5.0</hdop>
        <time>2013-07-09T16:17:11Z</time>
        <extensions>
          <speed>4.891604900360107</speed>
        </extensions>
      </trkpt>
      <trkpt lat="51.4840743" lon="9.0458013">
        <ele>261.3400001525879</ele>
        <hdop>5.0</hdop>
        <time>2013-07-09T16:17:17Z</time>
        <extensions>
          <speed>5.071762561798096</speed>
        </extensions>
      </trkpt>
      <trkpt lat="51.4839955" lon="9.0454275">
        <ele>261.3400001525879</ele>
        <hdop>5.0</hdop>
        <time>2013-07-09T16:17:22Z</time>
        <extensions>
          <speed>5.225737571716309</speed>
        </extensions>
      </trkpt>
      <trkpt lat="51.4839344" lon="9.0450892">
        <ele>262.3400001525879</ele>
        <hdop>5.0</hdop>
        <time>2013-07-09T16:17:27Z</time>
        <extensions>
          <speed>5.1398186683654785</speed>
        </extensions>
      </trkpt>
      <trkpt lat="51.4838535" lon="9.0446243">
        <ele>262.3400001525879</ele>
        <hdop>5.0</hdop>
        <time>2013-07-09T16:17:33Z</time>
        <extensions>
          <speed>5.379415035247803</speed>
        </extensions>
      </trkpt>
      <trkpt lat="51.4837971" lon="9.0442684">
        <ele>264.3400001525879</ele>
        <hdop>5.0</hdop>
        <time>2013-07-09T16:17:38Z</time>
        <extensions>
          <speed>5.260505199432373</speed>
        </extensions>
      </trkpt>
      <trkpt lat="51.4837228" lon="9.0438924">
        <ele>267.3400001525879</ele>
        <hdop>5.0</hdop>
        <time>2013-07-09T16:17:43Z</time>
        <extensions>
          <speed>5.070113658905029</speed>
        </extensions>
      </trkpt>
      <trkpt lat="51.4836372" lon="9.0434853">
        <ele>270.3400001525879</ele>
        <hdop>5.0</hdop>
        <time>2013-07-09T16:17:49Z</time>
        <extensions>
          <speed>5.14079475402832</speed>
        </extensions>
      </trkpt>
      <trkpt lat="51.4835461" lon="9.0430426">
        <ele>268.3400001525879</ele>
        <hdop>5.0</hdop>
        <time>2013-07-09T16:17:55Z</time>
        <extensions>
          <speed>5.218657493591309</speed>
        </extensions>
      </trkpt>
      <trkpt lat="51.4834268" lon="9.0426303">
        <ele>271.3400001525879</ele>
        <hdop>5.0</hdop>
        <time>2013-07-09T16:18:01Z</time>
        <extensions>
          <speed>5.180985927581787</speed>
        </extensions>
      </trkpt>
      <trkpt lat="51.4833113" lon="9.0422983">
        <ele>273.3400001525879</ele>
        <hdop>5.0</hdop>
        <time>2013-07-09T16:18:06Z</time>
        <extensions>
          <speed>5.230254650115967</speed>
        </extensions>
      </trkpt>
      <trkpt lat="51.4831568" lon="9.0418928">
        <ele>270.3400001525879</ele>
        <hdop>5.0</hdop>
        <time>2013-07-09T16:18:12Z</time>
        <extensions>
          <speed>5.452993869781494</speed>
        </extensions>
      </trkpt>
      <trkpt lat="51.4829836" lon="9.0415008">
        <ele>271.3400001525879</ele>
        <hdop>5.0</hdop>
        <time>2013-07-09T16:18:18Z</time>
        <extensions>
          <speed>5.363827228546143</speed>
        </extensions>
      </trkpt>
      <trkpt lat="51.4828405" lon="9.0411706">
        <ele>273.3400001525879</ele>
        <hdop>5.0</hdop>
        <time>2013-07-09T16:18:23Z</time>
        <extensions>
          <speed>5.5808539390563965</speed>
        </extensions>
      </trkpt>
      <trkpt lat="51.4826999" lon="9.0408368">
        <ele>276.3400001525879</ele>
        <hdop>5.0</hdop>
        <time>2013-07-09T16:18:28Z</time>
        <extensions>
          <speed>5.480899810791016</speed>
        </extensions>
      </trkpt>
      <trkpt lat="51.4825395" lon="9.04046">
        <ele>278.3400001525879</ele>
        <hdop>5.0</hdop>
        <time>2013-07-09T16:18:34Z</time>
        <extensions>
          <speed>4.943892955780029</speed>
        </extensions>
      </trkpt>
      <trkpt lat="51.4824099" lon="9.0401533">
        <ele>278.3400001525879</ele>
        <hdop>5.0</hdop>
        <time>2013-07-09T16:18:39Z</time>
        <extensions>
          <speed>5.1172871589660645</speed>
        </extensions>
      </trkpt>
      <trkpt lat="51.4822873" lon="9.0398639">
        <ele>277.3400001525879</ele>
        <hdop>5.0</hdop>
        <time>2013-07-09T16:18:44Z</time>
        <extensions>
          <speed>4.68122673034668</speed>
        </extensions>
      </trkpt>
      <trkpt lat="51.4821341" lon="9.0394978">
        <ele>281.3400001525879</ele>
        <hdop>5.0</hdop>
        <time>2013-07-09T16:18:50Z</time>
        <extensions>
          <speed>4.897549152374268</speed>
        </extensions>
      </trkpt>
      <trkpt lat="51.4820188" lon="9.0392034">
        <ele>279.3400001525879</ele>
        <hdop>5.0</hdop>
        <time>2013-07-09T16:18:55Z</time>
        <extensions>
          <speed>4.861657619476318</speed>
        </extensions>
      </trkpt>
      <trkpt lat="51.4819066" lon="9.0389139">
        <ele>278.3400001525879</ele>
        <hdop>5.0</hdop>
        <time>2013-07-09T16:19:00Z</time>
        <extensions>
          <speed>4.793882369995117</speed>
        </extensions>
      </trkpt>
      <trkpt lat="51.4817935" lon="9.038548">
        <ele>281.3400001525879</ele>
        <hdop>5.0</hdop>
        <time>2013-07-09T16:19:06Z</time>
        <extensions>
          <speed>4.756565570831299</speed>
        </extensions>
      </trkpt>
      <trkpt lat="51.4816999" lon="9.0382373">
        <ele>281.3400001525879</ele>
        <hdop>5.0</hdop>
        <time>2013-07-09T16:19:11Z</time>
        <extensions>
          <speed>4.733145236968994</speed>
        </extensions>
      </trkpt>
      <trkpt lat="51.4816092" lon="9.0379038">
        <ele>281.3400001525879</ele>
        <hdop>5.0</hdop>
        <time>2013-07-09T16:19:16Z</time>
        <extensions>
          <speed>5.057404041290283</speed>
        </extensions>
      </trkpt>
      <trkpt lat="51.4815047" lon="9.0374352">
        <ele>282.3400001525879</ele>
        <hdop>5.0</hdop>
        <time>2013-07-09T16:19:22Z</time>
        <extensions>
          <speed>5.563199520111084</speed>
        </extensions>
      </trkpt>
      <trkpt lat="51.4814049" lon="9.0369547">
        <ele>285.3400001525879</ele>
        <hdop>5.0</hdop>
        <time>2013-07-09T16:19:28Z</time>
        <extensions>
          <speed>6.218326568603516</speed>
        </extensions>
      </trkpt>
      <trkpt lat="51.4813062" lon="9.0364948">
        <ele>283.3400001525879</ele>
        <hdop>5.0</hdop>
        <time>2013-07-09T16:19:33Z</time>
        <extensions>
          <speed>6.922131538391113</speed>
        </extensions>
      </trkpt>
      <trkpt lat="51.4811719" lon="9.035947">
        <ele>278.3400001525879</ele>
        <hdop>5.0</hdop>
        <time>2013-07-09T16:19:38Z</time>
        <extensions>
          <speed>8.508893013000488</speed>
        </extensions>
      </trkpt>
      <trkpt lat="51.4809746" lon="9.0353762">
        <ele>273.3400001525879</ele>
        <hdop>5.0</hdop>
        <time>2013-07-09T16:19:43Z</time>
        <extensions>
          <speed>9.855611801147461</speed>
        </extensions>
      </trkpt>
      <trkpt lat="51.4806641" lon="9.0345572">
        <ele>269.3400001525879</ele>
        <hdop>5.0</hdop>
        <time>2013-07-09T16:19:49Z</time>
        <extensions>
          <speed>12.226020812988281</speed>
        </extensions>
      </trkpt>
      <trkpt lat="51.4804116" lon="9.0334941">
        <ele>262.3400001525879</ele>
        <hdop>5.0</hdop>
        <time>2013-07-09T16:19:55Z</time>
        <extensions>
          <speed>13.653337478637695</speed>
        </extensions>
      </trkpt>
      <trkpt lat="51.4802317" lon="9.0323765">
        <ele>263.3400001525879</ele>
        <hdop>5.0</hdop>
        <time>2013-07-09T16:20:01Z</time>
        <extensions>
          <speed>12.707819938659668</speed>
        </extensions>
      </trkpt>
      <trkpt lat="51.4799874" lon="9.031535">
        <ele>264.3400001525879</ele>
        <hdop>5.0</hdop>
        <time>2013-07-09T16:20:06Z</time>
        <extensions>
          <speed>12.931026458740234</speed>
        </extensions>
      </trkpt>
      <trkpt lat="51.4796172" lon="9.030744">
        <ele>259.3400001525879</ele>
        <hdop>5.0</hdop>
        <time>2013-07-09T16:20:11Z</time>
        <extensions>
          <speed>14.195306777954102</speed>
        </extensions>
      </trkpt>
      <trkpt lat="51.4792476" lon="9.0296054">
        <ele>245.3400001525879</ele>
        <hdop>5.0</hdop>
        <time>2013-07-09T16:20:17Z</time>
        <extensions>
          <speed>15.936673164367676</speed>
        </extensions>
      </trkpt>
      <trkpt lat="51.4791354" lon="9.0284953">
        <ele>242.3400001525879</ele>
        <hdop>5.0</hdop>
        <time>2013-07-09T16:20:22Z</time>
        <extensions>
          <speed>14.623757362365723</speed>
        </extensions>
      </trkpt>
      <trkpt lat="51.4789042" lon="9.0274586">
        <ele>248.3400001525879</ele>
        <hdop>5.0</hdop>
        <time>2013-07-09T16:20:28Z</time>
        <extensions>
          <speed>10.841439247131348</speed>
        </extensions>
      </trkpt>
      <trkpt lat="51.4787078" lon="9.0268936">
        <ele>253.3400001525879</ele>
        <hdop>5.0</hdop>
        <time>2013-07-09T16:20:33Z</time>
        <extensions>
          <speed>7.292295455932617</speed>
        </extensions>
      </trkpt>
      <trkpt lat="51.4785369" lon="9.0264483">
        <ele>253.3400001525879</ele>
        <hdop>5.0</hdop>
        <time>2013-07-09T16:20:39Z</time>
        <extensions>
          <speed>5.640505790710449</speed>
        </extensions>
      </trkpt>
      <trkpt lat="51.4783894" lon="9.0260646">
        <ele>256.3400001525879</ele>
        <hdop>5.0</hdop>
        <time>2013-07-09T16:20:44Z</time>
        <extensions>
          <speed>5.401249408721924</speed>
        </extensions>
      </trkpt>
      <trkpt lat="51.4782135" lon="9.0256563">
        <ele>255.3400001525879</ele>
        <hdop>5.0</hdop>
        <time>2013-07-09T16:20:50Z</time>
        <extensions>
          <speed>5.082991123199463</speed>
        </extensions>
      </trkpt>
      <trkpt lat="51.4780048" lon="9.0252633">
        <ele>257.3400001525879</ele>
        <hdop>10.0</hdop>
        <time>2013-07-09T16:20:56Z</time>
        <extensions>
          <speed>5.242720603942871</speed>
        </extensions>
      </trkpt>
      <trkpt lat="51.4778422" lon="9.0249479">
        <ele>250.3400001525879</ele>
        <hdop>5.0</hdop>
        <time>2013-07-09T16:21:01Z</time>
        <extensions>
          <speed>5.3902740478515625</speed>
        </extensions>
      </trkpt>
      <trkpt lat="51.4776495" lon="9.0245989">
        <ele>253.3400001525879</ele>
        <hdop>10.0</hdop>
        <time>2013-07-09T16:21:07Z</time>
        <extensions>
          <speed>5.7929368019104</speed>
        </extensions>
      </trkpt>
      <trkpt lat="51.4774472" lon="9.0241015">
        <ele>261.3400001525879</ele>
        <hdop>5.0</hdop>
        <time>2013-07-09T16:21:13Z</time>
        <extensions>
          <speed>6.466919898986816</speed>
        </extensions>
      </trkpt>
      <trkpt lat="51.4773079" lon="9.0236346">
        <ele>265.3400001525879</ele>
        <hdop>5.0</hdop>
        <time>2013-07-09T16:21:18Z</time>
        <extensions>
          <speed>6.60070276260376</speed>
        </extensions>
      </trkpt>
      <trkpt lat="51.477162" lon="9.0230947">
        <ele>261.3400001525879</ele>
        <hdop>5.0</hdop>
        <time>2013-07-09T16:21:24Z</time>
        <extensions>
          <speed>6.319415092468262</speed>
        </extensions>
      </trkpt>
      <trkpt lat="51.4770323" lon="9.0225671">
        <ele>264.3400001525879</ele>
        <hdop>5.0</hdop>
        <time>2013-07-09T16:21:30Z</time>
        <extensions>
          <speed>6.348166465759277</speed>
        </extensions>
      </trkpt>
      <trkpt lat="51.4769294" lon="9.022112">
        <ele>261.3400001525879</ele>
        <hdop>5.0</hdop>
        <time>2013-07-09T16:21:35Z</time>
        <extensions>
          <speed>6.405127048492432</speed>
        </extensions>
      </trkpt>
      <trkpt lat="51.4768108" lon="9.0215402">
        <ele>268.3400001525879</ele>
        <hdop>5.0</hdop>
        <time>2013-07-09T16:21:41Z</time>
        <extensions>
          <speed>6.522400379180908</speed>
        </extensions>
      </trkpt>
      <trkpt lat="51.4767301" lon="9.0211199">
        <ele>264.3400001525879</ele>
        <hdop>5.0</hdop>
        <time>2013-07-09T16:21:46Z</time>
        <extensions>
          <speed>6.171788692474365</speed>
        </extensions>
      </trkpt>
      <trkpt lat="51.4766246" lon="9.0206257">
        <ele>265.3400001525879</ele>
        <hdop>5.0</hdop>
        <time>2013-07-09T16:21:52Z</time>
        <extensions>
          <speed>5.666360855102539</speed>
        </extensions>
      </trkpt>
      <trkpt lat="51.4765206" lon="9.0201617">
        <ele>268.3400001525879</ele>
        <hdop>5.0</hdop>
        <time>2013-07-09T16:21:58Z</time>
        <extensions>
          <speed>5.20042610168457</speed>
        </extensions>
      </trkpt>
      <trkpt lat="51.4764251" lon="9.0197268">
        <ele>267.3400001525879</ele>
        <hdop>5.0</hdop>
        <time>2013-07-09T16:22:04Z</time>
        <extensions>
          <speed>5.153512477874756</speed>
        </extensions>
      </trkpt>
      <trkpt lat="51.4763384" lon="9.0193271">
        <ele>271.3400001525879</ele>
        <hdop>5.0</hdop>
        <time>2013-07-09T16:22:10Z</time>
        <extensions>
          <speed>4.8769659996032715</speed>
        </extensions>
      </trkpt>
      <trkpt lat="51.4762399" lon="9.0189261">
        <ele>272.3400001525879</ele>
        <hdop>5.0</hdop>
        <time>2013-07-09T16:22:16Z</time>
        <extensions>
          <speed>4.763666152954102</speed>
        </extensions>
      </trkpt>
      <trkpt lat="51.4761533" lon="9.0185137">
        <ele>277.3400001525879</ele>
        <hdop>5.0</hdop>
        <time>2013-07-09T16:22:22Z</time>
        <extensions>
          <speed>4.918834686279297</speed>
        </extensions>
      </trkpt>
      <trkpt lat="51.4760534" lon="9.0180539">
        <ele>272.3400001525879</ele>
        <hdop>5.0</hdop>
        <time>2013-07-09T16:22:28Z</time>
        <extensions>
          <speed>5.5695719718933105</speed>
        </extensions>
      </trkpt>
      <trkpt lat="51.475924" lon="9.0175479">
        <ele>273.3400001525879</ele>
        <hdop>5.0</hdop>
        <time>2013-07-09T16:22:34Z</time>
        <extensions>
          <speed>6.092295169830322</speed>
        </extensions>
      </trkpt>
      <trkpt lat="51.4758097" lon="9.0171095">
        <ele>268.3400001525879</ele>
        <hdop>5.0</hdop>
        <time>2013-07-09T16:22:39Z</time>
        <extensions>
          <speed>6.038491725921631</speed>
        </extensions>
      </trkpt>
      <trkpt lat="51.4756944" lon="9.0167003">
        <ele>271.3400001525879</ele>
        <hdop>5.0</hdop>
        <time>2013-07-09T16:22:44Z</time>
        <extensions>
          <speed>6.234760284423828</speed>
        </extensions>
      </trkpt>
      <trkpt lat="51.4755457" lon="9.0163364">
        <ele>271.3400001525879</ele>
        <hdop>5.0</hdop>
        <time>2013-07-09T16:22:49Z</time>
        <extensions>
          <speed>5.88027286529541</speed>
        </extensions>
      </trkpt>
      <trkpt lat="51.4752741" lon="9.0160208">
        <ele>272.3400001525879</ele>
        <hdop>5.0</hdop>
        <time>2013-07-09T16:22:55Z</time>
        <extensions>
          <speed>6.179323196411133</speed>
        </extensions>
      </trkpt>
      <trkpt lat="51.4750432" lon="9.0157083">
        <ele>278.3400001525879</ele>
        <hdop>5.0</hdop>
        <time>2013-07-09T16:23:00Z</time>
        <extensions>
          <speed>5.821232318878174</speed>
        </extensions>
      </trkpt>
      <trkpt lat="51.474854" lon="9.0153784">
        <ele>281.3400001525879</ele>
        <hdop>5.0</hdop>
        <time>2013-07-09T16:23:05Z</time>
        <extensions>
          <speed>5.9155049324035645</speed>
        </extensions>
      </trkpt>
      <trkpt lat="51.4747101" lon="9.0150015">
        <ele>276.3400001525879</ele>
        <hdop>5.0</hdop>
        <time>2013-07-09T16:23:10Z</time>
        <extensions>
          <speed>5.7770185470581055</speed>
        </extensions>
      </trkpt>
      <trkpt lat="51.4746278" lon="9.0144825">
        <ele>275.3400001525879</ele>
        <hdop>5.0</hdop>
        <time>2013-07-09T16:23:16Z</time>
        <extensions>
          <speed>5.020125865936279</speed>
        </extensions>
      </trkpt>
      <trkpt lat="51.4745434" lon="9.0139781">
        <ele>275.3400001525879</ele>
        <hdop>5.0</hdop>
        <time>2013-07-09T16:23:22Z</time>
        <extensions>
          <speed>5.14841365814209</speed>
        </extensions>
      </trkpt>
      <trkpt lat="51.474473" lon="9.0135494">
        <ele>280.3400001525879</ele>
        <hdop>5.0</hdop>
        <time>2013-07-09T16:23:28Z</time>
        <extensions>
          <speed>4.709483623504639</speed>
        </extensions>
      </trkpt>
      <trkpt lat="51.4743811" lon="9.0131509">
        <ele>281.3400001525879</ele>
        <hdop>5.0</hdop>
        <time>2013-07-09T16:23:34Z</time>
        <extensions>
          <speed>4.584510803222656</speed>
        </extensions>
      </trkpt>
      <trkpt lat="51.4741989" lon="9.0127755">
        <ele>280.3400001525879</ele>
        <hdop>5.0</hdop>
        <time>2013-07-09T16:23:40Z</time>
        <extensions>
          <speed>4.991595268249512</speed>
        </extensions>
      </trkpt>
      <trkpt lat="51.4740587" lon="9.0125523">
        <ele>282.3400001525879</ele>
        <hdop>5.0</hdop>
        <time>2013-07-09T16:23:45Z</time>
        <extensions>
          <speed>4.327004909515381</speed>
        </extensions>
      </trkpt>
      <trkpt lat="51.4738977" lon="9.012256">
        <ele>284.3400001525879</ele>
        <hdop>5.0</hdop>
        <time>2013-07-09T16:23:51Z</time>
        <extensions>
          <speed>3.9517223834991455</speed>
        </extensions>
      </trkpt>
      <trkpt lat="51.4737494" lon="9.0120067">
        <ele>288.3400001525879</ele>
        <hdop>10.0</hdop>
        <time>2013-07-09T16:23:57Z</time>
        <extensions>
          <speed>3.1405463218688965</speed>
        </extensions>
      </trkpt>
      <trkpt lat="51.4737028" lon="9.0117694">
        <ele>297.3400001525879</ele>
        <hdop>15.0</hdop>
        <time>2013-07-09T16:24:02Z</time>
        <extensions>
          <speed>3.3962290287017822</speed>
        </extensions>
      </trkpt>
      <trkpt lat="51.4736235" lon="9.0114565">
        <ele>290.3400001525879</ele>
        <hdop>10.0</hdop>
        <time>2013-07-09T16:24:08Z</time>
        <extensions>
          <speed>3.1839723587036133</speed>
        </extensions>
      </trkpt>
      <trkpt lat="51.4735784" lon="9.0112465">
        <ele>292.3400001525879</ele>
        <hdop>5.0</hdop>
        <time>2013-07-09T16:24:13Z</time>
        <extensions>
          <speed>2.0719943046569824</speed>
        </extensions>
      </trkpt>
      <trkpt lat="51.4735784" lon="9.0112465">
        <ele>292.3400001525879</ele>
        <hdop>5.0</hdop>
        <time>2013-07-09T16:24:19Z</time>
      </trkpt>
      <trkpt lat="51.4733745" lon="9.0110656">
        <ele>299.3400001525879</ele>
        <hdop>10.0</hdop>
        <time>2013-07-09T16:24:24Z</time>
        <extensions>
          <speed>4.874884128570557</speed>
        </extensions>
      </trkpt>
      <trkpt lat="51.4730216" lon="9.0109945">
        <ele>302.3400001525879</ele>
        <hdop>10.0</hdop>
        <time>2013-07-09T16:24:30Z</time>
        <extensions>
          <speed>7.441171646118164</speed>
        </extensions>
      </trkpt>
      <trkpt lat="51.4726851" lon="9.0109424">
        <ele>311.3400001525879</ele>
        <hdop>5.0</hdop>
        <time>2013-07-09T16:24:35Z</time>
        <extensions>
          <speed>6.912137031555176</speed>
        </extensions>
      </trkpt>
      <trkpt lat="51.4723223" lon="9.0110313">
        <ele>299.3400001525879</ele>
        <hdop>10.0</hdop>
        <time>2013-07-09T16:24:41Z</time>
        <extensions>
          <speed>5.540399074554443</speed>
        </extensions>
      </trkpt>
      <trkpt lat="51.4721241" lon="9.0109591">
        <ele>294.3400001525879</ele>
        <hdop>5.0</hdop>
        <time>2013-07-09T16:24:46Z</time>
        <extensions>
          <speed>4.689408302307129</speed>
        </extensions>
      </trkpt>
      <trkpt lat="51.4719103" lon="9.0104166">
        <ele>295.3400001525879</ele>
        <hdop>10.0</hdop>
        <time>2013-07-09T16:24:52Z</time>
        <extensions>
          <speed>7.838515758514404</speed>
        </extensions>
      </trkpt>
      <trkpt lat="51.4716442" lon="9.0099235">
        <ele>293.3400001525879</ele>
        <hdop>5.0</hdop>
        <time>2013-07-09T16:24:57Z</time>
        <extensions>
          <speed>8.896159172058105</speed>
        </extensions>
      </trkpt>
      <trkpt lat="51.4714029" lon="9.0094224">
        <ele>285.3400001525879</ele>
        <hdop>10.0</hdop>
        <time>2013-07-09T16:25:02Z</time>
        <extensions>
          <speed>8.052338600158691</speed>
        </extensions>
      </trkpt>
      <trkpt lat="51.4711374" lon="9.0088433">
        <ele>287.3400001525879</ele>
        <hdop>5.0</hdop>
        <time>2013-07-09T16:25:08Z</time>
        <extensions>
          <speed>7.72359561920166</speed>
        </extensions>
      </trkpt>
      <trkpt lat="51.4708237" lon="9.0083955">
        <ele>286.3400001525879</ele>
        <hdop>5.0</hdop>
        <time>2013-07-09T16:25:13Z</time>
        <extensions>
          <speed>9.511585235595703</speed>
        </extensions>
      </trkpt>
      <trkpt lat="51.470352" lon="9.0080077">
        <ele>286.3400001525879</ele>
        <hdop>5.0</hdop>
        <time>2013-07-09T16:25:19Z</time>
        <extensions>
          <speed>9.97157096862793</speed>
        </extensions>
      </trkpt>
      <trkpt lat="51.4699471" lon="9.0076769">
        <ele>283.3400001525879</ele>
        <hdop>5.0</hdop>
        <time>2013-07-09T16:25:25Z</time>
        <extensions>
          <speed>7.923628807067871</speed>
        </extensions>
      </trkpt>
      <trkpt lat="51.4695896" lon="9.0074213">
        <ele>287.3400001525879</ele>
        <hdop>5.0</hdop>
        <time>2013-07-09T16:25:30Z</time>
        <extensions>
          <speed>8.263594627380371</speed>
        </extensions>
      </trkpt>
      <trkpt lat="51.4691642" lon="9.0071123">
        <ele>290.3400001525879</ele>
        <hdop>5.0</hdop>
        <time>2013-07-09T16:25:36Z</time>
        <extensions>
          <speed>8.76880168914795</speed>
        </extensions>
      </trkpt>
      <trkpt lat="51.4688021" lon="9.0068393">
        <ele>288.3400001525879</ele>
        <hdop>5.0</hdop>
        <time>2013-07-09T16:25:42Z</time>
        <extensions>
          <speed>7.836680889129639</speed>
        </extensions>
      </trkpt>
      <trkpt lat="51.4683888" lon="9.0065369">
        <ele>284.3400001525879</ele>
        <hdop>5.0</hdop>
        <time>2013-07-09T16:25:48Z</time>
        <extensions>
          <speed>8.373052597045898</speed>
        </extensions>
      </trkpt>
      <trkpt lat="51.4680467" lon="9.0062901">
        <ele>284.3400001525879</ele>
        <hdop>5.0</hdop>
        <time>2013-07-09T16:25:53Z</time>
        <extensions>
          <speed>8.345240592956543</speed>
        </extensions>
      </trkpt>
      <trkpt lat="51.467617" lon="9.0059452">
        <ele>283.3400001525879</ele>
        <hdop>5.0</hdop>
        <time>2013-07-09T16:25:59Z</time>
        <extensions>
          <speed>8.702814102172852</speed>
        </extensions>
      </trkpt>
      <trkpt lat="51.4672963" lon="9.0056067">
        <ele>283.3400001525879</ele>
        <hdop>5.0</hdop>
        <time>2013-07-09T16:26:04Z</time>
        <extensions>
          <speed>8.061417579650879</speed>
        </extensions>
      </trkpt>
      <trkpt lat="51.4669654" lon="9.0051672">
        <ele>279.3400001525879</ele>
        <hdop>5.0</hdop>
        <time>2013-07-09T16:26:10Z</time>
        <extensions>
          <speed>7.226860046386719</speed>
        </extensions>
      </trkpt>
      <trkpt lat="51.4667683" lon="9.0048178">
        <ele>282.3400001525879</ele>
        <hdop>5.0</hdop>
        <time>2013-07-09T16:26:15Z</time>
        <extensions>
          <speed>6.093291282653809</speed>
        </extensions>
      </trkpt>
      <trkpt lat="51.466527" lon="9.0047442">
        <ele>285.3400001525879</ele>
        <hdop>5.0</hdop>
        <time>2013-07-09T16:26:20Z</time>
        <extensions>
          <speed>7.736630439758301</speed>
        </extensions>
      </trkpt>
      <trkpt lat="51.4661429" lon="9.0049261">
        <ele>288.3400001525879</ele>
        <hdop>5.0</hdop>
        <time>2013-07-09T16:26:26Z</time>
        <extensions>
          <speed>5.952891826629639</speed>
        </extensions>
      </trkpt>
      <trkpt lat="51.4658106" lon="9.0050983">
        <ele>290.3400001525879</ele>
        <hdop>5.0</hdop>
        <time>2013-07-09T16:26:32Z</time>
        <extensions>
          <speed>5.7030205726623535</speed>
        </extensions>
      </trkpt>
      <trkpt lat="51.4655306" lon="9.0052386">
        <ele>287.3400001525879</ele>
        <hdop>5.0</hdop>
        <time>2013-07-09T16:26:38Z</time>
        <extensions>
          <speed>5.67756986618042</speed>
        </extensions>
      </trkpt>
      <trkpt lat="51.465223" lon="9.0053809">
        <ele>292.3400001525879</ele>
        <hdop>5.0</hdop>
        <time>2013-07-09T16:26:44Z</time>
        <extensions>
          <speed>5.608497142791748</speed>
        </extensions>
      </trkpt>
      <trkpt lat="51.4649842" lon="9.0054931">
        <ele>291.3400001525879</ele>
        <hdop>5.0</hdop>
        <time>2013-07-09T16:26:49Z</time>
        <extensions>
          <speed>5.40181303024292</speed>
        </extensions>
      </trkpt>
      <trkpt lat="51.4647608" lon="9.0055836">
        <ele>295.3400001525879</ele>
        <hdop>5.0</hdop>
        <time>2013-07-09T16:26:54Z</time>
        <extensions>
          <speed>5.022137641906738</speed>
        </extensions>
      </trkpt>
      <trkpt lat="51.4644805" lon="9.005691">
        <ele>298.3400001525879</ele>
        <hdop>5.0</hdop>
        <time>2013-07-09T16:27:00Z</time>
        <extensions>
          <speed>5.382550239562988</speed>
        </extensions>
      </trkpt>
      <trkpt lat="51.4642244" lon="9.0058159">
        <ele>297.3400001525879</ele>
        <hdop>5.0</hdop>
        <time>2013-07-09T16:27:05Z</time>
        <extensions>
          <speed>6.062160968780518</speed>
        </extensions>
      </trkpt>
      <trkpt lat="51.4638629" lon="9.005981">
        <ele>296.3400001525879</ele>
        <hdop>5.0</hdop>
        <time>2013-07-09T16:27:11Z</time>
        <extensions>
          <speed>7.699366569519043</speed>
        </extensions>
      </trkpt>
      <trkpt lat="51.4635208" lon="9.00615">
        <ele>295.3400001525879</ele>
        <hdop>5.0</hdop>
        <time>2013-07-09T16:27:16Z</time>
        <extensions>
          <speed>8.320465087890625</speed>
        </extensions>
      </trkpt>
      <trkpt lat="51.4630592" lon="9.0063615">
        <ele>294.3400001525879</ele>
        <hdop>5.0</hdop>
        <time>2013-07-09T16:27:22Z</time>
        <extensions>
          <speed>9.503941535949707</speed>
        </extensions>
      </trkpt>
      <trkpt lat="51.4625427" lon="9.0065998">
        <ele>291.3400001525879</ele>
        <hdop>5.0</hdop>
        <time>2013-07-09T16:27:28Z</time>
        <extensions>
          <speed>10.17221736907959</speed>
        </extensions>
      </trkpt>
      <trkpt lat="51.4620972" lon="9.0067999">
        <ele>292.3400001525879</ele>
        <hdop>5.0</hdop>
        <time>2013-07-09T16:27:33Z</time>
        <extensions>
          <speed>10.116559982299805</speed>
        </extensions>
      </trkpt>
      <trkpt lat="51.4616813" lon="9.0070275">
        <ele>288.3400001525879</ele>
        <hdop>5.0</hdop>
        <time>2013-07-09T16:27:38Z</time>
        <extensions>
          <speed>10.074522972106934</speed>
        </extensions>
      </trkpt>
      <trkpt lat="51.4611597" lon="9.0073631">
        <ele>286.3400001525879</ele>
        <hdop>5.0</hdop>
        <time>2013-07-09T16:27:44Z</time>
        <extensions>
          <speed>10.323566436767578</speed>
        </extensions>
      </trkpt>
      <trkpt lat="51.4607374" lon="9.0076499">
        <ele>284.3400001525879</ele>
        <hdop>5.0</hdop>
        <time>2013-07-09T16:27:49Z</time>
        <extensions>
          <speed>10.26156234741211</speed>
        </extensions>
      </trkpt>
      <trkpt lat="51.4602277" lon="9.0079792">
        <ele>283.3400001525879</ele>
        <hdop>5.0</hdop>
        <time>2013-07-09T16:27:55Z</time>
        <extensions>
          <speed>10.394624710083008</speed>
        </extensions>
      </trkpt>
      <trkpt lat="51.4598181" lon="9.0082531">
        <ele>283.3400001525879</ele>
        <hdop>5.0</hdop>
        <time>2013-07-09T16:28:00Z</time>
        <extensions>
          <speed>9.320651054382324</speed>
        </extensions>
      </trkpt>
      <trkpt lat="51.4594254" lon="9.0084949">
        <ele>285.3400001525879</ele>
        <hdop>5.0</hdop>
        <time>2013-07-09T16:28:06Z</time>
        <extensions>
          <speed>5.520204067230225</speed>
        </extensions>
      </trkpt>
      <trkpt lat="51.4592779" lon="9.0082376">
        <ele>285.3400001525879</ele>
        <hdop>5.0</hdop>
        <time>2013-07-09T16:28:11Z</time>
        <extensions>
          <speed>7.584425926208496</speed>
        </extensions>
      </trkpt>
      <trkpt lat="51.4591552" lon="9.0075063">
        <ele>282.3400001525879</ele>
        <hdop>5.0</hdop>
        <time>2013-07-09T16:28:17Z</time>
        <extensions>
          <speed>8.278341293334961</speed>
        </extensions>
      </trkpt>
      <trkpt lat="51.4588467" lon="9.0071858">
        <ele>280.3400001525879</ele>
        <hdop>5.0</hdop>
        <time>2013-07-09T16:28:22Z</time>
        <extensions>
          <speed>8.296204566955566</speed>
        </extensions>
      </trkpt>
      <trkpt lat="51.4584145" lon="9.0070843">
        <ele>285.3400001525879</ele>
        <hdop>5.0</hdop>
        <time>2013-07-09T16:28:28Z</time>
        <extensions>
          <speed>7.93603515625</speed>
        </extensions>
      </trkpt>
      <trkpt lat="51.4579979" lon="9.0069854">
        <ele>285.3400001525879</ele>
        <hdop>5.0</hdop>
        <time>2013-07-09T16:28:34Z</time>
        <extensions>
          <speed>8.191956520080566</speed>
        </extensions>
      </trkpt>
      <trkpt lat="51.4576085" lon="9.0068846">
        <ele>284.3400001525879</ele>
        <hdop>5.0</hdop>
        <time>2013-07-09T16:28:39Z</time>
        <extensions>
          <speed>8.55601692199707</speed>
        </extensions>
      </trkpt>
      <trkpt lat="51.457181" lon="9.0067982">
        <ele>279.3400001525879</ele>
        <hdop>5.0</hdop>
        <time>2013-07-09T16:28:44Z</time>
        <extensions>
          <speed>9.85797119140625</speed>
        </extensions>
      </trkpt>
      <trkpt lat="51.4566126" lon="9.0067035">
        <ele>280.3400001525879</ele>
        <hdop>5.0</hdop>
        <time>2013-07-09T16:28:50Z</time>
        <extensions>
          <speed>10.551684379577637</speed>
        </extensions>
      </trkpt>
      <trkpt lat="51.4560806" lon="9.0064652">
        <ele>280.3400001525879</ele>
        <hdop>10.0</hdop>
        <time>2013-07-09T16:28:56Z</time>
        <extensions>
          <speed>8.988639831542969</speed>
        </extensions>
      </trkpt>
      <trkpt lat="51.4556654" lon="9.0062802">
        <ele>282.3400001525879</ele>
        <hdop>5.0</hdop>
        <time>2013-07-09T16:29:02Z</time>
        <extensions>
          <speed>7.793786525726318</speed>
        </extensions>
      </trkpt>
      <trkpt lat="51.4553425" lon="9.0061984">
        <ele>279.3400001525879</ele>
        <hdop>5.0</hdop>
        <time>2013-07-09T16:29:07Z</time>
        <extensions>
          <speed>7.5766282081604</speed>
        </extensions>
      </trkpt>
      <trkpt lat="51.4549204" lon="9.0060808">
        <ele>280.3400001525879</ele>
        <hdop>5.0</hdop>
        <time>2013-07-09T16:29:13Z</time>
        <extensions>
          <speed>7.405307292938232</speed>
        </extensions>
      </trkpt>
      <trkpt lat="51.4546209" lon="9.0060188">
        <ele>284.3400001525879</ele>
        <hdop>5.0</hdop>
        <time>2013-07-09T16:29:18Z</time>
        <extensions>
          <speed>6.266971111297607</speed>
        </extensions>
      </trkpt>
      <trkpt lat="51.4543275" lon="9.0060776">
        <ele>287.3400001525879</ele>
        <hdop>5.0</hdop>
        <time>2013-07-09T16:29:24Z</time>
        <extensions>
          <speed>5.088375568389893</speed>
        </extensions>
      </trkpt>
      <trkpt lat="51.4540676" lon="9.0061868">
        <ele>289.3400001525879</ele>
        <hdop>5.0</hdop>
        <time>2013-07-09T16:29:29Z</time>
        <extensions>
          <speed>5.982763767242432</speed>
        </extensions>
      </trkpt>
      <trkpt lat="51.4537714" lon="9.0062868">
        <ele>287.3400001525879</ele>
        <hdop>5.0</hdop>
        <time>2013-07-09T16:29:35Z</time>
        <extensions>
          <speed>5.7733259201049805</speed>
        </extensions>
      </trkpt>
      <trkpt lat="51.4534896" lon="9.0064018">
        <ele>288.3400001525879</ele>
        <hdop>5.0</hdop>
        <time>2013-07-09T16:29:40Z</time>
        <extensions>
          <speed>6.623531818389893</speed>
        </extensions>
      </trkpt>
      <trkpt lat="51.4531326" lon="9.0065271">
        <ele>284.3400001525879</ele>
        <hdop>5.0</hdop>
        <time>2013-07-09T16:29:46Z</time>
        <extensions>
          <speed>6.028958797454834</speed>
        </extensions>
      </trkpt>
      <trkpt lat="51.452804" lon="9.0066086">
        <ele>284.3400001525879</ele>
        <hdop>5.0</hdop>
        <time>2013-07-09T16:29:52Z</time>
        <extensions>
          <speed>6.002532958984375</speed>
        </extensions>
      </trkpt>
      <trkpt lat="51.4524612" lon="9.0066675">
        <ele>288.3400001525879</ele>
        <hdop>5.0</hdop>
        <time>2013-07-09T16:29:58Z</time>
        <extensions>
          <speed>6.445630073547363</speed>
        </extensions>
      </trkpt>
      <trkpt lat="51.4520839" lon="9.0067676">
        <ele>292.3400001525879</ele>
        <hdop>5.0</hdop>
        <time>2013-07-09T16:30:04Z</time>
        <extensions>
          <speed>5.841681957244873</speed>
        </extensions>
      </trkpt>
      <trkpt lat="51.4517231" lon="9.0067584">
        <ele>289.3400001525879</ele>
        <hdop>5.0</hdop>
        <time>2013-07-09T16:30:10Z</time>
        <extensions>
          <speed>6.6037917137146</speed>
        </extensions>
      </trkpt>
      <trkpt lat="51.4513973" lon="9.0066724">
        <ele>288.3400001525879</ele>
        <hdop>5.0</hdop>
        <time>2013-07-09T16:30:15Z</time>
        <extensions>
          <speed>6.37291145324707</speed>
        </extensions>
      </trkpt>
      <trkpt lat="51.4509082" lon="9.0066439">
        <ele>287.3400001525879</ele>
        <hdop>5.0</hdop>
        <time>2013-07-09T16:30:21Z</time>
        <extensions>
          <speed>8.183942794799805</speed>
        </extensions>
      </trkpt>
      <trkpt lat="51.4504744" lon="9.0066428">
        <ele>289.3400001525879</ele>
        <hdop>5.0</hdop>
        <time>2013-07-09T16:30:27Z</time>
        <extensions>
          <speed>5.61007833480835</speed>
        </extensions>
      </trkpt>
      <trkpt lat="51.4502924" lon="9.0070048">
        <ele>291.3400001525879</ele>
        <hdop>10.0</hdop>
        <time>2013-07-09T16:30:32Z</time>
        <extensions>
          <speed>8.066777229309082</speed>
        </extensions>
      </trkpt>
      <trkpt lat="51.4501546" lon="9.0079082">
        <ele>291.3400001525879</ele>
        <hdop>15.0</hdop>
        <time>2013-07-09T16:30:38Z</time>
        <extensions>
          <speed>10.789922714233398</speed>
        </extensions>
      </trkpt>
      <trkpt lat="51.4500182" lon="9.008851">
        <ele>290.3400001525879</ele>
        <hdop>10.0</hdop>
        <time>2013-07-09T16:30:44Z</time>
        <extensions>
          <speed>10.582109451293945</speed>
        </extensions>
      </trkpt>
      <trkpt lat="51.449854" lon="9.0097632">
        <ele>284.3400001525879</ele>
        <hdop>10.0</hdop>
        <time>2013-07-09T16:30:50Z</time>
        <extensions>
          <speed>11.330726623535156</speed>
        </extensions>
      </trkpt>
      <trkpt lat="51.449637" lon="9.010537">
        <ele>282.3400001525879</ele>
        <hdop>5.0</hdop>
        <time>2013-07-09T16:30:55Z</time>
        <extensions>
          <speed>11.469657897949219</speed>
        </extensions>
      </trkpt>
      <trkpt lat="51.4493967" lon="9.0113961">
        <ele>277.3400001525879</ele>
        <hdop>5.0</hdop>
        <time>2013-07-09T16:31:01Z</time>
        <extensions>
          <speed>10.120548248291016</speed>
        </extensions>
      </trkpt>
      <trkpt lat="51.4493403" lon="9.012033">
        <ele>270.3400001525879</ele>
        <hdop>5.0</hdop>
        <time>2013-07-09T16:31:06Z</time>
        <extensions>
          <speed>7.765134811401367</speed>
        </extensions>
      </trkpt>
      <trkpt lat="51.4492835" lon="9.0124144">
        <ele>271.3400001525879</ele>
        <hdop>5.0</hdop>
        <time>2013-07-09T16:31:11Z</time>
        <extensions>
          <speed>5.760870933532715</speed>
        </extensions>
      </trkpt>
      <trkpt lat="51.4488871" lon="9.0125566">
        <ele>272.3400001525879</ele>
        <hdop>5.0</hdop>
        <time>2013-07-09T16:31:17Z</time>
        <extensions>
          <speed>8.622211456298828</speed>
        </extensions>
      </trkpt>
      <trkpt lat="51.4483397" lon="9.0126729">
        <ele>266.3400001525879</ele>
        <hdop>5.0</hdop>
        <time>2013-07-09T16:31:23Z</time>
        <extensions>
          <speed>11.296704292297363</speed>
        </extensions>
      </trkpt>
      <trkpt lat="51.4478489" lon="9.0128072">
        <ele>268.3400001525879</ele>
        <hdop>5.0</hdop>
        <time>2013-07-09T16:31:28Z</time>
        <extensions>
          <speed>9.732097625732422</speed>
        </extensions>
      </trkpt>
      <trkpt lat="51.4474104" lon="9.0130857">
        <ele>267.3400001525879</ele>
        <hdop>10.0</hdop>
        <time>2013-07-09T16:31:34Z</time>
        <extensions>
          <speed>8.162025451660156</speed>
        </extensions>
      </trkpt>
      <trkpt lat="51.4470812" lon="9.0133062">
        <ele>267.3400001525879</ele>
        <hdop>5.0</hdop>
        <time>2013-07-09T16:31:39Z</time>
        <extensions>
          <speed>7.408835411071777</speed>
        </extensions>
      </trkpt>
      <trkpt lat="51.4467832" lon="9.0134945">
        <ele>270.3400001525879</ele>
        <hdop>5.0</hdop>
        <time>2013-07-09T16:31:44Z</time>
        <extensions>
          <speed>6.727285861968994</speed>
        </extensions>
      </trkpt>
      <trkpt lat="51.446436" lon="9.0137134">
        <ele>270.3400001525879</ele>
        <hdop>5.0</hdop>
        <time>2013-07-09T16:31:50Z</time>
        <extensions>
          <speed>6.9370880126953125</speed>
        </extensions>
      </trkpt>
      <trkpt lat="51.4460884" lon="9.0139495">
        <ele>273.3400001525879</ele>
        <hdop>5.0</hdop>
        <time>2013-07-09T16:31:56Z</time>
        <extensions>
          <speed>7.328001499176025</speed>
        </extensions>
      </trkpt>
      <trkpt lat="51.4457737" lon="9.0141376">
        <ele>271.3400001525879</ele>
        <hdop>5.0</hdop>
        <time>2013-07-09T16:32:01Z</time>
        <extensions>
          <speed>7.4641432762146</speed>
        </extensions>
      </trkpt>
      <trkpt lat="51.4453493" lon="9.01438">
        <ele>270.3400001525879</ele>
        <hdop>5.0</hdop>
        <time>2013-07-09T16:32:07Z</time>
        <extensions>
          <speed>8.640742301940918</speed>
        </extensions>
      </trkpt>
      <trkpt lat="51.4449474" lon="9.0145485">
        <ele>269.3400001525879</ele>
        <hdop>5.0</hdop>
        <time>2013-07-09T16:32:12Z</time>
        <extensions>
          <speed>9.677950859069824</speed>
        </extensions>
      </trkpt>
      <trkpt lat="51.4445135" lon="9.014711">
        <ele>266.3400001525879</ele>
        <hdop>5.0</hdop>
        <time>2013-07-09T16:32:17Z</time>
        <extensions>
          <speed>9.72009563446045</speed>
        </extensions>
      </trkpt>
      <trkpt lat="51.4440684" lon="9.014861">
        <ele>258.3400001525879</ele>
        <hdop>5.0</hdop>
        <time>2013-07-09T16:32:22Z</time>
        <extensions>
          <speed>10.241661071777344</speed>
        </extensions>
      </trkpt>
      <trkpt lat="51.4435206" lon="9.0152571">
        <ele>260.3400001525879</ele>
        <hdop>10.0</hdop>
        <time>2013-07-09T16:32:28Z</time>
        <extensions>
          <speed>11.5088472366333</speed>
        </extensions>
      </trkpt>
      <trkpt lat="51.4430979" lon="9.0156427">
        <ele>260.3400001525879</ele>
        <hdop>5.0</hdop>
        <time>2013-07-09T16:32:33Z</time>
        <extensions>
          <speed>10.461965560913086</speed>
        </extensions>
      </trkpt>
      <trkpt lat="51.4426194" lon="9.0159768">
        <ele>256.3400001525879</ele>
        <hdop>5.0</hdop>
        <time>2013-07-09T16:32:38Z</time>
        <extensions>
          <speed>12.459624290466309</speed>
        </extensions>
      </trkpt>
      <trkpt lat="51.4419604" lon="9.0162653">
        <ele>249.3400001525879</ele>
        <hdop>5.0</hdop>
        <time>2013-07-09T16:32:44Z</time>
        <extensions>
          <speed>11.741999626159668</speed>
        </extensions>
      </trkpt>
      <trkpt lat="51.4413838" lon="9.016532">
        <ele>254.3400001525879</ele>
        <hdop>5.0</hdop>
        <time>2013-07-09T16:32:50Z</time>
        <extensions>
          <speed>10.076815605163574</speed>
        </extensions>
      </trkpt>
      <trkpt lat="51.4408935" lon="9.0167051">
        <ele>252.3400001525879</ele>
        <hdop>5.0</hdop>
        <time>2013-07-09T16:32:56Z</time>
        <extensions>
          <speed>8.858254432678223</speed>
        </extensions>
      </trkpt>
      <trkpt lat="51.4405276" lon="9.0168196">
        <ele>253.3400001525879</ele>
        <hdop>5.0</hdop>
        <time>2013-07-09T16:33:01Z</time>
        <extensions>
          <speed>7.585671901702881</speed>
        </extensions>
      </trkpt>
      <trkpt lat="51.4401435" lon="9.0169372">
        <ele>256.3400001525879</ele>
        <hdop>5.0</hdop>
        <time>2013-07-09T16:33:07Z</time>
        <extensions>
          <speed>7.020977020263672</speed>
        </extensions>
      </trkpt>
      <trkpt lat="51.4397624" lon="9.0170434">
        <ele>259.3400001525879</ele>
        <hdop>5.0</hdop>
        <time>2013-07-09T16:33:13Z</time>
        <extensions>
          <speed>7.1386332511901855</speed>
        </extensions>
      </trkpt>
      <trkpt lat="51.4394364" lon="9.0171237">
        <ele>259.3400001525879</ele>
        <hdop>5.0</hdop>
        <time>2013-07-09T16:33:18Z</time>
        <extensions>
          <speed>7.608057975769043</speed>
        </extensions>
      </trkpt>
      <trkpt lat="51.4390124" lon="9.0172399">
        <ele>256.3400001525879</ele>
        <hdop>5.0</hdop>
        <time>2013-07-09T16:33:24Z</time>
        <extensions>
          <speed>8.71945858001709</speed>
        </extensions>
      </trkpt>
      <trkpt lat="51.4386108" lon="9.0173366">
        <ele>256.3400001525879</ele>
        <hdop>5.0</hdop>
        <time>2013-07-09T16:33:29Z</time>
        <extensions>
          <speed>8.91597843170166</speed>
        </extensions>
      </trkpt>
      <trkpt lat="51.4381374" lon="9.0174449">
        <ele>254.3400001525879</ele>
        <hdop>5.0</hdop>
        <time>2013-07-09T16:33:35Z</time>
        <extensions>
          <speed>8.552596092224121</speed>
        </extensions>
      </trkpt>
      <trkpt lat="51.4376376" lon="9.017573">
        <ele>254.3400001525879</ele>
        <hdop>5.0</hdop>
        <time>2013-07-09T16:33:41Z</time>
        <extensions>
          <speed>9.828389167785645</speed>
        </extensions>
      </trkpt>
      <trkpt lat="51.4371621" lon="9.0176825">
        <ele>248.3400001525879</ele>
        <hdop>5.0</hdop>
        <time>2013-07-09T16:33:46Z</time>
        <extensions>
          <speed>11.197668075561523</speed>
        </extensions>
      </trkpt>
      <trkpt lat="51.4367314" lon="9.0176217">
        <ele>250.3400001525879</ele>
        <hdop>5.0</hdop>
        <time>2013-07-09T16:33:51Z</time>
        <extensions>
          <speed>8.910759925842285</speed>
        </extensions>
      </trkpt>
      <trkpt lat="51.4362749" lon="9.01773">
        <ele>251.3400001525879</ele>
        <hdop>5.0</hdop>
        <time>2013-07-09T16:33:57Z</time>
        <extensions>
          <speed>8.013508796691895</speed>
        </extensions>
      </trkpt>
      <trkpt lat="51.4359369" lon="9.01785">
        <ele>251.3400001525879</ele>
        <hdop>5.0</hdop>
        <time>2013-07-09T16:34:02Z</time>
        <extensions>
          <speed>7.608067035675049</speed>
        </extensions>
      </trkpt>
      <trkpt lat="51.4355802" lon="9.0179593">
        <ele>253.3400001525879</ele>
        <hdop>5.0</hdop>
        <time>2013-07-09T16:34:07Z</time>
        <extensions>
          <speed>7.885021209716797</speed>
        </extensions>
      </trkpt>
      <trkpt lat="51.4352416" lon="9.0180573">
        <ele>251.3400001525879</ele>
        <hdop>5.0</hdop>
        <time>2013-07-09T16:34:12Z</time>
        <extensions>
          <speed>7.932355880737305</speed>
        </extensions>
      </trkpt>
      <trkpt lat="51.4347994" lon="9.0181989">
        <ele>249.3400001525879</ele>
        <hdop>5.0</hdop>
        <time>2013-07-09T16:34:18Z</time>
        <extensions>
          <speed>8.277375221252441</speed>
        </extensions>
      </trkpt>
      <trkpt lat="51.4344311" lon="9.0183032">
        <ele>252.3400001525879</ele>
        <hdop>5.0</hdop>
        <time>2013-07-09T16:34:23Z</time>
        <extensions>
          <speed>8.140448570251465</speed>
        </extensions>
      </trkpt>
      <trkpt lat="51.4339805" lon="9.0184351">
        <ele>253.3400001525879</ele>
        <hdop>5.0</hdop>
        <time>2013-07-09T16:34:29Z</time>
        <extensions>
          <speed>7.69495153427124</speed>
        </extensions>
      </trkpt>
      <trkpt lat="51.4336668" lon="9.0185348">
        <ele>254.3400001525879</ele>
        <hdop>5.0</hdop>
        <time>2013-07-09T16:34:34Z</time>
        <extensions>
          <speed>6.2848639488220215</speed>
        </extensions>
      </trkpt>
      <trkpt lat="51.433656" lon="9.0191199">
        <ele>255.3400001525879</ele>
        <hdop>5.0</hdop>
        <time>2013-07-09T16:34:40Z</time>
        <extensions>
          <speed>6.914296627044678</speed>
        </extensions>
      </trkpt>
      <trkpt lat="51.433736" lon="9.019801">
        <ele>252.3400001525879</ele>
        <hdop>5.0</hdop>
        <time>2013-07-09T16:34:46Z</time>
        <extensions>
          <speed>8.489959716796875</speed>
        </extensions>
      </trkpt>
      <trkpt lat="51.4336344" lon="9.0205058">
        <ele>246.3400001525879</ele>
        <hdop>5.0</hdop>
        <time>2013-07-09T16:34:52Z</time>
        <extensions>
          <speed>9.220841407775879</speed>
        </extensions>
      </trkpt>
      <trkpt lat="51.433466" lon="9.0211989">
        <ele>247.3400001525879</ele>
        <hdop>5.0</hdop>
        <time>2013-07-09T16:34:57Z</time>
        <extensions>
          <speed>10.566672325134277</speed>
        </extensions>
      </trkpt>
      <trkpt lat="51.4332862" lon="9.0219866">
        <ele>243.3400001525879</ele>
        <hdop>15.0</hdop>
        <time>2013-07-09T16:35:03Z</time>
        <extensions>
          <speed>7.928049087524414</speed>
        </extensions>
      </trkpt>
      <trkpt lat="51.4331305" lon="9.0221697">
        <ele>247.3400001525879</ele>
        <hdop>10.0</hdop>
        <time>2013-07-09T16:35:08Z</time>
        <extensions>
          <speed>5.150219917297363</speed>
        </extensions>
      </trkpt>
      <trkpt lat="51.4328695" lon="9.0220935">
        <ele>239.3400001525879</ele>
        <hdop>10.0</hdop>
        <time>2013-07-09T16:35:14Z</time>
        <extensions>
          <speed>3.96720027923584</speed>
        </extensions>
      </trkpt>
      <trkpt lat="51.4325564" lon="9.0220693">
        <ele>244.3400001525879</ele>
        <hdop>10.0</hdop>
        <time>2013-07-09T16:35:19Z</time>
        <extensions>
          <speed>6.07061243057251</speed>
        </extensions>
      </trkpt>
      <trkpt lat="51.4320886" lon="9.0222532">
        <ele>252.3400001525879</ele>
        <hdop>5.0</hdop>
        <time>2013-07-09T16:35:25Z</time>
        <extensions>
          <speed>6.523545742034912</speed>
        </extensions>
      </trkpt>
      <trkpt lat="51.4317716" lon="9.0225645">
        <ele>242.3400001525879</ele>
        <hdop>10.0</hdop>
        <time>2013-07-09T16:35:30Z</time>
        <extensions>
          <speed>7.22092342376709</speed>
        </extensions>
      </trkpt>
      <trkpt lat="51.4314409" lon="9.0229686">
        <ele>243.3400001525879</ele>
        <hdop>5.0</hdop>
        <time>2013-07-09T16:35:36Z</time>
        <extensions>
          <speed>7.857756614685059</speed>
        </extensions>
      </trkpt>
      <trkpt lat="51.431094" lon="9.0234522">
        <ele>242.3400001525879</ele>
        <hdop>5.0</hdop>
        <time>2013-07-09T16:35:42Z</time>
        <extensions>
          <speed>8.501070022583008</speed>
        </extensions>
      </trkpt>
      <trkpt lat="51.4307871" lon="9.0239723">
        <ele>234.3400001525879</ele>
        <hdop>5.0</hdop>
        <time>2013-07-09T16:35:48Z</time>
        <extensions>
          <speed>7.411993980407715</speed>
        </extensions>
      </trkpt>
      <trkpt lat="51.4304019" lon="9.0242503">
        <ele>225.3400001525879</ele>
        <hdop>5.0</hdop>
        <time>2013-07-09T16:35:54Z</time>
        <extensions>
          <speed>6.6511054039001465</speed>
        </extensions>
      </trkpt>
      <trkpt lat="51.4301915" lon="9.0244439">
        <ele>229.3400001525879</ele>
        <hdop>10.0</hdop>
        <time>2013-07-09T16:36:00Z</time>
        <extensions>
          <speed>5.327973365783691</speed>
        </extensions>
      </trkpt>
      <trkpt lat="51.4298001" lon="9.0246215">
        <ele>233.3400001525879</ele>
        <hdop>5.0</hdop>
        <time>2013-07-09T16:36:06Z</time>
        <extensions>
          <speed>7.545181751251221</speed>
        </extensions>
      </trkpt>
      <trkpt lat="51.429438" lon="9.0250001">
        <ele>229.3400001525879</ele>
        <hdop>5.0</hdop>
        <time>2013-07-09T16:36:11Z</time>
        <extensions>
          <speed>9.006997108459473</speed>
        </extensions>
      </trkpt>
      <trkpt lat="51.4290853" lon="9.0255908">
        <ele>228.3400001525879</ele>
        <hdop>5.0</hdop>
        <time>2013-07-09T16:36:17Z</time>
        <extensions>
          <speed>7.973621368408203</speed>
        </extensions>
      </trkpt>
      <trkpt lat="51.4287475" lon="9.0260702">
        <ele>224.3400001525879</ele>
        <hdop>5.0</hdop>
        <time>2013-07-09T16:36:23Z</time>
        <extensions>
          <speed>7.4858856201171875</speed>
        </extensions>
      </trkpt>
      <trkpt lat="51.4283471" lon="9.0264243">
        <ele>229.3400001525879</ele>
        <hdop>5.0</hdop>
        <time>2013-07-09T16:36:29Z</time>
        <extensions>
          <speed>7.987058639526367</speed>
        </extensions>
      </trkpt>
      <trkpt lat="51.4280353" lon="9.0266635">
        <ele>226.3400001525879</ele>
        <hdop>5.0</hdop>
        <time>2013-07-09T16:36:34Z</time>
        <extensions>
          <speed>7.629263877868652</speed>
        </extensions>
      </trkpt>
      <trkpt lat="51.427604" lon="9.026778">
        <ele>227.3400001525879</ele>
        <hdop>5.0</hdop>
        <time>2013-07-09T16:36:40Z</time>
        <extensions>
          <speed>6.707664966583252</speed>
        </extensions>
      </trkpt>
      <trkpt lat="51.4272142" lon="9.0267209">
        <ele>230.3400001525879</ele>
        <hdop>5.0</hdop>
        <time>2013-07-09T16:36:46Z</time>
        <extensions>
          <speed>4.640193939208984</speed>
        </extensions>
      </trkpt>
      <trkpt lat="51.4270751" lon="9.0268012">
        <ele>233.3400001525879</ele>
        <hdop>5.0</hdop>
        <time>2013-07-09T16:36:51Z</time>
        <extensions>
          <speed>4.423817157745361</speed>
        </extensions>
      </trkpt>
      <trkpt lat="51.4269896" lon="9.0274357">
        <ele>234.3400001525879</ele>
        <hdop>5.0</hdop>
        <time>2013-07-09T16:36:57Z</time>
        <extensions>
          <speed>6.848976135253906</speed>
        </extensions>
      </trkpt>
      <trkpt lat="51.426955" lon="9.0279436">
        <ele>227.3400001525879</ele>
        <hdop>5.0</hdop>
        <time>2013-07-09T16:37:02Z</time>
        <extensions>
          <speed>6.467254161834717</speed>
        </extensions>
      </trkpt>
      <trkpt lat="51.4269038" lon="9.0285586">
        <ele>228.3400001525879</ele>
        <hdop>5.0</hdop>
        <time>2013-07-09T16:37:08Z</time>
        <extensions>
          <speed>7.1008076667785645</speed>
        </extensions>
      </trkpt>
      <trkpt lat="51.4269008" lon="9.029215">
        <ele>230.3400001525879</ele>
        <hdop>5.0</hdop>
        <time>2013-07-09T16:37:14Z</time>
        <extensions>
          <speed>7.401406764984131</speed>
        </extensions>
      </trkpt>
      <trkpt lat="51.4269457" lon="9.0297786">
        <ele>230.3400001525879</ele>
        <hdop>5.0</hdop>
        <time>2013-07-09T16:37:19Z</time>
        <extensions>
          <speed>7.9304890632629395</speed>
        </extensions>
      </trkpt>
      <trkpt lat="51.4270215" lon="9.0305125">
        <ele>229.3400001525879</ele>
        <hdop>5.0</hdop>
        <time>2013-07-09T16:37:25Z</time>
        <extensions>
          <speed>8.917146682739258</speed>
        </extensions>
      </trkpt>
      <trkpt lat="51.4270258" lon="9.0311523">
        <ele>228.3400001525879</ele>
        <hdop>5.0</hdop>
        <time>2013-07-09T16:37:30Z</time>
        <extensions>
          <speed>9.097256660461426</speed>
        </extensions>
      </trkpt>
      <trkpt lat="51.4269071" lon="9.0317832">
        <ele>229.3400001525879</ele>
        <hdop>5.0</hdop>
        <time>2013-07-09T16:37:35Z</time>
        <extensions>
          <speed>9.395366668701172</speed>
        </extensions>
      </trkpt>
      <trkpt lat="51.4266576" lon="9.032368">
        <ele>232.3400001525879</ele>
        <hdop>5.0</hdop>
        <time>2013-07-09T16:37:40Z</time>
        <extensions>
          <speed>9.82058048248291</speed>
        </extensions>
      </trkpt>
      <trkpt lat="51.4262976" lon="9.0330337">
        <ele>225.3400001525879</ele>
        <hdop>5.0</hdop>
        <time>2013-07-09T16:37:46Z</time>
        <extensions>
          <speed>9.914592742919922</speed>
        </extensions>
      </trkpt>
      <trkpt lat="51.4259226" lon="9.0336895">
        <ele>228.3400001525879</ele>
        <hdop>5.0</hdop>
        <time>2013-07-09T16:37:52Z</time>
        <extensions>
          <speed>10.351806640625</speed>
        </extensions>
      </trkpt>
      <trkpt lat="51.4254817" lon="9.0342125">
        <ele>224.3400001525879</ele>
        <hdop>5.0</hdop>
        <time>2013-07-09T16:37:58Z</time>
        <extensions>
          <speed>10.649543762207031</speed>
        </extensions>
      </trkpt>
      <trkpt lat="51.4250526" lon="9.0346389">
        <ele>223.3400001525879</ele>
        <hdop>15.0</hdop>
        <time>2013-07-09T16:38:03Z</time>
        <extensions>
          <speed>10.889744758605957</speed>
        </extensions>
      </trkpt>
      <trkpt lat="51.424571" lon="9.0351429">
        <ele>219.3400001525879</ele>
        <hdop>5.0</hdop>
        <time>2013-07-09T16:38:09Z</time>
        <extensions>
          <speed>10.918153762817383</speed>
        </extensions>
      </trkpt>
      <trkpt lat="51.4240858" lon="9.0356524">
        <ele>216.3400001525879</ele>
        <hdop>5.0</hdop>
        <time>2013-07-09T16:38:15Z</time>
        <extensions>
          <speed>10.641478538513184</speed>
        </extensions>
      </trkpt>
      <trkpt lat="51.4236135" lon="9.0361999">
        <ele>222.3400001525879</ele>
        <hdop>5.0</hdop>
        <time>2013-07-09T16:38:21Z</time>
        <extensions>
          <speed>10.233484268188477</speed>
        </extensions>
      </trkpt>
      <trkpt lat="51.4233093" lon="9.0367378">
        <ele>220.3400001525879</ele>
        <hdop>5.0</hdop>
        <time>2013-07-09T16:38:26Z</time>
        <extensions>
          <speed>9.703790664672852</speed>
        </extensions>
      </trkpt>
      <trkpt lat="51.4229788" lon="9.0373699">
        <ele>220.3400001525879</ele>
        <hdop>5.0</hdop>
        <time>2013-07-09T16:38:32Z</time>
        <extensions>
          <speed>9.712653160095215</speed>
        </extensions>
      </trkpt>
      <trkpt lat="51.4226981" lon="9.037885">
        <ele>225.3400001525879</ele>
        <hdop>5.0</hdop>
        <time>2013-07-09T16:38:37Z</time>
        <extensions>
          <speed>9.589404106140137</speed>
        </extensions>
      </trkpt>
      <trkpt lat="51.4223539" lon="9.0385126">
        <ele>222.3400001525879</ele>
        <hdop>5.0</hdop>
        <time>2013-07-09T16:38:43Z</time>
        <extensions>
          <speed>9.343957901000977</speed>
        </extensions>
      </trkpt>
      <trkpt lat="51.4220277" lon="9.0391198">
        <ele>218.3400001525879</ele>
        <hdop>10.0</hdop>
        <time>2013-07-09T16:38:49Z</time>
        <extensions>
          <speed>9.226189613342285</speed>
        </extensions>
      </trkpt>
      <trkpt lat="51.4217891" lon="9.03967">
        <ele>219.3400001525879</ele>
        <hdop>5.0</hdop>
        <time>2013-07-09T16:38:54Z</time>
        <extensions>
          <speed>8.861172676086426</speed>
        </extensions>
      </trkpt>
      <trkpt lat="51.4215893" lon="9.040373">
        <ele>221.3400001525879</ele>
        <hdop>5.0</hdop>
        <time>2013-07-09T16:39:00Z</time>
        <extensions>
          <speed>8.648521423339844</speed>
        </extensions>
      </trkpt>
      <trkpt lat="51.4214897" lon="9.041042">
        <ele>217.3400001525879</ele>
        <hdop>5.0</hdop>
        <time>2013-07-09T16:39:05Z</time>
        <extensions>
          <speed>8.961337089538574</speed>
        </extensions>
      </trkpt>
      <trkpt lat="51.4214392" lon="9.0418065">
        <ele>221.3400001525879</ele>
        <hdop>5.0</hdop>
        <time>2013-07-09T16:39:11Z</time>
        <extensions>
          <speed>8.571695327758789</speed>
        </extensions>
      </trkpt>
      <trkpt lat="51.4214004" lon="9.0424581">
        <ele>220.3400001525879</ele>
        <hdop>5.0</hdop>
        <time>2013-07-09T16:39:16Z</time>
        <extensions>
          <speed>9.130664825439453</speed>
        </extensions>
      </trkpt>
      <trkpt lat="51.4213363" lon="9.0432463">
        <ele>218.3400001525879</ele>
        <hdop>5.0</hdop>
        <time>2013-07-09T16:39:22Z</time>
        <extensions>
          <speed>8.94937801361084</speed>
        </extensions>
      </trkpt>
      <trkpt lat="51.4211841" lon="9.0439809">
        <ele>218.3400001525879</ele>
        <hdop>5.0</hdop>
        <time>2013-07-09T16:39:28Z</time>
        <extensions>
          <speed>8.543113708496094</speed>
        </extensions>
      </trkpt>
      <trkpt lat="51.4210223" lon="9.0445674">
        <ele>221.3400001525879</ele>
        <hdop>5.0</hdop>
        <time>2013-07-09T16:39:33Z</time>
        <extensions>
          <speed>8.90250301361084</speed>
        </extensions>
      </trkpt>
      <trkpt lat="51.4208881" lon="9.045202">
        <ele>216.3400001525879</ele>
        <hdop>5.0</hdop>
        <time>2013-07-09T16:39:38Z</time>
        <extensions>
          <speed>9.541149139404297</speed>
        </extensions>
      </trkpt>
      <trkpt lat="51.420808" lon="9.0459061">
        <ele>212.3400001525879</ele>
        <hdop>5.0</hdop>
        <time>2013-07-09T16:39:43Z</time>
        <extensions>
          <speed>10.06827163696289</speed>
        </extensions>
      </trkpt>
      <trkpt lat="51.4207847" lon="9.0466739">
        <ele>213.3400001525879</ele>
        <hdop>10.0</hdop>
        <time>2013-07-09T16:39:48Z</time>
        <extensions>
          <speed>10.96312141418457</speed>
        </extensions>
      </trkpt>
      <trkpt lat="51.4209117" lon="9.0476569">
        <ele>211.3400001525879</ele>
        <hdop>5.0</hdop>
        <time>2013-07-09T16:39:54Z</time>
        <extensions>
          <speed>11.042742729187012</speed>
        </extensions>
      </trkpt>
      <trkpt lat="51.4211952" lon="9.0485505">
        <ele>209.3400001525879</ele>
        <hdop>5.0</hdop>
        <time>2013-07-09T16:40:00Z</time>
        <extensions>
          <speed>10.653996467590332</speed>
        </extensions>
      </trkpt>
      <trkpt lat="51.4214489" lon="9.049116">
        <ele>208.3400001525879</ele>
        <hdop>5.0</hdop>
        <time>2013-07-09T16:40:05Z</time>
        <extensions>
          <speed>9.534403800964355</speed>
        </extensions>
      </trkpt>
      <trkpt lat="51.4217196" lon="9.0496176">
        <ele>208.3400001525879</ele>
        <hdop>5.0</hdop>
        <time>2013-07-09T16:40:10Z</time>
        <extensions>
          <speed>8.281135559082031</speed>
        </extensions>
      </trkpt>
      <trkpt lat="51.4220176" lon="9.0500529">
        <ele>210.3400001525879</ele>
        <hdop>5.0</hdop>
        <time>2013-07-09T16:40:16Z</time>
        <extensions>
          <speed>6.798006057739258</speed>
        </extensions>
      </trkpt>
      <trkpt lat="51.4222849" lon="9.0504015">
        <ele>213.3400001525879</ele>
        <hdop>5.0</hdop>
        <time>2013-07-09T16:40:22Z</time>
        <extensions>
          <speed>5.878751754760742</speed>
        </extensions>
      </trkpt>
      <trkpt lat="51.422556" lon="9.0507048">
        <ele>218.3400001525879</ele>
        <hdop>5.0</hdop>
        <time>2013-07-09T16:40:28Z</time>
        <extensions>
          <speed>5.807011604309082</speed>
        </extensions>
      </trkpt>
      <trkpt lat="51.4227718" lon="9.0509192">
        <ele>220.3400001525879</ele>
        <hdop>5.0</hdop>
        <time>2013-07-09T16:40:33Z</time>
        <extensions>
          <speed>5.776229381561279</speed>
        </extensions>
      </trkpt>
      <trkpt lat="51.4230412" lon="9.051154">
        <ele>220.3400001525879</ele>
        <hdop>5.0</hdop>
        <time>2013-07-09T16:40:39Z</time>
        <extensions>
          <speed>5.818019866943359</speed>
        </extensions>
      </trkpt>
      <trkpt lat="51.4233004" lon="9.0513649">
        <ele>220.3400001525879</ele>
        <hdop>5.0</hdop>
        <time>2013-07-09T16:40:45Z</time>
        <extensions>
          <speed>5.295835971832275</speed>
        </extensions>
      </trkpt>
      <trkpt lat="51.4235274" lon="9.0515477">
        <ele>222.3400001525879</ele>
        <hdop>5.0</hdop>
        <time>2013-07-09T16:40:50Z</time>
        <extensions>
          <speed>5.848177909851074</speed>
        </extensions>
      </trkpt>
      <trkpt lat="51.4238281" lon="9.0517998">
        <ele>220.3400001525879</ele>
        <hdop>5.0</hdop>
        <time>2013-07-09T16:40:56Z</time>
        <extensions>
          <speed>6.357467174530029</speed>
        </extensions>
      </trkpt>
      <trkpt lat="51.4241516" lon="9.0520672">
        <ele>224.3400001525879</ele>
        <hdop>5.0</hdop>
        <time>2013-07-09T16:41:02Z</time>
        <extensions>
          <speed>5.923398494720459</speed>
        </extensions>
      </trkpt>
      <trkpt lat="51.4244243" lon="9.05231">
        <ele>225.3400001525879</ele>
        <hdop>5.0</hdop>
        <time>2013-07-09T16:41:07Z</time>
        <extensions>
          <speed>6.547933578491211</speed>
        </extensions>
      </trkpt>
      <trkpt lat="51.4247115" lon="9.0525522">
        <ele>224.3400001525879</ele>
        <hdop>5.0</hdop>
        <time>2013-07-09T16:41:12Z</time>
        <extensions>
          <speed>7.093170166015625</speed>
        </extensions>
      </trkpt>
      <trkpt lat="51.425081" lon="9.0528543">
        <ele>222.3400001525879</ele>
        <hdop>5.0</hdop>
        <time>2013-07-09T16:41:18Z</time>
        <extensions>
          <speed>7.91971492767334</speed>
        </extensions>
      </trkpt>
      <trkpt lat="51.4253939" lon="9.0531002">
        <ele>220.3400001525879</ele>
        <hdop>5.0</hdop>
        <time>2013-07-09T16:41:23Z</time>
        <extensions>
          <speed>7.157654762268066</speed>
        </extensions>
      </trkpt>
      <trkpt lat="51.4257085" lon="9.0533644">
        <ele>223.3400001525879</ele>
        <hdop>5.0</hdop>
        <time>2013-07-09T16:41:28Z</time>
        <extensions>
          <speed>7.508715629577637</speed>
        </extensions>
      </trkpt>
      <trkpt lat="51.4260713" lon="9.0536737">
        <ele>224.3400001525879</ele>
        <hdop>5.0</hdop>
        <time>2013-07-09T16:41:34Z</time>
        <extensions>
          <speed>7.464940547943115</speed>
        </extensions>
      </trkpt>
      <trkpt lat="51.4263908" lon="9.0539458">
        <ele>225.3400001525879</ele>
        <hdop>5.0</hdop>
        <time>2013-07-09T16:41:39Z</time>
        <extensions>
          <speed>7.24053430557251</speed>
        </extensions>
      </trkpt>
      <trkpt lat="51.4266854" lon="9.0541976">
        <ele>226.3400001525879</ele>
        <hdop>5.0</hdop>
        <time>2013-07-09T16:41:44Z</time>
        <extensions>
          <speed>6.815402507781982</speed>
        </extensions>
      </trkpt>
      <trkpt lat="51.4270543" lon="9.0542944">
        <ele>224.3400001525879</ele>
        <hdop>5.0</hdop>
        <time>2013-07-09T16:41:50Z</time>
        <extensions>
          <speed>7.446235656738281</speed>
        </extensions>
      </trkpt>
      <trkpt lat="51.427421" lon="9.0542952">
        <ele>225.3400001525879</ele>
        <hdop>5.0</hdop>
        <time>2013-07-09T16:41:56Z</time>
        <extensions>
          <speed>6.612249851226807</speed>
        </extensions>
      </trkpt>
      <trkpt lat="51.4278555" lon="9.0544558">
        <ele>221.3400001525879</ele>
        <hdop>5.0</hdop>
        <time>2013-07-09T16:42:02Z</time>
        <extensions>
          <speed>6.607808589935303</speed>
        </extensions>
      </trkpt>
      <trkpt lat="51.4282321" lon="9.0547917">
        <ele>223.3400001525879</ele>
        <hdop>5.0</hdop>
        <time>2013-07-09T16:42:08Z</time>
        <extensions>
          <speed>7.283215045928955</speed>
        </extensions>
      </trkpt>
      <trkpt lat="51.4285108" lon="9.0551139">
        <ele>221.3400001525879</ele>
        <hdop>5.0</hdop>
        <time>2013-07-09T16:42:13Z</time>
        <extensions>
          <speed>7.215274810791016</speed>
        </extensions>
      </trkpt>
      <trkpt lat="51.4288189" lon="9.0554893">
        <ele>221.3400001525879</ele>
        <hdop>5.0</hdop>
        <time>2013-07-09T16:42:19Z</time>
        <extensions>
          <speed>6.263168811798096</speed>
        </extensions>
      </trkpt>
      <trkpt lat="51.4290669" lon="9.0556722">
        <ele>218.3400001525879</ele>
        <hdop>10.0</hdop>
        <time>2013-07-09T16:42:24Z</time>
        <extensions>
          <speed>4.846629619598389</speed>
        </extensions>
      </trkpt>
      <trkpt lat="51.4290643" lon="9.0560261">
        <ele>215.3400001525879</ele>
        <hdop>10.0</hdop>
        <time>2013-07-09T16:42:29Z</time>
        <extensions>
          <speed>6.185604572296143</speed>
        </extensions>
      </trkpt>
      <trkpt lat="51.4289194" lon="9.0565525">
        <ele>214.3400001525879</ele>
        <hdop>10.0</hdop>
        <time>2013-07-09T16:42:34Z</time>
        <extensions>
          <speed>7.536605358123779</speed>
        </extensions>
      </trkpt>
      <trkpt lat="51.4287927" lon="9.0572208">
        <ele>214.3400001525879</ele>
        <hdop>5.0</hdop>
        <time>2013-07-09T16:42:40Z</time>
        <extensions>
          <speed>7.647752285003662</speed>
        </extensions>
      </trkpt>
      <trkpt lat="51.4287165" lon="9.0577901">
        <ele>216.3400001525879</ele>
        <hdop>5.0</hdop>
        <time>2013-07-09T16:42:45Z</time>
        <extensions>
          <speed>8.332418441772461</speed>
        </extensions>
      </trkpt>
      <trkpt lat="51.4284512" lon="9.0583411">
        <ele>221.3400001525879</ele>
        <hdop>5.0</hdop>
        <time>2013-07-09T16:42:50Z</time>
        <extensions>
          <speed>10.835362434387207</speed>
        </extensions>
      </trkpt>
      <trkpt lat="51.4278356" lon="9.0585809">
        <ele>212.3400001525879</ele>
        <hdop>10.0</hdop>
        <time>2013-07-09T16:42:56Z</time>
        <extensions>
          <speed>11.38344955444336</speed>
        </extensions>
      </trkpt>
      <trkpt lat="51.4271935" lon="9.0587185">
        <ele>215.3400001525879</ele>
        <hdop>5.0</hdop>
        <time>2013-07-09T16:43:02Z</time>
        <extensions>
          <speed>11.44021987915039</speed>
        </extensions>
      </trkpt>
      <trkpt lat="51.4267129" lon="9.0588804">
        <ele>205.3400001525879</ele>
        <hdop>5.0</hdop>
        <time>2013-07-09T16:43:07Z</time>
        <extensions>
          <speed>10.94356632232666</speed>
        </extensions>
      </trkpt>
      <trkpt lat="51.4261293" lon="9.0590757">
        <ele>205.3400001525879</ele>
        <hdop>5.0</hdop>
        <time>2013-07-09T16:43:13Z</time>
        <extensions>
          <speed>11.025641441345215</speed>
        </extensions>
      </trkpt>
      <trkpt lat="51.4255308" lon="9.0592654">
        <ele>207.3400001525879</ele>
        <hdop>5.0</hdop>
        <time>2013-07-09T16:43:19Z</time>
        <extensions>
          <speed>11.536665916442871</speed>
        </extensions>
      </trkpt>
      <trkpt lat="51.4249105" lon="9.0594575">
        <ele>203.3400001525879</ele>
        <hdop>5.0</hdop>
        <time>2013-07-09T16:43:25Z</time>
        <extensions>
          <speed>11.787201881408691</speed>
        </extensions>
      </trkpt>
      <trkpt lat="51.4243011" lon="9.05964">
        <ele>201.3400001525879</ele>
        <hdop>5.0</hdop>
        <time>2013-07-09T16:43:31Z</time>
        <extensions>
          <speed>11.698723793029785</speed>
        </extensions>
      </trkpt>
      <trkpt lat="51.4237734" lon="9.0597881">
        <ele>201.3400001525879</ele>
        <hdop>5.0</hdop>
        <time>2013-07-09T16:43:36Z</time>
        <extensions>
          <speed>11.584759712219238</speed>
        </extensions>
      </trkpt>
      <trkpt lat="51.4232581" lon="9.0599582">
        <ele>198.3400001525879</ele>
        <hdop>5.0</hdop>
        <time>2013-07-09T16:43:41Z</time>
        <extensions>
          <speed>12.106706619262695</speed>
        </extensions>
      </trkpt>
      <trkpt lat="51.4226182" lon="9.0602064">
        <ele>198.3400001525879</ele>
        <hdop>5.0</hdop>
        <time>2013-07-09T16:43:47Z</time>
        <extensions>
          <speed>11.047562599182129</speed>
        </extensions>
      </trkpt>
      <trkpt lat="51.4221679" lon="9.0604206">
        <ele>201.3400001525879</ele>
        <hdop>5.0</hdop>
        <time>2013-07-09T16:43:52Z</time>
        <extensions>
          <speed>10.288107872009277</speed>
        </extensions>
      </trkpt>
      <trkpt lat="51.4216938" lon="9.0607048">
        <ele>197.3400001525879</ele>
        <hdop>5.0</hdop>
        <time>2013-07-09T16:43:58Z</time>
        <extensions>
          <speed>8.97510814666748</speed>
        </extensions>
      </trkpt>
      <trkpt lat="51.4213343" lon="9.0609273">
        <ele>201.3400001525879</ele>
        <hdop>5.0</hdop>
        <time>2013-07-09T16:44:03Z</time>
        <extensions>
          <speed>8.019469261169434</speed>
        </extensions>
      </trkpt>
      <trkpt lat="51.4209597" lon="9.0611138">
        <ele>203.3400001525879</ele>
        <hdop>5.0</hdop>
        <time>2013-07-09T16:44:09Z</time>
        <extensions>
          <speed>6.737728595733643</speed>
        </extensions>
      </trkpt>
      <trkpt lat="51.4205818" lon="9.0612305">
        <ele>206.3400001525879</ele>
        <hdop>5.0</hdop>
        <time>2013-07-09T16:44:15Z</time>
        <extensions>
          <speed>6.457613945007324</speed>
        </extensions>
      </trkpt>
      <trkpt lat="51.4202468" lon="9.0612588">
        <ele>206.3400001525879</ele>
        <hdop>5.0</hdop>
        <time>2013-07-09T16:44:21Z</time>
        <extensions>
          <speed>6.032654285430908</speed>
        </extensions>
      </trkpt>
      <trkpt lat="51.4199703" lon="9.0612531">
        <ele>207.3400001525879</ele>
        <hdop>5.0</hdop>
        <time>2013-07-09T16:44:26Z</time>
        <extensions>
          <speed>5.908473491668701</speed>
        </extensions>
      </trkpt>
      <trkpt lat="51.4197016" lon="9.0612425">
        <ele>211.3400001525879</ele>
        <hdop>5.0</hdop>
        <time>2013-07-09T16:44:31Z</time>
        <extensions>
          <speed>5.984616279602051</speed>
        </extensions>
      </trkpt>
      <trkpt lat="51.4193792" lon="9.061214">
        <ele>212.3400001525879</ele>
        <hdop>5.0</hdop>
        <time>2013-07-09T16:44:37Z</time>
        <extensions>
          <speed>6.080326080322266</speed>
        </extensions>
      </trkpt>
      <trkpt lat="51.4190561" lon="9.0612192">
        <ele>211.3400001525879</ele>
        <hdop>5.0</hdop>
        <time>2013-07-09T16:44:43Z</time>
        <extensions>
          <speed>6.326993465423584</speed>
        </extensions>
      </trkpt>
      <trkpt lat="51.4187709" lon="9.0612816">
        <ele>210.3400001525879</ele>
        <hdop>5.0</hdop>
        <time>2013-07-09T16:44:48Z</time>
        <extensions>
          <speed>6.495120048522949</speed>
        </extensions>
      </trkpt>
      <trkpt lat="51.4184112" lon="9.0614235">
        <ele>212.3400001525879</ele>
        <hdop>5.0</hdop>
        <time>2013-07-09T16:44:54Z</time>
        <extensions>
          <speed>6.9369893074035645</speed>
        </extensions>
      </trkpt>
      <trkpt lat="51.4181018" lon="9.0615951">
        <ele>217.3400001525879</ele>
        <hdop>5.0</hdop>
        <time>2013-07-09T16:44:59Z</time>
        <extensions>
          <speed>7.007435321807861</speed>
        </extensions>
      </trkpt>
      <trkpt lat="51.417744" lon="9.0618507">
        <ele>214.3400001525879</ele>
        <hdop>5.0</hdop>
        <time>2013-07-09T16:45:05Z</time>
        <extensions>
          <speed>7.7696213722229</speed>
        </extensions>
      </trkpt>
      <trkpt lat="51.417438" lon="9.0621402">
        <ele>211.3400001525879</ele>
        <hdop>5.0</hdop>
        <time>2013-07-09T16:45:10Z</time>
        <extensions>
          <speed>7.927664756774902</speed>
        </extensions>
      </trkpt>
      <trkpt lat="51.4170832" lon="9.0625511">
        <ele>213.3400001525879</ele>
        <hdop>5.0</hdop>
        <time>2013-07-09T16:45:16Z</time>
        <extensions>
          <speed>7.978376865386963</speed>
        </extensions>
      </trkpt>
      <trkpt lat="51.4167477" lon="9.0629538">
        <ele>211.3400001525879</ele>
        <hdop>5.0</hdop>
        <time>2013-07-09T16:45:22Z</time>
        <extensions>
          <speed>8.239922523498535</speed>
        </extensions>
      </trkpt>
      <trkpt lat="51.4163811" lon="9.0633739">
        <ele>210.3400001525879</ele>
        <hdop>5.0</hdop>
        <time>2013-07-09T16:45:28Z</time>
        <extensions>
          <speed>8.159602165222168</speed>
        </extensions>
      </trkpt>
      <trkpt lat="51.4160216" lon="9.0637958">
        <ele>211.3400001525879</ele>
        <hdop>5.0</hdop>
        <time>2013-07-09T16:45:34Z</time>
        <extensions>
          <speed>8.355744361877441</speed>
        </extensions>
      </trkpt>
      <trkpt lat="51.4156294" lon="9.0642473">
        <ele>210.3400001525879</ele>
        <hdop>5.0</hdop>
        <time>2013-07-09T16:45:40Z</time>
        <extensions>
          <speed>9.048178672790527</speed>
        </extensions>
      </trkpt>
      <trkpt lat="51.4152948" lon="9.0646375">
        <ele>209.3400001525879</ele>
        <hdop>5.0</hdop>
        <time>2013-07-09T16:45:45Z</time>
        <extensions>
          <speed>9.805206298828125</speed>
        </extensions>
      </trkpt>
      <trkpt lat="51.4148402" lon="9.0651601">
        <ele>206.3400001525879</ele>
        <hdop>5.0</hdop>
        <time>2013-07-09T16:45:51Z</time>
        <extensions>
          <speed>10.613746643066406</speed>
        </extensions>
      </trkpt>
      <trkpt lat="51.4143574" lon="9.0657245">
        <ele>206.3400001525879</ele>
        <hdop>5.0</hdop>
        <time>2013-07-09T16:45:57Z</time>
        <extensions>
          <speed>10.96772289276123</speed>
        </extensions>
      </trkpt>
      <trkpt lat="51.4139818" lon="9.066151">
        <ele>198.3400001525879</ele>
        <hdop>5.0</hdop>
        <time>2013-07-09T16:46:02Z</time>
        <extensions>
          <speed>10.399091720581055</speed>
        </extensions>
      </trkpt>
      <trkpt lat="51.4135281" lon="9.0666681">
        <ele>198.3400001525879</ele>
        <hdop>5.0</hdop>
        <time>2013-07-09T16:46:08Z</time>
        <extensions>
          <speed>10.094923973083496</speed>
        </extensions>
      </trkpt>
      <trkpt lat="51.4130806" lon="9.0671132">
        <ele>203.3400001525879</ele>
        <hdop>5.0</hdop>
        <time>2013-07-09T16:46:14Z</time>
        <extensions>
          <speed>9.408461570739746</speed>
        </extensions>
      </trkpt>
      <trkpt lat="51.4127278" lon="9.0674471">
        <ele>200.3400001525879</ele>
        <hdop>5.0</hdop>
        <time>2013-07-09T16:46:19Z</time>
        <extensions>
          <speed>8.821676254272461</speed>
        </extensions>
      </trkpt>
      <trkpt lat="51.4124243" lon="9.0677482">
        <ele>204.3400001525879</ele>
        <hdop>5.0</hdop>
        <time>2013-07-09T16:46:24Z</time>
        <extensions>
          <speed>7.739017963409424</speed>
        </extensions>
      </trkpt>
      <trkpt lat="51.4120765" lon="9.0680853">
        <ele>206.3400001525879</ele>
        <hdop>5.0</hdop>
        <time>2013-07-09T16:46:30Z</time>
        <extensions>
          <speed>7.226051330566406</speed>
        </extensions>
      </trkpt>
      <trkpt lat="51.4117414" lon="9.0683974">
        <ele>206.3400001525879</ele>
        <hdop>5.0</hdop>
        <time>2013-07-09T16:46:36Z</time>
        <extensions>
          <speed>7.027584075927734</speed>
        </extensions>
      </trkpt>
      <trkpt lat="51.4114787" lon="9.068647">
        <ele>214.3400001525879</ele>
        <hdop>5.0</hdop>
        <time>2013-07-09T16:46:41Z</time>
        <extensions>
          <speed>6.9774885177612305</speed>
        </extensions>
      </trkpt>
      <trkpt lat="51.4111451" lon="9.0689872">
        <ele>208.3400001525879</ele>
        <hdop>5.0</hdop>
        <time>2013-07-09T16:46:47Z</time>
        <extensions>
          <speed>7.347829818725586</speed>
        </extensions>
      </trkpt>
      <trkpt lat="51.4108646" lon="9.0692491">
        <ele>209.3400001525879</ele>
        <hdop>5.0</hdop>
        <time>2013-07-09T16:46:52Z</time>
        <extensions>
          <speed>7.445279598236084</speed>
        </extensions>
      </trkpt>
      <trkpt lat="51.4105623" lon="9.0695341">
        <ele>208.3400001525879</ele>
        <hdop>5.0</hdop>
        <time>2013-07-09T16:46:57Z</time>
        <extensions>
          <speed>8.138989448547363</speed>
        </extensions>
      </trkpt>
      <trkpt lat="51.4101556" lon="9.0699122">
        <ele>203.3400001525879</ele>
        <hdop>5.0</hdop>
        <time>2013-07-09T16:47:03Z</time>
        <extensions>
          <speed>8.79484748840332</speed>
        </extensions>
      </trkpt>
      <trkpt lat="51.4097219" lon="9.0702862">
        <ele>208.3400001525879</ele>
        <hdop>5.0</hdop>
        <time>2013-07-09T16:47:09Z</time>
        <extensions>
          <speed>9.041595458984375</speed>
        </extensions>
      </trkpt>
      <trkpt lat="51.4092616" lon="9.0706407">
        <ele>208.3400001525879</ele>
        <hdop>5.0</hdop>
        <time>2013-07-09T16:47:15Z</time>
        <extensions>
          <speed>9.366785049438477</speed>
        </extensions>
      </trkpt>
      <trkpt lat="51.4087988" lon="9.0709821">
        <ele>203.3400001525879</ele>
        <hdop>5.0</hdop>
        <time>2013-07-09T16:47:21Z</time>
        <extensions>
          <speed>9.741475105285645</speed>
        </extensions>
      </trkpt>
      <trkpt lat="51.4083873" lon="9.0712491">
        <ele>199.3400001525879</ele>
        <hdop>5.0</hdop>
        <time>2013-07-09T16:47:26Z</time>
        <extensions>
          <speed>10.201274871826172</speed>
        </extensions>
      </trkpt>
      <trkpt lat="51.4078484" lon="9.0715503">
        <ele>198.3400001525879</ele>
        <hdop>5.0</hdop>
        <time>2013-07-09T16:47:32Z</time>
        <extensions>
          <speed>10.295056343078613</speed>
        </extensions>
      </trkpt>
      <trkpt lat="51.407392" lon="9.0717817">
        <ele>201.3400001525879</ele>
        <hdop>5.0</hdop>
        <time>2013-07-09T16:47:37Z</time>
        <extensions>
          <speed>10.581585884094238</speed>
        </extensions>
      </trkpt>
      <trkpt lat="51.4068453" lon="9.0720215">
        <ele>203.3400001525879</ele>
        <hdop>5.0</hdop>
        <time>2013-07-09T16:47:43Z</time>
        <extensions>
          <speed>10.050003051757813</speed>
        </extensions>
      </trkpt>
      <trkpt lat="51.4064084" lon="9.072182">
        <ele>199.3400001525879</ele>
        <hdop>5.0</hdop>
        <time>2013-07-09T16:47:48Z</time>
        <extensions>
          <speed>10.208113670349121</speed>
        </extensions>
      </trkpt>
      <trkpt lat="51.4059654" lon="9.0723355">
        <ele>199.3400001525879</ele>
        <hdop>5.0</hdop>
        <time>2013-07-09T16:47:53Z</time>
        <extensions>
          <speed>9.972783088684082</speed>
        </extensions>
      </trkpt>
      <trkpt lat="51.405534" lon="9.0724904">
        <ele>197.3400001525879</ele>
        <hdop>5.0</hdop>
        <time>2013-07-09T16:47:58Z</time>
        <extensions>
          <speed>9.337569236755371</speed>
        </extensions>
      </trkpt>
      <trkpt lat="51.4051359" lon="9.0726331">
        <ele>196.3400001525879</ele>
        <hdop>5.0</hdop>
        <time>2013-07-09T16:48:03Z</time>
        <extensions>
          <speed>9.227397918701172</speed>
        </extensions>
      </trkpt>
      <trkpt lat="51.4046432" lon="9.0728104">
        <ele>193.3400001525879</ele>
        <hdop>5.0</hdop>
        <time>2013-07-09T16:48:09Z</time>
        <extensions>
          <speed>9.057084083557129</speed>
        </extensions>
      </trkpt>
      <trkpt lat="51.4042394" lon="9.0729614">
        <ele>196.3400001525879</ele>
        <hdop>5.0</hdop>
        <time>2013-07-09T16:48:14Z</time>
        <extensions>
          <speed>9.015007019042969</speed>
        </extensions>
      </trkpt>
      <trkpt lat="51.4038733" lon="9.0731026">
        <ele>195.3400001525879</ele>
        <hdop>5.0</hdop>
        <time>2013-07-09T16:48:19Z</time>
        <extensions>
          <speed>7.7139973640441895</speed>
        </extensions>
      </trkpt>
      <trkpt lat="51.403513" lon="9.0732378">
        <ele>197.3400001525879</ele>
        <hdop>5.0</hdop>
        <time>2013-07-09T16:48:24Z</time>
        <extensions>
          <speed>7.519865036010742</speed>
        </extensions>
      </trkpt>
      <trkpt lat="51.4031023" lon="9.0733831">
        <ele>198.3400001525879</ele>
        <hdop>30.0</hdop>
        <time>2013-07-09T16:48:30Z</time>
        <extensions>
          <speed>6.692078590393066</speed>
        </extensions>
      </trkpt>
      <trkpt lat="51.4027899" lon="9.0734705">
        <ele>198.3400001525879</ele>
        <hdop>10.0</hdop>
        <time>2013-07-09T16:48:35Z</time>
        <extensions>
          <speed>5.371860504150391</speed>
        </extensions>
      </trkpt>
      <trkpt lat="51.4024255" lon="9.0736322">
        <ele>205.3400001525879</ele>
        <hdop>10.0</hdop>
        <time>2013-07-09T16:48:41Z</time>
        <extensions>
          <speed>6.604306697845459</speed>
        </extensions>
      </trkpt>
      <trkpt lat="51.4021607" lon="9.0737913">
        <ele>204.3400001525879</ele>
        <hdop>10.0</hdop>
        <time>2013-07-09T16:48:47Z</time>
        <extensions>
          <speed>4.1920061111450195</speed>
        </extensions>
      </trkpt>
      <trkpt lat="51.4018905" lon="9.0732997">
        <ele>204.3400001525879</ele>
        <hdop>10.0</hdop>
        <time>2013-07-09T16:48:53Z</time>
        <extensions>
          <speed>8.93235969543457</speed>
        </extensions>
      </trkpt>
      <trkpt lat="51.4014715" lon="9.0728752">
        <ele>195.3400001525879</ele>
        <hdop>5.0</hdop>
        <time>2013-07-09T16:48:59Z</time>
        <extensions>
          <speed>9.270811080932617</speed>
        </extensions>
      </trkpt>
      <trkpt lat="51.4010376" lon="9.0731484">
        <ele>190.3400001525879</ele>
        <hdop>10.0</hdop>
        <time>2013-07-09T16:49:04Z</time>
        <extensions>
          <speed>10.713580131530762</speed>
        </extensions>
      </trkpt>
      <trkpt lat="51.4005464" lon="9.0735036">
        <ele>188.3400001525879</ele>
        <hdop>5.0</hdop>
        <time>2013-07-09T16:49:10Z</time>
        <extensions>
          <speed>9.29639720916748</speed>
        </extensions>
      </trkpt>
      <trkpt lat="51.4001195" lon="9.0733885">
        <ele>190.3400001525879</ele>
        <hdop>5.0</hdop>
        <time>2013-07-09T16:49:15Z</time>
        <extensions>
          <speed>9.216459274291992</speed>
        </extensions>
      </trkpt>
      <trkpt lat="51.3997013" lon="9.0729364">
        <ele>190.3400001525879</ele>
        <hdop>5.0</hdop>
        <time>2013-07-09T16:49:21Z</time>
        <extensions>
          <speed>8.403322219848633</speed>
        </extensions>
      </trkpt>
      <trkpt lat="51.3993248" lon="9.0725474">
        <ele>187.3400001525879</ele>
        <hdop>5.0</hdop>
        <time>2013-07-09T16:49:27Z</time>
        <extensions>
          <speed>8.293206214904785</speed>
        </extensions>
      </trkpt>
      <trkpt lat="51.3989871" lon="9.0722437">
        <ele>188.3400001525879</ele>
        <hdop>5.0</hdop>
        <time>2013-07-09T16:49:32Z</time>
        <extensions>
          <speed>8.199285507202148</speed>
        </extensions>
      </trkpt>
      <trkpt lat="51.3985828" lon="9.0719038">
        <ele>190.3400001525879</ele>
        <hdop>5.0</hdop>
        <time>2013-07-09T16:49:38Z</time>
        <extensions>
          <speed>7.925169467926025</speed>
        </extensions>
      </trkpt>
      <trkpt lat="51.3982744" lon="9.0715982">
        <ele>190.3400001525879</ele>
        <hdop>5.0</hdop>
        <time>2013-07-09T16:49:43Z</time>
        <extensions>
          <speed>7.309361457824707</speed>
        </extensions>
      </trkpt>
      <trkpt lat="51.397972" lon="9.0711688">
        <ele>194.3400001525879</ele>
        <hdop>10.0</hdop>
        <time>2013-07-09T16:49:49Z</time>
        <extensions>
          <speed>6.485441207885742</speed>
        </extensions>
      </trkpt>
      <trkpt lat="51.3976825" lon="9.0708033">
        <ele>191.3400001525879</ele>
        <hdop>10.0</hdop>
        <time>2013-07-09T16:49:54Z</time>
        <extensions>
          <speed>6.517553329467773</speed>
        </extensions>
      </trkpt>
      <trkpt lat="51.3973338" lon="9.0705577">
        <ele>193.3400001525879</ele>
        <hdop>5.0</hdop>
        <time>2013-07-09T16:50:00Z</time>
        <extensions>
          <speed>5.724592208862305</speed>
        </extensions>
      </trkpt>
      <trkpt lat="51.3970782" lon="9.0706062">
        <ele>192.3400001525879</ele>
        <hdop>10.0</hdop>
        <time>2013-07-09T16:50:05Z</time>
        <extensions>
          <speed>4.777980804443359</speed>
        </extensions>
      </trkpt>
      <trkpt lat="51.396767" lon="9.070717">
        <ele>199.3400001525879</ele>
        <hdop>10.0</hdop>
        <time>2013-07-09T16:50:11Z</time>
        <extensions>
          <speed>5.111480236053467</speed>
        </extensions>
      </trkpt>
      <trkpt lat="51.3964995" lon="9.0709284">
        <ele>196.3400001525879</ele>
        <hdop>10.0</hdop>
        <time>2013-07-09T16:50:16Z</time>
        <extensions>
          <speed>5.44556188583374</speed>
        </extensions>
      </trkpt>
      <trkpt lat="51.3962741" lon="9.0712796">
        <ele>194.3400001525879</ele>
        <hdop>10.0</hdop>
        <time>2013-07-09T16:50:22Z</time>
        <extensions>
          <speed>4.930607795715332</speed>
        </extensions>
      </trkpt>
      <trkpt lat="51.3960112" lon="9.0716551">
        <ele>187.3400001525879</ele>
        <hdop>5.0</hdop>
        <time>2013-07-09T16:50:28Z</time>
        <extensions>
          <speed>6.358001708984375</speed>
        </extensions>
      </trkpt>
      <trkpt lat="51.3957876" lon="9.0719974">
        <ele>192.3400001525879</ele>
        <hdop>10.0</hdop>
        <time>2013-07-09T16:50:33Z</time>
        <extensions>
          <speed>5.72913932800293</speed>
        </extensions>
      </trkpt>
      <trkpt lat="51.3955272" lon="9.0723897">
        <ele>189.3400001525879</ele>
        <hdop>5.0</hdop>
        <time>2013-07-09T16:50:38Z</time>
        <extensions>
          <speed>8.131753921508789</speed>
        </extensions>
      </trkpt>
      <trkpt lat="51.3951568" lon="9.0729032">
        <ele>189.3400001525879</ele>
        <hdop>15.0</hdop>
        <time>2013-07-09T16:50:44Z</time>
        <extensions>
          <speed>8.785741806030273</speed>
        </extensions>
      </trkpt>
      <trkpt lat="51.3948452" lon="9.0733034">
        <ele>186.3400001525879</ele>
        <hdop>10.0</hdop>
        <time>2013-07-09T16:50:49Z</time>
        <extensions>
          <speed>7.429055690765381</speed>
        </extensions>
      </trkpt>
      <trkpt lat="51.3944792" lon="9.0736485">
        <ele>188.3400001525879</ele>
        <hdop>10.0</hdop>
        <time>2013-07-09T16:50:55Z</time>
        <extensions>
          <speed>5.86192512512207</speed>
        </extensions>
      </trkpt>
      <trkpt lat="51.3941752" lon="9.0738709">
        <ele>186.3400001525879</ele>
        <hdop>10.0</hdop>
        <time>2013-07-09T16:51:00Z</time>
        <extensions>
          <speed>5.029029369354248</speed>
        </extensions>
      </trkpt>
      <trkpt lat="51.3938555" lon="9.0740861">
        <ele>189.3400001525879</ele>
        <hdop>15.0</hdop>
        <time>2013-07-09T16:51:05Z</time>
        <extensions>
          <speed>5.065207004547119</speed>
        </extensions>
      </trkpt>
      <trkpt lat="51.3934441" lon="9.0742324">
        <ele>192.3400001525879</ele>
        <hdop>10.0</hdop>
        <time>2013-07-09T16:51:10Z</time>
        <extensions>
          <speed>5.745832443237305</speed>
        </extensions>
      </trkpt>
      <trkpt lat="51.3931027" lon="9.0743121">
        <ele>193.3400001525879</ele>
        <hdop>5.0</hdop>
        <time>2013-07-09T16:51:15Z</time>
        <extensions>
          <speed>6.075564861297607</speed>
        </extensions>
      </trkpt>
      <trkpt lat="51.3927476" lon="9.0743874">
        <ele>194.3400001525879</ele>
        <hdop>5.0</hdop>
        <time>2013-07-09T16:51:21Z</time>
        <extensions>
          <speed>4.01943826675415</speed>
        </extensions>
      </trkpt>
      <trkpt lat="51.392549" lon="9.074446">
        <ele>192.3400001525879</ele>
        <hdop>5.0</hdop>
        <time>2013-07-09T16:51:27Z</time>
        <extensions>
          <speed>5.528207778930664</speed>
        </extensions>
      </trkpt>
      <trkpt lat="51.3925326" lon="9.0748417">
        <ele>194.3400001525879</ele>
        <hdop>10.0</hdop>
        <time>2013-07-09T16:51:32Z</time>
        <extensions>
          <speed>5.3329596519470215</speed>
        </extensions>
      </trkpt>
      <trkpt lat="51.3925487" lon="9.0753503">
        <ele>193.3400001525879</ele>
        <hdop>10.0</hdop>
        <time>2013-07-09T16:51:38Z</time>
        <extensions>
          <speed>5.184610366821289</speed>
        </extensions>
      </trkpt>
      <trkpt lat="51.3926219" lon="9.0757656">
        <ele>195.3400001525879</ele>
        <hdop>10.0</hdop>
        <time>2013-07-09T16:51:43Z</time>
        <extensions>
          <speed>6.648650169372559</speed>
        </extensions>
      </trkpt>
      <trkpt lat="51.3928015" lon="9.0762525">
        <ele>191.3400001525879</ele>
        <hdop>15.0</hdop>
        <time>2013-07-09T16:51:49Z</time>
        <extensions>
          <speed>6.614675998687744</speed>
        </extensions>
      </trkpt>
      <trkpt lat="51.3929846" lon="9.0767779">
        <ele>193.3400001525879</ele>
        <hdop>15.0</hdop>
        <time>2013-07-09T16:51:55Z</time>
        <extensions>
          <speed>5.333604335784912</speed>
        </extensions>
      </trkpt>
      <trkpt lat="51.3930006" lon="9.0772715">
        <ele>198.3400001525879</ele>
        <hdop>10.0</hdop>
        <time>2013-07-09T16:52:01Z</time>
        <extensions>
          <speed>6.422181606292725</speed>
        </extensions>
      </trkpt>
      <trkpt lat="51.3928961" lon="9.0777793">
        <ele>194.3400001525879</ele>
        <hdop>10.0</hdop>
        <time>2013-07-09T16:52:07Z</time>
        <extensions>
          <speed>5.2741193771362305</speed>
        </extensions>
      </trkpt>
      <trkpt lat="51.3925533" lon="9.0779948">
        <ele>204.3400001525879</ele>
        <hdop>10.0</hdop>
        <time>2013-07-09T16:52:12Z</time>
        <extensions>
          <speed>4.305323600769043</speed>
        </extensions>
      </trkpt>
      <trkpt lat="51.392268" lon="9.0780646">
        <ele>204.3400001525879</ele>
        <hdop>10.0</hdop>
        <time>2013-07-09T16:52:18Z</time>
        <extensions>
          <speed>3.4437575340270996</speed>
        </extensions>
      </trkpt>
      <trkpt lat="51.3920502" lon="9.0781453">
        <ele>209.3400001525879</ele>
        <hdop>5.0</hdop>
        <time>2013-07-09T16:52:23Z</time>
        <extensions>
          <speed>2.952303409576416</speed>
        </extensions>
      </trkpt>
      <trkpt lat="51.3919144" lon="9.0781856">
        <ele>206.3400001525879</ele>
        <hdop>5.0</hdop>
        <time>2013-07-09T16:52:29Z</time>
        <extensions>
          <speed>2.298582077026367</speed>
        </extensions>
      </trkpt>
      <trkpt lat="51.3918213" lon="9.0781943">
        <ele>205.3400001525879</ele>
        <hdop>5.0</hdop>
        <time>2013-07-09T16:52:35Z</time>
        <extensions>
          <speed>1.674380898475647</speed>
        </extensions>
      </trkpt>
      <trkpt lat="51.3917497" lon="9.0782289">
        <ele>207.3400001525879</ele>
        <hdop>5.0</hdop>
        <time>2013-07-09T16:52:41Z</time>
        <extensions>
          <speed>1.3674697875976563</speed>
        </extensions>
      </trkpt>
      <trkpt lat="51.3916818" lon="9.0782548">
        <ele>211.3400001525879</ele>
        <hdop>5.0</hdop>
        <time>2013-07-09T16:52:46Z</time>
        <extensions>
          <speed>2.1114156246185303</speed>
        </extensions>
      </trkpt>
      <trkpt lat="51.3915591" lon="9.0783172">
        <ele>211.3400001525879</ele>
        <hdop>5.0</hdop>
        <time>2013-07-09T16:52:51Z</time>
        <extensions>
          <speed>2.7828621864318848</speed>
        </extensions>
      </trkpt>
      <trkpt lat="51.3914117" lon="9.07838">
        <ele>211.3400001525879</ele>
        <hdop>5.0</hdop>
        <time>2013-07-09T16:52:57Z</time>
        <extensions>
          <speed>3.0404884815216064</speed>
        </extensions>
      </trkpt>
      <trkpt lat="51.3912379" lon="9.0784696">
        <ele>213.3400001525879</ele>
        <hdop>5.0</hdop>
        <time>2013-07-09T16:53:03Z</time>
        <extensions>
          <speed>4.136279582977295</speed>
        </extensions>
      </trkpt>
      <trkpt lat="51.3909724" lon="9.0785875">
        <ele>216.3400001525879</ele>
        <hdop>5.0</hdop>
        <time>2013-07-09T16:53:08Z</time>
        <extensions>
          <speed>6.475339889526367</speed>
        </extensions>
      </trkpt>
      <trkpt lat="51.3906245" lon="9.0787474">
        <ele>214.3400001525879</ele>
        <hdop>5.0</hdop>
        <time>2013-07-09T16:53:14Z</time>
        <extensions>
          <speed>6.789361476898193</speed>
        </extensions>
      </trkpt>
      <trkpt lat="51.3903317" lon="9.0788812">
        <ele>216.3400001525879</ele>
        <hdop>5.0</hdop>
        <time>2013-07-09T16:53:19Z</time>
        <extensions>
          <speed>6.735259056091309</speed>
        </extensions>
      </trkpt>
      <trkpt lat="51.3900456" lon="9.079021">
        <ele>215.3400001525879</ele>
        <hdop>5.0</hdop>
        <time>2013-07-09T16:53:24Z</time>
        <extensions>
          <speed>6.88478422164917</speed>
        </extensions>
      </trkpt>
      <trkpt lat="51.3896943" lon="9.0791842">
        <ele>216.3400001525879</ele>
        <hdop>5.0</hdop>
        <time>2013-07-09T16:53:30Z</time>
        <extensions>
          <speed>6.9292449951171875</speed>
        </extensions>
      </trkpt>
      <trkpt lat="51.389318" lon="9.0793533">
        <ele>216.3400001525879</ele>
        <hdop>5.0</hdop>
        <time>2013-07-09T16:53:36Z</time>
        <extensions>
          <speed>7.394008159637451</speed>
        </extensions>
      </trkpt>
      <trkpt lat="51.3889364" lon="9.0795318">
        <ele>220.3400001525879</ele>
        <hdop>5.0</hdop>
        <time>2013-07-09T16:53:42Z</time>
        <extensions>
          <speed>6.964837074279785</speed>
        </extensions>
      </trkpt>
      <trkpt lat="51.3885982" lon="9.0796714">
        <ele>219.3400001525879</ele>
        <hdop>5.0</hdop>
        <time>2013-07-09T16:53:48Z</time>
        <extensions>
          <speed>5.725568771362305</speed>
        </extensions>
      </trkpt>
      <trkpt lat="51.3883714" lon="9.0797775">
        <ele>219.3400001525879</ele>
        <hdop>5.0</hdop>
        <time>2013-07-09T16:53:53Z</time>
        <extensions>
          <speed>5.193968296051025</speed>
        </extensions>
      </trkpt>
      <trkpt lat="51.3881533" lon="9.0798748">
        <ele>217.3400001525879</ele>
        <hdop>5.0</hdop>
        <time>2013-07-09T16:53:58Z</time>
        <extensions>
          <speed>5.056227207183838</speed>
        </extensions>
      </trkpt>
      <trkpt lat="51.3878986" lon="9.0799748">
        <ele>219.3400001525879</ele>
        <hdop>5.0</hdop>
        <time>2013-07-09T16:54:04Z</time>
        <extensions>
          <speed>5.072210311889648</speed>
        </extensions>
      </trkpt>
      <trkpt lat="51.3876766" lon="9.0800711">
        <ele>221.3400001525879</ele>
        <hdop>5.0</hdop>
        <time>2013-07-09T16:54:09Z</time>
        <extensions>
          <speed>4.5110182762146</speed>
        </extensions>
      </trkpt>
      <trkpt lat="51.387424" lon="9.0801893">
        <ele>226.3400001525879</ele>
        <hdop>5.0</hdop>
        <time>2013-07-09T16:54:15Z</time>
        <extensions>
          <speed>4.477351188659668</speed>
        </extensions>
      </trkpt>
      <trkpt lat="51.3872386" lon="9.0802631">
        <ele>222.3400001525879</ele>
        <hdop>10.0</hdop>
        <time>2013-07-09T16:54:20Z</time>
        <extensions>
          <speed>4.702847480773926</speed>
        </extensions>
      </trkpt>
      <trkpt lat="51.3869866" lon="9.0803656">
        <ele>226.3400001525879</ele>
        <hdop>5.0</hdop>
        <time>2013-07-09T16:54:26Z</time>
        <extensions>
          <speed>4.693337917327881</speed>
        </extensions>
      </trkpt>
      <trkpt lat="51.3867846" lon="9.080471">
        <ele>229.3400001525879</ele>
        <hdop>5.0</hdop>
        <time>2013-07-09T16:54:31Z</time>
        <extensions>
          <speed>4.138103008270264</speed>
        </extensions>
      </trkpt>
      <trkpt lat="51.3865644" lon="9.0806029">
        <ele>227.3400001525879</ele>
        <hdop>5.0</hdop>
        <time>2013-07-09T16:54:37Z</time>
        <extensions>
          <speed>4.7872748374938965</speed>
        </extensions>
      </trkpt>
      <trkpt lat="51.3863255" lon="9.0807767">
        <ele>228.3400001525879</ele>
        <hdop>5.0</hdop>
        <time>2013-07-09T16:54:43Z</time>
        <extensions>
          <speed>4.565479755401611</speed>
        </extensions>
      </trkpt>
      <trkpt lat="51.3861232" lon="9.0810748">
        <ele>223.3400001525879</ele>
        <hdop>10.0</hdop>
        <time>2013-07-09T16:54:49Z</time>
        <extensions>
          <speed>4.212563514709473</speed>
        </extensions>
      </trkpt>
      <trkpt lat="51.3859728" lon="9.0814471">
        <ele>223.3400001525879</ele>
        <hdop>5.0</hdop>
        <time>2013-07-09T16:54:55Z</time>
        <extensions>
          <speed>5.0554399490356445</speed>
        </extensions>
      </trkpt>
      <trkpt lat="51.385766" lon="9.081684">
        <ele>225.3400001525879</ele>
        <hdop>10.0</hdop>
        <time>2013-07-09T16:55:00Z</time>
        <extensions>
          <speed>5.495419025421143</speed>
        </extensions>
      </trkpt>
      <trkpt lat="51.3854454" lon="9.0817907">
        <ele>233.3400001525879</ele>
        <hdop>5.0</hdop>
        <time>2013-07-09T16:55:06Z</time>
        <extensions>
          <speed>6.124902248382568</speed>
        </extensions>
      </trkpt>
      <trkpt lat="51.3850927" lon="9.0817141">
        <ele>236.3400001525879</ele>
        <hdop>5.0</hdop>
        <time>2013-07-09T16:55:12Z</time>
        <extensions>
          <speed>5.481433391571045</speed>
        </extensions>
      </trkpt>
      <trkpt lat="51.3847907" lon="9.0815144">
        <ele>239.3400001525879</ele>
        <hdop>5.0</hdop>
        <time>2013-07-09T16:55:18Z</time>
        <extensions>
          <speed>5.5856194496154785</speed>
        </extensions>
      </trkpt>
      <trkpt lat="51.3845177" lon="9.081266">
        <ele>239.3400001525879</ele>
        <hdop>5.0</hdop>
        <time>2013-07-09T16:55:24Z</time>
        <extensions>
          <speed>5.782130718231201</speed>
        </extensions>
      </trkpt>
      <trkpt lat="51.3842872" lon="9.0810851">
        <ele>237.3400001525879</ele>
        <hdop>5.0</hdop>
        <time>2013-07-09T16:55:29Z</time>
        <extensions>
          <speed>5.70404577255249</speed>
        </extensions>
      </trkpt>
      <trkpt lat="51.3839814" lon="9.0810854">
        <ele>239.3400001525879</ele>
        <hdop>5.0</hdop>
        <time>2013-07-09T16:55:35Z</time>
        <extensions>
          <speed>5.301485061645508</speed>
        </extensions>
      </trkpt>
      <trkpt lat="51.3837233" lon="9.0811763">
        <ele>237.3400001525879</ele>
        <hdop>5.0</hdop>
        <time>2013-07-09T16:55:41Z</time>
        <extensions>
          <speed>4.985495567321777</speed>
        </extensions>
      </trkpt>
      <trkpt lat="51.383489" lon="9.0812506">
        <ele>243.3400001525879</ele>
        <hdop>5.0</hdop>
        <time>2013-07-09T16:55:46Z</time>
        <extensions>
          <speed>5.06287145614624</speed>
        </extensions>
      </trkpt>
      <trkpt lat="51.3832714" lon="9.081302">
        <ele>242.3400001525879</ele>
        <hdop>5.0</hdop>
        <time>2013-07-09T16:55:51Z</time>
        <extensions>
          <speed>4.982363224029541</speed>
        </extensions>
      </trkpt>
      <trkpt lat="51.3830481" lon="9.0813822">
        <ele>238.3400001525879</ele>
        <hdop>5.0</hdop>
        <time>2013-07-09T16:55:56Z</time>
        <extensions>
          <speed>5.131821155548096</speed>
        </extensions>
      </trkpt>
      <trkpt lat="51.3827929" lon="9.081601">
        <ele>240.3400001525879</ele>
        <hdop>5.0</hdop>
        <time>2013-07-09T16:56:02Z</time>
        <extensions>
          <speed>5.650073528289795</speed>
        </extensions>
      </trkpt>
      <trkpt lat="51.3826373" lon="9.0819365">
        <ele>241.3400001525879</ele>
        <hdop>5.0</hdop>
        <time>2013-07-09T16:56:07Z</time>
        <extensions>
          <speed>5.421144008636475</speed>
        </extensions>
      </trkpt>
      <trkpt lat="51.3824872" lon="9.0823502">
        <ele>242.3400001525879</ele>
        <hdop>5.0</hdop>
        <time>2013-07-09T16:56:13Z</time>
        <extensions>
          <speed>5.518061637878418</speed>
        </extensions>
      </trkpt>
      <trkpt lat="51.3823319" lon="9.0827601">
        <ele>242.3400001525879</ele>
        <hdop>5.0</hdop>
        <time>2013-07-09T16:56:19Z</time>
        <extensions>
          <speed>5.615852355957031</speed>
        </extensions>
      </trkpt>
      <trkpt lat="51.382199" lon="9.0830848">
        <ele>243.3400001525879</ele>
        <hdop>5.0</hdop>
        <time>2013-07-09T16:56:24Z</time>
        <extensions>
          <speed>5.219516754150391</speed>
        </extensions>
      </trkpt>
      <trkpt lat="51.3820754" lon="9.0834063">
        <ele>241.3400001525879</ele>
        <hdop>5.0</hdop>
        <time>2013-07-09T16:56:29Z</time>
        <extensions>
          <speed>5.276849269866943</speed>
        </extensions>
      </trkpt>
      <trkpt lat="51.3819139" lon="9.0837604">
        <ele>249.3400001525879</ele>
        <hdop>5.0</hdop>
        <time>2013-07-09T16:56:35Z</time>
        <extensions>
          <speed>5.115503311157227</speed>
        </extensions>
      </trkpt>
      <trkpt lat="51.3817009" lon="9.0840386">
        <ele>251.3400001525879</ele>
        <hdop>5.0</hdop>
        <time>2013-07-09T16:56:41Z</time>
        <extensions>
          <speed>5.069182395935059</speed>
        </extensions>
      </trkpt>
      <trkpt lat="51.3815048" lon="9.0841776">
        <ele>249.3400001525879</ele>
        <hdop>5.0</hdop>
        <time>2013-07-09T16:56:46Z</time>
        <extensions>
          <speed>4.953118324279785</speed>
        </extensions>
      </trkpt>
      <trkpt lat="51.381254" lon="9.0842744">
        <ele>250.3400001525879</ele>
        <hdop>5.0</hdop>
        <time>2013-07-09T16:56:52Z</time>
        <extensions>
          <speed>4.794549942016602</speed>
        </extensions>
      </trkpt>
      <trkpt lat="51.3810293" lon="9.084301">
        <ele>251.3400001525879</ele>
        <hdop>5.0</hdop>
        <time>2013-07-09T16:56:57Z</time>
        <extensions>
          <speed>4.8473052978515625</speed>
        </extensions>
      </trkpt>
      <trkpt lat="51.3807568" lon="9.0843404">
        <ele>255.3400001525879</ele>
        <hdop>5.0</hdop>
        <time>2013-07-09T16:57:03Z</time>
        <extensions>
          <speed>4.572695732116699</speed>
        </extensions>
      </trkpt>
      <trkpt lat="51.3805544" lon="9.0844094">
        <ele>258.3400001525879</ele>
        <hdop>5.0</hdop>
        <time>2013-07-09T16:57:08Z</time>
        <extensions>
          <speed>4.448073387145996</speed>
        </extensions>
      </trkpt>
      <trkpt lat="51.3803272" lon="9.0845562">
        <ele>259.3400001525879</ele>
        <hdop>5.0</hdop>
        <time>2013-07-09T16:57:14Z</time>
        <extensions>
          <speed>4.615906715393066</speed>
        </extensions>
      </trkpt>
      <trkpt lat="51.3801507" lon="9.0847341">
        <ele>260.3400001525879</ele>
        <hdop>5.0</hdop>
        <time>2013-07-09T16:57:19Z</time>
        <extensions>
          <speed>4.56435489654541</speed>
        </extensions>
      </trkpt>
      <trkpt lat="51.3799614" lon="9.085">
        <ele>258.3400001525879</ele>
        <hdop>5.0</hdop>
        <time>2013-07-09T16:57:25Z</time>
        <extensions>
          <speed>4.965170383453369</speed>
        </extensions>
      </trkpt>
      <trkpt lat="51.3798193" lon="9.0852786">
        <ele>259.3400001525879</ele>
        <hdop>5.0</hdop>
        <time>2013-07-09T16:57:30Z</time>
        <extensions>
          <speed>4.890352249145508</speed>
        </extensions>
      </trkpt>
      <trkpt lat="51.3796736" lon="9.0856717">
        <ele>261.3400001525879</ele>
        <hdop>5.0</hdop>
        <time>2013-07-09T16:57:36Z</time>
        <extensions>
          <speed>5.139880657196045</speed>
        </extensions>
      </trkpt>
      <trkpt lat="51.3795762" lon="9.0861173">
        <ele>258.3400001525879</ele>
        <hdop>10.0</hdop>
        <time>2013-07-09T16:57:42Z</time>
        <extensions>
          <speed>5.0767741203308105</speed>
        </extensions>
      </trkpt>
      <trkpt lat="51.3795366" lon="9.0865138">
        <ele>251.3400001525879</ele>
        <hdop>10.0</hdop>
        <time>2013-07-09T16:57:47Z</time>
        <extensions>
          <speed>5.542667865753174</speed>
        </extensions>
      </trkpt>
      <trkpt lat="51.3795148" lon="9.087098">
        <ele>260.3400001525879</ele>
        <hdop>10.0</hdop>
        <time>2013-07-09T16:57:53Z</time>
        <extensions>
          <speed>5.878223896026611</speed>
        </extensions>
      </trkpt>
      <trkpt lat="51.37953" lon="9.0876082">
        <ele>260.3400001525879</ele>
        <hdop>10.0</hdop>
        <time>2013-07-09T16:57:58Z</time>
        <extensions>
          <speed>6.633835315704346</speed>
        </extensions>
      </trkpt>
      <trkpt lat="51.3795554" lon="9.0882315">
        <ele>257.3400001525879</ele>
        <hdop>10.0</hdop>
        <time>2013-07-09T16:58:04Z</time>
        <extensions>
          <speed>7.075196266174316</speed>
        </extensions>
      </trkpt>
      <trkpt lat="51.3795506" lon="9.0888131">
        <ele>255.3400001525879</ele>
        <hdop>5.0</hdop>
        <time>2013-07-09T16:58:09Z</time>
        <extensions>
          <speed>7.782791614532471</speed>
        </extensions>
      </trkpt>
      <trkpt lat="51.3795071" lon="9.0895374">
        <ele>259.3400001525879</ele>
        <hdop>5.0</hdop>
        <time>2013-07-09T16:58:15Z</time>
        <extensions>
          <speed>8.30181884765625</speed>
        </extensions>
      </trkpt>
      <trkpt lat="51.379451" lon="9.0902215">
        <ele>256.3400001525879</ele>
        <hdop>5.0</hdop>
        <time>2013-07-09T16:58:21Z</time>
        <extensions>
          <speed>7.282680511474609</speed>
        </extensions>
      </trkpt>
      <trkpt lat="51.3794241" lon="9.0905327">
        <ele>252.3400001525879</ele>
        <hdop>10.0</hdop>
        <time>2013-07-09T16:58:26Z</time>
        <extensions>
          <speed>2.7787365913391113</speed>
        </extensions>
      </trkpt>
      <trkpt lat="51.3793505" lon="9.0906195">
        <ele>252.3400001525879</ele>
        <hdop>5.0</hdop>
        <time>2013-07-09T16:58:31Z</time>
        <extensions>
          <speed>2.4984188079833984</speed>
        </extensions>
      </trkpt>
      <trkpt lat="51.3793193" lon="9.0906011">
        <ele>256.3400001525879</ele>
        <hdop>10.0</hdop>
        <time>2013-07-09T16:58:37Z</time>
      </trkpt>
      <trkpt lat="51.3793193" lon="9.0906011">
        <ele>256.3400001525879</ele>
        <hdop>5.0</hdop>
        <time>2013-07-09T16:58:43Z</time>
      </trkpt>
      <trkpt lat="51.3793193" lon="9.0906011">
        <ele>256.3400001525879</ele>
        <hdop>10.0</hdop>
        <time>2013-07-09T16:58:48Z</time>
      </trkpt>
      <trkpt lat="51.3793193" lon="9.0906011">
        <ele>256.3400001525879</ele>
        <hdop>5.0</hdop>
        <time>2013-07-09T16:58:54Z</time>
      </trkpt>
      <trkpt lat="51.3793193" lon="9.0906011">
        <ele>256.3400001525879</ele>
        <hdop>15.0</hdop>
        <time>2013-07-09T16:59:00Z</time>
      </trkpt>
      <trkpt lat="51.3793193" lon="9.0906011">
        <ele>256.3400001525879</ele>
        <hdop>5.0</hdop>
        <time>2013-07-09T16:59:05Z</time>
      </trkpt>
      <trkpt lat="51.3793193" lon="9.0906011">
        <ele>256.3400001525879</ele>
        <hdop>5.0</hdop>
        <time>2013-07-09T16:59:11Z</time>
      </trkpt>
      <trkpt lat="51.3793193" lon="9.0906011">
        <ele>256.3400001525879</ele>
        <hdop>5.0</hdop>
        <time>2013-07-09T16:59:17Z</time>
      </trkpt>
      <trkpt lat="51.3793193" lon="9.0906011">
        <ele>256.3400001525879</ele>
        <hdop>5.0</hdop>
        <time>2013-07-09T16:59:23Z</time>
      </trkpt>
      <trkpt lat="51.3793193" lon="9.0906011">
        <ele>256.3400001525879</ele>
        <hdop>5.0</hdop>
        <time>2013-07-09T16:59:28Z</time>
      </trkpt>
      <trkpt lat="51.3793193" lon="9.0906011">
        <ele>256.3400001525879</ele>
        <hdop>5.0</hdop>
        <time>2013-07-09T16:59:33Z</time>
      </trkpt>
      <trkpt lat="51.3793193" lon="9.0906011">
        <ele>256.3400001525879</ele>
        <hdop>5.0</hdop>
        <time>2013-07-09T16:59:39Z</time>
      </trkpt>
      <trkpt lat="51.3793193" lon="9.0906011">
        <ele>256.3400001525879</ele>
        <hdop>5.0</hdop>
        <time>2013-07-09T16:59:45Z</time>
      </trkpt>
      <trkpt lat="51.3793193" lon="9.0906011">
        <ele>256.3400001525879</ele>
        <hdop>5.0</hdop>
        <time>2013-07-09T16:59:51Z</time>
      </trkpt>
      <trkpt lat="51.3793193" lon="9.0906011">
        <ele>256.3400001525879</ele>
        <hdop>5.0</hdop>
        <time>2013-07-09T16:59:56Z</time>
      </trkpt>
      <trkpt lat="51.3793193" lon="9.0906011">
        <ele>256.3400001525879</ele>
        <hdop>5.0</hdop>
        <time>2013-07-09T17:00:02Z</time>
      </trkpt>
      <trkpt lat="51.3793193" lon="9.0906011">
        <ele>256.3400001525879</ele>
        <hdop>25.0</hdop>
        <time>2013-07-09T17:00:07Z</time>
      </trkpt>
      <trkpt lat="51.3793193" lon="9.0906011">
        <ele>256.3400001525879</ele>
        <hdop>5.0</hdop>
        <time>2013-07-09T17:00:13Z</time>
      </trkpt>
      <trkpt lat="51.3793193" lon="9.0906011">
        <ele>256.3400001525879</ele>
        <hdop>5.0</hdop>
        <time>2013-07-09T17:00:19Z</time>
      </trkpt>
      <trkpt lat="51.3793193" lon="9.0906011">
        <ele>256.3400001525879</ele>
        <hdop>10.0</hdop>
        <time>2013-07-09T17:00:25Z</time>
      </trkpt>
      <trkpt lat="51.3793193" lon="9.0906011">
        <ele>256.3400001525879</ele>
        <hdop>5.0</hdop>
        <time>2013-07-09T17:00:30Z</time>
      </trkpt>
      <trkpt lat="51.3792454" lon="9.090601">
        <ele>257.3400001525879</ele>
        <hdop>10.0</hdop>
        <time>2013-07-09T17:00:35Z</time>
        <extensions>
          <speed>2.395207166671753</speed>
        </extensions>
      </trkpt>
      <trkpt lat="51.3789876" lon="9.0905486">
        <ele>253.3400001525879</ele>
        <hdop>5.0</hdop>
        <time>2013-07-09T17:00:41Z</time>
        <extensions>
          <speed>6.444335460662842</speed>
        </extensions>
      </trkpt>
      <trkpt lat="51.3785541" lon="9.0905328">
        <ele>252.3400001525879</ele>
        <hdop>10.0</hdop>
        <time>2013-07-09T17:00:47Z</time>
        <extensions>
          <speed>9.21236801147461</speed>
        </extensions>
      </trkpt>
      <trkpt lat="51.3779468" lon="9.0906098">
        <ele>249.3400001525879</ele>
        <hdop>10.0</hdop>
        <time>2013-07-09T17:00:53Z</time>
        <extensions>
          <speed>12.601088523864746</speed>
        </extensions>
      </trkpt>
      <trkpt lat="51.3772741" lon="9.090681">
        <ele>242.3400001525879</ele>
        <hdop>10.0</hdop>
        <time>2013-07-09T17:00:58Z</time>
        <extensions>
          <speed>14.46638298034668</speed>
        </extensions>
      </trkpt>
      <trkpt lat="51.3764162" lon="9.0906252">
        <ele>241.3400001525879</ele>
        <hdop>10.0</hdop>
        <time>2013-07-09T17:01:04Z</time>
        <extensions>
          <speed>13.898269653320313</speed>
        </extensions>
      </trkpt>
      <trkpt lat="51.3757235" lon="9.090644">
        <ele>235.3400001525879</ele>
        <hdop>10.0</hdop>
        <time>2013-07-09T17:01:10Z</time>
        <extensions>
          <speed>11.275227546691895</speed>
        </extensions>
      </trkpt>
      <trkpt lat="51.3752324" lon="9.0907866">
        <ele>228.3400001525879</ele>
        <hdop>10.0</hdop>
        <time>2013-07-09T17:01:16Z</time>
        <extensions>
          <speed>7.292998790740967</speed>
        </extensions>
      </trkpt>
      <trkpt lat="51.3748675" lon="9.0909017">
        <ele>230.3400001525879</ele>
        <hdop>10.0</hdop>
        <time>2013-07-09T17:01:21Z</time>
        <extensions>
          <speed>8.207293510437012</speed>
        </extensions>
      </trkpt>
      <trkpt lat="51.3744785" lon="9.0909039">
        <ele>223.3400001525879</ele>
        <hdop>5.0</hdop>
        <time>2013-07-09T17:01:27Z</time>
        <extensions>
          <speed>8.362750053405762</speed>
        </extensions>
      </trkpt>
      <trkpt lat="51.3740429" lon="9.0908963">
        <ele>226.3400001525879</ele>
        <hdop>5.0</hdop>
        <time>2013-07-09T17:01:33Z</time>
        <extensions>
          <speed>8.072382926940918</speed>
        </extensions>
      </trkpt>
      <trkpt lat="51.3736413" lon="9.0910405">
        <ele>226.3400001525879</ele>
        <hdop>5.0</hdop>
        <time>2013-07-09T17:01:39Z</time>
        <extensions>
          <speed>7.282308578491211</speed>
        </extensions>
      </trkpt>
      <trkpt lat="51.3733466" lon="9.0912118">
        <ele>225.3400001525879</ele>
        <hdop>5.0</hdop>
        <time>2013-07-09T17:01:44Z</time>
        <extensions>
          <speed>7.060973644256592</speed>
        </extensions>
      </trkpt>
      <trkpt lat="51.3730123" lon="9.0913759">
        <ele>226.3400001525879</ele>
        <hdop>5.0</hdop>
        <time>2013-07-09T17:01:50Z</time>
        <extensions>
          <speed>6.142398834228516</speed>
        </extensions>
      </trkpt>
      <trkpt lat="51.3727385" lon="9.0914209">
        <ele>222.3400001525879</ele>
        <hdop>10.0</hdop>
        <time>2013-07-09T17:01:55Z</time>
        <extensions>
          <speed>7.537130355834961</speed>
        </extensions>
      </trkpt>
      <trkpt lat="51.3723747" lon="9.0914008">
        <ele>221.3400001525879</ele>
        <hdop>10.0</hdop>
        <time>2013-07-09T17:02:00Z</time>
        <extensions>
          <speed>7.308671474456787</speed>
        </extensions>
      </trkpt>
      <trkpt lat="51.3719794" lon="9.0914972">
        <ele>224.3400001525879</ele>
        <hdop>10.0</hdop>
        <time>2013-07-09T17:02:06Z</time>
        <extensions>
          <speed>6.833137512207031</speed>
        </extensions>
      </trkpt>
      <trkpt lat="51.3716174" lon="9.0913864">
        <ele>219.3400001525879</ele>
        <hdop>10.0</hdop>
        <time>2013-07-09T17:02:11Z</time>
        <extensions>
          <speed>7.865004062652588</speed>
        </extensions>
      </trkpt>
      <trkpt lat="51.3711743" lon="9.0912049">
        <ele>219.3400001525879</ele>
        <hdop>10.0</hdop>
        <time>2013-07-09T17:02:17Z</time>
        <extensions>
          <speed>8.649869918823242</speed>
        </extensions>
      </trkpt>
      <trkpt lat="51.3707335" lon="9.0912311">
        <ele>222.3400001525879</ele>
        <hdop>10.0</hdop>
        <time>2013-07-09T17:02:22Z</time>
        <extensions>
          <speed>8.829055786132813</speed>
        </extensions>
      </trkpt>
      <trkpt lat="51.3702764" lon="9.0914065">
        <ele>225.3400001525879</ele>
        <hdop>5.0</hdop>
        <time>2013-07-09T17:02:28Z</time>
        <extensions>
          <speed>7.81809139251709</speed>
        </extensions>
      </trkpt>
      <trkpt lat="51.3699394" lon="9.0915325">
        <ele>224.3400001525879</ele>
        <hdop>5.0</hdop>
        <time>2013-07-09T17:02:33Z</time>
        <extensions>
          <speed>7.181359767913818</speed>
        </extensions>
      </trkpt>
      <trkpt lat="51.3695844" lon="9.0916545">
        <ele>221.3400001525879</ele>
        <hdop>5.0</hdop>
        <time>2013-07-09T17:02:39Z</time>
        <extensions>
          <speed>6.730553150177002</speed>
        </extensions>
      </trkpt>
      <trkpt lat="51.3692725" lon="9.0918039">
        <ele>226.3400001525879</ele>
        <hdop>5.0</hdop>
        <time>2013-07-09T17:02:44Z</time>
        <extensions>
          <speed>6.852504253387451</speed>
        </extensions>
      </trkpt>
      <trkpt lat="51.3689274" lon="9.0920343">
        <ele>227.3400001525879</ele>
        <hdop>5.0</hdop>
        <time>2013-07-09T17:02:50Z</time>
        <extensions>
          <speed>6.630547523498535</speed>
        </extensions>
      </trkpt>
      <trkpt lat="51.3686635" lon="9.0921975">
        <ele>227.3400001525879</ele>
        <hdop>5.0</hdop>
        <time>2013-07-09T17:02:55Z</time>
        <extensions>
          <speed>6.153140544891357</speed>
        </extensions>
      </trkpt>
      <trkpt lat="51.368393" lon="9.092339">
        <ele>227.3400001525879</ele>
        <hdop>10.0</hdop>
        <time>2013-07-09T17:03:00Z</time>
        <extensions>
          <speed>6.404951572418213</speed>
        </extensions>
      </trkpt>
      <trkpt lat="51.3681279" lon="9.0925839">
        <ele>226.3400001525879</ele>
        <hdop>10.0</hdop>
        <time>2013-07-09T17:03:05Z</time>
        <extensions>
          <speed>6.340282917022705</speed>
        </extensions>
      </trkpt>
      <trkpt lat="51.3678663" lon="9.0930678">
        <ele>230.3400001525879</ele>
        <hdop>5.0</hdop>
        <time>2013-07-09T17:03:11Z</time>
        <extensions>
          <speed>6.923426151275635</speed>
        </extensions>
      </trkpt>
      <trkpt lat="51.3676751" lon="9.0934856">
        <ele>227.3400001525879</ele>
        <hdop>5.0</hdop>
        <time>2013-07-09T17:03:16Z</time>
        <extensions>
          <speed>7.191287517547607</speed>
        </extensions>
      </trkpt>
      <trkpt lat="51.3674609" lon="9.0940039">
        <ele>227.3400001525879</ele>
        <hdop>5.0</hdop>
        <time>2013-07-09T17:03:22Z</time>
        <extensions>
          <speed>6.997091770172119</speed>
        </extensions>
      </trkpt>
      <trkpt lat="51.3672383" lon="9.0945151">
        <ele>227.3400001525879</ele>
        <hdop>5.0</hdop>
        <time>2013-07-09T17:03:28Z</time>
        <extensions>
          <speed>7.53463888168335</speed>
        </extensions>
      </trkpt>
      <trkpt lat="51.3670284" lon="9.0949562">
        <ele>228.3400001525879</ele>
        <hdop>5.0</hdop>
        <time>2013-07-09T17:03:33Z</time>
        <extensions>
          <speed>7.497561454772949</speed>
        </extensions>
      </trkpt>
      <trkpt lat="51.3667932" lon="9.0953507">
        <ele>232.3400001525879</ele>
        <hdop>5.0</hdop>
        <time>2013-07-09T17:03:38Z</time>
        <extensions>
          <speed>7.661565780639648</speed>
        </extensions>
      </trkpt>
      <trkpt lat="51.3664699" lon="9.0958285">
        <ele>231.3400001525879</ele>
        <hdop>5.0</hdop>
        <time>2013-07-09T17:03:44Z</time>
        <extensions>
          <speed>7.918712139129639</speed>
        </extensions>
      </trkpt>
      <trkpt lat="51.3661985" lon="9.0961423">
        <ele>229.3400001525879</ele>
        <hdop>15.0</hdop>
        <time>2013-07-09T17:03:49Z</time>
        <extensions>
          <speed>6.95481014251709</speed>
        </extensions>
      </trkpt>
      <trkpt lat="51.3659134" lon="9.096257">
        <ele>227.3400001525879</ele>
        <hdop>10.0</hdop>
        <time>2013-07-09T17:03:55Z</time>
        <extensions>
          <speed>5.627269744873047</speed>
        </extensions>
      </trkpt>
      <trkpt lat="51.3655687" lon="9.0962979">
        <ele>229.3400001525879</ele>
        <hdop>10.0</hdop>
        <time>2013-07-09T17:04:01Z</time>
        <extensions>
          <speed>6.960161209106445</speed>
        </extensions>
      </trkpt>
      <trkpt lat="51.3652202" lon="9.0962169">
        <ele>227.3400001525879</ele>
        <hdop>10.0</hdop>
        <time>2013-07-09T17:04:06Z</time>
        <extensions>
          <speed>8.271448135375977</speed>
        </extensions>
      </trkpt>
      <trkpt lat="51.3647474" lon="9.0960531">
        <ele>231.3400001525879</ele>
        <hdop>10.0</hdop>
        <time>2013-07-09T17:04:12Z</time>
        <extensions>
          <speed>8.30370044708252</speed>
        </extensions>
      </trkpt>
      <trkpt lat="51.3642724" lon="9.0959887">
        <ele>230.3400001525879</ele>
        <hdop>5.0</hdop>
        <time>2013-07-09T17:04:18Z</time>
        <extensions>
          <speed>8.325772285461426</speed>
        </extensions>
      </trkpt>
      <trkpt lat="51.3638878" lon="9.0960565">
        <ele>230.3400001525879</ele>
        <hdop>5.0</hdop>
        <time>2013-07-09T17:04:23Z</time>
        <extensions>
          <speed>8.383586883544922</speed>
        </extensions>
      </trkpt>
      <trkpt lat="51.3635327" lon="9.0962823">
        <ele>227.3400001525879</ele>
        <hdop>10.0</hdop>
        <time>2013-07-09T17:04:28Z</time>
        <extensions>
          <speed>8.008906364440918</speed>
        </extensions>
      </trkpt>
      <trkpt lat="51.3631857" lon="9.09676">
        <ele>235.3400001525879</ele>
        <hdop>5.0</hdop>
        <time>2013-07-09T17:04:34Z</time>
        <extensions>
          <speed>8.727093696594238</speed>
        </extensions>
      </trkpt>
      <trkpt lat="51.3628638" lon="9.0972263">
        <ele>230.3400001525879</ele>
        <hdop>5.0</hdop>
        <time>2013-07-09T17:04:40Z</time>
        <extensions>
          <speed>7.645296573638916</speed>
        </extensions>
      </trkpt>
      <trkpt lat="51.3625484" lon="9.0976307">
        <ele>232.3400001525879</ele>
        <hdop>5.0</hdop>
        <time>2013-07-09T17:04:46Z</time>
        <extensions>
          <speed>7.175963878631592</speed>
        </extensions>
      </trkpt>
      <trkpt lat="51.3623004" lon="9.0979039">
        <ele>232.3400001525879</ele>
        <hdop>5.0</hdop>
        <time>2013-07-09T17:04:51Z</time>
        <extensions>
          <speed>6.788080215454102</speed>
        </extensions>
      </trkpt>
      <trkpt lat="51.3619633" lon="9.0980932">
        <ele>236.3400001525879</ele>
        <hdop>5.0</hdop>
        <time>2013-07-09T17:04:57Z</time>
        <extensions>
          <speed>6.533153057098389</speed>
        </extensions>
      </trkpt>
      <trkpt lat="51.3616374" lon="9.0982298">
        <ele>234.3400001525879</ele>
        <hdop>5.0</hdop>
        <time>2013-07-09T17:05:03Z</time>
        <extensions>
          <speed>6.751923561096191</speed>
        </extensions>
      </trkpt>
      <trkpt lat="51.3612251" lon="9.098057">
        <ele>233.3400001525879</ele>
        <hdop>10.0</hdop>
        <time>2013-07-09T17:05:09Z</time>
        <extensions>
          <speed>7.528435230255127</speed>
        </extensions>
      </trkpt>
      <trkpt lat="51.3609496" lon="9.0978461">
        <ele>234.3400001525879</ele>
        <hdop>15.0</hdop>
        <time>2013-07-09T17:05:14Z</time>
        <extensions>
          <speed>6.689919948577881</speed>
        </extensions>
      </trkpt>
      <trkpt lat="51.3606027" lon="9.0974464">
        <ele>236.3400001525879</ele>
        <hdop>10.0</hdop>
        <time>2013-07-09T17:05:20Z</time>
        <extensions>
          <speed>8.035334587097168</speed>
        </extensions>
      </trkpt>
      <trkpt lat="51.3602569" lon="9.0970418">
        <ele>236.3400001525879</ele>
        <hdop>5.0</hdop>
        <time>2013-07-09T17:05:26Z</time>
        <extensions>
          <speed>7.983880043029785</speed>
        </extensions>
      </trkpt>
      <trkpt lat="51.3598829" lon="9.0966657">
        <ele>236.3400001525879</ele>
        <hdop>5.0</hdop>
        <time>2013-07-09T17:05:32Z</time>
        <extensions>
          <speed>8.037610054016113</speed>
        </extensions>
      </trkpt>
      <trkpt lat="51.359606" lon="9.0963006">
        <ele>238.3400001525879</ele>
        <hdop>5.0</hdop>
        <time>2013-07-09T17:05:37Z</time>
        <extensions>
          <speed>8.144068717956543</speed>
        </extensions>
      </trkpt>
      <trkpt lat="51.3592884" lon="9.0958513">
        <ele>239.3400001525879</ele>
        <hdop>5.0</hdop>
        <time>2013-07-09T17:05:43Z</time>
        <extensions>
          <speed>8.262544631958008</speed>
        </extensions>
      </trkpt>
      <trkpt lat="51.3589681" lon="9.0953702">
        <ele>242.3400001525879</ele>
        <hdop>10.0</hdop>
        <time>2013-07-09T17:05:49Z</time>
        <extensions>
          <speed>7.1669464111328125</speed>
        </extensions>
      </trkpt>
      <trkpt lat="51.3587837" lon="9.0947683">
        <ele>237.3400001525879</ele>
        <hdop>10.0</hdop>
        <time>2013-07-09T17:05:55Z</time>
        <extensions>
          <speed>7.222786903381348</speed>
        </extensions>
      </trkpt>
      <trkpt lat="51.3585713" lon="9.0944516">
        <ele>241.3400001525879</ele>
        <hdop>25.0</hdop>
        <time>2013-07-09T17:06:00Z</time>
        <extensions>
          <speed>6.725254535675049</speed>
        </extensions>
      </trkpt>
      <trkpt lat="51.3582125" lon="9.0941737">
        <ele>241.3400001525879</ele>
        <hdop>10.0</hdop>
        <time>2013-07-09T17:06:06Z</time>
        <extensions>
          <speed>7.466187000274658</speed>
        </extensions>
      </trkpt>
      <trkpt lat="51.3578931" lon="9.0937633">
        <ele>242.3400001525879</ele>
        <hdop>10.0</hdop>
        <time>2013-07-09T17:06:12Z</time>
        <extensions>
          <speed>8.457530975341797</speed>
        </extensions>
      </trkpt>
      <trkpt lat="51.3576609" lon="9.0933164">
        <ele>241.3400001525879</ele>
        <hdop>10.0</hdop>
        <time>2013-07-09T17:06:17Z</time>
        <extensions>
          <speed>8.057687759399414</speed>
        </extensions>
      </trkpt>
      <trkpt lat="51.3574723" lon="9.092882">
        <ele>242.3400001525879</ele>
        <hdop>10.0</hdop>
        <time>2013-07-09T17:06:22Z</time>
        <extensions>
          <speed>7.141482353210449</speed>
        </extensions>
      </trkpt>
      <trkpt lat="51.3572813" lon="9.0924568">
        <ele>243.3400001525879</ele>
        <hdop>10.0</hdop>
        <time>2013-07-09T17:06:27Z</time>
        <extensions>
          <speed>6.898941993713379</speed>
        </extensions>
      </trkpt>
      <trkpt lat="51.357084" lon="9.0920003">
        <ele>245.3400001525879</ele>
        <hdop>10.0</hdop>
        <time>2013-07-09T17:06:33Z</time>
        <extensions>
          <speed>7.29226541519165</speed>
        </extensions>
      </trkpt>
      <trkpt lat="51.3568845" lon="9.0915487">
        <ele>246.3400001525879</ele>
        <hdop>15.0</hdop>
        <time>2013-07-09T17:06:38Z</time>
        <extensions>
          <speed>7.698628902435303</speed>
        </extensions>
      </trkpt>
      <trkpt lat="51.356648" lon="9.0910805">
        <ele>240.3400001525879</ele>
        <hdop>10.0</hdop>
        <time>2013-07-09T17:06:43Z</time>
        <extensions>
          <speed>7.213571071624756</speed>
        </extensions>
      </trkpt>
      <trkpt lat="51.3563263" lon="9.0907711">
        <ele>241.3400001525879</ele>
        <hdop>10.0</hdop>
        <time>2013-07-09T17:06:48Z</time>
        <extensions>
          <speed>8.52145004272461</speed>
        </extensions>
      </trkpt>
      <trkpt lat="51.3558562" lon="9.0907365">
        <ele>241.3400001525879</ele>
        <hdop>10.0</hdop>
        <time>2013-07-09T17:06:54Z</time>
        <extensions>
          <speed>7.227252006530762</speed>
        </extensions>
      </trkpt>
      <trkpt lat="51.3554179" lon="9.0907509">
        <ele>243.3400001525879</ele>
        <hdop>15.0</hdop>
        <time>2013-07-09T17:07:00Z</time>
        <extensions>
          <speed>7.244944095611572</speed>
        </extensions>
      </trkpt>
      <trkpt lat="51.3550285" lon="9.0905282">
        <ele>246.3400001525879</ele>
        <hdop>10.0</hdop>
        <time>2013-07-09T17:07:06Z</time>
        <extensions>
          <speed>7.452907085418701</speed>
        </extensions>
      </trkpt>
      <trkpt lat="51.3546845" lon="9.0900435">
        <ele>241.3400001525879</ele>
        <hdop>10.0</hdop>
        <time>2013-07-09T17:07:12Z</time>
        <extensions>
          <speed>7.507971286773682</speed>
        </extensions>
      </trkpt>
      <trkpt lat="51.3544169" lon="9.0898313">
        <ele>245.3400001525879</ele>
        <hdop>5.0</hdop>
        <time>2013-07-09T17:07:17Z</time>
        <extensions>
          <speed>6.356419563293457</speed>
        </extensions>
      </trkpt>
      <trkpt lat="51.3541406" lon="9.0897278">
        <ele>245.3400001525879</ele>
        <hdop>5.0</hdop>
        <time>2013-07-09T17:07:22Z</time>
        <extensions>
          <speed>5.2481608390808105</speed>
        </extensions>
      </trkpt>
      <trkpt lat="51.3538706" lon="9.0895985">
        <ele>245.3400001525879</ele>
        <hdop>5.0</hdop>
        <time>2013-07-09T17:07:28Z</time>
        <extensions>
          <speed>4.755246162414551</speed>
        </extensions>
      </trkpt>
      <trkpt lat="51.3536205" lon="9.0894398">
        <ele>250.3400001525879</ele>
        <hdop>5.0</hdop>
        <time>2013-07-09T17:07:34Z</time>
        <extensions>
          <speed>4.6882195472717285</speed>
        </extensions>
      </trkpt>
      <trkpt lat="51.3533757" lon="9.0892836">
        <ele>251.3400001525879</ele>
        <hdop>5.0</hdop>
        <time>2013-07-09T17:07:40Z</time>
        <extensions>
          <speed>4.569091320037842</speed>
        </extensions>
      </trkpt>
      <trkpt lat="51.3531122" lon="9.089151">
        <ele>253.3400001525879</ele>
        <hdop>5.0</hdop>
        <time>2013-07-09T17:07:46Z</time>
        <extensions>
          <speed>4.596142292022705</speed>
        </extensions>
      </trkpt>
      <trkpt lat="51.3528886" lon="9.0890488">
        <ele>254.3400001525879</ele>
        <hdop>5.0</hdop>
        <time>2013-07-09T17:07:52Z</time>
        <extensions>
          <speed>4.05840539932251</speed>
        </extensions>
      </trkpt>
      <trkpt lat="51.352693" lon="9.0889397">
        <ele>253.3400001525879</ele>
        <hdop>5.0</hdop>
        <time>2013-07-09T17:07:57Z</time>
        <extensions>
          <speed>4.356306076049805</speed>
        </extensions>
      </trkpt>
      <trkpt lat="51.3525046" lon="9.0888329">
        <ele>255.3400001525879</ele>
        <hdop>5.0</hdop>
        <time>2013-07-09T17:08:02Z</time>
        <extensions>
          <speed>4.366377353668213</speed>
        </extensions>
      </trkpt>
      <trkpt lat="51.3522626" lon="9.0887062">
        <ele>258.3400001525879</ele>
        <hdop>5.0</hdop>
        <time>2013-07-09T17:08:08Z</time>
        <extensions>
          <speed>4.070252895355225</speed>
        </extensions>
      </trkpt>
      <trkpt lat="51.3520217" lon="9.0885921">
        <ele>261.3400001525879</ele>
        <hdop>10.0</hdop>
        <time>2013-07-09T17:08:14Z</time>
        <extensions>
          <speed>4.071779251098633</speed>
        </extensions>
      </trkpt>
      <trkpt lat="51.3518326" lon="9.0885279">
        <ele>262.3400001525879</ele>
        <hdop>10.0</hdop>
        <time>2013-07-09T17:08:19Z</time>
        <extensions>
          <speed>4.469271659851074</speed>
        </extensions>
      </trkpt>
      <trkpt lat="51.3515982" lon="9.0884976">
        <ele>259.3400001525879</ele>
        <hdop>10.0</hdop>
        <time>2013-07-09T17:08:25Z</time>
        <extensions>
          <speed>4.2625603675842285</speed>
        </extensions>
      </trkpt>
      <trkpt lat="51.3513802" lon="9.0885215">
        <ele>260.3400001525879</ele>
        <hdop>10.0</hdop>
        <time>2013-07-09T17:08:31Z</time>
        <extensions>
          <speed>4.464486598968506</speed>
        </extensions>
      </trkpt>
      <trkpt lat="51.3511709" lon="9.0885209">
        <ele>260.3400001525879</ele>
        <hdop>10.0</hdop>
        <time>2013-07-09T17:08:36Z</time>
        <extensions>
          <speed>4.7387237548828125</speed>
        </extensions>
      </trkpt>
      <trkpt lat="51.3509741" lon="9.0885052">
        <ele>264.3400001525879</ele>
        <hdop>10.0</hdop>
        <time>2013-07-09T17:08:41Z</time>
        <extensions>
          <speed>4.39942741394043</speed>
        </extensions>
      </trkpt>
      <trkpt lat="51.3507381" lon="9.0884276">
        <ele>267.3400001525879</ele>
        <hdop>10.0</hdop>
        <time>2013-07-09T17:08:47Z</time>
        <extensions>
          <speed>4.524778842926025</speed>
        </extensions>
      </trkpt>
      <trkpt lat="51.3505283" lon="9.0882934">
        <ele>267.3400001525879</ele>
        <hdop>5.0</hdop>
        <time>2013-07-09T17:08:52Z</time>
        <extensions>
          <speed>4.626844882965088</speed>
        </extensions>
      </trkpt>
      <trkpt lat="51.3503429" lon="9.0881601">
        <ele>266.3400001525879</ele>
        <hdop>10.0</hdop>
        <time>2013-07-09T17:08:57Z</time>
        <extensions>
          <speed>4.38495397567749</speed>
        </extensions>
      </trkpt>
      <trkpt lat="51.3501432" lon="9.0879994">
        <ele>273.3400001525879</ele>
        <hdop>10.0</hdop>
        <time>2013-07-09T17:09:03Z</time>
        <extensions>
          <speed>3.8547098636627197</speed>
        </extensions>
      </trkpt>
      <trkpt lat="51.3499462" lon="9.0878426">
        <ele>269.3400001525879</ele>
        <hdop>10.0</hdop>
        <time>2013-07-09T17:09:08Z</time>
        <extensions>
          <speed>4.098263263702393</speed>
        </extensions>
      </trkpt>
      <trkpt lat="51.3497527" lon="9.0876648">
        <ele>272.3400001525879</ele>
        <hdop>10.0</hdop>
        <time>2013-07-09T17:09:14Z</time>
        <extensions>
          <speed>3.891373634338379</speed>
        </extensions>
      </trkpt>
      <trkpt lat="51.3495965" lon="9.0875559">
        <ele>273.3400001525879</ele>
        <hdop>10.0</hdop>
        <time>2013-07-09T17:09:20Z</time>
        <extensions>
          <speed>2.423670530319214</speed>
        </extensions>
      </trkpt>
      <trkpt lat="51.3494057" lon="9.0874311">
        <ele>276.3400001525879</ele>
        <hdop>10.0</hdop>
        <time>2013-07-09T17:09:25Z</time>
        <extensions>
          <speed>3.7553136348724365</speed>
        </extensions>
      </trkpt>
      <trkpt lat="51.3492055" lon="9.0872627">
        <ele>275.3400001525879</ele>
        <hdop>20.0</hdop>
        <time>2013-07-09T17:09:30Z</time>
        <extensions>
          <speed>3.5119576454162598</speed>
        </extensions>
      </trkpt>
      <trkpt lat="51.3489941" lon="9.0871144">
        <ele>275.3400001525879</ele>
        <hdop>20.0</hdop>
        <time>2013-07-09T17:09:36Z</time>
        <extensions>
          <speed>4.295445442199707</speed>
        </extensions>
      </trkpt>
      <trkpt lat="51.348758" lon="9.0869809">
        <ele>273.3400001525879</ele>
        <hdop>15.0</hdop>
        <time>2013-07-09T17:09:42Z</time>
        <extensions>
          <speed>3.9532721042633057</speed>
        </extensions>
      </trkpt>
      <trkpt lat="51.3483774" lon="9.0867802">
        <ele>279.3400001525879</ele>
        <hdop>10.0</hdop>
        <time>2013-07-09T17:09:48Z</time>
        <extensions>
          <speed>5.88776159286499</speed>
        </extensions>
      </trkpt>
      <trkpt lat="51.348001" lon="9.0866734">
        <ele>282.3400001525879</ele>
        <hdop>10.0</hdop>
        <time>2013-07-09T17:09:53Z</time>
        <extensions>
          <speed>7.508286952972412</speed>
        </extensions>
      </trkpt>
      <trkpt lat="51.3475327" lon="9.0866774">
        <ele>278.3400001525879</ele>
        <hdop>10.0</hdop>
        <time>2013-07-09T17:09:59Z</time>
        <extensions>
          <speed>7.310944080352783</speed>
        </extensions>
      </trkpt>
      <trkpt lat="51.3471203" lon="9.0867167">
        <ele>279.3400001525879</ele>
        <hdop>10.0</hdop>
        <time>2013-07-09T17:10:05Z</time>
        <extensions>
          <speed>7.601559638977051</speed>
        </extensions>
      </trkpt>
      <trkpt lat="51.3466878" lon="9.0867696">
        <ele>277.3400001525879</ele>
        <hdop>20.0</hdop>
        <time>2013-07-09T17:10:11Z</time>
        <extensions>
          <speed>7.986658573150635</speed>
        </extensions>
      </trkpt>
      <trkpt lat="51.3463402" lon="9.0867553">
        <ele>275.3400001525879</ele>
        <hdop>20.0</hdop>
        <time>2013-07-09T17:10:16Z</time>
        <extensions>
          <speed>8.491228103637695</speed>
        </extensions>
      </trkpt>
      <trkpt lat="51.3459151" lon="9.086633">
        <ele>270.3400001525879</ele>
        <hdop>10.0</hdop>
        <time>2013-07-09T17:10:22Z</time>
        <extensions>
          <speed>7.136383533477783</speed>
        </extensions>
      </trkpt>
      <trkpt lat="51.3455804" lon="9.0864256">
        <ele>275.3400001525879</ele>
        <hdop>10.0</hdop>
        <time>2013-07-09T17:10:28Z</time>
        <extensions>
          <speed>5.259139060974121</speed>
        </extensions>
      </trkpt>
      <trkpt lat="51.3454106" lon="9.0862109">
        <ele>273.3400001525879</ele>
        <hdop>10.0</hdop>
        <time>2013-07-09T17:10:33Z</time>
        <extensions>
          <speed>4.856228351593018</speed>
        </extensions>
      </trkpt>
      <trkpt lat="51.3452613" lon="9.0859076">
        <ele>277.3400001525879</ele>
        <hdop>10.0</hdop>
        <time>2013-07-09T17:10:39Z</time>
        <extensions>
          <speed>4.278600692749023</speed>
        </extensions>
      </trkpt>
      <trkpt lat="51.3451268" lon="9.0856848">
        <ele>279.3400001525879</ele>
        <hdop>10.0</hdop>
        <time>2013-07-09T17:10:45Z</time>
        <extensions>
          <speed>4.884936332702637</speed>
        </extensions>
      </trkpt>
      <trkpt lat="51.3449233" lon="9.0856739">
        <ele>283.3400001525879</ele>
        <hdop>10.0</hdop>
        <time>2013-07-09T17:10:50Z</time>
        <extensions>
          <speed>4.31428861618042</speed>
        </extensions>
      </trkpt>
      <trkpt lat="51.3447453" lon="9.0856267">
        <ele>281.3400001525879</ele>
        <hdop>20.0</hdop>
        <time>2013-07-09T17:10:55Z</time>
        <extensions>
          <speed>4.022934436798096</speed>
        </extensions>
      </trkpt>
      <trkpt lat="51.3445155" lon="9.0855337">
        <ele>286.3400001525879</ele>
        <hdop>10.0</hdop>
        <time>2013-07-09T17:11:01Z</time>
        <extensions>
          <speed>4.0099568367004395</speed>
        </extensions>
      </trkpt>
      <trkpt lat="51.3442541" lon="9.0854437">
        <ele>286.3400001525879</ele>
        <hdop>20.0</hdop>
        <time>2013-07-09T17:11:07Z</time>
        <extensions>
          <speed>3.8386154174804688</speed>
        </extensions>
      </trkpt>
      <trkpt lat="51.3440129" lon="9.0854061">
        <ele>292.3400001525879</ele>
        <hdop>5.0</hdop>
        <time>2013-07-09T17:11:13Z</time>
        <extensions>
          <speed>3.9424448013305664</speed>
        </extensions>
      </trkpt>
      <trkpt lat="51.3438173" lon="9.0853978">
        <ele>288.3400001525879</ele>
        <hdop>10.0</hdop>
        <time>2013-07-09T17:11:18Z</time>
        <extensions>
          <speed>4.281129360198975</speed>
        </extensions>
      </trkpt>
      <trkpt lat="51.3435495" lon="9.0853611">
        <ele>296.3400001525879</ele>
        <hdop>10.0</hdop>
        <time>2013-07-09T17:11:24Z</time>
        <extensions>
          <speed>4.315280914306641</speed>
        </extensions>
      </trkpt>
      <trkpt lat="51.3433531" lon="9.0853168">
        <ele>297.3400001525879</ele>
        <hdop>10.0</hdop>
        <time>2013-07-09T17:11:29Z</time>
        <extensions>
          <speed>3.8482728004455566</speed>
        </extensions>
      </trkpt>
      <trkpt lat="51.3431902" lon="9.0852782">
        <ele>299.3400001525879</ele>
        <hdop>10.0</hdop>
        <time>2013-07-09T17:11:34Z</time>
        <extensions>
          <speed>3.447725772857666</speed>
        </extensions>
      </trkpt>
      <trkpt lat="51.3429833" lon="9.0852156">
        <ele>299.3400001525879</ele>
        <hdop>10.0</hdop>
        <time>2013-07-09T17:11:40Z</time>
        <extensions>
          <speed>3.920313835144043</speed>
        </extensions>
      </trkpt>
      <trkpt lat="51.3427846" lon="9.085167">
        <ele>303.3400001525879</ele>
        <hdop>10.0</hdop>
        <time>2013-07-09T17:11:45Z</time>
        <extensions>
          <speed>3.781813621520996</speed>
        </extensions>
      </trkpt>
      <trkpt lat="51.3425042" lon="9.0850485">
        <ele>304.3400001525879</ele>
        <hdop>5.0</hdop>
        <time>2013-07-09T17:11:51Z</time>
        <extensions>
          <speed>4.258886814117432</speed>
        </extensions>
      </trkpt>
      <trkpt lat="51.3423208" lon="9.0849918">
        <ele>303.3400001525879</ele>
        <hdop>30.0</hdop>
        <time>2013-07-09T17:11:57Z</time>
        <extensions>
          <speed>3.6525371074676514</speed>
        </extensions>
      </trkpt>
      <trkpt lat="51.3421081" lon="9.0850229">
        <ele>303.3400001525879</ele>
        <hdop>10.0</hdop>
        <time>2013-07-09T17:12:03Z</time>
        <extensions>
          <speed>4.11456823348999</speed>
        </extensions>
      </trkpt>
      <trkpt lat="51.3418866" lon="9.0850317">
        <ele>302.3400001525879</ele>
        <hdop>5.0</hdop>
        <time>2013-07-09T17:12:09Z</time>
        <extensions>
          <speed>3.711992025375366</speed>
        </extensions>
      </trkpt>
      <trkpt lat="51.341704" lon="9.0849599">
        <ele>305.3400001525879</ele>
        <hdop>25.0</hdop>
        <time>2013-07-09T17:12:14Z</time>
        <extensions>
          <speed>5.298378944396973</speed>
        </extensions>
      </trkpt>
      <trkpt lat="51.3414252" lon="9.0849108">
        <ele>308.3400001525879</ele>
        <hdop>10.0</hdop>
        <time>2013-07-09T17:12:20Z</time>
        <extensions>
          <speed>5.930920124053955</speed>
        </extensions>
      </trkpt>
      <trkpt lat="51.3411314" lon="9.0848728">
        <ele>305.3400001525879</ele>
        <hdop>10.0</hdop>
        <time>2013-07-09T17:12:25Z</time>
        <extensions>
          <speed>7.113641738891602</speed>
        </extensions>
      </trkpt>
      <trkpt lat="51.3407434" lon="9.0848339">
        <ele>294.3400001525879</ele>
        <hdop>15.0</hdop>
        <time>2013-07-09T17:12:31Z</time>
        <extensions>
          <speed>7.977760314941406</speed>
        </extensions>
      </trkpt>
      <trkpt lat="51.3402907" lon="9.0846976">
        <ele>295.3400001525879</ele>
        <hdop>15.0</hdop>
        <time>2013-07-09T17:12:37Z</time>
        <extensions>
          <speed>7.942698001861572</speed>
        </extensions>
      </trkpt>
      <trkpt lat="51.3399093" lon="9.084357">
        <ele>291.3400001525879</ele>
        <hdop>10.0</hdop>
        <time>2013-07-09T17:12:43Z</time>
        <extensions>
          <speed>8.1788330078125</speed>
        </extensions>
      </trkpt>
      <trkpt lat="51.3397101" lon="9.0837673">
        <ele>289.3400001525879</ele>
        <hdop>15.0</hdop>
        <time>2013-07-09T17:12:48Z</time>
        <extensions>
          <speed>6.467278003692627</speed>
        </extensions>
      </trkpt>
      <trkpt lat="51.339557" lon="9.0827253">
        <ele>283.3400001525879</ele>
        <hdop>15.0</hdop>
        <time>2013-07-09T17:12:54Z</time>
        <extensions>
          <speed>8.4695405960083</speed>
        </extensions>
      </trkpt>
      <trkpt lat="51.3395396" lon="9.0816575">
        <ele>278.3400001525879</ele>
        <hdop>20.0</hdop>
        <time>2013-07-09T17:13:00Z</time>
        <extensions>
          <speed>10.211734771728516</speed>
        </extensions>
      </trkpt>
      <trkpt lat="51.3391526" lon="9.0808424">
        <ele>276.3400001525879</ele>
        <hdop>25.0</hdop>
        <time>2013-07-09T17:13:05Z</time>
        <extensions>
          <speed>12.930168151855469</speed>
        </extensions>
      </trkpt>
      <trkpt lat="51.338808" lon="9.0799426">
        <ele>274.3400001525879</ele>
        <hdop>25.0</hdop>
        <time>2013-07-09T17:13:11Z</time>
        <extensions>
          <speed>11.07339096069336</speed>
        </extensions>
      </trkpt>
      <trkpt lat="51.3383466" lon="9.0791995">
        <ele>267.3400001525879</ele>
        <hdop>50.0</hdop>
        <time>2013-07-09T17:13:18Z</time>
        <extensions>
          <speed>8.302192687988281</speed>
        </extensions>
      </trkpt>
      <trkpt lat="51.3379771" lon="9.0785951">
        <ele>271.3400001525879</ele>
        <hdop>25.0</hdop>
        <time>2013-07-09T17:13:24Z</time>
        <extensions>
          <speed>8.936485290527344</speed>
        </extensions>
      </trkpt>
      <trkpt lat="51.3376125" lon="9.0779033">
        <ele>264.3400001525879</ele>
        <hdop>20.0</hdop>
        <time>2013-07-09T17:13:30Z</time>
        <extensions>
          <speed>8.593893051147461</speed>
        </extensions>
      </trkpt>
      <trkpt lat="51.3373318" lon="9.0773219">
        <ele>271.3400001525879</ele>
        <hdop>20.0</hdop>
        <time>2013-07-09T17:13:36Z</time>
        <extensions>
          <speed>6.611995220184326</speed>
        </extensions>
      </trkpt>
      <trkpt lat="51.3371598" lon="9.0766202">
        <ele>277.3400001525879</ele>
        <hdop>20.0</hdop>
        <time>2013-07-09T17:13:42Z</time>
        <extensions>
          <speed>8.144231796264648</speed>
        </extensions>
      </trkpt>
      <trkpt lat="51.3369999" lon="9.0759338">
        <ele>271.3400001525879</ele>
        <hdop>20.0</hdop>
        <time>2013-07-09T17:13:48Z</time>
        <extensions>
          <speed>8.643987655639648</speed>
        </extensions>
      </trkpt>
      <trkpt lat="51.3368451" lon="9.075358">
        <ele>275.3400001525879</ele>
        <hdop>20.0</hdop>
        <time>2013-07-09T17:13:53Z</time>
        <extensions>
          <speed>7.697070121765137</speed>
        </extensions>
      </trkpt>
      <trkpt lat="51.3367761" lon="9.0746404">
        <ele>268.3400001525879</ele>
        <hdop>10.0</hdop>
        <time>2013-07-09T17:13:59Z</time>
        <extensions>
          <speed>7.710099220275879</speed>
        </extensions>
      </trkpt>
      <trkpt lat="51.3367066" lon="9.0739694">
        <ele>268.3400001525879</ele>
        <hdop>40.0</hdop>
        <time>2013-07-09T17:14:05Z</time>
        <extensions>
          <speed>7.983240604400635</speed>
        </extensions>
      </trkpt>
      <trkpt lat="51.3365039" lon="9.073306">
        <ele>273.3400001525879</ele>
        <hdop>15.0</hdop>
        <time>2013-07-09T17:14:11Z</time>
        <extensions>
          <speed>6.791220188140869</speed>
        </extensions>
      </trkpt>
      <trkpt lat="51.3359543" lon="9.0723317">
        <ele>285.3400001525879</ele>
        <hdop>25.0</hdop>
        <time>2013-07-09T17:14:20Z</time>
        <extensions>
          <speed>10.102476119995117</speed>
        </extensions>
      </trkpt>
      <trkpt lat="51.3356878" lon="9.0718596">
        <ele>286.3400001525879</ele>
        <hdop>15.0</hdop>
        <time>2013-07-09T17:14:25Z</time>
        <extensions>
          <speed>8.848590850830078</speed>
        </extensions>
      </trkpt>
      <trkpt lat="51.3353202" lon="9.0713571">
        <ele>279.3400001525879</ele>
        <hdop>20.0</hdop>
        <time>2013-07-09T17:14:31Z</time>
        <extensions>
          <speed>8.611491203308105</speed>
        </extensions>
      </trkpt>
      <trkpt lat="51.3349353" lon="9.0711813">
        <ele>276.3400001525879</ele>
        <hdop>10.0</hdop>
        <time>2013-07-09T17:14:36Z</time>
        <extensions>
          <speed>8.36451244354248</speed>
        </extensions>
      </trkpt>
      <trkpt lat="51.3344709" lon="9.0712836">
        <ele>276.3400001525879</ele>
        <hdop>20.0</hdop>
        <time>2013-07-09T17:14:42Z</time>
        <extensions>
          <speed>8.06411075592041</speed>
        </extensions>
      </trkpt>
      <trkpt lat="51.334058" lon="9.0714059">
        <ele>278.3400001525879</ele>
        <hdop>20.0</hdop>
        <time>2013-07-09T17:14:48Z</time>
        <extensions>
          <speed>7.891040802001953</speed>
        </extensions>
      </trkpt>
      <trkpt lat="51.3336132" lon="9.0714957">
        <ele>280.3400001525879</ele>
        <hdop>10.0</hdop>
        <time>2013-07-09T17:14:54Z</time>
        <extensions>
          <speed>7.72080659866333</speed>
        </extensions>
      </trkpt>
      <trkpt lat="51.333256" lon="9.0715569">
        <ele>283.3400001525879</ele>
        <hdop>10.0</hdop>
        <time>2013-07-09T17:14:59Z</time>
        <extensions>
          <speed>7.4487714767456055</speed>
        </extensions>
      </trkpt>
      <trkpt lat="51.3329077" lon="9.071622">
        <ele>287.3400001525879</ele>
        <hdop>20.0</hdop>
        <time>2013-07-09T17:15:04Z</time>
        <extensions>
          <speed>7.464638710021973</speed>
        </extensions>
      </trkpt>
      <trkpt lat="51.3325739" lon="9.071687">
        <ele>285.3400001525879</ele>
        <hdop>25.0</hdop>
        <time>2013-07-09T17:15:09Z</time>
        <extensions>
          <speed>7.124949932098389</speed>
        </extensions>
      </trkpt>
      <trkpt lat="51.3321886" lon="9.0717265">
        <ele>282.3400001525879</ele>
        <hdop>25.0</hdop>
        <time>2013-07-09T17:15:15Z</time>
        <extensions>
          <speed>6.386908054351807</speed>
        </extensions>
      </trkpt>
      <trkpt lat="51.3318384" lon="9.0716047">
        <ele>287.3400001525879</ele>
        <hdop>15.0</hdop>
        <time>2013-07-09T17:15:21Z</time>
        <extensions>
          <speed>6.983989715576172</speed>
        </extensions>
      </trkpt>
      <trkpt lat="51.3314591" lon="9.0713387">
        <ele>283.3400001525879</ele>
        <hdop>10.0</hdop>
        <time>2013-07-09T17:15:27Z</time>
        <extensions>
          <speed>7.014984607696533</speed>
        </extensions>
      </trkpt>
      <trkpt lat="51.3310451" lon="9.0712122">
        <ele>275.3400001525879</ele>
        <hdop>15.0</hdop>
        <time>2013-07-09T17:15:33Z</time>
        <extensions>
          <speed>6.614999771118164</speed>
        </extensions>
      </trkpt>
      <trkpt lat="51.3308283" lon="9.0711356">
        <ele>271.3400001525879</ele>
        <hdop>15.0</hdop>
        <time>2013-07-09T17:15:38Z</time>
        <extensions>
          <speed>3.762277603149414</speed>
        </extensions>
      </trkpt>
      <trkpt lat="51.3306043" lon="9.0710106">
        <ele>277.3400001525879</ele>
        <hdop>5.0</hdop>
        <time>2013-07-09T17:15:43Z</time>
        <extensions>
          <speed>4.183870792388916</speed>
        </extensions>
      </trkpt>
      <trkpt lat="51.3304141" lon="9.0708833">
        <ele>287.3400001525879</ele>
        <hdop>5.0</hdop>
        <time>2013-07-09T17:15:48Z</time>
        <extensions>
          <speed>3.8865602016448975</speed>
        </extensions>
      </trkpt>
      <trkpt lat="51.3302294" lon="9.0706914">
        <ele>285.3400001525879</ele>
        <hdop>5.0</hdop>
        <time>2013-07-09T17:15:54Z</time>
        <extensions>
          <speed>3.470625162124634</speed>
        </extensions>
      </trkpt>
      <trkpt lat="51.3300675" lon="9.0704998">
        <ele>287.3400001525879</ele>
        <hdop>5.0</hdop>
        <time>2013-07-09T17:16:00Z</time>
        <extensions>
          <speed>3.2287979125976563</speed>
        </extensions>
      </trkpt>
      <trkpt lat="51.329936" lon="9.0703015">
        <ele>288.3400001525879</ele>
        <hdop>10.0</hdop>
        <time>2013-07-09T17:16:06Z</time>
        <extensions>
          <speed>3.1421959400177</speed>
        </extensions>
      </trkpt>
      <trkpt lat="51.3298282" lon="9.0701206">
        <ele>289.3400001525879</ele>
        <hdop>5.0</hdop>
        <time>2013-07-09T17:16:11Z</time>
        <extensions>
          <speed>3.2293989658355713</speed>
        </extensions>
      </trkpt>
      <trkpt lat="51.3296902" lon="9.0698783">
        <ele>292.3400001525879</ele>
        <hdop>5.0</hdop>
        <time>2013-07-09T17:16:17Z</time>
        <extensions>
          <speed>3.38126277923584</speed>
        </extensions>
      </trkpt>
      <trkpt lat="51.3295703" lon="9.0696321">
        <ele>294.3400001525879</ele>
        <hdop>5.0</hdop>
        <time>2013-07-09T17:16:23Z</time>
        <extensions>
          <speed>3.374237537384033</speed>
        </extensions>
      </trkpt>
      <trkpt lat="51.3294446" lon="9.0693872">
        <ele>297.3400001525879</ele>
        <hdop>5.0</hdop>
        <time>2013-07-09T17:16:29Z</time>
        <extensions>
          <speed>3.495595932006836</speed>
        </extensions>
      </trkpt>
      <trkpt lat="51.3293407" lon="9.0691963">
        <ele>298.3400001525879</ele>
        <hdop>5.0</hdop>
        <time>2013-07-09T17:16:34Z</time>
        <extensions>
          <speed>3.593811511993408</speed>
        </extensions>
      </trkpt>
      <trkpt lat="51.3292208" lon="9.0689512">
        <ele>299.3400001525879</ele>
        <hdop>5.0</hdop>
        <time>2013-07-09T17:16:40Z</time>
        <extensions>
          <speed>3.4730958938598633</speed>
        </extensions>
      </trkpt>
      <trkpt lat="51.3291267" lon="9.068752">
        <ele>301.3400001525879</ele>
        <hdop>5.0</hdop>
        <time>2013-07-09T17:16:45Z</time>
        <extensions>
          <speed>3.612128496170044</speed>
        </extensions>
      </trkpt>
      <trkpt lat="51.329031" lon="9.0685583">
        <ele>303.3400001525879</ele>
        <hdop>5.0</hdop>
        <time>2013-07-09T17:16:50Z</time>
        <extensions>
          <speed>3.3079731464385986</speed>
        </extensions>
      </trkpt>
      <trkpt lat="51.3289256" lon="9.0683328">
        <ele>304.3400001525879</ele>
        <hdop>5.0</hdop>
        <time>2013-07-09T17:16:56Z</time>
        <extensions>
          <speed>3.469224214553833</speed>
        </extensions>
      </trkpt>
      <trkpt lat="51.3288178" lon="9.068112">
        <ele>307.3400001525879</ele>
        <hdop>5.0</hdop>
        <time>2013-07-09T17:17:02Z</time>
        <extensions>
          <speed>3.2305729389190674</speed>
        </extensions>
      </trkpt>
      <trkpt lat="51.3287106" lon="9.0678945">
        <ele>309.3400001525879</ele>
        <hdop>5.0</hdop>
        <time>2013-07-09T17:17:08Z</time>
        <extensions>
          <speed>3.0098581314086914</speed>
        </extensions>
      </trkpt>
      <trkpt lat="51.3286098" lon="9.0677188">
        <ele>311.3400001525879</ele>
        <hdop>5.0</hdop>
        <time>2013-07-09T17:17:13Z</time>
        <extensions>
          <speed>3.339348554611206</speed>
        </extensions>
      </trkpt>
      <trkpt lat="51.3284981" lon="9.0675075">
        <ele>311.3400001525879</ele>
        <hdop>5.0</hdop>
        <time>2013-07-09T17:17:19Z</time>
        <extensions>
          <speed>3.24617862701416</speed>
        </extensions>
      </trkpt>
      <trkpt lat="51.3284101" lon="9.0673226">
        <ele>314.3400001525879</ele>
        <hdop>5.0</hdop>
        <time>2013-07-09T17:17:24Z</time>
        <extensions>
          <speed>3.2915945053100586</speed>
        </extensions>
      </trkpt>
      <trkpt lat="51.3282942" lon="9.0670814">
        <ele>315.3400001525879</ele>
        <hdop>5.0</hdop>
        <time>2013-07-09T17:17:30Z</time>
        <extensions>
          <speed>3.2460436820983887</speed>
        </extensions>
      </trkpt>
      <trkpt lat="51.3282027" lon="9.0668877">
        <ele>315.3400001525879</ele>
        <hdop>5.0</hdop>
        <time>2013-07-09T17:17:35Z</time>
        <extensions>
          <speed>3.397691488265991</speed>
        </extensions>
      </trkpt>
      <trkpt lat="51.328084" lon="9.0666512">
        <ele>323.3400001525879</ele>
        <hdop>5.0</hdop>
        <time>2013-07-09T17:17:41Z</time>
        <extensions>
          <speed>3.9824039936065674</speed>
        </extensions>
      </trkpt>
      <trkpt lat="51.3279734" lon="9.0664054">
        <ele>320.3400001525879</ele>
        <hdop>5.0</hdop>
        <time>2013-07-09T17:17:46Z</time>
        <extensions>
          <speed>3.7962965965270996</speed>
        </extensions>
      </trkpt>
      <trkpt lat="51.32786" lon="9.0661876">
        <ele>327.3400001525879</ele>
        <hdop>5.0</hdop>
        <time>2013-07-09T17:17:52Z</time>
        <extensions>
          <speed>3.0302581787109375</speed>
        </extensions>
      </trkpt>
      <trkpt lat="51.3277531" lon="9.0660068">
        <ele>326.3400001525879</ele>
        <hdop>5.0</hdop>
        <time>2013-07-09T17:17:57Z</time>
        <extensions>
          <speed>3.841613531112671</speed>
        </extensions>
      </trkpt>
      <trkpt lat="51.3276319" lon="9.0657724">
        <ele>325.3400001525879</ele>
        <hdop>5.0</hdop>
        <time>2013-07-09T17:18:03Z</time>
        <extensions>
          <speed>3.2850239276885986</speed>
        </extensions>
      </trkpt>
      <trkpt lat="51.3275337" lon="9.0655672">
        <ele>327.3400001525879</ele>
        <hdop>5.0</hdop>
        <time>2013-07-09T17:18:08Z</time>
        <extensions>
          <speed>4.001725673675537</speed>
        </extensions>
      </trkpt>
      <trkpt lat="51.3274088" lon="9.0653334">
        <ele>330.3400001525879</ele>
        <hdop>5.0</hdop>
        <time>2013-07-09T17:18:13Z</time>
        <extensions>
          <speed>3.9506430625915527</speed>
        </extensions>
      </trkpt>
      <trkpt lat="51.3272714" lon="9.0650571">
        <ele>334.3400001525879</ele>
        <hdop>5.0</hdop>
        <time>2013-07-09T17:18:19Z</time>
        <extensions>
          <speed>4.240503311157227</speed>
        </extensions>
      </trkpt>
      <trkpt lat="51.3271206" lon="9.0648016">
        <ele>333.3400001525879</ele>
        <hdop>5.0</hdop>
        <time>2013-07-09T17:18:25Z</time>
        <extensions>
          <speed>4.180389404296875</speed>
        </extensions>
      </trkpt>
      <trkpt lat="51.3269636" lon="9.0645254">
        <ele>338.3400001525879</ele>
        <hdop>5.0</hdop>
        <time>2013-07-09T17:18:31Z</time>
        <extensions>
          <speed>4.272063732147217</speed>
        </extensions>
      </trkpt>
      <trkpt lat="51.3268399" lon="9.0642928">
        <ele>340.3400001525879</ele>
        <hdop>5.0</hdop>
        <time>2013-07-09T17:18:36Z</time>
        <extensions>
          <speed>4.407972812652588</speed>
        </extensions>
      </trkpt>
      <trkpt lat="51.3266726" lon="9.0639906">
        <ele>341.3400001525879</ele>
        <hdop>5.0</hdop>
        <time>2013-07-09T17:18:42Z</time>
        <extensions>
          <speed>4.838059425354004</speed>
        </extensions>
      </trkpt>
      <trkpt lat="51.3265403" lon="9.0637427">
        <ele>340.3400001525879</ele>
        <hdop>5.0</hdop>
        <time>2013-07-09T17:18:47Z</time>
        <extensions>
          <speed>4.770226001739502</speed>
        </extensions>
      </trkpt>
      <trkpt lat="51.3263702" lon="9.0634367">
        <ele>341.3400001525879</ele>
        <hdop>5.0</hdop>
        <time>2013-07-09T17:18:53Z</time>
        <extensions>
          <speed>4.86199951171875</speed>
        </extensions>
      </trkpt>
      <trkpt lat="51.3262255" lon="9.0631886">
        <ele>342.3400001525879</ele>
        <hdop>5.0</hdop>
        <time>2013-07-09T17:18:58Z</time>
        <extensions>
          <speed>4.459500312805176</speed>
        </extensions>
      </trkpt>
      <trkpt lat="51.3260432" lon="9.0628895">
        <ele>343.3400001525879</ele>
        <hdop>5.0</hdop>
        <time>2013-07-09T17:19:04Z</time>
        <extensions>
          <speed>4.989746570587158</speed>
        </extensions>
      </trkpt>
      <trkpt lat="51.3258583" lon="9.0625883">
        <ele>342.3400001525879</ele>
        <hdop>5.0</hdop>
        <time>2013-07-09T17:19:10Z</time>
        <extensions>
          <speed>5.006962776184082</speed>
        </extensions>
      </trkpt>
      <trkpt lat="51.3256465" lon="9.0622362">
        <ele>348.3400001525879</ele>
        <hdop>5.0</hdop>
        <time>2013-07-09T17:19:16Z</time>
        <extensions>
          <speed>5.471090793609619</speed>
        </extensions>
      </trkpt>
      <trkpt lat="51.3254359" lon="9.061888">
        <ele>346.3400001525879</ele>
        <hdop>5.0</hdop>
        <time>2013-07-09T17:19:22Z</time>
        <extensions>
          <speed>5.660193920135498</speed>
        </extensions>
      </trkpt>
      <trkpt lat="51.3252753" lon="9.0615644">
        <ele>346.3400001525879</ele>
        <hdop>5.0</hdop>
        <time>2013-07-09T17:19:27Z</time>
        <extensions>
          <speed>6.321477890014648</speed>
        </extensions>
      </trkpt>
      <trkpt lat="51.3250818" lon="9.0610591">
        <ele>347.3400001525879</ele>
        <hdop>5.0</hdop>
        <time>2013-07-09T17:19:33Z</time>
        <extensions>
          <speed>6.812323093414307</speed>
        </extensions>
      </trkpt>
      <trkpt lat="51.324966" lon="9.0604703">
        <ele>347.3400001525879</ele>
        <hdop>5.0</hdop>
        <time>2013-07-09T17:19:39Z</time>
        <extensions>
          <speed>7.363816261291504</speed>
        </extensions>
      </trkpt>
      <trkpt lat="51.3249074" lon="9.0597729">
        <ele>345.3400001525879</ele>
        <hdop>5.0</hdop>
        <time>2013-07-09T17:19:45Z</time>
        <extensions>
          <speed>8.46727180480957</speed>
        </extensions>
      </trkpt>
      <trkpt lat="51.3248722" lon="9.0590314">
        <ele>341.3400001525879</ele>
        <hdop>5.0</hdop>
        <time>2013-07-09T17:19:51Z</time>
        <extensions>
          <speed>8.974674224853516</speed>
        </extensions>
      </trkpt>
      <trkpt lat="51.3247993" lon="9.0582663">
        <ele>345.3400001525879</ele>
        <hdop>5.0</hdop>
        <time>2013-07-09T17:19:57Z</time>
        <extensions>
          <speed>8.909017562866211</speed>
        </extensions>
      </trkpt>
      <trkpt lat="51.3246874" lon="9.0575675">
        <ele>342.3400001525879</ele>
        <hdop>5.0</hdop>
        <time>2013-07-09T17:20:03Z</time>
        <extensions>
          <speed>7.659297466278076</speed>
        </extensions>
      </trkpt>
      <trkpt lat="51.3247411" lon="9.0570987">
        <ele>343.3400001525879</ele>
        <hdop>10.0</hdop>
        <time>2013-07-09T17:20:08Z</time>
        <extensions>
          <speed>5.309383869171143</speed>
        </extensions>
      </trkpt>
      <trkpt lat="51.3248619" lon="9.0567634">
        <ele>342.3400001525879</ele>
        <hdop>5.0</hdop>
        <time>2013-07-09T17:20:14Z</time>
        <extensions>
          <speed>3.882941961288452</speed>
        </extensions>
      </trkpt>
      <trkpt lat="51.3249782" lon="9.0565374">
        <ele>340.3400001525879</ele>
        <hdop>10.0</hdop>
        <time>2013-07-09T17:20:19Z</time>
        <extensions>
          <speed>3.453972101211548</speed>
        </extensions>
      </trkpt>
      <trkpt lat="51.3250764" lon="9.0564716">
        <ele>344.3400001525879</ele>
        <hdop>5.0</hdop>
        <time>2013-07-09T17:20:24Z</time>
        <extensions>
          <speed>1.9238297939300537</speed>
        </extensions>
      </trkpt>
      <trkpt lat="51.3251012" lon="9.0564131">
        <ele>346.3400001525879</ele>
        <hdop>10.0</hdop>
        <time>2013-07-09T17:20:30Z</time>
      </trkpt>
      <trkpt lat="51.3251012" lon="9.0564131">
        <ele>346.3400001525879</ele>
        <hdop>5.0</hdop>
        <time>2013-07-09T17:20:35Z</time>
      </trkpt>
      <trkpt lat="51.3251012" lon="9.0564131">
        <ele>346.3400001525879</ele>
        <hdop>5.0</hdop>
        <time>2013-07-09T17:20:41Z</time>
      </trkpt>
      <trkpt lat="51.3251012" lon="9.0564131">
        <ele>346.3400001525879</ele>
        <hdop>5.0</hdop>
        <time>2013-07-09T17:20:46Z</time>
      </trkpt>
      <trkpt lat="51.3251012" lon="9.0564131">
        <ele>346.3400001525879</ele>
        <hdop>5.0</hdop>
        <time>2013-07-09T17:20:52Z</time>
      </trkpt>
      <trkpt lat="51.3251012" lon="9.0564131">
        <ele>346.3400001525879</ele>
        <hdop>5.0</hdop>
        <time>2013-07-09T17:20:58Z</time>
      </trkpt>
      <trkpt lat="51.3251012" lon="9.0564131">
        <ele>346.3400001525879</ele>
        <hdop>10.0</hdop>
        <time>2013-07-09T17:21:03Z</time>
      </trkpt>
      <trkpt lat="51.3251012" lon="9.0564131">
        <ele>346.3400001525879</ele>
        <hdop>5.0</hdop>
        <time>2013-07-09T17:21:09Z</time>
      </trkpt>
      <trkpt lat="51.3251012" lon="9.0564131">
        <ele>346.3400001525879</ele>
        <hdop>5.0</hdop>
        <time>2013-07-09T17:21:14Z</time>
      </trkpt>
      <trkpt lat="51.3251012" lon="9.0564131">
        <ele>346.3400001525879</ele>
        <hdop>10.0</hdop>
        <time>2013-07-09T17:21:20Z</time>
      </trkpt>
      <trkpt lat="51.3251012" lon="9.0564131">
        <ele>346.3400001525879</ele>
        <hdop>5.0</hdop>
        <time>2013-07-09T17:21:26Z</time>
      </trkpt>
      <trkpt lat="51.3251012" lon="9.0564131">
        <ele>346.3400001525879</ele>
        <hdop>10.0</hdop>
        <time>2013-07-09T17:21:32Z</time>
      </trkpt>
      <trkpt lat="51.3251012" lon="9.0564131">
        <ele>346.3400001525879</ele>
        <hdop>5.0</hdop>
        <time>2013-07-09T17:21:38Z</time>
      </trkpt>
      <trkpt lat="51.3251012" lon="9.0564131">
        <ele>346.3400001525879</ele>
        <hdop>5.0</hdop>
        <time>2013-07-09T17:21:44Z</time>
      </trkpt>
      <trkpt lat="51.3251012" lon="9.0564131">
        <ele>346.3400001525879</ele>
        <hdop>5.0</hdop>
        <time>2013-07-09T17:21:50Z</time>
      </trkpt>
      <trkpt lat="51.325088" lon="9.0563342">
        <ele>347.3400001525879</ele>
        <hdop>5.0</hdop>
        <time>2013-07-09T17:21:55Z</time>
      </trkpt>
      <trkpt lat="51.3250806" lon="9.0563101">
        <ele>344.3400001525879</ele>
        <hdop>5.0</hdop>
        <time>2013-07-09T17:22:01Z</time>
      </trkpt>
      <trkpt lat="51.3250806" lon="9.0563101">
        <ele>344.3400001525879</ele>
        <hdop>5.0</hdop>
        <time>2013-07-09T17:22:06Z</time>
      </trkpt>
      <trkpt lat="51.3250806" lon="9.0563101">
        <ele>344.3400001525879</ele>
        <hdop>5.0</hdop>
        <time>2013-07-09T17:22:12Z</time>
      </trkpt>
      <trkpt lat="51.3250806" lon="9.0563101">
        <ele>344.3400001525879</ele>
        <hdop>5.0</hdop>
        <time>2013-07-09T17:22:17Z</time>
      </trkpt>
      <trkpt lat="51.3250806" lon="9.0563101">
        <ele>344.3400001525879</ele>
        <hdop>5.0</hdop>
        <time>2013-07-09T17:22:22Z</time>
      </trkpt>
      <trkpt lat="51.3250806" lon="9.0563101">
        <ele>344.3400001525879</ele>
        <hdop>10.0</hdop>
        <time>2013-07-09T17:22:28Z</time>
      </trkpt>
      <trkpt lat="51.3250806" lon="9.0563101">
        <ele>344.3400001525879</ele>
        <hdop>10.0</hdop>
        <time>2013-07-09T17:22:33Z</time>
      </trkpt>
      <trkpt lat="51.3250806" lon="9.0563101">
        <ele>344.3400001525879</ele>
        <hdop>10.0</hdop>
        <time>2013-07-09T17:22:39Z</time>
      </trkpt>
      <trkpt lat="51.3250806" lon="9.0563101">
        <ele>344.3400001525879</ele>
        <hdop>5.0</hdop>
        <time>2013-07-09T17:22:45Z</time>
      </trkpt>
      <trkpt lat="51.3250806" lon="9.0563101">
        <ele>344.3400001525879</ele>
        <hdop>10.0</hdop>
        <time>2013-07-09T17:22:50Z</time>
      </trkpt>
      <trkpt lat="51.3250806" lon="9.0563101">
        <ele>344.3400001525879</ele>
        <hdop>10.0</hdop>
        <time>2013-07-09T17:22:56Z</time>
      </trkpt>
      <trkpt lat="51.3250806" lon="9.0563101">
        <ele>344.3400001525879</ele>
        <hdop>5.0</hdop>
        <time>2013-07-09T17:23:01Z</time>
      </trkpt>
      <trkpt lat="51.3250806" lon="9.0563101">
        <ele>344.3400001525879</ele>
        <hdop>5.0</hdop>
        <time>2013-07-09T17:23:07Z</time>
      </trkpt>
      <trkpt lat="51.3251079" lon="9.0562491">
        <ele>342.3400001525879</ele>
        <hdop>5.0</hdop>
        <time>2013-07-09T17:23:13Z</time>
      </trkpt>
      <trkpt lat="51.325112" lon="9.056103">
        <ele>339.3400001525879</ele>
        <hdop>10.0</hdop>
        <time>2013-07-09T17:23:18Z</time>
        <extensions>
          <speed>2.645927667617798</speed>
        </extensions>
      </trkpt>
      <trkpt lat="51.325124" lon="9.0557146">
        <ele>337.3400001525879</ele>
        <hdop>10.0</hdop>
        <time>2013-07-09T17:23:24Z</time>
        <extensions>
          <speed>4.765806198120117</speed>
        </extensions>
      </trkpt>
      <trkpt lat="51.3251419" lon="9.0553122">
        <ele>337.3400001525879</ele>
        <hdop>10.0</hdop>
        <time>2013-07-09T17:23:29Z</time>
        <extensions>
          <speed>5.14621114730835</speed>
        </extensions>
      </trkpt>
      <trkpt lat="51.3251795" lon="9.0547663">
        <ele>337.3400001525879</ele>
        <hdop>10.0</hdop>
        <time>2013-07-09T17:23:35Z</time>
        <extensions>
          <speed>6.76412296295166</speed>
        </extensions>
      </trkpt>
      <trkpt lat="51.3252856" lon="9.0541251">
        <ele>330.3400001525879</ele>
        <hdop>10.0</hdop>
        <time>2013-07-09T17:23:41Z</time>
        <extensions>
          <speed>8.02609634399414</speed>
        </extensions>
      </trkpt>
      <trkpt lat="51.3255163" lon="9.0535042">
        <ele>330.3400001525879</ele>
        <hdop>10.0</hdop>
        <time>2013-07-09T17:23:47Z</time>
        <extensions>
          <speed>8.67294979095459</speed>
        </extensions>
      </trkpt>
      <trkpt lat="51.325759" lon="9.052806">
        <ele>328.3400001525879</ele>
        <hdop>10.0</hdop>
        <time>2013-07-09T17:23:53Z</time>
        <extensions>
          <speed>8.88218879699707</speed>
        </extensions>
      </trkpt>
      <trkpt lat="51.3257605" lon="9.0521211">
        <ele>329.3400001525879</ele>
        <hdop>10.0</hdop>
        <time>2013-07-09T17:23:58Z</time>
        <extensions>
          <speed>8.074528694152832</speed>
        </extensions>
      </trkpt>
      <trkpt lat="51.3256382" lon="9.0513708">
        <ele>324.3400001525879</ele>
        <hdop>10.0</hdop>
        <time>2013-07-09T17:24:04Z</time>
        <extensions>
          <speed>9.72594928741455</speed>
        </extensions>
      </trkpt>
      <trkpt lat="51.3254837" lon="9.05057">
        <ele>326.3400001525879</ele>
        <hdop>10.0</hdop>
        <time>2013-07-09T17:24:10Z</time>
        <extensions>
          <speed>9.26307201385498</speed>
        </extensions>
      </trkpt>
      <trkpt lat="51.3253701" lon="9.049851">
        <ele>325.3400001525879</ele>
        <hdop>10.0</hdop>
        <time>2013-07-09T17:24:16Z</time>
        <extensions>
          <speed>7.200636863708496</speed>
        </extensions>
      </trkpt>
      <trkpt lat="51.3250583" lon="9.0494093">
        <ele>330.3400001525879</ele>
        <hdop>10.0</hdop>
        <time>2013-07-09T17:24:22Z</time>
        <extensions>
          <speed>8.702741622924805</speed>
        </extensions>
      </trkpt>
      <trkpt lat="51.3248161" lon="9.0489354">
        <ele>324.3400001525879</ele>
        <hdop>10.0</hdop>
        <time>2013-07-09T17:24:27Z</time>
        <extensions>
          <speed>7.431734561920166</speed>
        </extensions>
      </trkpt>
      <trkpt lat="51.3246804" lon="9.0484785">
        <ele>330.3400001525879</ele>
        <hdop>10.0</hdop>
        <time>2013-07-09T17:24:33Z</time>
        <extensions>
          <speed>4.961621284484863</speed>
        </extensions>
      </trkpt>
      <trkpt lat="51.32459" lon="9.0481044">
        <ele>329.3400001525879</ele>
        <hdop>5.0</hdop>
        <time>2013-07-09T17:24:39Z</time>
        <extensions>
          <speed>5.27294921875</speed>
        </extensions>
      </trkpt>
      <trkpt lat="51.3244833" lon="9.0477023">
        <ele>334.3400001525879</ele>
        <hdop>5.0</hdop>
        <time>2013-07-09T17:24:45Z</time>
        <extensions>
          <speed>5.743522644042969</speed>
        </extensions>
      </trkpt>
      <trkpt lat="51.3243845" lon="9.0473279">
        <ele>331.3400001525879</ele>
        <hdop>5.0</hdop>
        <time>2013-07-09T17:24:51Z</time>
        <extensions>
          <speed>4.51665735244751</speed>
        </extensions>
      </trkpt>
      <trkpt lat="51.3243343" lon="9.0470122">
        <ele>335.3400001525879</ele>
        <hdop>5.0</hdop>
        <time>2013-07-09T17:24:56Z</time>
        <extensions>
          <speed>4.42650842666626</speed>
        </extensions>
      </trkpt>
      <trkpt lat="51.3242915" lon="9.0466926">
        <ele>335.3400001525879</ele>
        <hdop>5.0</hdop>
        <time>2013-07-09T17:25:01Z</time>
        <extensions>
          <speed>4.285032749176025</speed>
        </extensions>
      </trkpt>
      <trkpt lat="51.3242513" lon="9.0463122">
        <ele>336.3400001525879</ele>
        <hdop>5.0</hdop>
        <time>2013-07-09T17:25:07Z</time>
        <extensions>
          <speed>3.3990793228149414</speed>
        </extensions>
      </trkpt>
      <trkpt lat="51.3242403" lon="9.0460392">
        <ele>337.3400001525879</ele>
        <hdop>5.0</hdop>
        <time>2013-07-09T17:25:13Z</time>
        <extensions>
          <speed>3.5939619541168213</speed>
        </extensions>
      </trkpt>
      <trkpt lat="51.3242517" lon="9.0457765">
        <ele>338.3400001525879</ele>
        <hdop>5.0</hdop>
        <time>2013-07-09T17:25:18Z</time>
        <extensions>
          <speed>3.7764744758605957</speed>
        </extensions>
      </trkpt>
      <trkpt lat="51.3242778" lon="9.0454784">
        <ele>339.3400001525879</ele>
        <hdop>5.0</hdop>
        <time>2013-07-09T17:25:23Z</time>
        <extensions>
          <speed>3.951432466506958</speed>
        </extensions>
      </trkpt>
      <trkpt lat="51.3243508" lon="9.0451307">
        <ele>340.3400001525879</ele>
        <hdop>5.0</hdop>
        <time>2013-07-09T17:25:29Z</time>
        <extensions>
          <speed>4.077434062957764</speed>
        </extensions>
      </trkpt>
      <trkpt lat="51.324418" lon="9.0448655">
        <ele>340.3400001525879</ele>
        <hdop>5.0</hdop>
        <time>2013-07-09T17:25:34Z</time>
        <extensions>
          <speed>3.9024546146392822</speed>
        </extensions>
      </trkpt>
      <trkpt lat="51.3245131" lon="9.0445697">
        <ele>347.3400001525879</ele>
        <hdop>5.0</hdop>
        <time>2013-07-09T17:25:40Z</time>
        <extensions>
          <speed>4.1430583000183105</speed>
        </extensions>
      </trkpt>
      <trkpt lat="51.3246549" lon="9.0442886">
        <ele>347.3400001525879</ele>
        <hdop>5.0</hdop>
        <time>2013-07-09T17:25:46Z</time>
        <extensions>
          <speed>3.846881866455078</speed>
        </extensions>
      </trkpt>
      <trkpt lat="51.3247758" lon="9.0440868">
        <ele>349.3400001525879</ele>
        <hdop>5.0</hdop>
        <time>2013-07-09T17:25:51Z</time>
        <extensions>
          <speed>3.9006917476654053</speed>
        </extensions>
      </trkpt>
      <trkpt lat="51.3249042" lon="9.0438625">
        <ele>349.3400001525879</ele>
        <hdop>5.0</hdop>
        <time>2013-07-09T17:25:57Z</time>
        <extensions>
          <speed>3.549506902694702</speed>
        </extensions>
      </trkpt>
      <trkpt lat="51.325001" lon="9.0436524">
        <ele>349.3400001525879</ele>
        <hdop>5.0</hdop>
        <time>2013-07-09T17:26:02Z</time>
        <extensions>
          <speed>3.4857022762298584</speed>
        </extensions>
      </trkpt>
      <trkpt lat="51.3250639" lon="9.0434288">
        <ele>351.3400001525879</ele>
        <hdop>5.0</hdop>
        <time>2013-07-09T17:26:07Z</time>
        <extensions>
          <speed>3.456204414367676</speed>
        </extensions>
      </trkpt>
      <trkpt lat="51.3251391" lon="9.0431674">
        <ele>353.3400001525879</ele>
        <hdop>5.0</hdop>
        <time>2013-07-09T17:26:13Z</time>
        <extensions>
          <speed>3.2341086864471436</speed>
        </extensions>
      </trkpt>
      <trkpt lat="51.3252211" lon="9.0429024">
        <ele>352.3400001525879</ele>
        <hdop>5.0</hdop>
        <time>2013-07-09T17:26:19Z</time>
        <extensions>
          <speed>3.308987617492676</speed>
        </extensions>
      </trkpt>
      <trkpt lat="51.325297" lon="9.0426475">
        <ele>356.3400001525879</ele>
        <hdop>5.0</hdop>
        <time>2013-07-09T17:26:25Z</time>
        <extensions>
          <speed>3.1880016326904297</speed>
        </extensions>
      </trkpt>
      <trkpt lat="51.3253681" lon="9.0423721">
        <ele>358.3400001525879</ele>
        <hdop>5.0</hdop>
        <time>2013-07-09T17:26:31Z</time>
        <extensions>
          <speed>3.462639331817627</speed>
        </extensions>
      </trkpt>
      <trkpt lat="51.3253919" lon="9.0421343">
        <ele>356.3400001525879</ele>
        <hdop>5.0</hdop>
        <time>2013-07-09T17:26:36Z</time>
        <extensions>
          <speed>3.188896894454956</speed>
        </extensions>
      </trkpt>
      <trkpt lat="51.3254036" lon="9.0418447">
        <ele>362.3400001525879</ele>
        <hdop>5.0</hdop>
        <time>2013-07-09T17:26:42Z</time>
        <extensions>
          <speed>3.3744468688964844</speed>
        </extensions>
      </trkpt>
      <trkpt lat="51.3254058" lon="9.041555">
        <ele>364.3400001525879</ele>
        <hdop>5.0</hdop>
        <time>2013-07-09T17:26:48Z</time>
        <extensions>
          <speed>3.2536256313323975</speed>
        </extensions>
      </trkpt>
      <trkpt lat="51.3254131" lon="9.0413124">
        <ele>365.3400001525879</ele>
        <hdop>5.0</hdop>
        <time>2013-07-09T17:26:53Z</time>
        <extensions>
          <speed>3.4218437671661377</speed>
        </extensions>
      </trkpt>
      <trkpt lat="51.3254186" lon="9.0410031">
        <ele>367.3400001525879</ele>
        <hdop>5.0</hdop>
        <time>2013-07-09T17:26:59Z</time>
        <extensions>
          <speed>3.5783438682556152</speed>
        </extensions>
      </trkpt>
      <trkpt lat="51.3254387" lon="9.0407125">
        <ele>368.3400001525879</ele>
        <hdop>5.0</hdop>
        <time>2013-07-09T17:27:05Z</time>
        <extensions>
          <speed>3.4262137413024902</speed>
        </extensions>
      </trkpt>
      <trkpt lat="51.3254633" lon="9.0403943">
        <ele>367.3400001525879</ele>
        <hdop>5.0</hdop>
        <time>2013-07-09T17:27:11Z</time>
        <extensions>
          <speed>3.645301103591919</speed>
        </extensions>
      </trkpt>
      <trkpt lat="51.3254818" lon="9.0401401">
        <ele>366.3400001525879</ele>
        <hdop>5.0</hdop>
        <time>2013-07-09T17:27:16Z</time>
        <extensions>
          <speed>3.4018654823303223</speed>
        </extensions>
      </trkpt>
      <trkpt lat="51.3255036" lon="9.0398103">
        <ele>370.3400001525879</ele>
        <hdop>5.0</hdop>
        <time>2013-07-09T17:27:22Z</time>
        <extensions>
          <speed>3.8904480934143066</speed>
        </extensions>
      </trkpt>
      <trkpt lat="51.325514" lon="9.0395577">
        <ele>374.3400001525879</ele>
        <hdop>5.0</hdop>
        <time>2013-07-09T17:27:27Z</time>
        <extensions>
          <speed>3.6163270473480225</speed>
        </extensions>
      </trkpt>
      <trkpt lat="51.3255329" lon="9.0392714">
        <ele>372.3400001525879</ele>
        <hdop>5.0</hdop>
        <time>2013-07-09T17:27:32Z</time>
        <extensions>
          <speed>3.99971866607666</speed>
        </extensions>
      </trkpt>
      <trkpt lat="51.3255452" lon="9.0389288">
        <ele>376.3400001525879</ele>
        <hdop>5.0</hdop>
        <time>2013-07-09T17:27:38Z</time>
        <extensions>
          <speed>4.054056167602539</speed>
        </extensions>
      </trkpt>
      <trkpt lat="51.3255507" lon="9.0386325">
        <ele>378.3400001525879</ele>
        <hdop>5.0</hdop>
        <time>2013-07-09T17:27:43Z</time>
        <extensions>
          <speed>4.019834995269775</speed>
        </extensions>
      </trkpt>
      <trkpt lat="51.3255688" lon="9.0383395">
        <ele>377.3400001525879</ele>
        <hdop>5.0</hdop>
        <time>2013-07-09T17:27:48Z</time>
        <extensions>
          <speed>3.9344398975372314</speed>
        </extensions>
      </trkpt>
      <trkpt lat="51.3256047" lon="9.0380755">
        <ele>378.3400001525879</ele>
        <hdop>10.0</hdop>
        <time>2013-07-09T17:27:54Z</time>
        <extensions>
          <speed>2.2323856353759766</speed>
        </extensions>
      </trkpt>
      <trkpt lat="51.3256287" lon="9.0379323">
        <ele>375.3400001525879</ele>
        <hdop>5.0</hdop>
        <time>2013-07-09T17:28:00Z</time>
        <extensions>
          <speed>1.4790875911712646</speed>
        </extensions>
      </trkpt>
      <trkpt lat="51.3256447" lon="9.037776">
        <ele>376.3400001525879</ele>
        <hdop>5.0</hdop>
        <time>2013-07-09T17:28:05Z</time>
        <extensions>
          <speed>2.4002113342285156</speed>
        </extensions>
      </trkpt>
      <trkpt lat="51.3257061" lon="9.0376049">
        <ele>372.3400001525879</ele>
        <hdop>50.0</hdop>
        <time>2013-07-09T17:28:10Z</time>
        <extensions>
          <speed>3.550325870513916</speed>
        </extensions>
      </trkpt>
      <trkpt lat="51.3257563" lon="9.0373611">
        <ele>376.3400001525879</ele>
        <hdop>20.0</hdop>
        <time>2013-07-09T17:28:15Z</time>
        <extensions>
          <speed>3.3197174072265625</speed>
        </extensions>
      </trkpt>
      <trkpt lat="51.3258278" lon="9.0370243">
        <ele>375.3400001525879</ele>
        <hdop>30.0</hdop>
        <time>2013-07-09T17:28:21Z</time>
        <extensions>
          <speed>3.6265621185302734</speed>
        </extensions>
      </trkpt>
      <trkpt lat="51.3259167" lon="9.0366498">
        <ele>373.3400001525879</ele>
        <hdop>30.0</hdop>
        <time>2013-07-09T17:28:26Z</time>
        <extensions>
          <speed>5.7935872077941895</speed>
        </extensions>
      </trkpt>
      <trkpt lat="51.3259518" lon="9.0361878">
        <ele>376.3400001525879</ele>
        <hdop>50.0</hdop>
        <time>2013-07-09T17:28:31Z</time>
        <extensions>
          <speed>6.028348445892334</speed>
        </extensions>
      </trkpt>
      <trkpt lat="51.326026" lon="9.0356233">
        <ele>376.3400001525879</ele>
        <hdop>30.0</hdop>
        <time>2013-07-09T17:28:37Z</time>
        <extensions>
          <speed>6.234677791595459</speed>
        </extensions>
      </trkpt>
      <trkpt lat="51.3262435" lon="9.035095">
        <ele>381.3400001525879</ele>
        <hdop>15.0</hdop>
        <time>2013-07-09T17:28:43Z</time>
        <extensions>
          <speed>6.489994525909424</speed>
        </extensions>
      </trkpt>
      <trkpt lat="51.3261092" lon="9.034373">
        <ele>380.3400001525879</ele>
        <hdop>10.0</hdop>
        <time>2013-07-09T17:28:49Z</time>
        <extensions>
          <speed>5.81552791595459</speed>
        </extensions>
      </trkpt>
      <trkpt lat="51.3261229" lon="9.03367">
        <ele>380.3400001525879</ele>
        <hdop>15.0</hdop>
        <time>2013-07-09T17:28:55Z</time>
        <extensions>
          <speed>5.915432929992676</speed>
        </extensions>
      </trkpt>
      <trkpt lat="51.3263919" lon="9.0331119">
        <ele>372.3400001525879</ele>
        <hdop>20.0</hdop>
        <time>2013-07-09T17:29:01Z</time>
        <extensions>
          <speed>11.318034172058105</speed>
        </extensions>
      </trkpt>
      <trkpt lat="51.3265044" lon="9.0324731">
        <ele>372.3400001525879</ele>
        <hdop>15.0</hdop>
        <time>2013-07-09T17:29:06Z</time>
        <extensions>
          <speed>7.36695671081543</speed>
        </extensions>
      </trkpt>
      <trkpt lat="51.3267736" lon="9.0317581">
        <ele>371.3400001525879</ele>
        <hdop>20.0</hdop>
        <time>2013-07-09T17:29:12Z</time>
        <extensions>
          <speed>7.485110282897949</speed>
        </extensions>
      </trkpt>
      <trkpt lat="51.326756" lon="9.0309909">
        <ele>366.3400001525879</ele>
        <hdop>20.0</hdop>
        <time>2013-07-09T17:29:17Z</time>
        <extensions>
          <speed>7.2690324783325195</speed>
        </extensions>
      </trkpt>
      <trkpt lat="51.3266401" lon="9.0300932">
        <ele>349.3400001525879</ele>
        <hdop>20.0</hdop>
        <time>2013-07-09T17:29:23Z</time>
        <extensions>
          <speed>8.993940353393555</speed>
        </extensions>
      </trkpt>
      <trkpt lat="51.3265909" lon="9.029261">
        <ele>351.3400001525879</ele>
        <hdop>15.0</hdop>
        <time>2013-07-09T17:29:28Z</time>
        <extensions>
          <speed>6.877649307250977</speed>
        </extensions>
      </trkpt>
      <trkpt lat="51.3265116" lon="9.0284914">
        <ele>353.3400001525879</ele>
        <hdop>15.0</hdop>
        <time>2013-07-09T17:29:33Z</time>
        <extensions>
          <speed>7.380837440490723</speed>
        </extensions>
      </trkpt>
      <trkpt lat="51.326546" lon="9.0277735">
        <ele>360.3400001525879</ele>
        <hdop>15.0</hdop>
        <time>2013-07-09T17:29:39Z</time>
        <extensions>
          <speed>7.533115386962891</speed>
        </extensions>
      </trkpt>
      <trkpt lat="51.326338" lon="9.0266982">
        <ele>358.3400001525879</ele>
        <hdop>15.0</hdop>
        <time>2013-07-09T17:29:44Z</time>
        <extensions>
          <speed>10.285124778747559</speed>
        </extensions>
      </trkpt>
      <trkpt lat="51.3260722" lon="9.0257719">
        <ele>347.3400001525879</ele>
        <hdop>20.0</hdop>
        <time>2013-07-09T17:29:50Z</time>
        <extensions>
          <speed>10.571704864501953</speed>
        </extensions>
      </trkpt>
      <trkpt lat="51.3254544" lon="9.0250246">
        <ele>347.3400001525879</ele>
        <hdop>15.0</hdop>
        <time>2013-07-09T17:29:56Z</time>
        <extensions>
          <speed>11.29986572265625</speed>
        </extensions>
      </trkpt>
      <trkpt lat="51.3248772" lon="9.0243091">
        <ele>338.3400001525879</ele>
        <hdop>15.0</hdop>
        <time>2013-07-09T17:30:02Z</time>
        <extensions>
          <speed>11.242531776428223</speed>
        </extensions>
      </trkpt>
      <trkpt lat="51.3245102" lon="9.0234678">
        <ele>342.3400001525879</ele>
        <hdop>15.0</hdop>
        <time>2013-07-09T17:30:08Z</time>
        <extensions>
          <speed>9.668130874633789</speed>
        </extensions>
      </trkpt>
      <trkpt lat="51.3243126" lon="9.0226472">
        <ele>338.3400001525879</ele>
        <hdop>10.0</hdop>
        <time>2013-07-09T17:30:13Z</time>
        <extensions>
          <speed>10.105313301086426</speed>
        </extensions>
      </trkpt>
      <trkpt lat="51.32412" lon="9.021601">
        <ele>330.3400001525879</ele>
        <hdop>15.0</hdop>
        <time>2013-07-09T17:30:19Z</time>
        <extensions>
          <speed>14.084701538085938</speed>
        </extensions>
      </trkpt>
      <trkpt lat="51.3235434" lon="9.0204821">
        <ele>319.3400001525879</ele>
        <hdop>10.0</hdop>
        <time>2013-07-09T17:30:25Z</time>
        <extensions>
          <speed>16.261375427246094</speed>
        </extensions>
      </trkpt>
      <trkpt lat="51.3230373" lon="9.0197041">
        <ele>314.3400001525879</ele>
        <hdop>10.0</hdop>
        <time>2013-07-09T17:30:30Z</time>
        <extensions>
          <speed>15.58935546875</speed>
        </extensions>
      </trkpt>
      <trkpt lat="51.3223523" lon="9.0190743">
        <ele>314.3400001525879</ele>
        <hdop>5.0</hdop>
        <time>2013-07-09T17:30:36Z</time>
        <extensions>
          <speed>13.448721885681152</speed>
        </extensions>
      </trkpt>
      <trkpt lat="51.321766" lon="9.0185366">
        <ele>311.3400001525879</ele>
        <hdop>10.0</hdop>
        <time>2013-07-09T17:30:42Z</time>
        <extensions>
          <speed>11.368062019348145</speed>
        </extensions>
      </trkpt>
      <trkpt lat="51.3214896" lon="9.0176665">
        <ele>309.3400001525879</ele>
        <hdop>10.0</hdop>
        <time>2013-07-09T17:30:48Z</time>
        <extensions>
          <speed>10.634547233581543</speed>
        </extensions>
      </trkpt>
      <trkpt lat="51.3214624" lon="9.016753">
        <ele>309.3400001525879</ele>
        <hdop>10.0</hdop>
        <time>2013-07-09T17:30:54Z</time>
        <extensions>
          <speed>10.32499885559082</speed>
        </extensions>
      </trkpt>
      <trkpt lat="51.3214522" lon="9.0160019">
        <ele>308.3400001525879</ele>
        <hdop>10.0</hdop>
        <time>2013-07-09T17:30:59Z</time>
        <extensions>
          <speed>10.652444839477539</speed>
        </extensions>
      </trkpt>
      <trkpt lat="51.3215768" lon="9.015265">
        <ele>307.3400001525879</ele>
        <hdop>10.0</hdop>
        <time>2013-07-09T17:31:04Z</time>
        <extensions>
          <speed>10.083423614501953</speed>
        </extensions>
      </trkpt>
      <trkpt lat="51.3219389" lon="9.0145457">
        <ele>305.3400001525879</ele>
        <hdop>15.0</hdop>
        <time>2013-07-09T17:31:09Z</time>
        <extensions>
          <speed>14.08427906036377</speed>
        </extensions>
      </trkpt>
      <trkpt lat="51.3225336" lon="9.0137839">
        <ele>298.3400001525879</ele>
        <hdop>15.0</hdop>
        <time>2013-07-09T17:31:15Z</time>
        <extensions>
          <speed>14.366778373718262</speed>
        </extensions>
      </trkpt>
      <trkpt lat="51.3230945" lon="9.0133171">
        <ele>289.3400001525879</ele>
        <hdop>10.0</hdop>
        <time>2013-07-09T17:31:20Z</time>
        <extensions>
          <speed>13.09484577178955</speed>
        </extensions>
      </trkpt>
      <trkpt lat="51.3236285" lon="9.0126055">
        <ele>283.3400001525879</ele>
        <hdop>10.0</hdop>
        <time>2013-07-09T17:31:26Z</time>
        <extensions>
          <speed>11.499046325683594</speed>
        </extensions>
      </trkpt>
      <trkpt lat="51.3241568" lon="9.0120401">
        <ele>279.3400001525879</ele>
        <hdop>5.0</hdop>
        <time>2013-07-09T17:31:32Z</time>
        <extensions>
          <speed>12.95985221862793</speed>
        </extensions>
      </trkpt>
      <trkpt lat="51.3247144" lon="9.0119833">
        <ele>269.3400001525879</ele>
        <hdop>5.0</hdop>
        <time>2013-07-09T17:31:37Z</time>
        <extensions>
          <speed>11.434082984924316</speed>
        </extensions>
      </trkpt>
      <trkpt lat="51.3252173" lon="9.0119279">
        <ele>267.3400001525879</ele>
        <hdop>5.0</hdop>
        <time>2013-07-09T17:31:43Z</time>
        <extensions>
          <speed>11.232669830322266</speed>
        </extensions>
      </trkpt>
      <trkpt lat="51.3254965" lon="9.0109412">
        <ele>256.3400001525879</ele>
        <hdop>10.0</hdop>
        <time>2013-07-09T17:31:49Z</time>
        <extensions>
          <speed>13.490797996520996</speed>
        </extensions>
      </trkpt>
      <trkpt lat="51.3253238" lon="9.0099396">
        <ele>251.3400001525879</ele>
        <hdop>10.0</hdop>
        <time>2013-07-09T17:31:54Z</time>
        <extensions>
          <speed>14.346529960632324</speed>
        </extensions>
      </trkpt>
      <trkpt lat="51.3247891" lon="9.0090697">
        <ele>243.3400001525879</ele>
        <hdop>5.0</hdop>
        <time>2013-07-09T17:32:00Z</time>
        <extensions>
          <speed>13.257198333740234</speed>
        </extensions>
      </trkpt>
      <trkpt lat="51.3245912" lon="9.0082943">
        <ele>245.3400001525879</ele>
        <hdop>5.0</hdop>
        <time>2013-07-09T17:32:05Z</time>
        <extensions>
          <speed>9.976234436035156</speed>
        </extensions>
      </trkpt>
      <trkpt lat="51.3245104" lon="9.007687">
        <ele>243.3400001525879</ele>
        <hdop>10.0</hdop>
        <time>2013-07-09T17:32:11Z</time>
        <extensions>
          <speed>4.266348838806152</speed>
        </extensions>
      </trkpt>
      <trkpt lat="51.3245251" lon="9.0075001">
        <ele>243.3400001525879</ele>
        <hdop>5.0</hdop>
        <time>2013-07-09T17:32:16Z</time>
        <extensions>
          <speed>1.6921261548995972</speed>
        </extensions>
      </trkpt>
      <trkpt lat="51.3246544" lon="9.0074084">
        <ele>242.3400001525879</ele>
        <hdop>10.0</hdop>
        <time>2013-07-09T17:32:21Z</time>
        <extensions>
          <speed>3.6675667762756348</speed>
        </extensions>
      </trkpt>
      <trkpt lat="51.3249977" lon="9.0073435">
        <ele>245.3400001525879</ele>
        <hdop>5.0</hdop>
        <time>2013-07-09T17:32:27Z</time>
        <extensions>
          <speed>6.6585211753845215</speed>
        </extensions>
      </trkpt>
      <trkpt lat="51.325367" lon="9.0073194">
        <ele>242.3400001525879</ele>
        <hdop>5.0</hdop>
        <time>2013-07-09T17:32:33Z</time>
        <extensions>
          <speed>7.19821310043335</speed>
        </extensions>
      </trkpt>
      <trkpt lat="51.3257006" lon="9.00731">
        <ele>244.3400001525879</ele>
        <hdop>5.0</hdop>
        <time>2013-07-09T17:32:38Z</time>
        <extensions>
          <speed>7.592557430267334</speed>
        </extensions>
      </trkpt>
      <trkpt lat="51.3261194" lon="9.0073319">
        <ele>243.3400001525879</ele>
        <hdop>5.0</hdop>
        <time>2013-07-09T17:32:44Z</time>
        <extensions>
          <speed>7.327308177947998</speed>
        </extensions>
      </trkpt>
      <trkpt lat="51.326574" lon="9.0074099">
        <ele>245.3400001525879</ele>
        <hdop>5.0</hdop>
        <time>2013-07-09T17:32:50Z</time>
        <extensions>
          <speed>8.465770721435547</speed>
        </extensions>
      </trkpt>
      <trkpt lat="51.3270482" lon="9.0075166">
        <ele>245.3400001525879</ele>
        <hdop>5.0</hdop>
        <time>2013-07-09T17:32:56Z</time>
        <extensions>
          <speed>8.848134994506836</speed>
        </extensions>
      </trkpt>
      <trkpt lat="51.3274396" lon="9.0076519">
        <ele>243.3400001525879</ele>
        <hdop>5.0</hdop>
        <time>2013-07-09T17:33:01Z</time>
        <extensions>
          <speed>9.033687591552734</speed>
        </extensions>
      </trkpt>
      <trkpt lat="51.3279068" lon="9.0078541">
        <ele>245.3400001525879</ele>
        <hdop>5.0</hdop>
        <time>2013-07-09T17:33:07Z</time>
        <extensions>
          <speed>8.706695556640625</speed>
        </extensions>
      </trkpt>
      <trkpt lat="51.3283414" lon="9.0080902">
        <ele>242.3400001525879</ele>
        <hdop>5.0</hdop>
        <time>2013-07-09T17:33:13Z</time>
        <extensions>
          <speed>8.464550018310547</speed>
        </extensions>
      </trkpt>
      <trkpt lat="51.3286959" lon="9.0083211">
        <ele>243.3400001525879</ele>
        <hdop>5.0</hdop>
        <time>2013-07-09T17:33:18Z</time>
        <extensions>
          <speed>8.187305450439453</speed>
        </extensions>
      </trkpt>
      <trkpt lat="51.3290792" lon="9.0085914">
        <ele>242.3400001525879</ele>
        <hdop>5.0</hdop>
        <time>2013-07-09T17:33:24Z</time>
        <extensions>
          <speed>7.868990421295166</speed>
        </extensions>
      </trkpt>
      <trkpt lat="51.3294732" lon="9.0089197">
        <ele>242.3400001525879</ele>
        <hdop>5.0</hdop>
        <time>2013-07-09T17:33:30Z</time>
        <extensions>
          <speed>7.917461395263672</speed>
        </extensions>
      </trkpt>
      <trkpt lat="51.3297955" lon="9.0091552">
        <ele>241.3400001525879</ele>
        <hdop>5.0</hdop>
        <time>2013-07-09T17:33:35Z</time>
        <extensions>
          <speed>7.77752685546875</speed>
        </extensions>
      </trkpt>
      <trkpt lat="51.330178" lon="9.0092641">
        <ele>242.3400001525879</ele>
        <hdop>5.0</hdop>
        <time>2013-07-09T17:33:40Z</time>
        <extensions>
          <speed>8.414764404296875</speed>
        </extensions>
      </trkpt>
      <trkpt lat="51.3305551" lon="9.0091139">
        <ele>242.3400001525879</ele>
        <hdop>5.0</hdop>
        <time>2013-07-09T17:33:45Z</time>
        <extensions>
          <speed>8.59582805633545</speed>
        </extensions>
      </trkpt>
      <trkpt lat="51.3309041" lon="9.0088011">
        <ele>239.3400001525879</ele>
        <hdop>10.0</hdop>
        <time>2013-07-09T17:33:50Z</time>
        <extensions>
          <speed>8.44315242767334</speed>
        </extensions>
      </trkpt>
      <trkpt lat="51.3312979" lon="9.0083638">
        <ele>242.3400001525879</ele>
        <hdop>10.0</hdop>
        <time>2013-07-09T17:33:56Z</time>
        <extensions>
          <speed>8.356205940246582</speed>
        </extensions>
      </trkpt>
      <trkpt lat="51.3316138" lon="9.007991">
        <ele>239.3400001525879</ele>
        <hdop>5.0</hdop>
        <time>2013-07-09T17:34:01Z</time>
        <extensions>
          <speed>8.639739036560059</speed>
        </extensions>
      </trkpt>
      <trkpt lat="51.3318965" lon="9.0076777">
        <ele>245.3400001525879</ele>
        <hdop>5.0</hdop>
        <time>2013-07-09T17:34:06Z</time>
        <extensions>
          <speed>7.667855262756348</speed>
        </extensions>
      </trkpt>
      <trkpt lat="51.3321851" lon="9.0073466">
        <ele>241.3400001525879</ele>
        <hdop>5.0</hdop>
        <time>2013-07-09T17:34:11Z</time>
        <extensions>
          <speed>7.857961177825928</speed>
        </extensions>
      </trkpt>
      <trkpt lat="51.3326" lon="9.0068923">
        <ele>238.3400001525879</ele>
        <hdop>5.0</hdop>
        <time>2013-07-09T17:34:17Z</time>
        <extensions>
          <speed>8.820669174194336</speed>
        </extensions>
      </trkpt>
      <trkpt lat="51.3329911" lon="9.0064608">
        <ele>238.3400001525879</ele>
        <hdop>5.0</hdop>
        <time>2013-07-09T17:34:23Z</time>
        <extensions>
          <speed>8.890022277832031</speed>
        </extensions>
      </trkpt>
      <trkpt lat="51.3332985" lon="9.006118">
        <ele>239.3400001525879</ele>
        <hdop>10.0</hdop>
        <time>2013-07-09T17:34:28Z</time>
        <extensions>
          <speed>7.3819708824157715</speed>
        </extensions>
      </trkpt>
      <trkpt lat="51.3336899" lon="9.0057186">
        <ele>237.3400001525879</ele>
        <hdop>5.0</hdop>
        <time>2013-07-09T17:34:34Z</time>
        <extensions>
          <speed>8.114766120910645</speed>
        </extensions>
      </trkpt>
      <trkpt lat="51.3339965" lon="9.0053868">
        <ele>238.3400001525879</ele>
        <hdop>5.0</hdop>
        <time>2013-07-09T17:34:39Z</time>
        <extensions>
          <speed>7.881967544555664</speed>
        </extensions>
      </trkpt>
      <trkpt lat="51.3343571" lon="9.004984">
        <ele>235.3400001525879</ele>
        <hdop>5.0</hdop>
        <time>2013-07-09T17:34:45Z</time>
        <extensions>
          <speed>7.499133586883545</speed>
        </extensions>
      </trkpt>
      <trkpt lat="51.3346344" lon="9.0046997">
        <ele>235.3400001525879</ele>
        <hdop>5.0</hdop>
        <time>2013-07-09T17:34:50Z</time>
        <extensions>
          <speed>6.872159004211426</speed>
        </extensions>
      </trkpt>
      <trkpt lat="51.3349817" lon="9.0043425">
        <ele>239.3400001525879</ele>
        <hdop>5.0</hdop>
        <time>2013-07-09T17:34:56Z</time>
        <extensions>
          <speed>6.799114227294922</speed>
        </extensions>
      </trkpt>
      <trkpt lat="51.3353207" lon="9.0040018">
        <ele>234.3400001525879</ele>
        <hdop>5.0</hdop>
        <time>2013-07-09T17:35:02Z</time>
        <extensions>
          <speed>7.3742265701293945</speed>
        </extensions>
      </trkpt>
      <trkpt lat="51.3355926" lon="9.0037226">
        <ele>239.3400001525879</ele>
        <hdop>5.0</hdop>
        <time>2013-07-09T17:35:07Z</time>
        <extensions>
          <speed>7.35828161239624</speed>
        </extensions>
      </trkpt>
      <trkpt lat="51.3358418" lon="9.0033738">
        <ele>241.3400001525879</ele>
        <hdop>5.0</hdop>
        <time>2013-07-09T17:35:12Z</time>
        <extensions>
          <speed>6.559213638305664</speed>
        </extensions>
      </trkpt>
      <trkpt lat="51.3360392" lon="9.0029691">
        <ele>239.3400001525879</ele>
        <hdop>5.0</hdop>
        <time>2013-07-09T17:35:17Z</time>
        <extensions>
          <speed>7.11492919921875</speed>
        </extensions>
      </trkpt>
      <trkpt lat="51.3363319" lon="9.00283">
        <ele>237.3400001525879</ele>
        <hdop>5.0</hdop>
        <time>2013-07-09T17:35:22Z</time>
        <extensions>
          <speed>7.4396071434021</speed>
        </extensions>
      </trkpt>
      <trkpt lat="51.336776" lon="9.0031572">
        <ele>236.3400001525879</ele>
        <hdop>5.0</hdop>
        <time>2013-07-09T17:35:28Z</time>
        <extensions>
          <speed>10.143026351928711</speed>
        </extensions>
      </trkpt>
      <trkpt lat="51.3372031" lon="9.0037509">
        <ele>233.3400001525879</ele>
        <hdop>5.0</hdop>
        <time>2013-07-09T17:35:34Z</time>
        <extensions>
          <speed>10.707555770874023</speed>
        </extensions>
      </trkpt>
      <trkpt lat="51.3375698" lon="9.0042031">
        <ele>232.3400001525879</ele>
        <hdop>5.0</hdop>
        <time>2013-07-09T17:35:39Z</time>
        <extensions>
          <speed>10.126742362976074</speed>
        </extensions>
      </trkpt>
      <trkpt lat="51.3379756" lon="9.0047001">
        <ele>229.3400001525879</ele>
        <hdop>5.0</hdop>
        <time>2013-07-09T17:35:44Z</time>
        <extensions>
          <speed>9.984732627868652</speed>
        </extensions>
      </trkpt>
      <trkpt lat="51.3383084" lon="9.0050886">
        <ele>229.3400001525879</ele>
        <hdop>5.0</hdop>
        <time>2013-07-09T17:35:49Z</time>
        <extensions>
          <speed>8.397807121276855</speed>
        </extensions>
      </trkpt>
      <trkpt lat="51.3386093" lon="9.0054538">
        <ele>231.3400001525879</ele>
        <hdop>5.0</hdop>
        <time>2013-07-09T17:35:54Z</time>
        <extensions>
          <speed>8.008184432983398</speed>
        </extensions>
      </trkpt>
      <trkpt lat="51.3389831" lon="9.0059187">
        <ele>229.3400001525879</ele>
        <hdop>5.0</hdop>
        <time>2013-07-09T17:36:00Z</time>
        <extensions>
          <speed>8.208108901977539</speed>
        </extensions>
      </trkpt>
      <trkpt lat="51.3393586" lon="9.0063711">
        <ele>230.3400001525879</ele>
        <hdop>5.0</hdop>
        <time>2013-07-09T17:36:06Z</time>
        <extensions>
          <speed>8.600961685180664</speed>
        </extensions>
      </trkpt>
      <trkpt lat="51.3397309" lon="9.0068147">
        <ele>232.3400001525879</ele>
        <hdop>5.0</hdop>
        <time>2013-07-09T17:36:12Z</time>
        <extensions>
          <speed>8.592818260192871</speed>
        </extensions>
      </trkpt>
      <trkpt lat="51.3400724" lon="9.0072252">
        <ele>230.3400001525879</ele>
        <hdop>5.0</hdop>
        <time>2013-07-09T17:36:17Z</time>
        <extensions>
          <speed>8.587546348571777</speed>
        </extensions>
      </trkpt>
      <trkpt lat="51.3404388" lon="9.0076577">
        <ele>230.3400001525879</ele>
        <hdop>5.0</hdop>
        <time>2013-07-09T17:36:23Z</time>
        <extensions>
          <speed>8.622114181518555</speed>
        </extensions>
      </trkpt>
      <trkpt lat="51.3408177" lon="9.0081516">
        <ele>227.3400001525879</ele>
        <hdop>5.0</hdop>
        <time>2013-07-09T17:36:29Z</time>
        <extensions>
          <speed>8.727243423461914</speed>
        </extensions>
      </trkpt>
      <trkpt lat="51.3411757" lon="9.0087539">
        <ele>229.3400001525879</ele>
        <hdop>5.0</hdop>
        <time>2013-07-09T17:36:35Z</time>
        <extensions>
          <speed>8.921224594116211</speed>
        </extensions>
      </trkpt>
      <trkpt lat="51.3413917" lon="9.0092752">
        <ele>229.3400001525879</ele>
        <hdop>5.0</hdop>
        <time>2013-07-09T17:36:40Z</time>
        <extensions>
          <speed>8.741447448730469</speed>
        </extensions>
      </trkpt>
      <trkpt lat="51.3415937" lon="9.0099845">
        <ele>229.3400001525879</ele>
        <hdop>5.0</hdop>
        <time>2013-07-09T17:36:46Z</time>
        <extensions>
          <speed>8.700079917907715</speed>
        </extensions>
      </trkpt>
      <trkpt lat="51.3417487" lon="9.0106893">
        <ele>226.3400001525879</ele>
        <hdop>5.0</hdop>
        <time>2013-07-09T17:36:52Z</time>
        <extensions>
          <speed>8.828516960144043</speed>
        </extensions>
      </trkpt>
      <trkpt lat="51.3419075" lon="9.0114124">
        <ele>226.3400001525879</ele>
        <hdop>5.0</hdop>
        <time>2013-07-09T17:36:58Z</time>
        <extensions>
          <speed>9.05931282043457</speed>
        </extensions>
      </trkpt>
      <trkpt lat="51.3420488" lon="9.0119953">
        <ele>226.3400001525879</ele>
        <hdop>5.0</hdop>
        <time>2013-07-09T17:37:03Z</time>
        <extensions>
          <speed>8.592906951904297</speed>
        </extensions>
      </trkpt>
      <trkpt lat="51.3422887" lon="9.0126386">
        <ele>224.3400001525879</ele>
        <hdop>5.0</hdop>
        <time>2013-07-09T17:37:09Z</time>
        <extensions>
          <speed>8.841407775878906</speed>
        </extensions>
      </trkpt>
      <trkpt lat="51.3425629" lon="9.0130921">
        <ele>225.3400001525879</ele>
        <hdop>10.0</hdop>
        <time>2013-07-09T17:37:14Z</time>
        <extensions>
          <speed>8.81020736694336</speed>
        </extensions>
      </trkpt>
      <trkpt lat="51.3429956" lon="9.0135327">
        <ele>226.3400001525879</ele>
        <hdop>10.0</hdop>
        <time>2013-07-09T17:37:20Z</time>
        <extensions>
          <speed>8.92719554901123</speed>
        </extensions>
      </trkpt>
      <trkpt lat="51.3434173" lon="9.0138969">
        <ele>229.3400001525879</ele>
        <hdop>5.0</hdop>
        <time>2013-07-09T17:37:26Z</time>
        <extensions>
          <speed>8.94239616394043</speed>
        </extensions>
      </trkpt>
      <trkpt lat="51.34378" lon="9.0142744">
        <ele>225.3400001525879</ele>
        <hdop>5.0</hdop>
        <time>2013-07-09T17:37:31Z</time>
        <extensions>
          <speed>8.859582901000977</speed>
        </extensions>
      </trkpt>
      <trkpt lat="51.3441118" lon="9.0148084">
        <ele>227.3400001525879</ele>
        <hdop>5.0</hdop>
        <time>2013-07-09T17:37:37Z</time>
        <extensions>
          <speed>8.28499984741211</speed>
        </extensions>
      </trkpt>
      <trkpt lat="51.3443636" lon="9.0154245">
        <ele>226.3400001525879</ele>
        <hdop>5.0</hdop>
        <time>2013-07-09T17:37:43Z</time>
        <extensions>
          <speed>8.461036682128906</speed>
        </extensions>
      </trkpt>
      <trkpt lat="51.3446014" lon="9.0160407">
        <ele>226.3400001525879</ele>
        <hdop>5.0</hdop>
        <time>2013-07-09T17:37:49Z</time>
        <extensions>
          <speed>8.263766288757324</speed>
        </extensions>
      </trkpt>
      <trkpt lat="51.3448024" lon="9.016534">
        <ele>228.3400001525879</ele>
        <hdop>5.0</hdop>
        <time>2013-07-09T17:37:54Z</time>
        <extensions>
          <speed>7.81251335144043</speed>
        </extensions>
      </trkpt>
      <trkpt lat="51.3450353" lon="9.0171089">
        <ele>228.3400001525879</ele>
        <hdop>5.0</hdop>
        <time>2013-07-09T17:38:00Z</time>
        <extensions>
          <speed>7.750457763671875</speed>
        </extensions>
      </trkpt>
      <trkpt lat="51.3452537" lon="9.017686">
        <ele>229.3400001525879</ele>
        <hdop>5.0</hdop>
        <time>2013-07-09T17:38:06Z</time>
        <extensions>
          <speed>7.980613708496094</speed>
        </extensions>
      </trkpt>
      <trkpt lat="51.3454811" lon="9.018306">
        <ele>230.3400001525879</ele>
        <hdop>5.0</hdop>
        <time>2013-07-09T17:38:12Z</time>
        <extensions>
          <speed>8.148172378540039</speed>
        </extensions>
      </trkpt>
      <trkpt lat="51.3456981" lon="9.0189241">
        <ele>227.3400001525879</ele>
        <hdop>5.0</hdop>
        <time>2013-07-09T17:38:18Z</time>
        <extensions>
          <speed>8.266090393066406</speed>
        </extensions>
      </trkpt>
      <trkpt lat="51.345912" lon="9.0195633">
        <ele>230.3400001525879</ele>
        <hdop>5.0</hdop>
        <time>2013-07-09T17:38:24Z</time>
        <extensions>
          <speed>8.14657974243164</speed>
        </extensions>
      </trkpt>
      <trkpt lat="51.3461086" lon="9.0201835">
        <ele>230.3400001525879</ele>
        <hdop>5.0</hdop>
        <time>2013-07-09T17:38:30Z</time>
        <extensions>
          <speed>7.791523456573486</speed>
        </extensions>
      </trkpt>
      <trkpt lat="51.3462624" lon="9.0207288">
        <ele>227.3400001525879</ele>
        <hdop>5.0</hdop>
        <time>2013-07-09T17:38:35Z</time>
        <extensions>
          <speed>8.21033000946045</speed>
        </extensions>
      </trkpt>
      <trkpt lat="51.3464355" lon="9.0212977">
        <ele>228.3400001525879</ele>
        <hdop>5.0</hdop>
        <time>2013-07-09T17:38:40Z</time>
        <extensions>
          <speed>8.47581672668457</speed>
        </extensions>
      </trkpt>
      <trkpt lat="51.3466379" lon="9.021989">
        <ele>229.3400001525879</ele>
        <hdop>5.0</hdop>
        <time>2013-07-09T17:38:46Z</time>
        <extensions>
          <speed>9.009157180786133</speed>
        </extensions>
      </trkpt>
      <trkpt lat="51.3468217" lon="9.0225767">
        <ele>229.3400001525879</ele>
        <hdop>5.0</hdop>
        <time>2013-07-09T17:38:51Z</time>
        <extensions>
          <speed>9.017314910888672</speed>
        </extensions>
      </trkpt>
      <trkpt lat="51.3470323" lon="9.0231474">
        <ele>226.3400001525879</ele>
        <hdop>5.0</hdop>
        <time>2013-07-09T17:38:56Z</time>
        <extensions>
          <speed>9.247207641601563</speed>
        </extensions>
      </trkpt>
      <trkpt lat="51.347291" lon="9.0236423">
        <ele>225.3400001525879</ele>
        <hdop>5.0</hdop>
        <time>2013-07-09T17:39:01Z</time>
        <extensions>
          <speed>9.419264793395996</speed>
        </extensions>
      </trkpt>
      <trkpt lat="51.3476281" lon="9.0240229">
        <ele>228.3400001525879</ele>
        <hdop>5.0</hdop>
        <time>2013-07-09T17:39:06Z</time>
        <extensions>
          <speed>9.204524040222168</speed>
        </extensions>
      </trkpt>
      <trkpt lat="51.3481108" lon="9.0242828">
        <ele>227.3400001525879</ele>
        <hdop>5.0</hdop>
        <time>2013-07-09T17:39:12Z</time>
        <extensions>
          <speed>9.271537780761719</speed>
        </extensions>
      </trkpt>
      <trkpt lat="51.3485355" lon="9.0243916">
        <ele>228.3400001525879</ele>
        <hdop>5.0</hdop>
        <time>2013-07-09T17:39:17Z</time>
        <extensions>
          <speed>9.251972198486328</speed>
        </extensions>
      </trkpt>
      <trkpt lat="51.3490381" lon="9.0244652">
        <ele>226.3400001525879</ele>
        <hdop>5.0</hdop>
        <time>2013-07-09T17:39:23Z</time>
        <extensions>
          <speed>9.129612922668457</speed>
        </extensions>
      </trkpt>
      <trkpt lat="51.3495038" lon="9.0245876">
        <ele>226.3400001525879</ele>
        <hdop>5.0</hdop>
        <time>2013-07-09T17:39:29Z</time>
        <extensions>
          <speed>8.264351844787598</speed>
        </extensions>
      </trkpt>
      <trkpt lat="51.3499554" lon="9.0248051">
        <ele>224.3400001525879</ele>
        <hdop>5.0</hdop>
        <time>2013-07-09T17:39:35Z</time>
        <extensions>
          <speed>8.612706184387207</speed>
        </extensions>
      </trkpt>
      <trkpt lat="51.3503014" lon="9.0251095">
        <ele>226.3400001525879</ele>
        <hdop>5.0</hdop>
        <time>2013-07-09T17:39:40Z</time>
        <extensions>
          <speed>8.684662818908691</speed>
        </extensions>
      </trkpt>
      <trkpt lat="51.3506227" lon="9.0255582">
        <ele>226.3400001525879</ele>
        <hdop>5.0</hdop>
        <time>2013-07-09T17:39:45Z</time>
        <extensions>
          <speed>8.926885604858398</speed>
        </extensions>
      </trkpt>
      <trkpt lat="51.350929" lon="9.0262351">
        <ele>221.3400001525879</ele>
        <hdop>10.0</hdop>
        <time>2013-07-09T17:39:51Z</time>
        <extensions>
          <speed>8.473771095275879</speed>
        </extensions>
      </trkpt>
      <trkpt lat="51.3510793" lon="9.0268525">
        <ele>221.3400001525879</ele>
        <hdop>5.0</hdop>
        <time>2013-07-09T17:39:56Z</time>
        <extensions>
          <speed>8.373512268066406</speed>
        </extensions>
      </trkpt>
      <trkpt lat="51.3511417" lon="9.0276888">
        <ele>222.3400001525879</ele>
        <hdop>5.0</hdop>
        <time>2013-07-09T17:40:02Z</time>
        <extensions>
          <speed>8.29887580871582</speed>
        </extensions>
      </trkpt>
      <trkpt lat="51.3510908" lon="9.0284855">
        <ele>220.3400001525879</ele>
        <hdop>15.0</hdop>
        <time>2013-07-09T17:40:08Z</time>
        <extensions>
          <speed>9.144730567932129</speed>
        </extensions>
      </trkpt>
      <trkpt lat="51.3509385" lon="9.0292823">
        <ele>219.3400001525879</ele>
        <hdop>10.0</hdop>
        <time>2013-07-09T17:40:14Z</time>
        <extensions>
          <speed>8.288183212280273</speed>
        </extensions>
      </trkpt>
      <trkpt lat="51.3507958" lon="9.0298386">
        <ele>215.3400001525879</ele>
        <hdop>10.0</hdop>
        <time>2013-07-09T17:40:19Z</time>
        <extensions>
          <speed>8.027698516845703</speed>
        </extensions>
      </trkpt>
      <trkpt lat="51.3506272" lon="9.0304134">
        <ele>213.3400001525879</ele>
        <hdop>10.0</hdop>
        <time>2013-07-09T17:40:24Z</time>
        <extensions>
          <speed>8.238900184631348</speed>
        </extensions>
      </trkpt>
      <trkpt lat="51.3504337" lon="9.0310923">
        <ele>213.3400001525879</ele>
        <hdop>10.0</hdop>
        <time>2013-07-09T17:40:30Z</time>
        <extensions>
          <speed>8.411839485168457</speed>
        </extensions>
      </trkpt>
      <trkpt lat="51.3502449" lon="9.0316663">
        <ele>213.3400001525879</ele>
        <hdop>10.0</hdop>
        <time>2013-07-09T17:40:35Z</time>
        <extensions>
          <speed>7.437108993530273</speed>
        </extensions>
      </trkpt>
      <trkpt lat="51.3501561" lon="9.032249">
        <ele>215.3400001525879</ele>
        <hdop>10.0</hdop>
        <time>2013-07-09T17:40:40Z</time>
        <extensions>
          <speed>8.381311416625977</speed>
        </extensions>
      </trkpt>
      <trkpt lat="51.3500803" lon="9.0330333">
        <ele>218.3400001525879</ele>
        <hdop>5.0</hdop>
        <time>2013-07-09T17:40:46Z</time>
        <extensions>
          <speed>9.07343864440918</speed>
        </extensions>
      </trkpt>
      <trkpt lat="51.3500805" lon="9.0336862">
        <ele>219.3400001525879</ele>
        <hdop>5.0</hdop>
        <time>2013-07-09T17:40:51Z</time>
        <extensions>
          <speed>9.1607084274292</speed>
        </extensions>
      </trkpt>
      <trkpt lat="51.3501121" lon="9.0345312">
        <ele>217.3400001525879</ele>
        <hdop>5.0</hdop>
        <time>2013-07-09T17:40:57Z</time>
        <extensions>
          <speed>9.125652313232422</speed>
        </extensions>
      </trkpt>
      <trkpt lat="51.3502359" lon="9.0352682">
        <ele>222.3400001525879</ele>
        <hdop>5.0</hdop>
        <time>2013-07-09T17:41:03Z</time>
        <extensions>
          <speed>8.482468605041504</speed>
        </extensions>
      </trkpt>
      <trkpt lat="51.3504069" lon="9.0358436">
        <ele>222.3400001525879</ele>
        <hdop>5.0</hdop>
        <time>2013-07-09T17:41:08Z</time>
        <extensions>
          <speed>8.431953430175781</speed>
        </extensions>
      </trkpt>
      <trkpt lat="51.3506072" lon="9.0365122">
        <ele>217.3400001525879</ele>
        <hdop>10.0</hdop>
        <time>2013-07-09T17:41:14Z</time>
        <extensions>
          <speed>8.918065071105957</speed>
        </extensions>
      </trkpt>
      <trkpt lat="51.3506803" lon="9.0371085">
        <ele>222.3400001525879</ele>
        <hdop>10.0</hdop>
        <time>2013-07-09T17:41:19Z</time>
        <extensions>
          <speed>8.728978157043457</speed>
        </extensions>
      </trkpt>
      <trkpt lat="51.350658" lon="9.0378646">
        <ele>217.3400001525879</ele>
        <hdop>10.0</hdop>
        <time>2013-07-09T17:41:25Z</time>
        <extensions>
          <speed>8.005792617797852</speed>
        </extensions>
      </trkpt>
      <trkpt lat="51.3504921" lon="9.038371">
        <ele>210.3400001525879</ele>
        <hdop>10.0</hdop>
        <time>2013-07-09T17:41:30Z</time>
        <extensions>
          <speed>7.125365257263184</speed>
        </extensions>
      </trkpt>
      <trkpt lat="51.3503131" lon="9.038923">
        <ele>221.3400001525879</ele>
        <hdop>10.0</hdop>
        <time>2013-07-09T17:41:36Z</time>
        <extensions>
          <speed>6.116497039794922</speed>
        </extensions>
      </trkpt>
      <trkpt lat="51.3503475" lon="9.0393703">
        <ele>222.3400001525879</ele>
        <hdop>10.0</hdop>
        <time>2013-07-09T17:41:41Z</time>
        <extensions>
          <speed>6.386144638061523</speed>
        </extensions>
      </trkpt>
      <trkpt lat="51.3505226" lon="9.0398051">
        <ele>223.3400001525879</ele>
        <hdop>10.0</hdop>
        <time>2013-07-09T17:41:47Z</time>
        <extensions>
          <speed>5.738615036010742</speed>
        </extensions>
      </trkpt>
      <trkpt lat="51.3506571" lon="9.0400897">
        <ele>225.3400001525879</ele>
        <hdop>10.0</hdop>
        <time>2013-07-09T17:41:52Z</time>
        <extensions>
          <speed>3.4891607761383057</speed>
        </extensions>
      </trkpt>
      <trkpt lat="51.3507928" lon="9.0404198">
        <ele>223.3400001525879</ele>
        <hdop>10.0</hdop>
        <time>2013-07-09T17:41:57Z</time>
        <extensions>
          <speed>5.626852989196777</speed>
        </extensions>
      </trkpt>
      <trkpt lat="51.3509502" lon="9.0407993">
        <ele>224.3400001525879</ele>
        <hdop>10.0</hdop>
        <time>2013-07-09T17:42:02Z</time>
        <extensions>
          <speed>6.433050155639648</speed>
        </extensions>
      </trkpt>
      <trkpt lat="51.3511981" lon="9.041343">
        <ele>225.3400001525879</ele>
        <hdop>5.0</hdop>
        <time>2013-07-09T17:42:08Z</time>
        <extensions>
          <speed>6.690647602081299</speed>
        </extensions>
      </trkpt>
      <trkpt lat="51.351391" lon="9.0418783">
        <ele>227.3400001525879</ele>
        <hdop>10.0</hdop>
        <time>2013-07-09T17:42:14Z</time>
        <extensions>
          <speed>6.586706638336182</speed>
        </extensions>
      </trkpt>
      <trkpt lat="51.3514953" lon="9.0423172">
        <ele>229.3400001525879</ele>
        <hdop>10.0</hdop>
        <time>2013-07-09T17:42:19Z</time>
        <extensions>
          <speed>6.526813507080078</speed>
        </extensions>
      </trkpt>
      <trkpt lat="51.3516101" lon="9.0428079">
        <ele>228.3400001525879</ele>
        <hdop>10.0</hdop>
        <time>2013-07-09T17:42:24Z</time>
        <extensions>
          <speed>6.990578651428223</speed>
        </extensions>
      </trkpt>
      <trkpt lat="51.351742" lon="9.0434084">
        <ele>227.3400001525879</ele>
        <hdop>5.0</hdop>
        <time>2013-07-09T17:42:30Z</time>
        <extensions>
          <speed>7.509899616241455</speed>
        </extensions>
      </trkpt>
      <trkpt lat="51.3518816" lon="9.0440341">
        <ele>230.3400001525879</ele>
        <hdop>5.0</hdop>
        <time>2013-07-09T17:42:36Z</time>
        <extensions>
          <speed>7.440361499786377</speed>
        </extensions>
      </trkpt>
      <trkpt lat="51.3520381" lon="9.0446806">
        <ele>230.3400001525879</ele>
        <hdop>5.0</hdop>
        <time>2013-07-09T17:42:42Z</time>
        <extensions>
          <speed>7.569645881652832</speed>
        </extensions>
      </trkpt>
      <trkpt lat="51.3521614" lon="9.0452135">
        <ele>223.3400001525879</ele>
        <hdop>5.0</hdop>
        <time>2013-07-09T17:42:47Z</time>
        <extensions>
          <speed>7.690898895263672</speed>
        </extensions>
      </trkpt>
      <trkpt lat="51.3522992" lon="9.0457232">
        <ele>222.3400001525879</ele>
        <hdop>5.0</hdop>
        <time>2013-07-09T17:42:52Z</time>
        <extensions>
          <speed>7.296143531799316</speed>
        </extensions>
      </trkpt>
      <trkpt lat="51.3524631" lon="9.0463874">
        <ele>230.3400001525879</ele>
        <hdop>5.0</hdop>
        <time>2013-07-09T17:42:58Z</time>
        <extensions>
          <speed>7.767359733581543</speed>
        </extensions>
      </trkpt>
      <trkpt lat="51.35259" lon="9.0469066">
        <ele>233.3400001525879</ele>
        <hdop>5.0</hdop>
        <time>2013-07-09T17:43:03Z</time>
        <extensions>
          <speed>8.069561004638672</speed>
        </extensions>
      </trkpt>
      <trkpt lat="51.352725" lon="9.0474912">
        <ele>225.3400001525879</ele>
        <hdop>5.0</hdop>
        <time>2013-07-09T17:43:08Z</time>
        <extensions>
          <speed>8.430614471435547</speed>
        </extensions>
      </trkpt>
      <trkpt lat="51.3528723" lon="9.048186">
        <ele>225.3400001525879</ele>
        <hdop>5.0</hdop>
        <time>2013-07-09T17:43:14Z</time>
        <extensions>
          <speed>8.441510200500488</speed>
        </extensions>
      </trkpt>
      <trkpt lat="51.3530117" lon="9.0487733">
        <ele>227.3400001525879</ele>
        <hdop>5.0</hdop>
        <time>2013-07-09T17:43:19Z</time>
        <extensions>
          <speed>7.9089531898498535</speed>
        </extensions>
      </trkpt>
      <trkpt lat="51.353148" lon="9.0493348">
        <ele>228.3400001525879</ele>
        <hdop>5.0</hdop>
        <time>2013-07-09T17:43:25Z</time>
        <extensions>
          <speed>6.594913482666016</speed>
        </extensions>
      </trkpt>
      <trkpt lat="51.3532767" lon="9.0498091">
        <ele>229.3400001525879</ele>
        <hdop>5.0</hdop>
        <time>2013-07-09T17:43:31Z</time>
        <extensions>
          <speed>5.887338638305664</speed>
        </extensions>
      </trkpt>
      <trkpt lat="51.353392" lon="9.0501821">
        <ele>231.3400001525879</ele>
        <hdop>5.0</hdop>
        <time>2013-07-09T17:43:36Z</time>
        <extensions>
          <speed>4.874011993408203</speed>
        </extensions>
      </trkpt>
      <trkpt lat="51.3535786" lon="9.0506399">
        <ele>230.3400001525879</ele>
        <hdop>5.0</hdop>
        <time>2013-07-09T17:43:42Z</time>
        <extensions>
          <speed>5.644815921783447</speed>
        </extensions>
      </trkpt>
      <trkpt lat="51.353783" lon="9.051018">
        <ele>231.3400001525879</ele>
        <hdop>10.0</hdop>
        <time>2013-07-09T17:43:47Z</time>
        <extensions>
          <speed>6.392759799957275</speed>
        </extensions>
      </trkpt>
      <trkpt lat="51.3540622" lon="9.0514083">
        <ele>235.3400001525879</ele>
        <hdop>5.0</hdop>
        <time>2013-07-09T17:43:53Z</time>
        <extensions>
          <speed>6.668738842010498</speed>
        </extensions>
      </trkpt>
      <trkpt lat="51.3543846" lon="9.0518002">
        <ele>235.3400001525879</ele>
        <hdop>5.0</hdop>
        <time>2013-07-09T17:43:59Z</time>
        <extensions>
          <speed>7.067586421966553</speed>
        </extensions>
      </trkpt>
      <trkpt lat="51.3547302" lon="9.0521043">
        <ele>235.3400001525879</ele>
        <hdop>5.0</hdop>
        <time>2013-07-09T17:44:05Z</time>
        <extensions>
          <speed>7.5167155265808105</speed>
        </extensions>
      </trkpt>
      <trkpt lat="51.3551258" lon="9.0523714">
        <ele>234.3400001525879</ele>
        <hdop>5.0</hdop>
        <time>2013-07-09T17:44:11Z</time>
        <extensions>
          <speed>7.162675380706787</speed>
        </extensions>
      </trkpt>
      <trkpt lat="51.3554638" lon="9.0525451">
        <ele>237.3400001525879</ele>
        <hdop>5.0</hdop>
        <time>2013-07-09T17:44:16Z</time>
        <extensions>
          <speed>7.326492786407471</speed>
        </extensions>
      </trkpt>
      <trkpt lat="51.3558954" lon="9.0527521">
        <ele>236.3400001525879</ele>
        <hdop>5.0</hdop>
        <time>2013-07-09T17:44:22Z</time>
        <extensions>
          <speed>7.73745059967041</speed>
        </extensions>
      </trkpt>
      <trkpt lat="51.3563545" lon="9.0530256">
        <ele>240.3400001525879</ele>
        <hdop>5.0</hdop>
        <time>2013-07-09T17:44:28Z</time>
        <extensions>
          <speed>8.22182559967041</speed>
        </extensions>
      </trkpt>
      <trkpt lat="51.3566718" lon="9.0532878">
        <ele>240.3400001525879</ele>
        <hdop>10.0</hdop>
        <time>2013-07-09T17:44:33Z</time>
        <extensions>
          <speed>7.272894382476807</speed>
        </extensions>
      </trkpt>
      <trkpt lat="51.3570089" lon="9.053673">
        <ele>237.3400001525879</ele>
        <hdop>10.0</hdop>
        <time>2013-07-09T17:44:39Z</time>
        <extensions>
          <speed>6.990230083465576</speed>
        </extensions>
      </trkpt>
      <trkpt lat="51.3573468" lon="9.0541463">
        <ele>243.3400001525879</ele>
        <hdop>10.0</hdop>
        <time>2013-07-09T17:44:45Z</time>
        <extensions>
          <speed>8.054709434509277</speed>
        </extensions>
      </trkpt>
      <trkpt lat="51.3576118" lon="9.0546227">
        <ele>248.3400001525879</ele>
        <hdop>10.0</hdop>
        <time>2013-07-09T17:44:50Z</time>
        <extensions>
          <speed>7.673722267150879</speed>
        </extensions>
      </trkpt>
      <trkpt lat="51.3579175" lon="9.055212">
        <ele>241.3400001525879</ele>
        <hdop>10.0</hdop>
        <time>2013-07-09T17:44:56Z</time>
        <extensions>
          <speed>7.906763076782227</speed>
        </extensions>
      </trkpt>
      <trkpt lat="51.3581532" lon="9.0557758">
        <ele>238.3400001525879</ele>
        <hdop>10.0</hdop>
        <time>2013-07-09T17:45:02Z</time>
        <extensions>
          <speed>7.270629405975342</speed>
        </extensions>
      </trkpt>
      <trkpt lat="51.3583571" lon="9.0563157">
        <ele>244.3400001525879</ele>
        <hdop>10.0</hdop>
        <time>2013-07-09T17:45:07Z</time>
        <extensions>
          <speed>7.549920558929443</speed>
        </extensions>
      </trkpt>
      <trkpt lat="51.3585985" lon="9.0569136">
        <ele>241.3400001525879</ele>
        <hdop>10.0</hdop>
        <time>2013-07-09T17:45:12Z</time>
        <extensions>
          <speed>7.544852256774902</speed>
        </extensions>
      </trkpt>
      <trkpt lat="51.3588498" lon="9.0573947">
        <ele>229.3400001525879</ele>
        <hdop>15.0</hdop>
        <time>2013-07-09T17:45:18Z</time>
        <extensions>
          <speed>5.603944301605225</speed>
        </extensions>
      </trkpt>
      <trkpt lat="51.3591474" lon="9.0577769">
        <ele>226.3400001525879</ele>
        <hdop>10.0</hdop>
        <time>2013-07-09T17:45:23Z</time>
        <extensions>
          <speed>7.234682083129883</speed>
        </extensions>
      </trkpt>
      <trkpt lat="51.359517" lon="9.0582144">
        <ele>227.3400001525879</ele>
        <hdop>10.0</hdop>
        <time>2013-07-09T17:45:29Z</time>
        <extensions>
          <speed>5.834669589996338</speed>
        </extensions>
      </trkpt>
      <trkpt lat="51.3597526" lon="9.0586097">
        <ele>229.3400001525879</ele>
        <hdop>10.0</hdop>
        <time>2013-07-09T17:45:34Z</time>
        <extensions>
          <speed>5.389062404632568</speed>
        </extensions>
      </trkpt>
      <trkpt lat="51.3598892" lon="9.0589871">
        <ele>228.3400001525879</ele>
        <hdop>15.0</hdop>
        <time>2013-07-09T17:45:39Z</time>
        <extensions>
          <speed>3.6132824420928955</speed>
        </extensions>
      </trkpt>
      <trkpt lat="51.35998" lon="9.0592779">
        <ele>223.3400001525879</ele>
        <hdop>10.0</hdop>
        <time>2013-07-09T17:45:45Z</time>
        <extensions>
          <speed>3.6371371746063232</speed>
        </extensions>
      </trkpt>
      <trkpt lat="51.3600999" lon="9.0594939">
        <ele>227.3400001525879</ele>
        <hdop>10.0</hdop>
        <time>2013-07-09T17:45:50Z</time>
        <extensions>
          <speed>3.4172422885894775</speed>
        </extensions>
      </trkpt>
      <trkpt lat="51.360308" lon="9.0595996">
        <ele>220.3400001525879</ele>
        <hdop>15.0</hdop>
        <time>2013-07-09T17:45:56Z</time>
        <extensions>
          <speed>3.484372615814209</speed>
        </extensions>
      </trkpt>
      <trkpt lat="51.3604173" lon="9.0595663">
        <ele>220.3400001525879</ele>
        <hdop>20.0</hdop>
        <time>2013-07-09T17:46:01Z</time>
        <extensions>
          <speed>1.4314550161361694</speed>
        </extensions>
      </trkpt>
      <trkpt lat="51.3605666" lon="9.0592604">
        <ele>218.3400001525879</ele>
        <hdop>15.0</hdop>
        <time>2013-07-09T17:46:07Z</time>
        <extensions>
          <speed>6.249637126922607</speed>
        </extensions>
      </trkpt>
      <trkpt lat="51.3609971" lon="9.0588549">
        <ele>217.3400001525879</ele>
        <hdop>5.0</hdop>
        <time>2013-07-09T17:46:13Z</time>
        <extensions>
          <speed>7.326355457305908</speed>
        </extensions>
      </trkpt>
      <trkpt lat="51.3612686" lon="9.0587305">
        <ele>213.3400001525879</ele>
        <hdop>10.0</hdop>
        <time>2013-07-09T17:46:18Z</time>
        <extensions>
          <speed>4.865679740905762</speed>
        </extensions>
      </trkpt>
      <trkpt lat="51.3614759" lon="9.0582805">
        <ele>219.3400001525879</ele>
        <hdop>5.0</hdop>
        <time>2013-07-09T17:46:24Z</time>
        <extensions>
          <speed>5.957798957824707</speed>
        </extensions>
      </trkpt>
      <trkpt lat="51.3617332" lon="9.0579681">
        <ele>214.3400001525879</ele>
        <hdop>10.0</hdop>
        <time>2013-07-09T17:46:29Z</time>
        <extensions>
          <speed>7.798343181610107</speed>
        </extensions>
      </trkpt>
      <trkpt lat="51.36208" lon="9.0575573">
        <ele>212.3400001525879</ele>
        <hdop>10.0</hdop>
        <time>2013-07-09T17:46:35Z</time>
        <extensions>
          <speed>7.784840106964111</speed>
        </extensions>
      </trkpt>
      <trkpt lat="51.3624254" lon="9.0571307">
        <ele>218.3400001525879</ele>
        <hdop>5.0</hdop>
        <time>2013-07-09T17:46:41Z</time>
        <extensions>
          <speed>7.110902786254883</speed>
        </extensions>
      </trkpt>
      <trkpt lat="51.3627373" lon="9.0567605">
        <ele>216.3400001525879</ele>
        <hdop>5.0</hdop>
        <time>2013-07-09T17:46:47Z</time>
        <extensions>
          <speed>6.827817440032959</speed>
        </extensions>
      </trkpt>
      <trkpt lat="51.3630373" lon="9.0564104">
        <ele>212.3400001525879</ele>
        <hdop>10.0</hdop>
        <time>2013-07-09T17:46:53Z</time>
        <extensions>
          <speed>7.09617805480957</speed>
        </extensions>
      </trkpt>
      <trkpt lat="51.3633629" lon="9.0560328">
        <ele>214.3400001525879</ele>
        <hdop>10.0</hdop>
        <time>2013-07-09T17:46:59Z</time>
        <extensions>
          <speed>7.712375164031982</speed>
        </extensions>
      </trkpt>
      <trkpt lat="51.3636419" lon="9.0557086">
        <ele>217.3400001525879</ele>
        <hdop>10.0</hdop>
        <time>2013-07-09T17:47:04Z</time>
        <extensions>
          <speed>4.6786322593688965</speed>
        </extensions>
      </trkpt>
      <trkpt lat="51.3638179" lon="9.0554251">
        <ele>221.3400001525879</ele>
        <hdop>45.0</hdop>
        <time>2013-07-09T17:47:09Z</time>
        <extensions>
          <speed>3.080970525741577</speed>
        </extensions>
      </trkpt>
      <trkpt lat="51.3640059" lon="9.0555359">
        <ele>217.3400001525879</ele>
        <hdop>10.0</hdop>
        <time>2013-07-09T17:47:14Z</time>
        <extensions>
          <speed>2.0742530822753906</speed>
        </extensions>
      </trkpt>
      <trkpt lat="51.3642087" lon="9.0559584">
        <ele>217.3400001525879</ele>
        <hdop>10.0</hdop>
        <time>2013-07-09T17:47:20Z</time>
        <extensions>
          <speed>4.387567043304443</speed>
        </extensions>
      </trkpt>
      <trkpt lat="51.3643216" lon="9.0564249">
        <ele>216.3400001525879</ele>
        <hdop>10.0</hdop>
        <time>2013-07-09T17:47:26Z</time>
        <extensions>
          <speed>4.132961750030518</speed>
        </extensions>
      </trkpt>
      <trkpt lat="51.3644476" lon="9.0569444">
        <ele>214.3400001525879</ele>
        <hdop>10.0</hdop>
        <time>2013-07-09T17:47:31Z</time>
        <extensions>
          <speed>4.052588939666748</speed>
        </extensions>
      </trkpt>
      <trkpt lat="51.3645468" lon="9.0573092">
        <ele>214.3400001525879</ele>
        <hdop>10.0</hdop>
        <time>2013-07-09T17:47:36Z</time>
        <extensions>
          <speed>3.006207227706909</speed>
        </extensions>
      </trkpt>
      <trkpt lat="51.3646199" lon="9.0576351">
        <ele>211.3400001525879</ele>
        <hdop>10.0</hdop>
        <time>2013-07-09T17:47:41Z</time>
        <extensions>
          <speed>2.83730149269104</speed>
        </extensions>
      </trkpt>
      <trkpt lat="51.3647259" lon="9.058111">
        <ele>216.3400001525879</ele>
        <hdop>10.0</hdop>
        <time>2013-07-09T17:47:47Z</time>
        <extensions>
          <speed>3.4242663383483887</speed>
        </extensions>
      </trkpt>
      <trkpt lat="51.3648304" lon="9.0585221">
        <ele>215.3400001525879</ele>
        <hdop>10.0</hdop>
        <time>2013-07-09T17:47:52Z</time>
        <extensions>
          <speed>3.4928231239318848</speed>
        </extensions>
      </trkpt>
      <trkpt lat="51.364946" lon="9.0589241">
        <ele>222.3400001525879</ele>
        <hdop>10.0</hdop>
        <time>2013-07-09T17:47:58Z</time>
        <extensions>
          <speed>3.7501235008239746</speed>
        </extensions>
      </trkpt>
      <trkpt lat="51.3650721" lon="9.0593936">
        <ele>227.3400001525879</ele>
        <hdop>10.0</hdop>
        <time>2013-07-09T17:48:04Z</time>
        <extensions>
          <speed>3.824366569519043</speed>
        </extensions>
      </trkpt>
      <trkpt lat="51.36517" lon="9.0597286">
        <ele>233.3400001525879</ele>
        <hdop>10.0</hdop>
        <time>2013-07-09T17:48:09Z</time>
        <extensions>
          <speed>2.4242920875549316</speed>
        </extensions>
      </trkpt>
      <trkpt lat="51.3652639" lon="9.0599061">
        <ele>228.3400001525879</ele>
        <hdop>10.0</hdop>
        <time>2013-07-09T17:48:14Z</time>
        <extensions>
          <speed>2.326561212539673</speed>
        </extensions>
      </trkpt>
      <trkpt lat="51.3655033" lon="9.0600274">
        <ele>228.3400001525879</ele>
        <hdop>45.0</hdop>
        <time>2013-07-09T17:48:20Z</time>
        <extensions>
          <speed>2.694101572036743</speed>
        </extensions>
      </trkpt>
      <trkpt lat="51.3660544" lon="9.0600755">
        <ele>214.3400001525879</ele>
        <hdop>10.0</hdop>
        <time>2013-07-09T17:48:26Z</time>
        <extensions>
          <speed>5.42529296875</speed>
        </extensions>
      </trkpt>
      <trkpt lat="51.3664959" lon="9.0599631">
        <ele>207.3400001525879</ele>
        <hdop>10.0</hdop>
        <time>2013-07-09T17:48:31Z</time>
        <extensions>
          <speed>7.59054708480835</speed>
        </extensions>
      </trkpt>
      <trkpt lat="51.3668746" lon="9.0597104">
        <ele>208.3400001525879</ele>
        <hdop>20.0</hdop>
        <time>2013-07-09T17:48:37Z</time>
        <extensions>
          <speed>7.911509037017822</speed>
        </extensions>
      </trkpt>
      <trkpt lat="51.3671408" lon="9.0594214">
        <ele>209.3400001525879</ele>
        <hdop>20.0</hdop>
        <time>2013-07-09T17:48:42Z</time>
        <extensions>
          <speed>4.063913345336914</speed>
        </extensions>
      </trkpt>
      <trkpt lat="51.3671933" lon="9.0588885">
        <ele>209.3400001525879</ele>
        <hdop>20.0</hdop>
        <time>2013-07-09T17:48:47Z</time>
        <extensions>
          <speed>4.252227783203125</speed>
        </extensions>
      </trkpt>
      <trkpt lat="51.3672915" lon="9.0586562">
        <ele>210.3400001525879</ele>
        <hdop>30.0</hdop>
        <time>2013-07-09T17:48:52Z</time>
        <extensions>
          <speed>4.035071849822998</speed>
        </extensions>
      </trkpt>
      <trkpt lat="51.3675431" lon="9.0584923">
        <ele>201.3400001525879</ele>
        <hdop>20.0</hdop>
        <time>2013-07-09T17:48:58Z</time>
        <extensions>
          <speed>3.3304898738861084</speed>
        </extensions>
      </trkpt>
      <trkpt lat="51.367785" lon="9.0583015">
        <ele>192.3400001525879</ele>
        <hdop>20.0</hdop>
        <time>2013-07-09T17:49:03Z</time>
        <extensions>
          <speed>3.848973274230957</speed>
        </extensions>
      </trkpt>
      <trkpt lat="51.3681416" lon="9.0581248">
        <ele>190.3400001525879</ele>
        <hdop>15.0</hdop>
        <time>2013-07-09T17:49:08Z</time>
        <extensions>
          <speed>3.638821840286255</speed>
        </extensions>
      </trkpt>
      <trkpt lat="51.368449" lon="9.0579928">
        <ele>203.3400001525879</ele>
        <hdop>20.0</hdop>
        <time>2013-07-09T17:49:13Z</time>
        <extensions>
          <speed>4.25009298324585</speed>
        </extensions>
      </trkpt>
      <trkpt lat="51.3690886" lon="9.0576905">
        <ele>218.3400001525879</ele>
        <hdop>10.0</hdop>
        <time>2013-07-09T17:49:19Z</time>
        <extensions>
          <speed>6.971955299377441</speed>
        </extensions>
      </trkpt>
      <trkpt lat="51.3697896" lon="9.0574206">
        <ele>219.3400001525879</ele>
        <hdop>10.0</hdop>
        <time>2013-07-09T17:49:25Z</time>
        <extensions>
          <speed>7.3558573722839355</speed>
        </extensions>
      </trkpt>
      <trkpt lat="51.3701628" lon="9.0574326">
        <ele>225.3400001525879</ele>
        <hdop>10.0</hdop>
        <time>2013-07-09T17:49:30Z</time>
        <extensions>
          <speed>5.787760257720947</speed>
        </extensions>
      </trkpt>
      <trkpt lat="51.3705209" lon="9.057577">
        <ele>223.3400001525879</ele>
        <hdop>10.0</hdop>
        <time>2013-07-09T17:49:36Z</time>
        <extensions>
          <speed>3.2494266033172607</speed>
        </extensions>
      </trkpt>
      <trkpt lat="51.3708593" lon="9.0578537">
        <ele>229.3400001525879</ele>
        <hdop>15.0</hdop>
        <time>2013-07-09T17:49:42Z</time>
        <extensions>
          <speed>2.9013373851776123</speed>
        </extensions>
      </trkpt>
      <trkpt lat="51.371121" lon="9.0581511">
        <ele>220.3400001525879</ele>
        <hdop>15.0</hdop>
        <time>2013-07-09T17:49:48Z</time>
        <extensions>
          <speed>2.4796597957611084</speed>
        </extensions>
      </trkpt>
      <trkpt lat="51.3714132" lon="9.0585492">
        <ele>234.3400001525879</ele>
        <hdop>10.0</hdop>
        <time>2013-07-09T17:49:54Z</time>
        <extensions>
          <speed>3.7829864025115967</speed>
        </extensions>
      </trkpt>
      <trkpt lat="51.3716621" lon="9.0591446">
        <ele>231.3400001525879</ele>
        <hdop>15.0</hdop>
        <time>2013-07-09T17:49:59Z</time>
        <extensions>
          <speed>5.399872303009033</speed>
        </extensions>
      </trkpt>
      <trkpt lat="51.3719729" lon="9.059643">
        <ele>225.3400001525879</ele>
        <hdop>10.0</hdop>
        <time>2013-07-09T17:50:05Z</time>
        <extensions>
          <speed>5.2522993087768555</speed>
        </extensions>
      </trkpt>
      <trkpt lat="51.3721901" lon="9.0598885">
        <ele>221.3400001525879</ele>
        <hdop>10.0</hdop>
        <time>2013-07-09T17:50:10Z</time>
        <extensions>
          <speed>2.0082080364227295</speed>
        </extensions>
      </trkpt>
      <trkpt lat="51.3726339" lon="9.0601604">
        <ele>212.3400001525879</ele>
        <hdop>10.0</hdop>
        <time>2013-07-09T17:50:16Z</time>
        <extensions>
          <speed>7.217174053192139</speed>
        </extensions>
      </trkpt>
      <trkpt lat="51.3730336" lon="9.0603793">
        <ele>219.3400001525879</ele>
        <hdop>10.0</hdop>
        <time>2013-07-09T17:50:22Z</time>
        <extensions>
          <speed>4.258240222930908</speed>
        </extensions>
      </trkpt>
      <trkpt lat="51.3731643" lon="9.0604308">
        <ele>211.3400001525879</ele>
        <hdop>5.0</hdop>
        <time>2013-07-09T17:50:27Z</time>
        <extensions>
          <speed>2.1398823261260986</speed>
        </extensions>
      </trkpt>
      <trkpt lat="51.3733397" lon="9.0604545">
        <ele>212.3400001525879</ele>
        <hdop>5.0</hdop>
        <time>2013-07-09T17:50:33Z</time>
        <extensions>
          <speed>3.995847702026367</speed>
        </extensions>
      </trkpt>
      <trkpt lat="51.3736317" lon="9.0604896">
        <ele>217.3400001525879</ele>
        <hdop>10.0</hdop>
        <time>2013-07-09T17:50:39Z</time>
        <extensions>
          <speed>6.3412065505981445</speed>
        </extensions>
      </trkpt>
      <trkpt lat="51.3740093" lon="9.0605698">
        <ele>222.3400001525879</ele>
        <hdop>5.0</hdop>
        <time>2013-07-09T17:50:45Z</time>
        <extensions>
          <speed>7.159066200256348</speed>
        </extensions>
      </trkpt>
      <trkpt lat="51.3744442" lon="9.0605349">
        <ele>225.3400001525879</ele>
        <hdop>5.0</hdop>
        <time>2013-07-09T17:50:51Z</time>
        <extensions>
          <speed>7.358631134033203</speed>
        </extensions>
      </trkpt>
      <trkpt lat="51.3748851" lon="9.060426">
        <ele>221.3400001525879</ele>
        <hdop>5.0</hdop>
        <time>2013-07-09T17:50:57Z</time>
        <extensions>
          <speed>6.834328651428223</speed>
        </extensions>
      </trkpt>
      <trkpt lat="51.3751121" lon="9.0602532">
        <ele>221.3400001525879</ele>
        <hdop>5.0</hdop>
        <time>2013-07-09T17:51:02Z</time>
        <extensions>
          <speed>4.589988708496094</speed>
        </extensions>
      </trkpt>
      <trkpt lat="51.3753344" lon="9.0599148">
        <ele>215.3400001525879</ele>
        <hdop>10.0</hdop>
        <time>2013-07-09T17:51:08Z</time>
        <extensions>
          <speed>5.160635471343994</speed>
        </extensions>
      </trkpt>
      <trkpt lat="51.3755763" lon="9.0596021">
        <ele>212.3400001525879</ele>
        <hdop>10.0</hdop>
        <time>2013-07-09T17:51:13Z</time>
        <extensions>
          <speed>6.255401611328125</speed>
        </extensions>
      </trkpt>
      <trkpt lat="51.3758499" lon="9.0593772">
        <ele>214.3400001525879</ele>
        <hdop>15.0</hdop>
        <time>2013-07-09T17:51:19Z</time>
        <extensions>
          <speed>6.515488147735596</speed>
        </extensions>
      </trkpt>
      <trkpt lat="51.3763383" lon="9.0590532">
        <ele>218.3400001525879</ele>
        <hdop>5.0</hdop>
        <time>2013-07-09T17:51:25Z</time>
        <extensions>
          <speed>6.328690052032471</speed>
        </extensions>
      </trkpt>
      <trkpt lat="51.3767475" lon="9.0587959">
        <ele>220.3400001525879</ele>
        <hdop>5.0</hdop>
        <time>2013-07-09T17:51:31Z</time>
        <extensions>
          <speed>6.620814800262451</speed>
        </extensions>
      </trkpt>
      <trkpt lat="51.3771072" lon="9.0586787">
        <ele>220.3400001525879</ele>
        <hdop>5.0</hdop>
        <time>2013-07-09T17:51:37Z</time>
        <extensions>
          <speed>7.262499809265137</speed>
        </extensions>
      </trkpt>
      <trkpt lat="51.3774987" lon="9.058716">
        <ele>221.3400001525879</ele>
        <hdop>10.0</hdop>
        <time>2013-07-09T17:51:43Z</time>
        <extensions>
          <speed>6.731847286224365</speed>
        </extensions>
      </trkpt>
      <trkpt lat="51.3778869" lon="9.0587913">
        <ele>219.3400001525879</ele>
        <hdop>10.0</hdop>
        <time>2013-07-09T17:51:48Z</time>
        <extensions>
          <speed>7.455873489379883</speed>
        </extensions>
      </trkpt>
      <trkpt lat="51.378344" lon="9.0589482">
        <ele>218.3400001525879</ele>
        <hdop>10.0</hdop>
        <time>2013-07-09T17:51:54Z</time>
        <extensions>
          <speed>7.744889259338379</speed>
        </extensions>
      </trkpt>
      <trkpt lat="51.378794" lon="9.0591143">
        <ele>222.3400001525879</ele>
        <hdop>10.0</hdop>
        <time>2013-07-09T17:52:00Z</time>
        <extensions>
          <speed>8.353934288024902</speed>
        </extensions>
      </trkpt>
      <trkpt lat="51.3791697" lon="9.0592004">
        <ele>217.3400001525879</ele>
        <hdop>5.0</hdop>
        <time>2013-07-09T17:52:05Z</time>
        <extensions>
          <speed>8.073182106018066</speed>
        </extensions>
      </trkpt>
      <trkpt lat="51.3795179" lon="9.0593464">
        <ele>218.3400001525879</ele>
        <hdop>10.0</hdop>
        <time>2013-07-09T17:52:10Z</time>
        <extensions>
          <speed>6.283236026763916</speed>
        </extensions>
      </trkpt>
      <trkpt lat="51.3798669" lon="9.0596213">
        <ele>217.3400001525879</ele>
        <hdop>10.0</hdop>
        <time>2013-07-09T17:52:16Z</time>
        <extensions>
          <speed>5.927149295806885</speed>
        </extensions>
      </trkpt>
      <trkpt lat="51.3802991" lon="9.0598749">
        <ele>216.3400001525879</ele>
        <hdop>10.0</hdop>
        <time>2013-07-09T17:52:22Z</time>
        <extensions>
          <speed>7.520015716552734</speed>
        </extensions>
      </trkpt>
      <trkpt lat="51.3806482" lon="9.0601053">
        <ele>217.3400001525879</ele>
        <hdop>10.0</hdop>
        <time>2013-07-09T17:52:27Z</time>
        <extensions>
          <speed>7.740789413452148</speed>
        </extensions>
      </trkpt>
      <trkpt lat="51.3810419" lon="9.0603393">
        <ele>215.3400001525879</ele>
        <hdop>10.0</hdop>
        <time>2013-07-09T17:52:33Z</time>
        <extensions>
          <speed>7.120356559753418</speed>
        </extensions>
      </trkpt>
      <trkpt lat="51.3813788" lon="9.0604963">
        <ele>215.3400001525879</ele>
        <hdop>10.0</hdop>
        <time>2013-07-09T17:52:38Z</time>
        <extensions>
          <speed>7.285119533538818</speed>
        </extensions>
      </trkpt>
      <trkpt lat="51.3818273" lon="9.060663">
        <ele>217.3400001525879</ele>
        <hdop>5.0</hdop>
        <time>2013-07-09T17:52:44Z</time>
        <extensions>
          <speed>8.591076850891113</speed>
        </extensions>
      </trkpt>
      <trkpt lat="51.3821949" lon="9.0607509">
        <ele>219.3400001525879</ele>
        <hdop>5.0</hdop>
        <time>2013-07-09T17:52:49Z</time>
        <extensions>
          <speed>7.28413200378418</speed>
        </extensions>
      </trkpt>
      <trkpt lat="51.382592" lon="9.0608225">
        <ele>214.3400001525879</ele>
        <hdop>5.0</hdop>
        <time>2013-07-09T17:52:55Z</time>
        <extensions>
          <speed>7.312307834625244</speed>
        </extensions>
      </trkpt>
      <trkpt lat="51.3829597" lon="9.0608471">
        <ele>215.3400001525879</ele>
        <hdop>5.0</hdop>
        <time>2013-07-09T17:53:01Z</time>
        <extensions>
          <speed>7.193604469299316</speed>
        </extensions>
      </trkpt>
      <trkpt lat="51.3832905" lon="9.0609139">
        <ele>212.3400001525879</ele>
        <hdop>5.0</hdop>
        <time>2013-07-09T17:53:06Z</time>
        <extensions>
          <speed>7.411996841430664</speed>
        </extensions>
      </trkpt>
      <trkpt lat="51.3836219" lon="9.0609917">
        <ele>216.3400001525879</ele>
        <hdop>5.0</hdop>
        <time>2013-07-09T17:53:11Z</time>
        <extensions>
          <speed>7.3240966796875</speed>
        </extensions>
      </trkpt>
      <trkpt lat="51.3840131" lon="9.0610997">
        <ele>215.3400001525879</ele>
        <hdop>5.0</hdop>
        <time>2013-07-09T17:53:17Z</time>
        <extensions>
          <speed>6.6892476081848145</speed>
        </extensions>
      </trkpt>
      <trkpt lat="51.3842654" lon="9.0613654">
        <ele>217.3400001525879</ele>
        <hdop>10.0</hdop>
        <time>2013-07-09T17:53:22Z</time>
        <extensions>
          <speed>7.068697452545166</speed>
        </extensions>
      </trkpt>
      <trkpt lat="51.3843708" lon="9.0619047">
        <ele>221.3400001525879</ele>
        <hdop>5.0</hdop>
        <time>2013-07-09T17:53:27Z</time>
        <extensions>
          <speed>7.5329694747924805</speed>
        </extensions>
      </trkpt>
      <trkpt lat="51.3843278" lon="9.0625569">
        <ele>218.3400001525879</ele>
        <hdop>5.0</hdop>
        <time>2013-07-09T17:53:33Z</time>
        <extensions>
          <speed>7.358186721801758</speed>
        </extensions>
      </trkpt>
      <trkpt lat="51.3842535" lon="9.0631235">
        <ele>218.3400001525879</ele>
        <hdop>5.0</hdop>
        <time>2013-07-09T17:53:38Z</time>
        <extensions>
          <speed>7.964857578277588</speed>
        </extensions>
      </trkpt>
      <trkpt lat="51.3841709" lon="9.0637655">
        <ele>220.3400001525879</ele>
        <hdop>5.0</hdop>
        <time>2013-07-09T17:53:44Z</time>
        <extensions>
          <speed>8.44821834564209</speed>
        </extensions>
      </trkpt>
      <trkpt lat="51.3840965" lon="9.0643167">
        <ele>218.3400001525879</ele>
        <hdop>5.0</hdop>
        <time>2013-07-09T17:53:49Z</time>
        <extensions>
          <speed>7.191155433654785</speed>
        </extensions>
      </trkpt>
      <trkpt lat="51.3840397" lon="9.0647836">
        <ele>216.3400001525879</ele>
        <hdop>5.0</hdop>
        <time>2013-07-09T17:53:54Z</time>
        <extensions>
          <speed>5.2463202476501465</speed>
        </extensions>
      </trkpt>
      <trkpt lat="51.3839914" lon="9.0651023">
        <ele>220.3400001525879</ele>
        <hdop>5.0</hdop>
        <time>2013-07-09T17:54:00Z</time>
        <extensions>
          <speed>2.811743974685669</speed>
        </extensions>
      </trkpt>
      <trkpt lat="51.3841077" lon="9.0652543">
        <ele>219.3400001525879</ele>
        <hdop>5.0</hdop>
        <time>2013-07-09T17:54:05Z</time>
        <extensions>
          <speed>4.438563346862793</speed>
        </extensions>
      </trkpt>
      <trkpt lat="51.3844731" lon="9.065292">
        <ele>212.3400001525879</ele>
        <hdop>10.0</hdop>
        <time>2013-07-09T17:54:11Z</time>
        <extensions>
          <speed>8.358400344848633</speed>
        </extensions>
      </trkpt>
      <trkpt lat="51.3850318" lon="9.0653443">
        <ele>201.3400001525879</ele>
        <hdop>15.0</hdop>
        <time>2013-07-09T17:54:17Z</time>
        <extensions>
          <speed>10.978426933288574</speed>
        </extensions>
      </trkpt>
      <trkpt lat="51.3855507" lon="9.0655249">
        <ele>206.3400001525879</ele>
        <hdop>10.0</hdop>
        <time>2013-07-09T17:54:22Z</time>
        <extensions>
          <speed>8.859557151794434</speed>
        </extensions>
      </trkpt>
      <trkpt lat="51.3858537" lon="9.0658289">
        <ele>198.3400001525879</ele>
        <hdop>10.0</hdop>
        <time>2013-07-09T17:54:27Z</time>
        <extensions>
          <speed>8.57410717010498</speed>
        </extensions>
      </trkpt>
      <trkpt lat="51.3862649" lon="9.0663378">
        <ele>193.3400001525879</ele>
        <hdop>10.0</hdop>
        <time>2013-07-09T17:54:33Z</time>
        <extensions>
          <speed>8.982194900512695</speed>
        </extensions>
      </trkpt>
      <trkpt lat="51.3866164" lon="9.0667901">
        <ele>197.3400001525879</ele>
        <hdop>10.0</hdop>
        <time>2013-07-09T17:54:38Z</time>
        <extensions>
          <speed>8.867855072021484</speed>
        </extensions>
      </trkpt>
      <trkpt lat="51.3870554" lon="9.0674589">
        <ele>204.3400001525879</ele>
        <hdop>10.0</hdop>
        <time>2013-07-09T17:54:44Z</time>
        <extensions>
          <speed>8.475015640258789</speed>
        </extensions>
      </trkpt>
      <trkpt lat="51.387412" lon="9.0680893">
        <ele>196.3400001525879</ele>
        <hdop>10.0</hdop>
        <time>2013-07-09T17:54:50Z</time>
        <extensions>
          <speed>8.287088394165039</speed>
        </extensions>
      </trkpt>
      <trkpt lat="51.3877682" lon="9.0686681">
        <ele>197.3400001525879</ele>
        <hdop>10.0</hdop>
        <time>2013-07-09T17:54:55Z</time>
        <extensions>
          <speed>9.645248413085938</speed>
        </extensions>
      </trkpt>
      <trkpt lat="51.3881269" lon="9.0692259">
        <ele>193.3400001525879</ele>
        <hdop>10.0</hdop>
        <time>2013-07-09T17:55:00Z</time>
        <extensions>
          <speed>10.071503639221191</speed>
        </extensions>
      </trkpt>
      <trkpt lat="51.3885365" lon="9.0699153">
        <ele>191.3400001525879</ele>
        <hdop>15.0</hdop>
        <time>2013-07-09T17:55:06Z</time>
        <extensions>
          <speed>10.071686744689941</speed>
        </extensions>
      </trkpt>
      <trkpt lat="51.3887916" lon="9.0704201">
        <ele>196.3400001525879</ele>
        <hdop>15.0</hdop>
        <time>2013-07-09T17:55:11Z</time>
        <extensions>
          <speed>3.296048164367676</speed>
        </extensions>
      </trkpt>
      <trkpt lat="51.3891501" lon="9.0711437">
        <ele>191.3400001525879</ele>
        <hdop>10.0</hdop>
        <time>2013-07-09T17:55:17Z</time>
        <extensions>
          <speed>8.431386947631836</speed>
        </extensions>
      </trkpt>
      <trkpt lat="51.3894682" lon="9.071528">
        <ele>187.3400001525879</ele>
        <hdop>15.0</hdop>
        <time>2013-07-09T17:55:22Z</time>
        <extensions>
          <speed>7.421075344085693</speed>
        </extensions>
      </trkpt>
      <trkpt lat="51.3899341" lon="9.0718341">
        <ele>184.3400001525879</ele>
        <hdop>15.0</hdop>
        <time>2013-07-09T17:55:27Z</time>
        <extensions>
          <speed>8.332639694213867</speed>
        </extensions>
      </trkpt>
      <trkpt lat="51.3905482" lon="9.072114">
        <ele>184.3400001525879</ele>
        <hdop>15.0</hdop>
        <time>2013-07-09T17:55:33Z</time>
        <extensions>
          <speed>8.258160591125488</speed>
        </extensions>
      </trkpt>
      <trkpt lat="51.3909695" lon="9.0723776">
        <ele>189.3400001525879</ele>
        <hdop>10.0</hdop>
        <time>2013-07-09T17:55:38Z</time>
        <extensions>
          <speed>7.831689834594727</speed>
        </extensions>
      </trkpt>
      <trkpt lat="51.3913056" lon="9.0726561">
        <ele>190.3400001525879</ele>
        <hdop>10.0</hdop>
        <time>2013-07-09T17:55:43Z</time>
        <extensions>
          <speed>6.928456783294678</speed>
        </extensions>
      </trkpt>
      <trkpt lat="51.3916969" lon="9.0735579">
        <ele>194.3400001525879</ele>
        <hdop>5.0</hdop>
        <time>2013-07-09T17:55:49Z</time>
        <extensions>
          <speed>8.989259719848633</speed>
        </extensions>
      </trkpt>
      <trkpt lat="51.3918484" lon="9.0741253">
        <ele>196.3400001525879</ele>
        <hdop>5.0</hdop>
        <time>2013-07-09T17:55:54Z</time>
        <extensions>
          <speed>6.875637054443359</speed>
        </extensions>
      </trkpt>
      <trkpt lat="51.3920352" lon="9.0744687">
        <ele>197.3400001525879</ele>
        <hdop>5.0</hdop>
        <time>2013-07-09T17:55:59Z</time>
        <extensions>
          <speed>6.25929594039917</speed>
        </extensions>
      </trkpt>
      <trkpt lat="51.3922756" lon="9.0746198">
        <ele>196.3400001525879</ele>
        <hdop>5.0</hdop>
        <time>2013-07-09T17:56:04Z</time>
        <extensions>
          <speed>4.39198637008667</speed>
        </extensions>
      </trkpt>
      <trkpt lat="51.3924528" lon="9.0745928">
        <ele>196.3400001525879</ele>
        <hdop>5.0</hdop>
        <time>2013-07-09T17:56:10Z</time>
        <extensions>
          <speed>2.0057928562164307</speed>
        </extensions>
      </trkpt>
      <trkpt lat="51.3924663" lon="9.0745938">
        <ele>196.3400001525879</ele>
        <hdop>15.0</hdop>
        <time>2013-07-09T17:56:16Z</time>
      </trkpt>
      <trkpt lat="51.3925018" lon="9.0745973">
        <ele>200.3400001525879</ele>
        <hdop>10.0</hdop>
        <time>2013-07-09T17:56:22Z</time>
      </trkpt>
      <trkpt lat="51.3925018" lon="9.0745973">
        <ele>200.3400001525879</ele>
        <hdop>10.0</hdop>
        <time>2013-07-09T17:56:27Z</time>
      </trkpt>
      <trkpt lat="51.3927" lon="9.074515">
        <ele>198.3400001525879</ele>
        <hdop>10.0</hdop>
        <time>2013-07-09T17:56:33Z</time>
        <extensions>
          <speed>5.479416847229004</speed>
        </extensions>
      </trkpt>
      <trkpt lat="51.3929813" lon="9.0743584">
        <ele>192.3400001525879</ele>
        <hdop>10.0</hdop>
        <time>2013-07-09T17:56:38Z</time>
        <extensions>
          <speed>7.638641834259033</speed>
        </extensions>
      </trkpt>
      <trkpt lat="51.3934" lon="9.0741307">
        <ele>187.3400001525879</ele>
        <hdop>5.0</hdop>
        <time>2013-07-09T17:56:44Z</time>
        <extensions>
          <speed>7.14460563659668</speed>
        </extensions>
      </trkpt>
      <trkpt lat="51.3938529" lon="9.0739142">
        <ele>188.3400001525879</ele>
        <hdop>10.0</hdop>
        <time>2013-07-09T17:56:50Z</time>
        <extensions>
          <speed>7.754654407501221</speed>
        </extensions>
      </trkpt>
      <trkpt lat="51.3942514" lon="9.0737125">
        <ele>186.3400001525879</ele>
        <hdop>10.0</hdop>
        <time>2013-07-09T17:56:55Z</time>
        <extensions>
          <speed>7.796694755554199</speed>
        </extensions>
      </trkpt>
      <trkpt lat="51.3947443" lon="9.0734117">
        <ele>187.3400001525879</ele>
        <hdop>5.0</hdop>
        <time>2013-07-09T17:57:01Z</time>
        <extensions>
          <speed>8.129764556884766</speed>
        </extensions>
      </trkpt>
      <trkpt lat="51.3951399" lon="9.0730367">
        <ele>190.3400001525879</ele>
        <hdop>20.0</hdop>
        <time>2013-07-09T17:57:07Z</time>
        <extensions>
          <speed>8.075090408325195</speed>
        </extensions>
      </trkpt>
      <trkpt lat="51.3954759" lon="9.0725912">
        <ele>189.3400001525879</ele>
        <hdop>10.0</hdop>
        <time>2013-07-09T17:57:13Z</time>
        <extensions>
          <speed>6.378410816192627</speed>
        </extensions>
      </trkpt>
      <trkpt lat="51.3956909" lon="9.0722379">
        <ele>197.3400001525879</ele>
        <hdop>5.0</hdop>
        <time>2013-07-09T17:57:18Z</time>
        <extensions>
          <speed>5.853492736816406</speed>
        </extensions>
      </trkpt>
      <trkpt lat="51.3959033" lon="9.0718928">
        <ele>199.3400001525879</ele>
        <hdop>5.0</hdop>
        <time>2013-07-09T17:57:23Z</time>
        <extensions>
          <speed>6.144853115081787</speed>
        </extensions>
      </trkpt>
      <trkpt lat="51.3961459" lon="9.0715045">
        <ele>199.3400001525879</ele>
        <hdop>10.0</hdop>
        <time>2013-07-09T17:57:29Z</time>
        <extensions>
          <speed>6.277975559234619</speed>
        </extensions>
      </trkpt>
      <trkpt lat="51.3964619" lon="9.0710915">
        <ele>196.3400001525879</ele>
        <hdop>5.0</hdop>
        <time>2013-07-09T17:57:35Z</time>
        <extensions>
          <speed>6.844366550445557</speed>
        </extensions>
      </trkpt>
      <trkpt lat="51.396798" lon="9.0707278">
        <ele>193.3400001525879</ele>
        <hdop>10.0</hdop>
        <time>2013-07-09T17:57:41Z</time>
        <extensions>
          <speed>6.640385627746582</speed>
        </extensions>
      </trkpt>
      <trkpt lat="51.3970929" lon="9.0706176">
        <ele>203.3400001525879</ele>
        <hdop>10.0</hdop>
        <time>2013-07-09T17:57:46Z</time>
        <extensions>
          <speed>8.001387596130371</speed>
        </extensions>
      </trkpt>
      <trkpt lat="51.397607" lon="9.0707933">
        <ele>197.3400001525879</ele>
        <hdop>10.0</hdop>
        <time>2013-07-09T17:57:52Z</time>
        <extensions>
          <speed>9.218603134155273</speed>
        </extensions>
      </trkpt>
      <trkpt lat="51.3979804" lon="9.0712258">
        <ele>196.3400001525879</ele>
        <hdop>10.0</hdop>
        <time>2013-07-09T17:57:57Z</time>
        <extensions>
          <speed>10.57813549041748</speed>
        </extensions>
      </trkpt>
      <trkpt lat="51.3984574" lon="9.0718525">
        <ele>195.3400001525879</ele>
        <hdop>5.0</hdop>
        <time>2013-07-09T17:58:03Z</time>
        <extensions>
          <speed>9.09994888305664</speed>
        </extensions>
      </trkpt>
      <trkpt lat="51.3989121" lon="9.0722651">
        <ele>192.3400001525879</ele>
        <hdop>5.0</hdop>
        <time>2013-07-09T17:58:09Z</time>
        <extensions>
          <speed>8.765049934387207</speed>
        </extensions>
      </trkpt>
      <trkpt lat="51.3993435" lon="9.0726419">
        <ele>188.3400001525879</ele>
        <hdop>5.0</hdop>
        <time>2013-07-09T17:58:15Z</time>
        <extensions>
          <speed>8.632168769836426</speed>
        </extensions>
      </trkpt>
      <trkpt lat="51.3996726" lon="9.0729566">
        <ele>191.3400001525879</ele>
        <hdop>5.0</hdop>
        <time>2013-07-09T17:58:20Z</time>
        <extensions>
          <speed>8.325990676879883</speed>
        </extensions>
      </trkpt>
      <trkpt lat="51.3999786" lon="9.0732676">
        <ele>189.3400001525879</ele>
        <hdop>10.0</hdop>
        <time>2013-07-09T17:58:25Z</time>
        <extensions>
          <speed>7.740675449371338</speed>
        </extensions>
      </trkpt>
      <trkpt lat="51.400393" lon="9.0735903">
        <ele>190.3400001525879</ele>
        <hdop>5.0</hdop>
        <time>2013-07-09T17:58:31Z</time>
        <extensions>
          <speed>8.301715850830078</speed>
        </extensions>
      </trkpt>
      <trkpt lat="51.4007982" lon="9.0735392">
        <ele>187.3400001525879</ele>
        <hdop>5.0</hdop>
        <time>2013-07-09T17:58:36Z</time>
        <extensions>
          <speed>7.919865131378174</speed>
        </extensions>
      </trkpt>
      <trkpt lat="51.4011692" lon="9.0732748">
        <ele>188.3400001525879</ele>
        <hdop>5.0</hdop>
        <time>2013-07-09T17:58:42Z</time>
        <extensions>
          <speed>6.0674638748168945</speed>
        </extensions>
      </trkpt>
      <trkpt lat="51.4014254" lon="9.0730321">
        <ele>188.3400001525879</ele>
        <hdop>5.0</hdop>
        <time>2013-07-09T17:58:48Z</time>
        <extensions>
          <speed>3.6102612018585205</speed>
        </extensions>
      </trkpt>
      <trkpt lat="51.4016171" lon="9.0730801">
        <ele>192.3400001525879</ele>
        <hdop>10.0</hdop>
        <time>2013-07-09T17:58:53Z</time>
        <extensions>
          <speed>5.018940448760986</speed>
        </extensions>
      </trkpt>
      <trkpt lat="51.4018633" lon="9.073346">
        <ele>193.3400001525879</ele>
        <hdop>10.0</hdop>
        <time>2013-07-09T17:58:59Z</time>
        <extensions>
          <speed>4.937085151672363</speed>
        </extensions>
      </trkpt>
      <trkpt lat="51.4020004" lon="9.0736165">
        <ele>198.3400001525879</ele>
        <hdop>15.0</hdop>
        <time>2013-07-09T17:59:04Z</time>
        <extensions>
          <speed>4.304861068725586</speed>
        </extensions>
      </trkpt>
      <trkpt lat="51.4021966" lon="9.0739989">
        <ele>200.3400001525879</ele>
        <hdop>5.0</hdop>
        <time>2013-07-09T17:59:10Z</time>
        <extensions>
          <speed>4.774796962738037</speed>
        </extensions>
      </trkpt>
      <trkpt lat="51.4022506" lon="9.0745065">
        <ele>201.3400001525879</ele>
        <hdop>5.0</hdop>
        <time>2013-07-09T17:59:16Z</time>
        <extensions>
          <speed>6.456066608428955</speed>
        </extensions>
      </trkpt>
      <trkpt lat="51.4022959" lon="9.0752648">
        <ele>202.3400001525879</ele>
        <hdop>5.0</hdop>
        <time>2013-07-09T17:59:22Z</time>
        <extensions>
          <speed>8.796124458312988</speed>
        </extensions>
      </trkpt>
      <trkpt lat="51.4023272" lon="9.0759008">
        <ele>201.3400001525879</ele>
        <hdop>5.0</hdop>
        <time>2013-07-09T17:59:27Z</time>
        <extensions>
          <speed>7.963588714599609</speed>
        </extensions>
      </trkpt>
      <trkpt lat="51.4022561" lon="9.0765481">
        <ele>196.3400001525879</ele>
        <hdop>15.0</hdop>
        <time>2013-07-09T17:59:33Z</time>
        <extensions>
          <speed>6.812993049621582</speed>
        </extensions>
      </trkpt>
      <trkpt lat="51.4023646" lon="9.0770047">
        <ele>190.3400001525879</ele>
        <hdop>5.0</hdop>
        <time>2013-07-09T17:59:38Z</time>
        <extensions>
          <speed>7.302129745483398</speed>
        </extensions>
      </trkpt>
      <trkpt lat="51.4026446" lon="9.0774238">
        <ele>190.3400001525879</ele>
        <hdop>10.0</hdop>
        <time>2013-07-09T17:59:44Z</time>
        <extensions>
          <speed>7.384409427642822</speed>
        </extensions>
      </trkpt>
      <trkpt lat="51.4029133" lon="9.077948">
        <ele>196.3400001525879</ele>
        <hdop>10.0</hdop>
        <time>2013-07-09T17:59:49Z</time>
        <extensions>
          <speed>8.696578979492188</speed>
        </extensions>
      </trkpt>
      <trkpt lat="51.4031028" lon="9.0787157">
        <ele>196.3400001525879</ele>
        <hdop>5.0</hdop>
        <time>2013-07-09T17:59:55Z</time>
        <extensions>
          <speed>10.273494720458984</speed>
        </extensions>
      </trkpt>
      <trkpt lat="51.4032379" lon="9.0794268">
        <ele>192.3400001525879</ele>
        <hdop>5.0</hdop>
        <time>2013-07-09T18:00:00Z</time>
        <extensions>
          <speed>9.570569038391113</speed>
        </extensions>
      </trkpt>
      <trkpt lat="51.4033804" lon="9.0800817">
        <ele>195.3400001525879</ele>
        <hdop>5.0</hdop>
        <time>2013-07-09T18:00:05Z</time>
        <extensions>
          <speed>9.414277076721191</speed>
        </extensions>
      </trkpt>
      <trkpt lat="51.4035446" lon="9.0807894">
        <ele>194.3400001525879</ele>
        <hdop>5.0</hdop>
        <time>2013-07-09T18:00:11Z</time>
        <extensions>
          <speed>8.78753662109375</speed>
        </extensions>
      </trkpt>
      <trkpt lat="51.4036814" lon="9.0814175">
        <ele>194.3400001525879</ele>
        <hdop>5.0</hdop>
        <time>2013-07-09T18:00:16Z</time>
        <extensions>
          <speed>9.079236030578613</speed>
        </extensions>
      </trkpt>
      <trkpt lat="51.403849" lon="9.0821726">
        <ele>192.3400001525879</ele>
        <hdop>5.0</hdop>
        <time>2013-07-09T18:00:22Z</time>
        <extensions>
          <speed>9.167526245117188</speed>
        </extensions>
      </trkpt>
      <trkpt lat="51.4040172" lon="9.0829198">
        <ele>190.3400001525879</ele>
        <hdop>5.0</hdop>
        <time>2013-07-09T18:00:28Z</time>
        <extensions>
          <speed>9.384966850280762</speed>
        </extensions>
      </trkpt>
      <trkpt lat="51.404162" lon="9.0835731">
        <ele>188.3400001525879</ele>
        <hdop>5.0</hdop>
        <time>2013-07-09T18:00:33Z</time>
        <extensions>
          <speed>9.90075397491455</speed>
        </extensions>
      </trkpt>
      <trkpt lat="51.4043415" lon="9.0843539">
        <ele>187.3400001525879</ele>
        <hdop>5.0</hdop>
        <time>2013-07-09T18:00:39Z</time>
        <extensions>
          <speed>9.045724868774414</speed>
        </extensions>
      </trkpt>
      <trkpt lat="51.4044805" lon="9.0849481">
        <ele>188.3400001525879</ele>
        <hdop>5.0</hdop>
        <time>2013-07-09T18:00:44Z</time>
        <extensions>
          <speed>8.780043601989746</speed>
        </extensions>
      </trkpt>
      <trkpt lat="51.4046447" lon="9.0856756">
        <ele>182.3400001525879</ele>
        <hdop>5.0</hdop>
        <time>2013-07-09T18:00:50Z</time>
        <extensions>
          <speed>8.95671272277832</speed>
        </extensions>
      </trkpt>
      <trkpt lat="51.4048179" lon="9.0864109">
        <ele>185.3400001525879</ele>
        <hdop>5.0</hdop>
        <time>2013-07-09T18:00:56Z</time>
        <extensions>
          <speed>9.5108003616333</speed>
        </extensions>
      </trkpt>
      <trkpt lat="51.4049581" lon="9.0870596">
        <ele>185.3400001525879</ele>
        <hdop>5.0</hdop>
        <time>2013-07-09T18:01:01Z</time>
        <extensions>
          <speed>9.211785316467285</speed>
        </extensions>
      </trkpt>
      <trkpt lat="51.4050996" lon="9.0876662">
        <ele>187.3400001525879</ele>
        <hdop>5.0</hdop>
        <time>2013-07-09T18:01:06Z</time>
        <extensions>
          <speed>9.083002090454102</speed>
        </extensions>
      </trkpt>
      <trkpt lat="51.4052692" lon="9.0884443">
        <ele>185.3400001525879</ele>
        <hdop>5.0</hdop>
        <time>2013-07-09T18:01:12Z</time>
        <extensions>
          <speed>9.160109519958496</speed>
        </extensions>
      </trkpt>
      <trkpt lat="51.4054455" lon="9.0891877">
        <ele>185.3400001525879</ele>
        <hdop>5.0</hdop>
        <time>2013-07-09T18:01:18Z</time>
        <extensions>
          <speed>9.354849815368652</speed>
        </extensions>
      </trkpt>
      <trkpt lat="51.4056355" lon="9.0899548">
        <ele>187.3400001525879</ele>
        <hdop>5.0</hdop>
        <time>2013-07-09T18:01:24Z</time>
        <extensions>
          <speed>9.65334415435791</speed>
        </extensions>
      </trkpt>
      <trkpt lat="51.4058213" lon="9.090568">
        <ele>185.3400001525879</ele>
        <hdop>5.0</hdop>
        <time>2013-07-09T18:01:29Z</time>
        <extensions>
          <speed>9.15372085571289</speed>
        </extensions>
      </trkpt>
      <trkpt lat="51.4060528" lon="9.0912794">
        <ele>181.3400001525879</ele>
        <hdop>5.0</hdop>
        <time>2013-07-09T18:01:35Z</time>
        <extensions>
          <speed>9.571913719177246</speed>
        </extensions>
      </trkpt>
      <trkpt lat="51.4062796" lon="9.0920247">
        <ele>182.3400001525879</ele>
        <hdop>5.0</hdop>
        <time>2013-07-09T18:01:41Z</time>
        <extensions>
          <speed>9.011114120483398</speed>
        </extensions>
      </trkpt>
      <trkpt lat="51.406488" lon="9.0927117">
        <ele>180.3400001525879</ele>
        <hdop>5.0</hdop>
        <time>2013-07-09T18:01:47Z</time>
        <extensions>
          <speed>8.918318748474121</speed>
        </extensions>
      </trkpt>
      <trkpt lat="51.4067054" lon="9.0934317">
        <ele>179.3400001525879</ele>
        <hdop>5.0</hdop>
        <time>2013-07-09T18:01:53Z</time>
        <extensions>
          <speed>9.076776504516602</speed>
        </extensions>
      </trkpt>
      <trkpt lat="51.4068807" lon="9.0940026">
        <ele>178.3400001525879</ele>
        <hdop>5.0</hdop>
        <time>2013-07-09T18:01:58Z</time>
        <extensions>
          <speed>8.971883773803711</speed>
        </extensions>
      </trkpt>
      <trkpt lat="51.4070999" lon="9.0947099">
        <ele>180.3400001525879</ele>
        <hdop>5.0</hdop>
        <time>2013-07-09T18:02:04Z</time>
        <extensions>
          <speed>9.544632911682129</speed>
        </extensions>
      </trkpt>
      <trkpt lat="51.4072823" lon="9.0953395">
        <ele>183.3400001525879</ele>
        <hdop>5.0</hdop>
        <time>2013-07-09T18:02:09Z</time>
        <extensions>
          <speed>9.637373924255371</speed>
        </extensions>
      </trkpt>
      <trkpt lat="51.4074848" lon="9.0960601">
        <ele>182.3400001525879</ele>
        <hdop>5.0</hdop>
        <time>2013-07-09T18:02:15Z</time>
        <extensions>
          <speed>9.35416316986084</speed>
        </extensions>
      </trkpt>
      <trkpt lat="51.4076771" lon="9.0966758">
        <ele>181.3400001525879</ele>
        <hdop>5.0</hdop>
        <time>2013-07-09T18:02:20Z</time>
        <extensions>
          <speed>9.425000190734863</speed>
        </extensions>
      </trkpt>
      <trkpt lat="51.4079074" lon="9.0974326">
        <ele>182.3400001525879</ele>
        <hdop>5.0</hdop>
        <time>2013-07-09T18:02:26Z</time>
        <extensions>
          <speed>9.502035140991211</speed>
        </extensions>
      </trkpt>
      <trkpt lat="51.408137" lon="9.0981686">
        <ele>177.3400001525879</ele>
        <hdop>5.0</hdop>
        <time>2013-07-09T18:02:32Z</time>
        <extensions>
          <speed>9.485270500183105</speed>
        </extensions>
      </trkpt>
      <trkpt lat="51.4083206" lon="9.0987793">
        <ele>184.3400001525879</ele>
        <hdop>5.0</hdop>
        <time>2013-07-09T18:02:37Z</time>
        <extensions>
          <speed>9.620645523071289</speed>
        </extensions>
      </trkpt>
      <trkpt lat="51.408538" lon="9.0995135">
        <ele>178.3400001525879</ele>
        <hdop>5.0</hdop>
        <time>2013-07-09T18:02:43Z</time>
        <extensions>
          <speed>9.281545639038086</speed>
        </extensions>
      </trkpt>
      <trkpt lat="51.4087149" lon="9.1001098">
        <ele>184.3400001525879</ele>
        <hdop>5.0</hdop>
        <time>2013-07-09T18:02:48Z</time>
        <extensions>
          <speed>9.47453784942627</speed>
        </extensions>
      </trkpt>
      <trkpt lat="51.4089137" lon="9.100745">
        <ele>184.3400001525879</ele>
        <hdop>5.0</hdop>
        <time>2013-07-09T18:02:53Z</time>
        <extensions>
          <speed>9.384925842285156</speed>
        </extensions>
      </trkpt>
      <trkpt lat="51.4091249" lon="9.1014562">
        <ele>180.3400001525879</ele>
        <hdop>5.0</hdop>
        <time>2013-07-09T18:02:59Z</time>
        <extensions>
          <speed>9.405184745788574</speed>
        </extensions>
      </trkpt>
      <trkpt lat="51.4093235" lon="9.1020365">
        <ele>181.3400001525879</ele>
        <hdop>5.0</hdop>
        <time>2013-07-09T18:03:04Z</time>
        <extensions>
          <speed>8.988770484924316</speed>
        </extensions>
      </trkpt>
      <trkpt lat="51.4097736" lon="9.1024005">
        <ele>180.3400001525879</ele>
        <hdop>5.0</hdop>
        <time>2013-07-09T18:03:10Z</time>
        <extensions>
          <speed>9.391117095947266</speed>
        </extensions>
      </trkpt>
      <trkpt lat="51.4102294" lon="9.1026305">
        <ele>180.3400001525879</ele>
        <hdop>5.0</hdop>
        <time>2013-07-09T18:03:16Z</time>
        <extensions>
          <speed>8.425653457641602</speed>
        </extensions>
      </trkpt>
      <trkpt lat="51.4105888" lon="9.1028134">
        <ele>181.3400001525879</ele>
        <hdop>5.0</hdop>
        <time>2013-07-09T18:03:21Z</time>
        <extensions>
          <speed>8.203995704650879</speed>
        </extensions>
      </trkpt>
      <trkpt lat="51.4109406" lon="9.1030031">
        <ele>185.3400001525879</ele>
        <hdop>5.0</hdop>
        <time>2013-07-09T18:03:26Z</time>
        <extensions>
          <speed>8.4985933303833</speed>
        </extensions>
      </trkpt>
      <trkpt lat="51.4113026" lon="9.1032091">
        <ele>184.3400001525879</ele>
        <hdop>5.0</hdop>
        <time>2013-07-09T18:03:31Z</time>
        <extensions>
          <speed>8.389025688171387</speed>
        </extensions>
      </trkpt>
      <trkpt lat="51.41175" lon="9.1034542">
        <ele>182.3400001525879</ele>
        <hdop>5.0</hdop>
        <time>2013-07-09T18:03:37Z</time>
        <extensions>
          <speed>8.50141716003418</speed>
        </extensions>
      </trkpt>
      <trkpt lat="51.4120953" lon="9.1036528">
        <ele>178.3400001525879</ele>
        <hdop>5.0</hdop>
        <time>2013-07-09T18:03:42Z</time>
        <extensions>
          <speed>8.024035453796387</speed>
        </extensions>
      </trkpt>
      <trkpt lat="51.4124545" lon="9.1040469">
        <ele>179.3400001525879</ele>
        <hdop>5.0</hdop>
        <time>2013-07-09T18:03:48Z</time>
        <extensions>
          <speed>7.8852033615112305</speed>
        </extensions>
      </trkpt>
      <trkpt lat="51.4128102" lon="9.1045192">
        <ele>181.3400001525879</ele>
        <hdop>5.0</hdop>
        <time>2013-07-09T18:03:54Z</time>
        <extensions>
          <speed>8.578564643859863</speed>
        </extensions>
      </trkpt>
      <trkpt lat="51.4131574" lon="9.1050018">
        <ele>178.3400001525879</ele>
        <hdop>5.0</hdop>
        <time>2013-07-09T18:04:00Z</time>
        <extensions>
          <speed>9.247092247009277</speed>
        </extensions>
      </trkpt>
      <trkpt lat="51.4134918" lon="9.1055955">
        <ele>177.3400001525879</ele>
        <hdop>5.0</hdop>
        <time>2013-07-09T18:04:06Z</time>
        <extensions>
          <speed>8.906730651855469</speed>
        </extensions>
      </trkpt>
      <trkpt lat="51.4137831" lon="9.106233">
        <ele>175.3400001525879</ele>
        <hdop>5.0</hdop>
        <time>2013-07-09T18:04:12Z</time>
        <extensions>
          <speed>8.868148803710938</speed>
        </extensions>
      </trkpt>
      <trkpt lat="51.4140219" lon="9.1067044">
        <ele>179.3400001525879</ele>
        <hdop>5.0</hdop>
        <time>2013-07-09T18:04:17Z</time>
        <extensions>
          <speed>8.45325756072998</speed>
        </extensions>
      </trkpt>
      <trkpt lat="51.4143132" lon="9.1072578">
        <ele>177.3400001525879</ele>
        <hdop>5.0</hdop>
        <time>2013-07-09T18:04:23Z</time>
        <extensions>
          <speed>8.113784790039063</speed>
        </extensions>
      </trkpt>
      <trkpt lat="51.4145406" lon="9.1077011">
        <ele>177.3400001525879</ele>
        <hdop>5.0</hdop>
        <time>2013-07-09T18:04:28Z</time>
        <extensions>
          <speed>8.077340126037598</speed>
        </extensions>
      </trkpt>
      <trkpt lat="51.4147718" lon="9.1081758">
        <ele>181.3400001525879</ele>
        <hdop>5.0</hdop>
        <time>2013-07-09T18:04:33Z</time>
        <extensions>
          <speed>8.539113998413086</speed>
        </extensions>
      </trkpt>
      <trkpt lat="51.4150549" lon="9.1087501">
        <ele>182.3400001525879</ele>
        <hdop>5.0</hdop>
        <time>2013-07-09T18:04:39Z</time>
        <extensions>
          <speed>8.213282585144043</speed>
        </extensions>
      </trkpt>
      <trkpt lat="51.415346" lon="9.1093021">
        <ele>177.3400001525879</ele>
        <hdop>5.0</hdop>
        <time>2013-07-09T18:04:45Z</time>
        <extensions>
          <speed>8.160978317260742</speed>
        </extensions>
      </trkpt>
      <trkpt lat="51.4156128" lon="9.1098498">
        <ele>179.3400001525879</ele>
        <hdop>5.0</hdop>
        <time>2013-07-09T18:04:51Z</time>
        <extensions>
          <speed>7.671512603759766</speed>
        </extensions>
      </trkpt>
      <trkpt lat="51.4158108" lon="9.1105672">
        <ele>182.3400001525879</ele>
        <hdop>5.0</hdop>
        <time>2013-07-09T18:04:57Z</time>
        <extensions>
          <speed>8.321135520935059</speed>
        </extensions>
      </trkpt>
      <trkpt lat="51.4159617" lon="9.1111031">
        <ele>180.3400001525879</ele>
        <hdop>10.0</hdop>
        <time>2013-07-09T18:05:02Z</time>
        <extensions>
          <speed>8.070526123046875</speed>
        </extensions>
      </trkpt>
      <trkpt lat="51.4161529" lon="9.1115962">
        <ele>177.3400001525879</ele>
        <hdop>10.0</hdop>
        <time>2013-07-09T18:05:08Z</time>
        <extensions>
          <speed>5.5783514976501465</speed>
        </extensions>
      </trkpt>
      <trkpt lat="51.4162397" lon="9.1118405">
        <ele>179.3400001525879</ele>
        <hdop>10.0</hdop>
        <time>2013-07-09T18:05:13Z</time>
        <extensions>
          <speed>2.493440866470337</speed>
        </extensions>
      </trkpt>
      <trkpt lat="51.4164204" lon="9.1117689">
        <ele>177.3400001525879</ele>
        <hdop>5.0</hdop>
        <time>2013-07-09T18:05:18Z</time>
        <extensions>
          <speed>5.5016584396362305</speed>
        </extensions>
      </trkpt>
      <trkpt lat="51.4166729" lon="9.1114275">
        <ele>180.3400001525879</ele>
        <hdop>5.0</hdop>
        <time>2013-07-09T18:05:24Z</time>
        <extensions>
          <speed>6.500905990600586</speed>
        </extensions>
      </trkpt>
      <trkpt lat="51.4169097" lon="9.1110953">
        <ele>180.3400001525879</ele>
        <hdop>5.0</hdop>
        <time>2013-07-09T18:05:29Z</time>
        <extensions>
          <speed>6.925563335418701</speed>
        </extensions>
      </trkpt>
      <trkpt lat="51.4171716" lon="9.1105918">
        <ele>181.3400001525879</ele>
        <hdop>5.0</hdop>
        <time>2013-07-09T18:05:35Z</time>
        <extensions>
          <speed>7.906093120574951</speed>
        </extensions>
      </trkpt>
      <trkpt lat="51.4172493" lon="9.1100359">
        <ele>180.3400001525879</ele>
        <hdop>5.0</hdop>
        <time>2013-07-09T18:05:40Z</time>
        <extensions>
          <speed>7.573168754577637</speed>
        </extensions>
      </trkpt>
      <trkpt lat="51.417282" lon="9.1093804">
        <ele>180.3400001525879</ele>
        <hdop>5.0</hdop>
        <time>2013-07-09T18:05:46Z</time>
        <extensions>
          <speed>7.5147013664245605</speed>
        </extensions>
      </trkpt>
      <trkpt lat="51.4172889" lon="9.1087038">
        <ele>183.3400001525879</ele>
        <hdop>5.0</hdop>
        <time>2013-07-09T18:05:52Z</time>
        <extensions>
          <speed>7.32312536239624</speed>
        </extensions>
      </trkpt>
      <trkpt lat="51.4173237" lon="9.1081673">
        <ele>182.3400001525879</ele>
        <hdop>5.0</hdop>
        <time>2013-07-09T18:05:57Z</time>
        <extensions>
          <speed>7.205277442932129</speed>
        </extensions>
      </trkpt>
      <trkpt lat="51.4173933" lon="9.1076628">
        <ele>185.3400001525879</ele>
        <hdop>5.0</hdop>
        <time>2013-07-09T18:06:02Z</time>
        <extensions>
          <speed>7.051572799682617</speed>
        </extensions>
      </trkpt>
      <trkpt lat="51.4174759" lon="9.107056">
        <ele>184.3400001525879</ele>
        <hdop>5.0</hdop>
        <time>2013-07-09T18:06:08Z</time>
        <extensions>
          <speed>7.025309085845947</speed>
        </extensions>
      </trkpt>
      <trkpt lat="51.4175473" lon="9.106561">
        <ele>184.3400001525879</ele>
        <hdop>5.0</hdop>
        <time>2013-07-09T18:06:13Z</time>
        <extensions>
          <speed>7.090958595275879</speed>
        </extensions>
      </trkpt>
      <trkpt lat="51.417642" lon="9.105966">
        <ele>185.3400001525879</ele>
        <hdop>5.0</hdop>
        <time>2013-07-09T18:06:19Z</time>
        <extensions>
          <speed>6.854334831237793</speed>
        </extensions>
      </trkpt>
      <trkpt lat="51.4177311" lon="9.1054784">
        <ele>185.3400001525879</ele>
        <hdop>5.0</hdop>
        <time>2013-07-09T18:06:24Z</time>
        <extensions>
          <speed>7.2466630935668945</speed>
        </extensions>
      </trkpt>
      <trkpt lat="51.4178314" lon="9.1048768">
        <ele>185.3400001525879</ele>
        <hdop>5.0</hdop>
        <time>2013-07-09T18:06:30Z</time>
        <extensions>
          <speed>7.142935752868652</speed>
        </extensions>
      </trkpt>
      <trkpt lat="51.4179171" lon="9.1043842">
        <ele>186.3400001525879</ele>
        <hdop>5.0</hdop>
        <time>2013-07-09T18:06:35Z</time>
        <extensions>
          <speed>7.1272406578063965</speed>
        </extensions>
      </trkpt>
      <trkpt lat="51.4180059" lon="9.1038859">
        <ele>186.3400001525879</ele>
        <hdop>5.0</hdop>
        <time>2013-07-09T18:06:40Z</time>
        <extensions>
          <speed>7.318572998046875</speed>
        </extensions>
      </trkpt>
      <trkpt lat="51.4181122" lon="9.1032487">
        <ele>186.3400001525879</ele>
        <hdop>5.0</hdop>
        <time>2013-07-09T18:06:46Z</time>
        <extensions>
          <speed>7.379578113555908</speed>
        </extensions>
      </trkpt>
      <trkpt lat="51.4181866" lon="9.1027658">
        <ele>183.3400001525879</ele>
        <hdop>5.0</hdop>
        <time>2013-07-09T18:06:51Z</time>
        <extensions>
          <speed>7.038151741027832</speed>
        </extensions>
      </trkpt>
      <trkpt lat="51.4182971" lon="9.1021599">
        <ele>186.3400001525879</ele>
        <hdop>5.0</hdop>
        <time>2013-07-09T18:06:57Z</time>
        <extensions>
          <speed>7.42596960067749</speed>
        </extensions>
      </trkpt>
      <trkpt lat="51.4184033" lon="9.1015338">
        <ele>188.3400001525879</ele>
        <hdop>5.0</hdop>
        <time>2013-07-09T18:07:03Z</time>
        <extensions>
          <speed>7.248554706573486</speed>
        </extensions>
      </trkpt>
      <trkpt lat="51.4184981" lon="9.1008952">
        <ele>188.3400001525879</ele>
        <hdop>5.0</hdop>
        <time>2013-07-09T18:07:09Z</time>
        <extensions>
          <speed>7.465358734130859</speed>
        </extensions>
      </trkpt>
      <trkpt lat="51.4185695" lon="9.1003398">
        <ele>189.3400001525879</ele>
        <hdop>5.0</hdop>
        <time>2013-07-09T18:07:14Z</time>
        <extensions>
          <speed>7.824219226837158</speed>
        </extensions>
      </trkpt>
      <trkpt lat="51.4186258" lon="9.0997875">
        <ele>193.3400001525879</ele>
        <hdop>5.0</hdop>
        <time>2013-07-09T18:07:19Z</time>
        <extensions>
          <speed>7.780491828918457</speed>
        </extensions>
      </trkpt>
      <trkpt lat="51.4186924" lon="9.0991178">
        <ele>191.3400001525879</ele>
        <hdop>5.0</hdop>
        <time>2013-07-09T18:07:25Z</time>
        <extensions>
          <speed>7.794662952423096</speed>
        </extensions>
      </trkpt>
      <trkpt lat="51.4187563" lon="9.0984495">
        <ele>192.3400001525879</ele>
        <hdop>5.0</hdop>
        <time>2013-07-09T18:07:31Z</time>
        <extensions>
          <speed>8.054247856140137</speed>
        </extensions>
      </trkpt>
      <trkpt lat="51.4188641" lon="9.0977879">
        <ele>191.3400001525879</ele>
        <hdop>5.0</hdop>
        <time>2013-07-09T18:07:37Z</time>
        <extensions>
          <speed>7.832583904266357</speed>
        </extensions>
      </trkpt>
      <trkpt lat="51.4190466" lon="9.0971818">
        <ele>194.3400001525879</ele>
        <hdop>5.0</hdop>
        <time>2013-07-09T18:07:43Z</time>
        <extensions>
          <speed>7.849844455718994</speed>
        </extensions>
      </trkpt>
      <trkpt lat="51.4192853" lon="9.0966047">
        <ele>199.3400001525879</ele>
        <hdop>5.0</hdop>
        <time>2013-07-09T18:07:49Z</time>
        <extensions>
          <speed>7.463690280914307</speed>
        </extensions>
      </trkpt>
      <trkpt lat="51.4194784" lon="9.096182">
        <ele>196.3400001525879</ele>
        <hdop>5.0</hdop>
        <time>2013-07-09T18:07:54Z</time>
        <extensions>
          <speed>7.261466979980469</speed>
        </extensions>
      </trkpt>
      <trkpt lat="51.4196931" lon="9.0956634">
        <ele>195.3400001525879</ele>
        <hdop>5.0</hdop>
        <time>2013-07-09T18:08:00Z</time>
        <extensions>
          <speed>7.237648010253906</speed>
        </extensions>
      </trkpt>
      <trkpt lat="51.4199012" lon="9.0951074">
        <ele>198.3400001525879</ele>
        <hdop>5.0</hdop>
        <time>2013-07-09T18:08:06Z</time>
        <extensions>
          <speed>7.474555492401123</speed>
        </extensions>
      </trkpt>
      <trkpt lat="51.4201069" lon="9.0945637">
        <ele>199.3400001525879</ele>
        <hdop>5.0</hdop>
        <time>2013-07-09T18:08:12Z</time>
        <extensions>
          <speed>7.220918655395508</speed>
        </extensions>
      </trkpt>
      <trkpt lat="51.4203184" lon="9.0940321">
        <ele>201.3400001525879</ele>
        <hdop>5.0</hdop>
        <time>2013-07-09T18:08:18Z</time>
        <extensions>
          <speed>7.279616355895996</speed>
        </extensions>
      </trkpt>
      <trkpt lat="51.4204934" lon="9.0935692">
        <ele>202.3400001525879</ele>
        <hdop>5.0</hdop>
        <time>2013-07-09T18:08:23Z</time>
        <extensions>
          <speed>7.588511943817139</speed>
        </extensions>
      </trkpt>
      <trkpt lat="51.420655" lon="9.0929882">
        <ele>200.3400001525879</ele>
        <hdop>5.0</hdop>
        <time>2013-07-09T18:08:29Z</time>
        <extensions>
          <speed>7.429882526397705</speed>
        </extensions>
      </trkpt>
      <trkpt lat="51.420832" lon="9.0923938">
        <ele>202.3400001525879</ele>
        <hdop>5.0</hdop>
        <time>2013-07-09T18:08:35Z</time>
        <extensions>
          <speed>7.47069787979126</speed>
        </extensions>
      </trkpt>
      <trkpt lat="51.4209794" lon="9.091895">
        <ele>201.3400001525879</ele>
        <hdop>5.0</hdop>
        <time>2013-07-09T18:08:40Z</time>
        <extensions>
          <speed>8.062740325927734</speed>
        </extensions>
      </trkpt>
      <trkpt lat="51.4211151" lon="9.0912535">
        <ele>200.3400001525879</ele>
        <hdop>5.0</hdop>
        <time>2013-07-09T18:08:46Z</time>
        <extensions>
          <speed>7.559210300445557</speed>
        </extensions>
      </trkpt>
      <trkpt lat="51.4212037" lon="9.0907388">
        <ele>200.3400001525879</ele>
        <hdop>5.0</hdop>
        <time>2013-07-09T18:08:51Z</time>
        <extensions>
          <speed>7.603119850158691</speed>
        </extensions>
      </trkpt>
      <trkpt lat="51.4213647" lon="9.090206">
        <ele>202.3400001525879</ele>
        <hdop>5.0</hdop>
        <time>2013-07-09T18:08:56Z</time>
        <extensions>
          <speed>8.034845352172852</speed>
        </extensions>
      </trkpt>
      <trkpt lat="51.4216065" lon="9.089754">
        <ele>200.3400001525879</ele>
        <hdop>5.0</hdop>
        <time>2013-07-09T18:09:01Z</time>
        <extensions>
          <speed>8.457773208618164</speed>
        </extensions>
      </trkpt>
      <trkpt lat="51.4219226" lon="9.0892232">
        <ele>202.3400001525879</ele>
        <hdop>10.0</hdop>
        <time>2013-07-09T18:09:07Z</time>
        <extensions>
          <speed>8.248552322387695</speed>
        </extensions>
      </trkpt>
      <trkpt lat="51.4221313" lon="9.0886876">
        <ele>198.3400001525879</ele>
        <hdop>5.0</hdop>
        <time>2013-07-09T18:09:12Z</time>
        <extensions>
          <speed>8.941195487976074</speed>
        </extensions>
      </trkpt>
      <trkpt lat="51.422355" lon="9.0880907">
        <ele>196.3400001525879</ele>
        <hdop>5.0</hdop>
        <time>2013-07-09T18:09:17Z</time>
        <extensions>
          <speed>9.84974479675293</speed>
        </extensions>
      </trkpt>
      <trkpt lat="51.4226686" lon="9.0874199">
        <ele>194.3400001525879</ele>
        <hdop>5.0</hdop>
        <time>2013-07-09T18:09:23Z</time>
        <extensions>
          <speed>9.65418529510498</speed>
        </extensions>
      </trkpt>
      <trkpt lat="51.4229602" lon="9.0869167">
        <ele>196.3400001525879</ele>
        <hdop>5.0</hdop>
        <time>2013-07-09T18:09:28Z</time>
        <extensions>
          <speed>9.467557907104492</speed>
        </extensions>
      </trkpt>
      <trkpt lat="51.4232439" lon="9.0864317">
        <ele>197.3400001525879</ele>
        <hdop>5.0</hdop>
        <time>2013-07-09T18:09:33Z</time>
        <extensions>
          <speed>8.807315826416016</speed>
        </extensions>
      </trkpt>
      <trkpt lat="51.4235709" lon="9.0858419">
        <ele>198.3400001525879</ele>
        <hdop>5.0</hdop>
        <time>2013-07-09T18:09:39Z</time>
        <extensions>
          <speed>8.999876976013184</speed>
        </extensions>
      </trkpt>
      <trkpt lat="51.4238267" lon="9.0851104">
        <ele>198.3400001525879</ele>
        <hdop>5.0</hdop>
        <time>2013-07-09T18:09:45Z</time>
        <extensions>
          <speed>9.582777976989746</speed>
        </extensions>
      </trkpt>
      <trkpt lat="51.4240216" lon="9.0843384">
        <ele>196.3400001525879</ele>
        <hdop>5.0</hdop>
        <time>2013-07-09T18:09:51Z</time>
        <extensions>
          <speed>9.24952507019043</speed>
        </extensions>
      </trkpt>
      <trkpt lat="51.4241897" lon="9.0836344">
        <ele>194.3400001525879</ele>
        <hdop>5.0</hdop>
        <time>2013-07-09T18:09:57Z</time>
        <extensions>
          <speed>8.892091751098633</speed>
        </extensions>
      </trkpt>
      <trkpt lat="51.4243707" lon="9.0829231">
        <ele>195.3400001525879</ele>
        <hdop>5.0</hdop>
        <time>2013-07-09T18:10:03Z</time>
        <extensions>
          <speed>9.022684097290039</speed>
        </extensions>
      </trkpt>
      <trkpt lat="51.4245079" lon="9.0823044">
        <ele>193.3400001525879</ele>
        <hdop>5.0</hdop>
        <time>2013-07-09T18:10:08Z</time>
        <extensions>
          <speed>9.097207069396973</speed>
        </extensions>
      </trkpt>
      <trkpt lat="51.4246926" lon="9.0815412">
        <ele>193.3400001525879</ele>
        <hdop>5.0</hdop>
        <time>2013-07-09T18:10:14Z</time>
        <extensions>
          <speed>9.373720169067383</speed>
        </extensions>
      </trkpt>
      <trkpt lat="51.4249278" lon="9.0808402">
        <ele>194.3400001525879</ele>
        <hdop>5.0</hdop>
        <time>2013-07-09T18:10:20Z</time>
        <extensions>
          <speed>9.263690948486328</speed>
        </extensions>
      </trkpt>
      <trkpt lat="51.4251551" lon="9.0802785">
        <ele>193.3400001525879</ele>
        <hdop>5.0</hdop>
        <time>2013-07-09T18:10:25Z</time>
        <extensions>
          <speed>9.27231216430664</speed>
        </extensions>
      </trkpt>
      <trkpt lat="51.425386" lon="9.0797348">
        <ele>192.3400001525879</ele>
        <hdop>5.0</hdop>
        <time>2013-07-09T18:10:30Z</time>
        <extensions>
          <speed>8.957976341247559</speed>
        </extensions>
      </trkpt>
      <trkpt lat="51.4256436" lon="9.0790675">
        <ele>198.3400001525879</ele>
        <hdop>5.0</hdop>
        <time>2013-07-09T18:10:36Z</time>
        <extensions>
          <speed>8.82744312286377</speed>
        </extensions>
      </trkpt>
      <trkpt lat="51.4258027" lon="9.0784913">
        <ele>193.3400001525879</ele>
        <hdop>5.0</hdop>
        <time>2013-07-09T18:10:41Z</time>
        <extensions>
          <speed>9.298493385314941</speed>
        </extensions>
      </trkpt>
      <trkpt lat="51.4259082" lon="9.0776699">
        <ele>193.3400001525879</ele>
        <hdop>5.0</hdop>
        <time>2013-07-09T18:10:47Z</time>
        <extensions>
          <speed>9.471792221069336</speed>
        </extensions>
      </trkpt>
      <trkpt lat="51.4260001" lon="9.0769969">
        <ele>190.3400001525879</ele>
        <hdop>5.0</hdop>
        <time>2013-07-09T18:10:52Z</time>
        <extensions>
          <speed>9.726729393005371</speed>
        </extensions>
      </trkpt>
      <trkpt lat="51.4262634" lon="9.0763195">
        <ele>192.3400001525879</ele>
        <hdop>5.0</hdop>
        <time>2013-07-09T18:10:58Z</time>
        <extensions>
          <speed>8.70535659790039</speed>
        </extensions>
      </trkpt>
      <trkpt lat="51.4265693" lon="9.0759588">
        <ele>194.3400001525879</ele>
        <hdop>5.0</hdop>
        <time>2013-07-09T18:11:03Z</time>
        <extensions>
          <speed>7.872939109802246</speed>
        </extensions>
      </trkpt>
      <trkpt lat="51.4269681" lon="9.0757292">
        <ele>190.3400001525879</ele>
        <hdop>5.0</hdop>
        <time>2013-07-09T18:11:09Z</time>
        <extensions>
          <speed>7.544969081878662</speed>
        </extensions>
      </trkpt>
      <trkpt lat="51.427297" lon="9.0755932">
        <ele>188.3400001525879</ele>
        <hdop>5.0</hdop>
        <time>2013-07-09T18:11:14Z</time>
        <extensions>
          <speed>7.213227272033691</speed>
        </extensions>
      </trkpt>
      <trkpt lat="51.4276774" lon="9.0754271">
        <ele>191.3400001525879</ele>
        <hdop>5.0</hdop>
        <time>2013-07-09T18:11:20Z</time>
        <extensions>
          <speed>6.8940911293029785</speed>
        </extensions>
      </trkpt>
      <trkpt lat="51.428005" lon="9.0752542">
        <ele>194.3400001525879</ele>
        <hdop>5.0</hdop>
        <time>2013-07-09T18:11:25Z</time>
        <extensions>
          <speed>7.653563976287842</speed>
        </extensions>
      </trkpt>
      <trkpt lat="51.4283074" lon="9.0750082">
        <ele>194.3400001525879</ele>
        <hdop>5.0</hdop>
        <time>2013-07-09T18:11:30Z</time>
        <extensions>
          <speed>7.697296142578125</speed>
        </extensions>
      </trkpt>
      <trkpt lat="51.4285555" lon="9.074651">
        <ele>196.3400001525879</ele>
        <hdop>5.0</hdop>
        <time>2013-07-09T18:11:35Z</time>
        <extensions>
          <speed>7.105709552764893</speed>
        </extensions>
      </trkpt>
      <trkpt lat="51.4287492" lon="9.0740858">
        <ele>198.3400001525879</ele>
        <hdop>5.0</hdop>
        <time>2013-07-09T18:11:41Z</time>
        <extensions>
          <speed>7.23146915435791</speed>
        </extensions>
      </trkpt>
      <trkpt lat="51.4288238" lon="9.0735597">
        <ele>196.3400001525879</ele>
        <hdop>5.0</hdop>
        <time>2013-07-09T18:11:46Z</time>
        <extensions>
          <speed>7.471630573272705</speed>
        </extensions>
      </trkpt>
      <trkpt lat="51.4288849" lon="9.0728823">
        <ele>194.3400001525879</ele>
        <hdop>5.0</hdop>
        <time>2013-07-09T18:11:52Z</time>
        <extensions>
          <speed>7.368144989013672</speed>
        </extensions>
      </trkpt>
      <trkpt lat="51.4289401" lon="9.0723249">
        <ele>196.3400001525879</ele>
        <hdop>5.0</hdop>
        <time>2013-07-09T18:11:57Z</time>
        <extensions>
          <speed>7.910019874572754</speed>
        </extensions>
      </trkpt>
      <trkpt lat="51.4290238" lon="9.0716655">
        <ele>196.3400001525879</ele>
        <hdop>5.0</hdop>
        <time>2013-07-09T18:12:03Z</time>
        <extensions>
          <speed>7.7977094650268555</speed>
        </extensions>
      </trkpt>
      <trkpt lat="51.4290928" lon="9.0710238">
        <ele>199.3400001525879</ele>
        <hdop>5.0</hdop>
        <time>2013-07-09T18:12:09Z</time>
        <extensions>
          <speed>7.676516532897949</speed>
        </extensions>
      </trkpt>
      <trkpt lat="51.4291786" lon="9.0703804">
        <ele>197.3400001525879</ele>
        <hdop>5.0</hdop>
        <time>2013-07-09T18:12:15Z</time>
        <extensions>
          <speed>7.710515975952148</speed>
        </extensions>
      </trkpt>
      <trkpt lat="51.4292747" lon="9.0697177">
        <ele>197.3400001525879</ele>
        <hdop>5.0</hdop>
        <time>2013-07-09T18:12:21Z</time>
        <extensions>
          <speed>8.103410720825195</speed>
        </extensions>
      </trkpt>
      <trkpt lat="51.4293656" lon="9.0690352">
        <ele>197.3400001525879</ele>
        <hdop>5.0</hdop>
        <time>2013-07-09T18:12:27Z</time>
        <extensions>
          <speed>8.016836166381836</speed>
        </extensions>
      </trkpt>
      <trkpt lat="51.4294549" lon="9.0683353">
        <ele>196.3400001525879</ele>
        <hdop>5.0</hdop>
        <time>2013-07-09T18:12:33Z</time>
        <extensions>
          <speed>7.907486438751221</speed>
        </extensions>
      </trkpt>
      <trkpt lat="51.4295384" lon="9.0676893">
        <ele>198.3400001525879</ele>
        <hdop>5.0</hdop>
        <time>2013-07-09T18:12:39Z</time>
        <extensions>
          <speed>7.895666122436523</speed>
        </extensions>
      </trkpt>
      <trkpt lat="51.429618" lon="9.0671024">
        <ele>203.3400001525879</ele>
        <hdop>5.0</hdop>
        <time>2013-07-09T18:12:44Z</time>
        <extensions>
          <speed>8.066912651062012</speed>
        </extensions>
      </trkpt>
      <trkpt lat="51.4297057" lon="9.0664398">
        <ele>204.3400001525879</ele>
        <hdop>5.0</hdop>
        <time>2013-07-09T18:12:50Z</time>
        <extensions>
          <speed>7.747183799743652</speed>
        </extensions>
      </trkpt>
      <trkpt lat="51.4297941" lon="9.0657892">
        <ele>204.3400001525879</ele>
        <hdop>5.0</hdop>
        <time>2013-07-09T18:12:56Z</time>
        <extensions>
          <speed>7.726762294769287</speed>
        </extensions>
      </trkpt>
      <trkpt lat="51.4298698" lon="9.0652379">
        <ele>205.3400001525879</ele>
        <hdop>5.0</hdop>
        <time>2013-07-09T18:13:01Z</time>
        <extensions>
          <speed>7.705284118652344</speed>
        </extensions>
      </trkpt>
      <trkpt lat="51.4299537" lon="9.0645828">
        <ele>206.3400001525879</ele>
        <hdop>5.0</hdop>
        <time>2013-07-09T18:13:07Z</time>
        <extensions>
          <speed>7.450924396514893</speed>
        </extensions>
      </trkpt>
      <trkpt lat="51.4300285" lon="9.0640814">
        <ele>200.3400001525879</ele>
        <hdop>5.0</hdop>
        <time>2013-07-09T18:13:12Z</time>
        <extensions>
          <speed>7.702692031860352</speed>
        </extensions>
      </trkpt>
      <trkpt lat="51.4301115" lon="9.063464">
        <ele>205.3400001525879</ele>
        <hdop>5.0</hdop>
        <time>2013-07-09T18:13:18Z</time>
        <extensions>
          <speed>6.701707363128662</speed>
        </extensions>
      </trkpt>
      <trkpt lat="51.4301914" lon="9.0629343">
        <ele>208.3400001525879</ele>
        <hdop>5.0</hdop>
        <time>2013-07-09T18:13:24Z</time>
        <extensions>
          <speed>6.359554767608643</speed>
        </extensions>
      </trkpt>
      <trkpt lat="51.4302715" lon="9.0624004">
        <ele>208.3400001525879</ele>
        <hdop>5.0</hdop>
        <time>2013-07-09T18:13:30Z</time>
        <extensions>
          <speed>6.41159200668335</speed>
        </extensions>
      </trkpt>
      <trkpt lat="51.4303426" lon="9.0618887">
        <ele>206.3400001525879</ele>
        <hdop>5.0</hdop>
        <time>2013-07-09T18:13:36Z</time>
        <extensions>
          <speed>6.275157451629639</speed>
        </extensions>
      </trkpt>
      <trkpt lat="51.4304121" lon="9.0613644">
        <ele>209.3400001525879</ele>
        <hdop>5.0</hdop>
        <time>2013-07-09T18:13:42Z</time>
        <extensions>
          <speed>6.144733428955078</speed>
        </extensions>
      </trkpt>
      <trkpt lat="51.430483" lon="9.0608629">
        <ele>210.3400001525879</ele>
        <hdop>5.0</hdop>
        <time>2013-07-09T18:13:48Z</time>
        <extensions>
          <speed>5.528050899505615</speed>
        </extensions>
      </trkpt>
      <trkpt lat="51.4305419" lon="9.0604149">
        <ele>210.3400001525879</ele>
        <hdop>5.0</hdop>
        <time>2013-07-09T18:13:54Z</time>
        <extensions>
          <speed>5.341203689575195</speed>
        </extensions>
      </trkpt>
      <trkpt lat="51.4305703" lon="9.0599685">
        <ele>210.3400001525879</ele>
        <hdop>5.0</hdop>
        <time>2013-07-09T18:14:00Z</time>
        <extensions>
          <speed>5.4755096435546875</speed>
        </extensions>
      </trkpt>
      <trkpt lat="51.4305848" lon="9.0594904">
        <ele>213.3400001525879</ele>
        <hdop>5.0</hdop>
        <time>2013-07-09T18:14:06Z</time>
        <extensions>
          <speed>4.614843368530273</speed>
        </extensions>
      </trkpt>
      <trkpt lat="51.4305851" lon="9.0591109">
        <ele>214.3400001525879</ele>
        <hdop>5.0</hdop>
        <time>2013-07-09T18:14:12Z</time>
        <extensions>
          <speed>4.530387878417969</speed>
        </extensions>
      </trkpt>
      <trkpt lat="51.4306033" lon="9.0587806">
        <ele>215.3400001525879</ele>
        <hdop>5.0</hdop>
        <time>2013-07-09T18:14:17Z</time>
        <extensions>
          <speed>4.4216532707214355</speed>
        </extensions>
      </trkpt>
      <trkpt lat="51.4306484" lon="9.0584014">
        <ele>217.3400001525879</ele>
        <hdop>5.0</hdop>
        <time>2013-07-09T18:14:23Z</time>
        <extensions>
          <speed>4.170243263244629</speed>
        </extensions>
      </trkpt>
      <trkpt lat="51.4306779" lon="9.0581083">
        <ele>220.3400001525879</ele>
        <hdop>5.0</hdop>
        <time>2013-07-09T18:14:28Z</time>
        <extensions>
          <speed>3.9103775024414063</speed>
        </extensions>
      </trkpt>
      <trkpt lat="51.4307036" lon="9.0578206">
        <ele>220.3400001525879</ele>
        <hdop>5.0</hdop>
        <time>2013-07-09T18:14:33Z</time>
        <extensions>
          <speed>3.888502836227417</speed>
        </extensions>
      </trkpt>
      <trkpt lat="51.4307695" lon="9.0574821">
        <ele>223.3400001525879</ele>
        <hdop>5.0</hdop>
        <time>2013-07-09T18:14:39Z</time>
        <extensions>
          <speed>4.301192283630371</speed>
        </extensions>
      </trkpt>
      <trkpt lat="51.4308778" lon="9.0571158">
        <ele>230.3400001525879</ele>
        <hdop>5.0</hdop>
        <time>2013-07-09T18:14:45Z</time>
        <extensions>
          <speed>3.930983781814575</speed>
        </extensions>
      </trkpt>
      <trkpt lat="51.4309327" lon="9.0568633">
        <ele>224.3400001525879</ele>
        <hdop>5.0</hdop>
        <time>2013-07-09T18:14:50Z</time>
        <extensions>
          <speed>4.084290981292725</speed>
        </extensions>
      </trkpt>
      <trkpt lat="51.4310002" lon="9.0564388">
        <ele>225.3400001525879</ele>
        <hdop>5.0</hdop>
        <time>2013-07-09T18:14:56Z</time>
        <extensions>
          <speed>5.701175689697266</speed>
        </extensions>
      </trkpt>
      <trkpt lat="51.4309931" lon="9.0559632">
        <ele>221.3400001525879</ele>
        <hdop>5.0</hdop>
        <time>2013-07-09T18:15:01Z</time>
        <extensions>
          <speed>6.54866886138916</speed>
        </extensions>
      </trkpt>
      <trkpt lat="51.431176" lon="9.055463">
        <ele>224.3400001525879</ele>
        <hdop>5.0</hdop>
        <time>2013-07-09T18:15:07Z</time>
        <extensions>
          <speed>6.433276653289795</speed>
        </extensions>
      </trkpt>
      <trkpt lat="51.4313854" lon="9.0551842">
        <ele>221.3400001525879</ele>
        <hdop>5.0</hdop>
        <time>2013-07-09T18:15:12Z</time>
        <extensions>
          <speed>6.227247714996338</speed>
        </extensions>
      </trkpt>
      <trkpt lat="51.4316956" lon="9.054902">
        <ele>221.3400001525879</ele>
        <hdop>10.0</hdop>
        <time>2013-07-09T18:15:18Z</time>
        <extensions>
          <speed>6.425499439239502</speed>
        </extensions>
      </trkpt>
      <trkpt lat="51.4319794" lon="9.0547351">
        <ele>221.3400001525879</ele>
        <hdop>10.0</hdop>
        <time>2013-07-09T18:15:23Z</time>
        <extensions>
          <speed>6.253888130187988</speed>
        </extensions>
      </trkpt>
      <trkpt lat="51.4323001" lon="9.0546208">
        <ele>222.3400001525879</ele>
        <hdop>5.0</hdop>
        <time>2013-07-09T18:15:29Z</time>
        <extensions>
          <speed>5.647923469543457</speed>
        </extensions>
      </trkpt>
      <trkpt lat="51.4325901" lon="9.0545782">
        <ele>225.3400001525879</ele>
        <hdop>5.0</hdop>
        <time>2013-07-09T18:15:35Z</time>
        <extensions>
          <speed>5.138860702514648</speed>
        </extensions>
      </trkpt>
      <trkpt lat="51.4328258" lon="9.0545401">
        <ele>225.3400001525879</ele>
        <hdop>10.0</hdop>
        <time>2013-07-09T18:15:40Z</time>
        <extensions>
          <speed>4.773804187774658</speed>
        </extensions>
      </trkpt>
      <trkpt lat="51.4331138" lon="9.0545478">
        <ele>224.3400001525879</ele>
        <hdop>10.0</hdop>
        <time>2013-07-09T18:15:46Z</time>
        <extensions>
          <speed>5.567203044891357</speed>
        </extensions>
      </trkpt>
      <trkpt lat="51.4334308" lon="9.0546071">
        <ele>229.3400001525879</ele>
        <hdop>5.0</hdop>
        <time>2013-07-09T18:15:52Z</time>
        <extensions>
          <speed>5.006054401397705</speed>
        </extensions>
      </trkpt>
      <trkpt lat="51.4336567" lon="9.0546999">
        <ele>232.3400001525879</ele>
        <hdop>5.0</hdop>
        <time>2013-07-09T18:15:57Z</time>
        <extensions>
          <speed>4.906792640686035</speed>
        </extensions>
      </trkpt>
      <trkpt lat="51.433895" lon="9.0548548">
        <ele>232.3400001525879</ele>
        <hdop>5.0</hdop>
        <time>2013-07-09T18:16:03Z</time>
        <extensions>
          <speed>4.408225059509277</speed>
        </extensions>
      </trkpt>
      <trkpt lat="51.4341641" lon="9.054954">
        <ele>232.3400001525879</ele>
        <hdop>10.0</hdop>
        <time>2013-07-09T18:16:09Z</time>
        <extensions>
          <speed>4.719818115234375</speed>
        </extensions>
      </trkpt>
      <trkpt lat="51.434377" lon="9.0549723">
        <ele>231.3400001525879</ele>
        <hdop>10.0</hdop>
        <time>2013-07-09T18:16:14Z</time>
        <extensions>
          <speed>4.415668487548828</speed>
        </extensions>
      </trkpt>
      <trkpt lat="51.4345971" lon="9.0549393">
        <ele>234.3400001525879</ele>
        <hdop>5.0</hdop>
        <time>2013-07-09T18:16:19Z</time>
        <extensions>
          <speed>4.743325233459473</speed>
        </extensions>
      </trkpt>
      <trkpt lat="51.4348693" lon="9.0548389">
        <ele>235.3400001525879</ele>
        <hdop>5.0</hdop>
        <time>2013-07-09T18:16:25Z</time>
        <extensions>
          <speed>5.175335884094238</speed>
        </extensions>
      </trkpt>
      <trkpt lat="51.4351342" lon="9.054689">
        <ele>231.3400001525879</ele>
        <hdop>5.0</hdop>
        <time>2013-07-09T18:16:31Z</time>
        <extensions>
          <speed>5.144582271575928</speed>
        </extensions>
      </trkpt>
      <trkpt lat="51.4354059" lon="9.0544889">
        <ele>236.3400001525879</ele>
        <hdop>5.0</hdop>
        <time>2013-07-09T18:16:37Z</time>
        <extensions>
          <speed>5.552999496459961</speed>
        </extensions>
      </trkpt>
      <trkpt lat="51.4356338" lon="9.0543075">
        <ele>239.3400001525879</ele>
        <hdop>5.0</hdop>
        <time>2013-07-09T18:16:42Z</time>
        <extensions>
          <speed>5.441976070404053</speed>
        </extensions>
      </trkpt>
      <trkpt lat="51.4359078" lon="9.0540845">
        <ele>234.3400001525879</ele>
        <hdop>10.0</hdop>
        <time>2013-07-09T18:16:48Z</time>
        <extensions>
          <speed>5.653799533843994</speed>
        </extensions>
      </trkpt>
      <trkpt lat="51.4361695" lon="9.0538344">
        <ele>237.3400001525879</ele>
        <hdop>5.0</hdop>
        <time>2013-07-09T18:16:54Z</time>
        <extensions>
          <speed>5.627350807189941</speed>
        </extensions>
      </trkpt>
      <trkpt lat="51.4364451" lon="9.0535708">
        <ele>239.3400001525879</ele>
        <hdop>5.0</hdop>
        <time>2013-07-09T18:17:00Z</time>
        <extensions>
          <speed>5.431240558624268</speed>
        </extensions>
      </trkpt>
      <trkpt lat="51.436664" lon="9.0533661">
        <ele>240.3400001525879</ele>
        <hdop>5.0</hdop>
        <time>2013-07-09T18:17:05Z</time>
        <extensions>
          <speed>5.734506130218506</speed>
        </extensions>
      </trkpt>
      <trkpt lat="51.4368882" lon="9.0531601">
        <ele>239.3400001525879</ele>
        <hdop>5.0</hdop>
        <time>2013-07-09T18:17:10Z</time>
        <extensions>
          <speed>5.733829975128174</speed>
        </extensions>
      </trkpt>
      <trkpt lat="51.4371269" lon="9.052955">
        <ele>242.3400001525879</ele>
        <hdop>5.0</hdop>
        <time>2013-07-09T18:17:15Z</time>
        <extensions>
          <speed>5.737048625946045</speed>
        </extensions>
      </trkpt>
      <trkpt lat="51.4373569" lon="9.0527829">
        <ele>241.3400001525879</ele>
        <hdop>5.0</hdop>
        <time>2013-07-09T18:17:20Z</time>
        <extensions>
          <speed>5.791845321655273</speed>
        </extensions>
      </trkpt>
      <trkpt lat="51.4376512" lon="9.0526037">
        <ele>240.3400001525879</ele>
        <hdop>5.0</hdop>
        <time>2013-07-09T18:17:26Z</time>
        <extensions>
          <speed>5.817761421203613</speed>
        </extensions>
      </trkpt>
      <trkpt lat="51.4379497" lon="9.0524621">
        <ele>243.3400001525879</ele>
        <hdop>5.0</hdop>
        <time>2013-07-09T18:17:32Z</time>
        <extensions>
          <speed>5.589704990386963</speed>
        </extensions>
      </trkpt>
      <trkpt lat="51.4381816" lon="9.0523623">
        <ele>243.3400001525879</ele>
        <hdop>5.0</hdop>
        <time>2013-07-09T18:17:37Z</time>
        <extensions>
          <speed>5.314183235168457</speed>
        </extensions>
      </trkpt>
      <trkpt lat="51.4384915" lon="9.05223">
        <ele>248.3400001525879</ele>
        <hdop>5.0</hdop>
        <time>2013-07-09T18:17:43Z</time>
        <extensions>
          <speed>5.910562515258789</speed>
        </extensions>
      </trkpt>
      <trkpt lat="51.4387711" lon="9.0521369">
        <ele>249.3400001525879</ele>
        <hdop>5.0</hdop>
        <time>2013-07-09T18:17:48Z</time>
        <extensions>
          <speed>6.014312267303467</speed>
        </extensions>
      </trkpt>
      <trkpt lat="51.4391219" lon="9.0520303">
        <ele>248.3400001525879</ele>
        <hdop>5.0</hdop>
        <time>2013-07-09T18:17:54Z</time>
        <extensions>
          <speed>6.93669319152832</speed>
        </extensions>
      </trkpt>
      <trkpt lat="51.4394443" lon="9.0519319">
        <ele>249.3400001525879</ele>
        <hdop>5.0</hdop>
        <time>2013-07-09T18:17:59Z</time>
        <extensions>
          <speed>7.103663444519043</speed>
        </extensions>
      </trkpt>
      <trkpt lat="51.4398311" lon="9.0518193">
        <ele>243.3400001525879</ele>
        <hdop>5.0</hdop>
        <time>2013-07-09T18:18:05Z</time>
        <extensions>
          <speed>7.273734092712402</speed>
        </extensions>
      </trkpt>
      <trkpt lat="51.4401067" lon="9.0518638">
        <ele>244.3400001525879</ele>
        <hdop>5.0</hdop>
        <time>2013-07-09T18:18:10Z</time>
        <extensions>
          <speed>6.247335910797119</speed>
        </extensions>
      </trkpt>
      <trkpt lat="51.4402189" lon="9.0524588">
        <ele>248.3400001525879</ele>
        <hdop>5.0</hdop>
        <time>2013-07-09T18:18:16Z</time>
        <extensions>
          <speed>7.432137489318848</speed>
        </extensions>
      </trkpt>
      <trkpt lat="51.4404359" lon="9.0529907">
        <ele>246.3400001525879</ele>
        <hdop>5.0</hdop>
        <time>2013-07-09T18:18:22Z</time>
        <extensions>
          <speed>7.181919097900391</speed>
        </extensions>
      </trkpt>
      <trkpt lat="51.4406271" lon="9.0534071">
        <ele>244.3400001525879</ele>
        <hdop>5.0</hdop>
        <time>2013-07-09T18:18:27Z</time>
        <extensions>
          <speed>7.2814040184021</speed>
        </extensions>
      </trkpt>
      <trkpt lat="51.4408739" lon="9.0539174">
        <ele>246.3400001525879</ele>
        <hdop>5.0</hdop>
        <time>2013-07-09T18:18:33Z</time>
        <extensions>
          <speed>7.461021423339844</speed>
        </extensions>
      </trkpt>
      <trkpt lat="51.4411289" lon="9.0544479">
        <ele>248.3400001525879</ele>
        <hdop>5.0</hdop>
        <time>2013-07-09T18:18:39Z</time>
        <extensions>
          <speed>7.692084312438965</speed>
        </extensions>
      </trkpt>
      <trkpt lat="51.4413702" lon="9.0550577">
        <ele>246.3400001525879</ele>
        <hdop>5.0</hdop>
        <time>2013-07-09T18:18:45Z</time>
        <extensions>
          <speed>8.281143188476563</speed>
        </extensions>
      </trkpt>
      <trkpt lat="51.4414525" lon="9.0556656">
        <ele>245.3400001525879</ele>
        <hdop>5.0</hdop>
        <time>2013-07-09T18:18:50Z</time>
        <extensions>
          <speed>8.393840789794922</speed>
        </extensions>
      </trkpt>
      <trkpt lat="51.4413686" lon="9.0563666">
        <ele>244.3400001525879</ele>
        <hdop>5.0</hdop>
        <time>2013-07-09T18:18:55Z</time>
        <extensions>
          <speed>8.86094856262207</speed>
        </extensions>
      </trkpt>
      <trkpt lat="51.4411548" lon="9.0571146">
        <ele>247.3400001525879</ele>
        <hdop>10.0</hdop>
        <time>2013-07-09T18:19:01Z</time>
        <extensions>
          <speed>8.226688385009766</speed>
        </extensions>
      </trkpt>
      <trkpt lat="51.4410551" lon="9.0577364">
        <ele>241.3400001525879</ele>
        <hdop>5.0</hdop>
        <time>2013-07-09T18:19:06Z</time>
        <extensions>
          <speed>8.36568832397461</speed>
        </extensions>
      </trkpt>
      <trkpt lat="51.4410465" lon="9.0584106">
        <ele>244.3400001525879</ele>
        <hdop>5.0</hdop>
        <time>2013-07-09T18:19:11Z</time>
        <extensions>
          <speed>8.382545471191406</speed>
        </extensions>
      </trkpt>
      <trkpt lat="51.4411426" lon="9.0590181">
        <ele>241.3400001525879</ele>
        <hdop>5.0</hdop>
        <time>2013-07-09T18:19:16Z</time>
        <extensions>
          <speed>8.775411605834961</speed>
        </extensions>
      </trkpt>
      <trkpt lat="51.4413314" lon="9.0597825">
        <ele>242.3400001525879</ele>
        <hdop>5.0</hdop>
        <time>2013-07-09T18:19:22Z</time>
        <extensions>
          <speed>9.598151206970215</speed>
        </extensions>
      </trkpt>
      <trkpt lat="51.4414962" lon="9.0604569">
        <ele>237.3400001525879</ele>
        <hdop>5.0</hdop>
        <time>2013-07-09T18:19:27Z</time>
        <extensions>
          <speed>10.106697082519531</speed>
        </extensions>
      </trkpt>
      <trkpt lat="51.4416964" lon="9.061351">
        <ele>236.3400001525879</ele>
        <hdop>5.0</hdop>
        <time>2013-07-09T18:19:33Z</time>
        <extensions>
          <speed>11.000971794128418</speed>
        </extensions>
      </trkpt>
      <trkpt lat="51.4418544" lon="9.0620768">
        <ele>235.3400001525879</ele>
        <hdop>5.0</hdop>
        <time>2013-07-09T18:19:38Z</time>
        <extensions>
          <speed>11.025250434875488</speed>
        </extensions>
      </trkpt>
      <trkpt lat="51.4420098" lon="9.0630516">
        <ele>233.3400001525879</ele>
        <hdop>5.0</hdop>
        <time>2013-07-09T18:19:44Z</time>
        <extensions>
          <speed>11.060541152954102</speed>
        </extensions>
      </trkpt>
      <trkpt lat="51.4420813" lon="9.0638513">
        <ele>230.3400001525879</ele>
        <hdop>5.0</hdop>
        <time>2013-07-09T18:19:49Z</time>
        <extensions>
          <speed>11.224065780639648</speed>
        </extensions>
      </trkpt>
      <trkpt lat="51.4422455" lon="9.0646319">
        <ele>230.3400001525879</ele>
        <hdop>10.0</hdop>
        <time>2013-07-09T18:19:54Z</time>
        <extensions>
          <speed>11.718913078308105</speed>
        </extensions>
      </trkpt>
      <trkpt lat="51.4425804" lon="9.0653736">
        <ele>230.3400001525879</ele>
        <hdop>5.0</hdop>
        <time>2013-07-09T18:20:00Z</time>
        <extensions>
          <speed>9.605682373046875</speed>
        </extensions>
      </trkpt>
      <trkpt lat="51.4427476" lon="9.0661324">
        <ele>229.3400001525879</ele>
        <hdop>5.0</hdop>
        <time>2013-07-09T18:20:06Z</time>
        <extensions>
          <speed>8.406526565551758</speed>
        </extensions>
      </trkpt>
      <trkpt lat="51.4428936" lon="9.066796">
        <ele>231.3400001525879</ele>
        <hdop>5.0</hdop>
        <time>2013-07-09T18:20:12Z</time>
        <extensions>
          <speed>7.884389400482178</speed>
        </extensions>
      </trkpt>
      <trkpt lat="51.4431076" lon="9.0673281">
        <ele>233.3400001525879</ele>
        <hdop>5.0</hdop>
        <time>2013-07-09T18:20:17Z</time>
        <extensions>
          <speed>7.772556781768799</speed>
        </extensions>
      </trkpt>
      <trkpt lat="51.4433709" lon="9.0678567">
        <ele>232.3400001525879</ele>
        <hdop>5.0</hdop>
        <time>2013-07-09T18:20:23Z</time>
        <extensions>
          <speed>7.689394474029541</speed>
        </extensions>
      </trkpt>
      <trkpt lat="51.4436248" lon="9.0684693">
        <ele>230.3400001525879</ele>
        <hdop>5.0</hdop>
        <time>2013-07-09T18:20:29Z</time>
        <extensions>
          <speed>8.910773277282715</speed>
        </extensions>
      </trkpt>
      <trkpt lat="51.4437848" lon="9.069085">
        <ele>226.3400001525879</ele>
        <hdop>5.0</hdop>
        <time>2013-07-09T18:20:34Z</time>
        <extensions>
          <speed>9.780945777893066</speed>
        </extensions>
      </trkpt>
      <trkpt lat="51.4439664" lon="9.0699139">
        <ele>230.3400001525879</ele>
        <hdop>5.0</hdop>
        <time>2013-07-09T18:20:40Z</time>
        <extensions>
          <speed>9.499288558959961</speed>
        </extensions>
      </trkpt>
      <trkpt lat="51.4440652" lon="9.0705582">
        <ele>227.3400001525879</ele>
        <hdop>5.0</hdop>
        <time>2013-07-09T18:20:45Z</time>
        <extensions>
          <speed>8.728936195373535</speed>
        </extensions>
      </trkpt>
      <trkpt lat="51.4443725" lon="9.0712324">
        <ele>231.3400001525879</ele>
        <hdop>5.0</hdop>
        <time>2013-07-09T18:20:51Z</time>
        <extensions>
          <speed>9.012070655822754</speed>
        </extensions>
      </trkpt>
      <trkpt lat="51.4446685" lon="9.0718345">
        <ele>227.3400001525879</ele>
        <hdop>5.0</hdop>
        <time>2013-07-09T18:20:57Z</time>
        <extensions>
          <speed>8.904637336730957</speed>
        </extensions>
      </trkpt>
      <trkpt lat="51.4448776" lon="9.0723692">
        <ele>227.3400001525879</ele>
        <hdop>5.0</hdop>
        <time>2013-07-09T18:21:02Z</time>
        <extensions>
          <speed>9.371052742004395</speed>
        </extensions>
      </trkpt>
      <trkpt lat="51.4450784" lon="9.0729783">
        <ele>228.3400001525879</ele>
        <hdop>5.0</hdop>
        <time>2013-07-09T18:21:07Z</time>
        <extensions>
          <speed>9.2944974899292</speed>
        </extensions>
      </trkpt>
      <trkpt lat="51.4452552" lon="9.0736048">
        <ele>228.3400001525879</ele>
        <hdop>5.0</hdop>
        <time>2013-07-09T18:21:12Z</time>
        <extensions>
          <speed>9.32506275177002</speed>
        </extensions>
      </trkpt>
      <trkpt lat="51.4454209" lon="9.0742045">
        <ele>225.3400001525879</ele>
        <hdop>5.0</hdop>
        <time>2013-07-09T18:21:17Z</time>
        <extensions>
          <speed>9.00883674621582</speed>
        </extensions>
      </trkpt>
      <trkpt lat="51.4455719" lon="9.0748081">
        <ele>226.3400001525879</ele>
        <hdop>5.0</hdop>
        <time>2013-07-09T18:21:22Z</time>
        <extensions>
          <speed>9.116812705993652</speed>
        </extensions>
      </trkpt>
      <trkpt lat="51.4457542" lon="9.075537">
        <ele>228.3400001525879</ele>
        <hdop>5.0</hdop>
        <time>2013-07-09T18:21:28Z</time>
        <extensions>
          <speed>8.929152488708496</speed>
        </extensions>
      </trkpt>
      <trkpt lat="51.4459438" lon="9.076121">
        <ele>226.3400001525879</ele>
        <hdop>5.0</hdop>
        <time>2013-07-09T18:21:33Z</time>
        <extensions>
          <speed>8.976275444030762</speed>
        </extensions>
      </trkpt>
      <trkpt lat="51.4461602" lon="9.0766545">
        <ele>226.3400001525879</ele>
        <hdop>5.0</hdop>
        <time>2013-07-09T18:21:38Z</time>
        <extensions>
          <speed>8.341789245605469</speed>
        </extensions>
      </trkpt>
      <trkpt lat="51.4464153" lon="9.0772064">
        <ele>228.3400001525879</ele>
        <hdop>5.0</hdop>
        <time>2013-07-09T18:21:44Z</time>
        <extensions>
          <speed>7.631042957305908</speed>
        </extensions>
      </trkpt>
      <trkpt lat="51.4466392" lon="9.0775964">
        <ele>229.3400001525879</ele>
        <hdop>5.0</hdop>
        <time>2013-07-09T18:21:49Z</time>
        <extensions>
          <speed>7.054495334625244</speed>
        </extensions>
      </trkpt>
      <trkpt lat="51.4469194" lon="9.0778926">
        <ele>229.3400001525879</ele>
        <hdop>5.0</hdop>
        <time>2013-07-09T18:21:54Z</time>
        <extensions>
          <speed>7.099729061126709</speed>
        </extensions>
      </trkpt>
      <trkpt lat="51.4473228" lon="9.0780494">
        <ele>229.3400001525879</ele>
        <hdop>5.0</hdop>
        <time>2013-07-09T18:22:00Z</time>
        <extensions>
          <speed>7.67191219329834</speed>
        </extensions>
      </trkpt>
      <trkpt lat="51.4477787" lon="9.0779613">
        <ele>228.3400001525879</ele>
        <hdop>5.0</hdop>
        <time>2013-07-09T18:22:06Z</time>
        <extensions>
          <speed>8.240996360778809</speed>
        </extensions>
      </trkpt>
      <trkpt lat="51.4481779" lon="9.0778419">
        <ele>227.3400001525879</ele>
        <hdop>5.0</hdop>
        <time>2013-07-09T18:22:11Z</time>
        <extensions>
          <speed>10.236181259155273</speed>
        </extensions>
      </trkpt>
      <trkpt lat="51.4487055" lon="9.0778722">
        <ele>224.3400001525879</ele>
        <hdop>5.0</hdop>
        <time>2013-07-09T18:22:17Z</time>
        <extensions>
          <speed>10.36771297454834</speed>
        </extensions>
      </trkpt>
      <trkpt lat="51.449032" lon="9.0784263">
        <ele>224.3400001525879</ele>
        <hdop>5.0</hdop>
        <time>2013-07-09T18:22:22Z</time>
        <extensions>
          <speed>10.650880813598633</speed>
        </extensions>
      </trkpt>
      <trkpt lat="51.4492512" lon="9.0793241">
        <ele>221.3400001525879</ele>
        <hdop>5.0</hdop>
        <time>2013-07-09T18:22:28Z</time>
        <extensions>
          <speed>10.381117820739746</speed>
        </extensions>
      </trkpt>
      <trkpt lat="51.4495699" lon="9.0799672">
        <ele>220.3400001525879</ele>
        <hdop>5.0</hdop>
        <time>2013-07-09T18:22:34Z</time>
        <extensions>
          <speed>9.80067253112793</speed>
        </extensions>
      </trkpt>
      <trkpt lat="51.4499088" lon="9.0804081">
        <ele>220.3400001525879</ele>
        <hdop>5.0</hdop>
        <time>2013-07-09T18:22:39Z</time>
        <extensions>
          <speed>9.303535461425781</speed>
        </extensions>
      </trkpt>
      <trkpt lat="51.4502314" lon="9.0808422">
        <ele>218.3400001525879</ele>
        <hdop>5.0</hdop>
        <time>2013-07-09T18:22:44Z</time>
        <extensions>
          <speed>8.956984519958496</speed>
        </extensions>
      </trkpt>
      <trkpt lat="51.4505633" lon="9.0814005">
        <ele>218.3400001525879</ele>
        <hdop>5.0</hdop>
        <time>2013-07-09T18:22:50Z</time>
        <extensions>
          <speed>8.554413795471191</speed>
        </extensions>
      </trkpt>
      <trkpt lat="51.4508859" lon="9.0820917">
        <ele>218.3400001525879</ele>
        <hdop>5.0</hdop>
        <time>2013-07-09T18:22:56Z</time>
        <extensions>
          <speed>10.727324485778809</speed>
        </extensions>
      </trkpt>
      <trkpt lat="51.4511547" lon="9.0828314">
        <ele>215.3400001525879</ele>
        <hdop>5.0</hdop>
        <time>2013-07-09T18:23:01Z</time>
        <extensions>
          <speed>11.833037376403809</speed>
        </extensions>
      </trkpt>
      <trkpt lat="51.4514043" lon="9.0836031">
        <ele>210.3400001525879</ele>
        <hdop>5.0</hdop>
        <time>2013-07-09T18:23:06Z</time>
        <extensions>
          <speed>11.624191284179688</speed>
        </extensions>
      </trkpt>
      <trkpt lat="51.4516569" lon="9.0845031">
        <ele>209.3400001525879</ele>
        <hdop>5.0</hdop>
        <time>2013-07-09T18:23:12Z</time>
        <extensions>
          <speed>11.059621810913086</speed>
        </extensions>
      </trkpt>
      <trkpt lat="51.4517028" lon="9.0852733">
        <ele>207.3400001525879</ele>
        <hdop>5.0</hdop>
        <time>2013-07-09T18:23:17Z</time>
        <extensions>
          <speed>10.145515441894531</speed>
        </extensions>
      </trkpt>
      <trkpt lat="51.451871" lon="9.0859581">
        <ele>204.3400001525879</ele>
        <hdop>10.0</hdop>
        <time>2013-07-09T18:23:22Z</time>
        <extensions>
          <speed>11.686483383178711</speed>
        </extensions>
      </trkpt>
      <trkpt lat="51.452269" lon="9.0867602">
        <ele>205.3400001525879</ele>
        <hdop>10.0</hdop>
        <time>2013-07-09T18:23:28Z</time>
        <extensions>
          <speed>11.160694122314453</speed>
        </extensions>
      </trkpt>
      <trkpt lat="51.4526435" lon="9.087559">
        <ele>205.3400001525879</ele>
        <hdop>5.0</hdop>
        <time>2013-07-09T18:23:34Z</time>
        <extensions>
          <speed>10.746825218200684</speed>
        </extensions>
      </trkpt>
      <trkpt lat="51.4529675" lon="9.0883502">
        <ele>199.3400001525879</ele>
        <hdop>10.0</hdop>
        <time>2013-07-09T18:23:40Z</time>
        <extensions>
          <speed>10.706855773925781</speed>
        </extensions>
      </trkpt>
      <trkpt lat="51.4532024" lon="9.0890397">
        <ele>197.3400001525879</ele>
        <hdop>5.0</hdop>
        <time>2013-07-09T18:23:45Z</time>
        <extensions>
          <speed>10.665155410766602</speed>
        </extensions>
      </trkpt>
      <trkpt lat="51.4533914" lon="9.089925">
        <ele>194.3400001525879</ele>
        <hdop>10.0</hdop>
        <time>2013-07-09T18:23:51Z</time>
        <extensions>
          <speed>11.1874418258667</speed>
        </extensions>
      </trkpt>
      <trkpt lat="51.453481" lon="9.0908809">
        <ele>192.3400001525879</ele>
        <hdop>10.0</hdop>
        <time>2013-07-09T18:23:57Z</time>
        <extensions>
          <speed>10.492512702941895</speed>
        </extensions>
      </trkpt>
      <trkpt lat="51.4534631" lon="9.0918294">
        <ele>194.3400001525879</ele>
        <hdop>5.0</hdop>
        <time>2013-07-09T18:24:03Z</time>
        <extensions>
          <speed>9.8480863571167</speed>
        </extensions>
      </trkpt>
      <trkpt lat="51.4533686" lon="9.0925926">
        <ele>198.3400001525879</ele>
        <hdop>10.0</hdop>
        <time>2013-07-09T18:24:08Z</time>
        <extensions>
          <speed>10.737715721130371</speed>
        </extensions>
      </trkpt>
      <trkpt lat="51.4531552" lon="9.0935413">
        <ele>197.3400001525879</ele>
        <hdop>10.0</hdop>
        <time>2013-07-09T18:24:14Z</time>
        <extensions>
          <speed>11.15361499786377</speed>
        </extensions>
      </trkpt>
      <trkpt lat="51.4528367" lon="9.0943852">
        <ele>196.3400001525879</ele>
        <hdop>10.0</hdop>
        <time>2013-07-09T18:24:20Z</time>
        <extensions>
          <speed>10.660466194152832</speed>
        </extensions>
      </trkpt>
      <trkpt lat="51.4525154" lon="9.0950163">
        <ele>194.3400001525879</ele>
        <hdop>10.0</hdop>
        <time>2013-07-09T18:24:25Z</time>
        <extensions>
          <speed>10.249635696411133</speed>
        </extensions>
      </trkpt>
      <trkpt lat="51.4521366" lon="9.0957614">
        <ele>189.3400001525879</ele>
        <hdop>10.0</hdop>
        <time>2013-07-09T18:24:31Z</time>
        <extensions>
          <speed>11.784867286682129</speed>
        </extensions>
      </trkpt>
      <trkpt lat="51.4520587" lon="9.0966551">
        <ele>187.3400001525879</ele>
        <hdop>5.0</hdop>
        <time>2013-07-09T18:24:36Z</time>
        <extensions>
          <speed>12.501971244812012</speed>
        </extensions>
      </trkpt>
      <trkpt lat="51.4521781" lon="9.0975306">
        <ele>183.3400001525879</ele>
        <hdop>10.0</hdop>
        <time>2013-07-09T18:24:41Z</time>
        <extensions>
          <speed>11.978690147399902</speed>
        </extensions>
      </trkpt>
      <trkpt lat="51.4523502" lon="9.0985165">
        <ele>184.3400001525879</ele>
        <hdop>10.0</hdop>
        <time>2013-07-09T18:24:47Z</time>
        <extensions>
          <speed>11.186741828918457</speed>
        </extensions>
      </trkpt>
      <trkpt lat="51.4525765" lon="9.0994782">
        <ele>183.3400001525879</ele>
        <hdop>10.0</hdop>
        <time>2013-07-09T18:24:53Z</time>
        <extensions>
          <speed>10.806007385253906</speed>
        </extensions>
      </trkpt>
      <trkpt lat="51.4527913" lon="9.1002325">
        <ele>184.3400001525879</ele>
        <hdop>10.0</hdop>
        <time>2013-07-09T18:24:58Z</time>
        <extensions>
          <speed>11.731135368347168</speed>
        </extensions>
      </trkpt>
      <trkpt lat="51.453146" lon="9.1010187">
        <ele>179.3400001525879</ele>
        <hdop>10.0</hdop>
        <time>2013-07-09T18:25:04Z</time>
        <extensions>
          <speed>11.674905776977539</speed>
        </extensions>
      </trkpt>
      <trkpt lat="51.4534239" lon="9.1018761">
        <ele>180.3400001525879</ele>
        <hdop>10.0</hdop>
        <time>2013-07-09T18:25:10Z</time>
        <extensions>
          <speed>9.254375457763672</speed>
        </extensions>
      </trkpt>
      <trkpt lat="51.4535866" lon="9.1026479">
        <ele>183.3400001525879</ele>
        <hdop>5.0</hdop>
        <time>2013-07-09T18:25:16Z</time>
        <extensions>
          <speed>8.8660888671875</speed>
        </extensions>
      </trkpt>
      <trkpt lat="51.4537126" lon="9.1033981">
        <ele>184.3400001525879</ele>
        <hdop>5.0</hdop>
        <time>2013-07-09T18:25:22Z</time>
        <extensions>
          <speed>8.272385597229004</speed>
        </extensions>
      </trkpt>
      <trkpt lat="51.4537716" lon="9.1042065">
        <ele>183.3400001525879</ele>
        <hdop>5.0</hdop>
        <time>2013-07-09T18:25:28Z</time>
        <extensions>
          <speed>9.139652252197266</speed>
        </extensions>
      </trkpt>
      <trkpt lat="51.453865" lon="9.1050218">
        <ele>178.3400001525879</ele>
        <hdop>5.0</hdop>
        <time>2013-07-09T18:25:34Z</time>
        <extensions>
          <speed>9.189459800720215</speed>
        </extensions>
      </trkpt>
      <trkpt lat="51.4539491" lon="9.1056786">
        <ele>176.3400001525879</ele>
        <hdop>5.0</hdop>
        <time>2013-07-09T18:25:39Z</time>
        <extensions>
          <speed>9.442465782165527</speed>
        </extensions>
      </trkpt>
      <trkpt lat="51.4540589" lon="9.1064731">
        <ele>176.3400001525879</ele>
        <hdop>5.0</hdop>
        <time>2013-07-09T18:25:45Z</time>
        <extensions>
          <speed>9.362375259399414</speed>
        </extensions>
      </trkpt>
      <trkpt lat="51.4540686" lon="9.107349">
        <ele>178.3400001525879</ele>
        <hdop>5.0</hdop>
        <time>2013-07-09T18:25:51Z</time>
        <extensions>
          <speed>10.136656761169434</speed>
        </extensions>
      </trkpt>
      <trkpt lat="51.4540617" lon="9.1081745">
        <ele>175.3400001525879</ele>
        <hdop>5.0</hdop>
        <time>2013-07-09T18:25:57Z</time>
        <extensions>
          <speed>9.509719848632813</speed>
        </extensions>
      </trkpt>
      <trkpt lat="51.4540732" lon="9.1089588">
        <ele>173.3400001525879</ele>
        <hdop>5.0</hdop>
        <time>2013-07-09T18:26:03Z</time>
        <extensions>
          <speed>7.492772579193115</speed>
        </extensions>
      </trkpt>
      <trkpt lat="51.4540854" lon="9.1095154">
        <ele>174.3400001525879</ele>
        <hdop>5.0</hdop>
        <time>2013-07-09T18:26:09Z</time>
        <extensions>
          <speed>3.8691625595092773</speed>
        </extensions>
      </trkpt>
      <trkpt lat="51.4540881" lon="9.1096985">
        <ele>177.3400001525879</ele>
        <hdop>10.0</hdop>
        <time>2013-07-09T18:26:14Z</time>
        <extensions>
          <speed>1.5680941343307495</speed>
        </extensions>
      </trkpt>
      <trkpt lat="51.4541522" lon="9.109736">
        <ele>175.3400001525879</ele>
        <hdop>5.0</hdop>
        <time>2013-07-09T18:26:19Z</time>
        <extensions>
          <speed>1.3898135423660278</speed>
        </extensions>
      </trkpt>
      <trkpt lat="51.4541359" lon="9.1097039">
        <ele>175.3400001525879</ele>
        <hdop>10.0</hdop>
        <time>2013-07-09T18:26:25Z</time>
        <extensions>
          <speed>3.0880813598632813</speed>
        </extensions>
      </trkpt>
      <trkpt lat="51.4538608" lon="9.1097976">
        <ele>175.3400001525879</ele>
        <hdop>10.0</hdop>
        <time>2013-07-09T18:26:31Z</time>
        <extensions>
          <speed>6.50459098815918</speed>
        </extensions>
      </trkpt>
      <trkpt lat="51.4535464" lon="9.1099713">
        <ele>169.3400001525879</ele>
        <hdop>5.0</hdop>
        <time>2013-07-09T18:26:36Z</time>
        <extensions>
          <speed>6.824986457824707</speed>
        </extensions>
      </trkpt>
      <trkpt lat="51.4532557" lon="9.1102186">
        <ele>170.3400001525879</ele>
        <hdop>10.0</hdop>
        <time>2013-07-09T18:26:41Z</time>
        <extensions>
          <speed>6.882002353668213</speed>
        </extensions>
      </trkpt>
      <trkpt lat="51.4530474" lon="9.1106674">
        <ele>171.3400001525879</ele>
        <hdop>5.0</hdop>
        <time>2013-07-09T18:26:46Z</time>
        <extensions>
          <speed>6.525890827178955</speed>
        </extensions>
      </trkpt>
      <trkpt lat="51.4530219" lon="9.1113693">
        <ele>168.3400001525879</ele>
        <hdop>10.0</hdop>
        <time>2013-07-09T18:26:52Z</time>
        <extensions>
          <speed>6.898019790649414</speed>
        </extensions>
      </trkpt>
      <trkpt lat="51.4530436" lon="9.1120664">
        <ele>170.3400001525879</ele>
        <hdop>10.0</hdop>
        <time>2013-07-09T18:26:58Z</time>
        <extensions>
          <speed>7.9727935791015625</speed>
        </extensions>
      </trkpt>
      <trkpt lat="51.4530989" lon="9.1127628">
        <ele>168.3400001525879</ele>
        <hdop>5.0</hdop>
        <time>2013-07-09T18:27:04Z</time>
        <extensions>
          <speed>7.481956958770752</speed>
        </extensions>
      </trkpt>
      <trkpt lat="51.453221" lon="9.1133868">
        <ele>170.3400001525879</ele>
        <hdop>5.0</hdop>
        <time>2013-07-09T18:27:10Z</time>
        <extensions>
          <speed>7.048058032989502</speed>
        </extensions>
      </trkpt>
      <trkpt lat="51.4534845" lon="9.1137645">
        <ele>167.3400001525879</ele>
        <hdop>5.0</hdop>
        <time>2013-07-09T18:27:15Z</time>
        <extensions>
          <speed>6.604072093963623</speed>
        </extensions>
      </trkpt>
      <trkpt lat="51.4537836" lon="9.114172">
        <ele>178.3400001525879</ele>
        <hdop>5.0</hdop>
        <time>2013-07-09T18:27:21Z</time>
        <extensions>
          <speed>5.725636959075928</speed>
        </extensions>
      </trkpt>
      <trkpt lat="51.4539846" lon="9.1145252">
        <ele>171.3400001525879</ele>
        <hdop>5.0</hdop>
        <time>2013-07-09T18:27:26Z</time>
        <extensions>
          <speed>5.975626468658447</speed>
        </extensions>
      </trkpt>
      <trkpt lat="51.4540225" lon="9.1149341">
        <ele>168.3400001525879</ele>
        <hdop>10.0</hdop>
        <time>2013-07-09T18:27:31Z</time>
        <extensions>
          <speed>4.848443508148193</speed>
        </extensions>
      </trkpt>
      <trkpt lat="51.453663" lon="9.115124">
        <ele>171.3400001525879</ele>
        <hdop>10.0</hdop>
        <time>2013-07-09T18:27:37Z</time>
        <extensions>
          <speed>7.128218173980713</speed>
        </extensions>
      </trkpt>
      <trkpt lat="51.4532464" lon="9.1152555">
        <ele>167.3400001525879</ele>
        <hdop>5.0</hdop>
        <time>2013-07-09T18:27:43Z</time>
        <extensions>
          <speed>6.853610992431641</speed>
        </extensions>
      </trkpt>
      <trkpt lat="51.4529123" lon="9.1154287">
        <ele>174.3400001525879</ele>
        <hdop>5.0</hdop>
        <time>2013-07-09T18:27:48Z</time>
        <extensions>
          <speed>7.3725409507751465</speed>
        </extensions>
      </trkpt>
      <trkpt lat="51.4528162" lon="9.1158512">
        <ele>170.3400001525879</ele>
        <hdop>5.0</hdop>
        <time>2013-07-09T18:27:53Z</time>
        <extensions>
          <speed>6.318828105926514</speed>
        </extensions>
      </trkpt>
      <trkpt lat="51.4530567" lon="9.1163349">
        <ele>173.3400001525879</ele>
        <hdop>5.0</hdop>
        <time>2013-07-09T18:27:59Z</time>
        <extensions>
          <speed>7.053979873657227</speed>
        </extensions>
      </trkpt>
      <trkpt lat="51.453337" lon="9.1167206">
        <ele>176.3400001525879</ele>
        <hdop>10.0</hdop>
        <time>2013-07-09T18:28:05Z</time>
        <extensions>
          <speed>6.441783428192139</speed>
        </extensions>
      </trkpt>
      <trkpt lat="51.4536254" lon="9.1168614">
        <ele>176.3400001525879</ele>
        <hdop>5.0</hdop>
        <time>2013-07-09T18:28:10Z</time>
        <extensions>
          <speed>5.533929347991943</speed>
        </extensions>
      </trkpt>
      <trkpt lat="51.4539679" lon="9.1170753">
        <ele>175.3400001525879</ele>
        <hdop>5.0</hdop>
        <time>2013-07-09T18:28:16Z</time>
        <extensions>
          <speed>5.646456241607666</speed>
        </extensions>
      </trkpt>
      <trkpt lat="51.4542734" lon="9.1172521">
        <ele>173.3400001525879</ele>
        <hdop>10.0</hdop>
        <time>2013-07-09T18:28:21Z</time>
        <extensions>
          <speed>6.06169319152832</speed>
        </extensions>
      </trkpt>
      <trkpt lat="51.4546978" lon="9.1174036">
        <ele>171.3400001525879</ele>
        <hdop>5.0</hdop>
        <time>2013-07-09T18:28:27Z</time>
        <extensions>
          <speed>7.4845871925354</speed>
        </extensions>
      </trkpt>
      <trkpt lat="51.4550642" lon="9.1174673">
        <ele>171.3400001525879</ele>
        <hdop>10.0</hdop>
        <time>2013-07-09T18:28:32Z</time>
        <extensions>
          <speed>7.349527359008789</speed>
        </extensions>
      </trkpt>
      <trkpt lat="51.4555046" lon="9.1174303">
        <ele>168.3400001525879</ele>
        <hdop>5.0</hdop>
        <time>2013-07-09T18:28:38Z</time>
        <extensions>
          <speed>7.59189510345459</speed>
        </extensions>
      </trkpt>
      <trkpt lat="51.4559943" lon="9.1173514">
        <ele>172.3400001525879</ele>
        <hdop>5.0</hdop>
        <time>2013-07-09T18:28:44Z</time>
        <extensions>
          <speed>8.801533699035645</speed>
        </extensions>
      </trkpt>
      <trkpt lat="51.45646" lon="9.117271">
        <ele>172.3400001525879</ele>
        <hdop>5.0</hdop>
        <time>2013-07-09T18:28:50Z</time>
        <extensions>
          <speed>8.070241928100586</speed>
        </extensions>
      </trkpt>
      <trkpt lat="51.4569377" lon="9.1171422">
        <ele>172.3400001525879</ele>
        <hdop>5.0</hdop>
        <time>2013-07-09T18:28:56Z</time>
        <extensions>
          <speed>8.220833778381348</speed>
        </extensions>
      </trkpt>
      <trkpt lat="51.4572989" lon="9.1170514">
        <ele>170.3400001525879</ele>
        <hdop>10.0</hdop>
        <time>2013-07-09T18:29:01Z</time>
        <extensions>
          <speed>6.4924798011779785</speed>
        </extensions>
      </trkpt>
      <trkpt lat="51.4576515" lon="9.1168513">
        <ele>169.3400001525879</ele>
        <hdop>10.0</hdop>
        <time>2013-07-09T18:29:06Z</time>
        <extensions>
          <speed>5.981122016906738</speed>
        </extensions>
      </trkpt>
      <trkpt lat="51.4580752" lon="9.1165873">
        <ele>167.3400001525879</ele>
        <hdop>10.0</hdop>
        <time>2013-07-09T18:29:12Z</time>
        <extensions>
          <speed>6.007774829864502</speed>
        </extensions>
      </trkpt>
      <trkpt lat="51.4584502" lon="9.1164241">
        <ele>169.3400001525879</ele>
        <hdop>15.0</hdop>
        <time>2013-07-09T18:29:17Z</time>
        <extensions>
          <speed>7.193657875061035</speed>
        </extensions>
      </trkpt>
      <trkpt lat="51.4588801" lon="9.1163901">
        <ele>170.3400001525879</ele>
        <hdop>15.0</hdop>
        <time>2013-07-09T18:29:22Z</time>
        <extensions>
          <speed>7.082583427429199</speed>
        </extensions>
      </trkpt>
      <trkpt lat="51.4593009" lon="9.1164291">
        <ele>168.3400001525879</ele>
        <hdop>10.0</hdop>
        <time>2013-07-09T18:29:27Z</time>
        <extensions>
          <speed>7.921019554138184</speed>
        </extensions>
      </trkpt>
      <trkpt lat="51.4597972" lon="9.1165155">
        <ele>171.3400001525879</ele>
        <hdop>10.0</hdop>
        <time>2013-07-09T18:29:33Z</time>
        <extensions>
          <speed>7.394558906555176</speed>
        </extensions>
      </trkpt>
      <trkpt lat="51.4602985" lon="9.1166756">
        <ele>171.3400001525879</ele>
        <hdop>10.0</hdop>
        <time>2013-07-09T18:29:39Z</time>
        <extensions>
          <speed>6.848421573638916</speed>
        </extensions>
      </trkpt>
      <trkpt lat="51.4606419" lon="9.1168401">
        <ele>170.3400001525879</ele>
        <hdop>10.0</hdop>
        <time>2013-07-09T18:29:44Z</time>
        <extensions>
          <speed>6.147491931915283</speed>
        </extensions>
      </trkpt>
      <trkpt lat="51.4611135" lon="9.1170636">
        <ele>166.3400001525879</ele>
        <hdop>10.0</hdop>
        <time>2013-07-09T18:29:50Z</time>
        <extensions>
          <speed>6.729928493499756</speed>
        </extensions>
      </trkpt>
      <trkpt lat="51.4616046" lon="9.1173245">
        <ele>166.3400001525879</ele>
        <hdop>5.0</hdop>
        <time>2013-07-09T18:29:56Z</time>
        <extensions>
          <speed>8.413433074951172</speed>
        </extensions>
      </trkpt>
      <trkpt lat="51.4620143" lon="9.1175245">
        <ele>165.3400001525879</ele>
        <hdop>10.0</hdop>
        <time>2013-07-09T18:30:01Z</time>
        <extensions>
          <speed>8.17990493774414</speed>
        </extensions>
      </trkpt>
      <trkpt lat="51.4624108" lon="9.1177871">
        <ele>169.3400001525879</ele>
        <hdop>10.0</hdop>
        <time>2013-07-09T18:30:07Z</time>
        <extensions>
          <speed>4.856708526611328</speed>
        </extensions>
      </trkpt>
      <trkpt lat="51.4627992" lon="9.1181651">
        <ele>168.3400001525879</ele>
        <hdop>10.0</hdop>
        <time>2013-07-09T18:30:13Z</time>
        <extensions>
          <speed>6.646469593048096</speed>
        </extensions>
      </trkpt>
      <trkpt lat="51.4631383" lon="9.1185641">
        <ele>173.3400001525879</ele>
        <hdop>15.0</hdop>
        <time>2013-07-09T18:30:18Z</time>
        <extensions>
          <speed>7.522106170654297</speed>
        </extensions>
      </trkpt>
      <trkpt lat="51.4634879" lon="9.1190015">
        <ele>169.3400001525879</ele>
        <hdop>10.0</hdop>
        <time>2013-07-09T18:30:23Z</time>
        <extensions>
          <speed>8.002347946166992</speed>
        </extensions>
      </trkpt>
      <trkpt lat="51.4638808" lon="9.1195137">
        <ele>165.3400001525879</ele>
        <hdop>10.0</hdop>
        <time>2013-07-09T18:30:29Z</time>
        <extensions>
          <speed>6.042062759399414</speed>
        </extensions>
      </trkpt>
      <trkpt lat="51.4641753" lon="9.1198817">
        <ele>166.3400001525879</ele>
        <hdop>15.0</hdop>
        <time>2013-07-09T18:30:35Z</time>
        <extensions>
          <speed>6.441147327423096</speed>
        </extensions>
      </trkpt>
      <trkpt lat="51.4644947" lon="9.1202498">
        <ele>168.3400001525879</ele>
        <hdop>10.0</hdop>
        <time>2013-07-09T18:30:40Z</time>
        <extensions>
          <speed>4.898186683654785</speed>
        </extensions>
      </trkpt>
      <trkpt lat="51.4648725" lon="9.1206114">
        <ele>168.3400001525879</ele>
        <hdop>10.0</hdop>
        <time>2013-07-09T18:30:46Z</time>
        <extensions>
          <speed>6.076906681060791</speed>
        </extensions>
      </trkpt>
      <trkpt lat="51.4651966" lon="9.1209883">
        <ele>166.3400001525879</ele>
        <hdop>15.0</hdop>
        <time>2013-07-09T18:30:52Z</time>
        <extensions>
          <speed>6.414933204650879</speed>
        </extensions>
      </trkpt>
      <trkpt lat="51.4656552" lon="9.1214595">
        <ele>169.3400001525879</ele>
        <hdop>10.0</hdop>
        <time>2013-07-09T18:30:58Z</time>
        <extensions>
          <speed>5.172143936157227</speed>
        </extensions>
      </trkpt>
      <trkpt lat="51.4662077" lon="9.1218964">
        <ele>166.3400001525879</ele>
        <hdop>5.0</hdop>
        <time>2013-07-09T18:31:04Z</time>
        <extensions>
          <speed>7.926486492156982</speed>
        </extensions>
      </trkpt>
      <trkpt lat="51.4665899" lon="9.1220638">
        <ele>168.3400001525879</ele>
        <hdop>5.0</hdop>
        <time>2013-07-09T18:31:09Z</time>
        <extensions>
          <speed>8.13313102722168</speed>
        </extensions>
      </trkpt>
      <trkpt lat="51.4670553" lon="9.1221763">
        <ele>164.3400001525879</ele>
        <hdop>5.0</hdop>
        <time>2013-07-09T18:31:15Z</time>
        <extensions>
          <speed>8.666433334350586</speed>
        </extensions>
      </trkpt>
      <trkpt lat="51.4674592" lon="9.1221872">
        <ele>167.3400001525879</ele>
        <hdop>5.0</hdop>
        <time>2013-07-09T18:31:20Z</time>
        <extensions>
          <speed>8.572151184082031</speed>
        </extensions>
      </trkpt>
      <trkpt lat="51.4679414" lon="9.1221279">
        <ele>168.3400001525879</ele>
        <hdop>5.0</hdop>
        <time>2013-07-09T18:31:26Z</time>
        <extensions>
          <speed>8.091081619262695</speed>
        </extensions>
      </trkpt>
      <trkpt lat="51.4684076" lon="9.1220644">
        <ele>165.3400001525879</ele>
        <hdop>5.0</hdop>
        <time>2013-07-09T18:31:32Z</time>
        <extensions>
          <speed>8.527792930603027</speed>
        </extensions>
      </trkpt>
      <trkpt lat="51.4687842" lon="9.1220159">
        <ele>165.3400001525879</ele>
        <hdop>5.0</hdop>
        <time>2013-07-09T18:31:37Z</time>
        <extensions>
          <speed>8.152294158935547</speed>
        </extensions>
      </trkpt>
      <trkpt lat="51.4691474" lon="9.1219664">
        <ele>163.3400001525879</ele>
        <hdop>5.0</hdop>
        <time>2013-07-09T18:31:42Z</time>
        <extensions>
          <speed>8.285758018493652</speed>
        </extensions>
      </trkpt>
      <trkpt lat="51.4695929" lon="9.1219179">
        <ele>163.3400001525879</ele>
        <hdop>5.0</hdop>
        <time>2013-07-09T18:31:48Z</time>
        <extensions>
          <speed>7.942727565765381</speed>
        </extensions>
      </trkpt>
      <trkpt lat="51.470073" lon="9.1219405">
        <ele>167.3400001525879</ele>
        <hdop>5.0</hdop>
        <time>2013-07-09T18:31:54Z</time>
        <extensions>
          <speed>7.8225860595703125</speed>
        </extensions>
      </trkpt>
      <trkpt lat="51.4704639" lon="9.1220206">
        <ele>165.3400001525879</ele>
        <hdop>10.0</hdop>
        <time>2013-07-09T18:31:59Z</time>
        <extensions>
          <speed>7.644681930541992</speed>
        </extensions>
      </trkpt>
      <trkpt lat="51.470902" lon="9.1221539">
        <ele>164.3400001525879</ele>
        <hdop>5.0</hdop>
        <time>2013-07-09T18:32:05Z</time>
        <extensions>
          <speed>8.284252166748047</speed>
        </extensions>
      </trkpt>
      <trkpt lat="51.4712724" lon="9.1223203">
        <ele>166.3400001525879</ele>
        <hdop>5.0</hdop>
        <time>2013-07-09T18:32:10Z</time>
        <extensions>
          <speed>7.913239002227783</speed>
        </extensions>
      </trkpt>
      <trkpt lat="51.4716857" lon="9.1226086">
        <ele>165.3400001525879</ele>
        <hdop>5.0</hdop>
        <time>2013-07-09T18:32:16Z</time>
        <extensions>
          <speed>7.878296375274658</speed>
        </extensions>
      </trkpt>
      <trkpt lat="51.47202" lon="9.1229365">
        <ele>165.3400001525879</ele>
        <hdop>5.0</hdop>
        <time>2013-07-09T18:32:21Z</time>
        <extensions>
          <speed>7.257551193237305</speed>
        </extensions>
      </trkpt>
      <trkpt lat="51.4723514" lon="9.1233968">
        <ele>171.3400001525879</ele>
        <hdop>5.0</hdop>
        <time>2013-07-09T18:32:27Z</time>
        <extensions>
          <speed>7.545450210571289</speed>
        </extensions>
      </trkpt>
      <trkpt lat="51.4726689" lon="9.124006">
        <ele>166.3400001525879</ele>
        <hdop>5.0</hdop>
        <time>2013-07-09T18:32:33Z</time>
        <extensions>
          <speed>8.750149726867676</speed>
        </extensions>
      </trkpt>
      <trkpt lat="51.4728735" lon="9.1245572">
        <ele>167.3400001525879</ele>
        <hdop>5.0</hdop>
        <time>2013-07-09T18:32:38Z</time>
        <extensions>
          <speed>8.37514877319336</speed>
        </extensions>
      </trkpt>
      <trkpt lat="51.4730395" lon="9.1251362">
        <ele>165.3400001525879</ele>
        <hdop>5.0</hdop>
        <time>2013-07-09T18:32:43Z</time>
        <extensions>
          <speed>8.630820274353027</speed>
        </extensions>
      </trkpt>
      <trkpt lat="51.4732414" lon="9.125812">
        <ele>165.3400001525879</ele>
        <hdop>5.0</hdop>
        <time>2013-07-09T18:32:49Z</time>
        <extensions>
          <speed>8.748163223266602</speed>
        </extensions>
      </trkpt>
      <trkpt lat="51.4734431" lon="9.1264807">
        <ele>162.3400001525879</ele>
        <hdop>10.0</hdop>
        <time>2013-07-09T18:32:55Z</time>
        <extensions>
          <speed>8.07210636138916</speed>
        </extensions>
      </trkpt>
      <trkpt lat="51.4736237" lon="9.1270055">
        <ele>167.3400001525879</ele>
        <hdop>5.0</hdop>
        <time>2013-07-09T18:33:00Z</time>
        <extensions>
          <speed>7.952156066894531</speed>
        </extensions>
      </trkpt>
      <trkpt lat="51.4737858" lon="9.1274816">
        <ele>167.3400001525879</ele>
        <hdop>10.0</hdop>
        <time>2013-07-09T18:33:06Z</time>
        <extensions>
          <speed>2.371533155441284</speed>
        </extensions>
      </trkpt>
      <trkpt lat="51.4738215" lon="9.1276962">
        <ele>169.3400001525879</ele>
        <hdop>5.0</hdop>
        <time>2013-07-09T18:33:11Z</time>
        <extensions>
          <speed>2.035611152648926</speed>
        </extensions>
      </trkpt>
      <trkpt lat="51.4739185" lon="9.1281479">
        <ele>168.3400001525879</ele>
        <hdop>10.0</hdop>
        <time>2013-07-09T18:33:17Z</time>
        <extensions>
          <speed>6.682625770568848</speed>
        </extensions>
      </trkpt>
      <trkpt lat="51.4740955" lon="9.1287906">
        <ele>168.3400001525879</ele>
        <hdop>5.0</hdop>
        <time>2013-07-09T18:33:23Z</time>
        <extensions>
          <speed>7.9910101890563965</speed>
        </extensions>
      </trkpt>
      <trkpt lat="51.4742966" lon="9.1295089">
        <ele>165.3400001525879</ele>
        <hdop>5.0</hdop>
        <time>2013-07-09T18:33:29Z</time>
        <extensions>
          <speed>8.582942962646484</speed>
        </extensions>
      </trkpt>
      <trkpt lat="51.4744454" lon="9.1301048">
        <ele>164.3400001525879</ele>
        <hdop>5.0</hdop>
        <time>2013-07-09T18:33:34Z</time>
        <extensions>
          <speed>8.863180160522461</speed>
        </extensions>
      </trkpt>
      <trkpt lat="51.474627" lon="9.1308171">
        <ele>163.3400001525879</ele>
        <hdop>5.0</hdop>
        <time>2013-07-09T18:33:40Z</time>
        <extensions>
          <speed>8.611069679260254</speed>
        </extensions>
      </trkpt>
      <trkpt lat="51.4747781" lon="9.1313924">
        <ele>164.3400001525879</ele>
        <hdop>5.0</hdop>
        <time>2013-07-09T18:33:45Z</time>
        <extensions>
          <speed>8.376760482788086</speed>
        </extensions>
      </trkpt>
      <trkpt lat="51.4749486" lon="9.1320289">
        <ele>160.3400001525879</ele>
        <hdop>5.0</hdop>
        <time>2013-07-09T18:33:51Z</time>
        <extensions>
          <speed>7.55390739440918</speed>
        </extensions>
      </trkpt>
      <trkpt lat="51.475118" lon="9.132649">
        <ele>161.3400001525879</ele>
        <hdop>5.0</hdop>
        <time>2013-07-09T18:33:57Z</time>
        <extensions>
          <speed>7.643274307250977</speed>
        </extensions>
      </trkpt>
      <trkpt lat="51.4752895" lon="9.1333099">
        <ele>163.3400001525879</ele>
        <hdop>5.0</hdop>
        <time>2013-07-09T18:34:03Z</time>
        <extensions>
          <speed>7.9481000900268555</speed>
        </extensions>
      </trkpt>
      <trkpt lat="51.4754635" lon="9.1339445">
        <ele>164.3400001525879</ele>
        <hdop>5.0</hdop>
        <time>2013-07-09T18:34:09Z</time>
        <extensions>
          <speed>7.5377302169799805</speed>
        </extensions>
      </trkpt>
      <trkpt lat="51.4756168" lon="9.1345587">
        <ele>160.3400001525879</ele>
        <hdop>5.0</hdop>
        <time>2013-07-09T18:34:15Z</time>
        <extensions>
          <speed>7.709310531616211</speed>
        </extensions>
      </trkpt>
      <trkpt lat="51.4758392" lon="9.1351819">
        <ele>160.3400001525879</ele>
        <hdop>5.0</hdop>
        <time>2013-07-09T18:34:21Z</time>
        <extensions>
          <speed>8.38625431060791</speed>
        </extensions>
      </trkpt>
      <trkpt lat="51.4761494" lon="9.135795">
        <ele>164.3400001525879</ele>
        <hdop>5.0</hdop>
        <time>2013-07-09T18:34:27Z</time>
        <extensions>
          <speed>8.474575996398926</speed>
        </extensions>
      </trkpt>
      <trkpt lat="51.4764074" lon="9.1362495">
        <ele>167.3400001525879</ele>
        <hdop>5.0</hdop>
        <time>2013-07-09T18:34:32Z</time>
        <extensions>
          <speed>6.09184455871582</speed>
        </extensions>
      </trkpt>
      <trkpt lat="51.476665" lon="9.136734">
        <ele>171.3400001525879</ele>
        <hdop>10.0</hdop>
        <time>2013-07-09T18:34:38Z</time>
        <extensions>
          <speed>7.2517242431640625</speed>
        </extensions>
      </trkpt>
      <trkpt lat="51.4768806" lon="9.1372617">
        <ele>169.3400001525879</ele>
        <hdop>10.0</hdop>
        <time>2013-07-09T18:34:43Z</time>
        <extensions>
          <speed>7.2808027267456055</speed>
        </extensions>
      </trkpt>
      <trkpt lat="51.4771569" lon="9.1379447">
        <ele>163.3400001525879</ele>
        <hdop>10.0</hdop>
        <time>2013-07-09T18:34:49Z</time>
        <extensions>
          <speed>6.392969608306885</speed>
        </extensions>
      </trkpt>
      <trkpt lat="51.4773069" lon="9.1384249">
        <ele>164.3400001525879</ele>
        <hdop>10.0</hdop>
        <time>2013-07-09T18:34:54Z</time>
        <extensions>
          <speed>6.654804706573486</speed>
        </extensions>
      </trkpt>
      <trkpt lat="51.4774743" lon="9.1389615">
        <ele>159.3400001525879</ele>
        <hdop>10.0</hdop>
        <time>2013-07-09T18:34:59Z</time>
        <extensions>
          <speed>5.1436872482299805</speed>
        </extensions>
      </trkpt>
      <trkpt lat="51.4776766" lon="9.1396228">
        <ele>167.3400001525879</ele>
        <hdop>10.0</hdop>
        <time>2013-07-09T18:35:05Z</time>
        <extensions>
          <speed>5.032752513885498</speed>
        </extensions>
      </trkpt>
      <trkpt lat="51.4778815" lon="9.1402758">
        <ele>164.3400001525879</ele>
        <hdop>5.0</hdop>
        <time>2013-07-09T18:35:11Z</time>
        <extensions>
          <speed>4.642884731292725</speed>
        </extensions>
      </trkpt>
      <trkpt lat="51.4780028" lon="9.1407361">
        <ele>159.3400001525879</ele>
        <hdop>10.0</hdop>
        <time>2013-07-09T18:35:16Z</time>
        <extensions>
          <speed>4.193853378295898</speed>
        </extensions>
      </trkpt>
      <trkpt lat="51.4781809" lon="9.1413068">
        <ele>161.3400001525879</ele>
        <hdop>10.0</hdop>
        <time>2013-07-09T18:35:22Z</time>
        <extensions>
          <speed>5.092129230499268</speed>
        </extensions>
      </trkpt>
      <trkpt lat="51.4784222" lon="9.1419554">
        <ele>157.3400001525879</ele>
        <hdop>10.0</hdop>
        <time>2013-07-09T18:35:27Z</time>
        <extensions>
          <speed>5.8864030838012695</speed>
        </extensions>
      </trkpt>
      <trkpt lat="51.4786669" lon="9.1425629">
        <ele>149.3400001525879</ele>
        <hdop>5.0</hdop>
        <time>2013-07-09T18:35:33Z</time>
        <extensions>
          <speed>6.043906211853027</speed>
        </extensions>
      </trkpt>
      <trkpt lat="51.4788889" lon="9.1429922">
        <ele>160.3400001525879</ele>
        <hdop>10.0</hdop>
        <time>2013-07-09T18:35:38Z</time>
        <extensions>
          <speed>6.626395225524902</speed>
        </extensions>
      </trkpt>
      <trkpt lat="51.479197" lon="9.1436223">
        <ele>163.3400001525879</ele>
        <hdop>5.0</hdop>
        <time>2013-07-09T18:35:44Z</time>
        <extensions>
          <speed>7.85721492767334</speed>
        </extensions>
      </trkpt>
      <trkpt lat="51.4794401" lon="9.1440685">
        <ele>156.3400001525879</ele>
        <hdop>5.0</hdop>
        <time>2013-07-09T18:35:49Z</time>
        <extensions>
          <speed>6.309576511383057</speed>
        </extensions>
      </trkpt>
      <trkpt lat="51.4796503" lon="9.1444284">
        <ele>161.3400001525879</ele>
        <hdop>10.0</hdop>
        <time>2013-07-09T18:35:54Z</time>
        <extensions>
          <speed>3.8579678535461426</speed>
        </extensions>
      </trkpt>
      <trkpt lat="51.4797393" lon="9.1448942">
        <ele>171.3400001525879</ele>
        <hdop>10.0</hdop>
        <time>2013-07-09T18:36:00Z</time>
        <extensions>
          <speed>5.572319507598877</speed>
        </extensions>
      </trkpt>
      <trkpt lat="51.4799325" lon="9.145288">
        <ele>170.3400001525879</ele>
        <hdop>10.0</hdop>
        <time>2013-07-09T18:36:05Z</time>
        <extensions>
          <speed>5.364067077636719</speed>
        </extensions>
      </trkpt>
      <trkpt lat="51.4802018" lon="9.1458126">
        <ele>175.3400001525879</ele>
        <hdop>5.0</hdop>
        <time>2013-07-09T18:36:11Z</time>
        <extensions>
          <speed>6.167556285858154</speed>
        </extensions>
      </trkpt>
      <trkpt lat="51.4804706" lon="9.1462518">
        <ele>177.3400001525879</ele>
        <hdop>10.0</hdop>
        <time>2013-07-09T18:36:16Z</time>
        <extensions>
          <speed>7.143321990966797</speed>
        </extensions>
      </trkpt>
      <trkpt lat="51.4807425" lon="9.1466283">
        <ele>173.3400001525879</ele>
        <hdop>5.0</hdop>
        <time>2013-07-09T18:36:21Z</time>
        <extensions>
          <speed>7.375899791717529</speed>
        </extensions>
      </trkpt>
      <trkpt lat="51.4810903" lon="9.1470568">
        <ele>170.3400001525879</ele>
        <hdop>5.0</hdop>
        <time>2013-07-09T18:36:26Z</time>
        <extensions>
          <speed>8.742436408996582</speed>
        </extensions>
      </trkpt>
      <trkpt lat="51.4814528" lon="9.1475205">
        <ele>166.3400001525879</ele>
        <hdop>5.0</hdop>
        <time>2013-07-09T18:36:32Z</time>
        <extensions>
          <speed>8.751065254211426</speed>
        </extensions>
      </trkpt>
      <trkpt lat="51.4817441" lon="9.1480835">
        <ele>160.3400001525879</ele>
        <hdop>5.0</hdop>
        <time>2013-07-09T18:36:38Z</time>
        <extensions>
          <speed>8.240972518920898</speed>
        </extensions>
      </trkpt>
      <trkpt lat="51.4819587" lon="9.1486014">
        <ele>164.3400001525879</ele>
        <hdop>5.0</hdop>
        <time>2013-07-09T18:36:43Z</time>
        <extensions>
          <speed>8.065980911254883</speed>
        </extensions>
      </trkpt>
      <trkpt lat="51.4821948" lon="9.149069">
        <ele>170.3400001525879</ele>
        <hdop>5.0</hdop>
        <time>2013-07-09T18:36:49Z</time>
        <extensions>
          <speed>6.375092029571533</speed>
        </extensions>
      </trkpt>
      <trkpt lat="51.4824237" lon="9.1495298">
        <ele>171.3400001525879</ele>
        <hdop>10.0</hdop>
        <time>2013-07-09T18:36:54Z</time>
        <extensions>
          <speed>5.9471917152404785</speed>
        </extensions>
      </trkpt>
      <trkpt lat="51.482697" lon="9.1500549">
        <ele>168.3400001525879</ele>
        <hdop>10.0</hdop>
        <time>2013-07-09T18:37:00Z</time>
        <extensions>
          <speed>6.990248203277588</speed>
        </extensions>
      </trkpt>
      <trkpt lat="51.4830975" lon="9.1505876">
        <ele>168.3400001525879</ele>
        <hdop>10.0</hdop>
        <time>2013-07-09T18:37:06Z</time>
        <extensions>
          <speed>7.73671293258667</speed>
        </extensions>
      </trkpt>
      <trkpt lat="51.4833997" lon="9.1503525">
        <ele>159.3400001525879</ele>
        <hdop>5.0</hdop>
        <time>2013-07-09T18:37:11Z</time>
        <extensions>
          <speed>7.293506622314453</speed>
        </extensions>
      </trkpt>
      <trkpt lat="51.4837181" lon="9.1499111">
        <ele>162.3400001525879</ele>
        <hdop>5.0</hdop>
        <time>2013-07-09T18:37:17Z</time>
        <extensions>
          <speed>7.894385814666748</speed>
        </extensions>
      </trkpt>
      <trkpt lat="51.4839173" lon="9.149423">
        <ele>162.3400001525879</ele>
        <hdop>10.0</hdop>
        <time>2013-07-09T18:37:22Z</time>
        <extensions>
          <speed>7.129976749420166</speed>
        </extensions>
      </trkpt>
      <trkpt lat="51.4839975" lon="9.1486024">
        <ele>158.3400001525879</ele>
        <hdop>5.0</hdop>
        <time>2013-07-09T18:37:28Z</time>
        <extensions>
          <speed>8.48121452331543</speed>
        </extensions>
      </trkpt>
      <trkpt lat="51.4842028" lon="9.14806">
        <ele>159.3400001525879</ele>
        <hdop>10.0</hdop>
        <time>2013-07-09T18:37:33Z</time>
        <extensions>
          <speed>8.403844833374023</speed>
        </extensions>
      </trkpt>
      <trkpt lat="51.4845218" lon="9.1476062">
        <ele>161.3400001525879</ele>
        <hdop>5.0</hdop>
        <time>2013-07-09T18:37:39Z</time>
        <extensions>
          <speed>7.611339569091797</speed>
        </extensions>
      </trkpt>
      <trkpt lat="51.4847736" lon="9.1473099">
        <ele>160.3400001525879</ele>
        <hdop>10.0</hdop>
        <time>2013-07-09T18:37:44Z</time>
        <extensions>
          <speed>6.103448867797852</speed>
        </extensions>
      </trkpt>
      <trkpt lat="51.4850625" lon="9.1470079">
        <ele>164.3400001525879</ele>
        <hdop>5.0</hdop>
        <time>2013-07-09T18:37:50Z</time>
        <extensions>
          <speed>3.7753024101257324</speed>
        </extensions>
      </trkpt>
      <trkpt lat="51.4851934" lon="9.1471851">
        <ele>156.3400001525879</ele>
        <hdop>10.0</hdop>
        <time>2013-07-09T18:37:55Z</time>
        <extensions>
          <speed>2.1160902976989746</speed>
        </extensions>
      </trkpt>
      <trkpt lat="51.4852392" lon="9.1471427">
        <ele>155.3400001525879</ele>
        <hdop>10.0</hdop>
        <time>2013-07-09T18:38:01Z</time>
      </trkpt>
      <trkpt lat="51.4852392" lon="9.1471427">
        <ele>155.3400001525879</ele>
        <hdop>15.0</hdop>
        <time>2013-07-09T18:38:06Z</time>
      </trkpt>
      <trkpt lat="51.4852392" lon="9.1471427">
        <ele>155.3400001525879</ele>
        <hdop>10.0</hdop>
        <time>2013-07-09T18:38:12Z</time>
      </trkpt>
      <trkpt lat="51.4852392" lon="9.1471427">
        <ele>155.3400001525879</ele>
        <hdop>15.0</hdop>
        <time>2013-07-09T18:38:17Z</time>
      </trkpt>
      <trkpt lat="51.4852392" lon="9.1471427">
        <ele>155.3400001525879</ele>
        <hdop>10.0</hdop>
        <time>2013-07-09T18:38:23Z</time>
      </trkpt>
      <trkpt lat="51.4852392" lon="9.1471427">
        <ele>155.3400001525879</ele>
        <hdop>5.0</hdop>
        <time>2013-07-09T18:38:28Z</time>
      </trkpt>
      <trkpt lat="51.4852392" lon="9.1471427">
        <ele>155.3400001525879</ele>
        <hdop>10.0</hdop>
        <time>2013-07-09T18:38:34Z</time>
      </trkpt>
      <trkpt lat="51.4852392" lon="9.1471427">
        <ele>155.3400001525879</ele>
        <hdop>20.0</hdop>
        <time>2013-07-09T18:38:39Z</time>
      </trkpt>
      <trkpt lat="51.4852392" lon="9.1471427">
        <ele>155.3400001525879</ele>
        <hdop>10.0</hdop>
        <time>2013-07-09T18:38:44Z</time>
      </trkpt>
      <trkpt lat="51.4852392" lon="9.1471427">
        <ele>155.3400001525879</ele>
        <hdop>10.0</hdop>
        <time>2013-07-09T18:38:50Z</time>
      </trkpt>
    </trkseg>
  </trk>
</gpx>